<?xml version="1.0" encoding="UTF-8" standalone="no" ?>
<gpx xmlns="http://www.topografix.com/GPX/1/1" xmlns:xsi="http://www.w3.org/2001/XMLSchema-instance" xsi:schemaLocation="http://www.topografix.com/GPX/1/1 http://www.topografix.com/GPX/1/1/gpx.xsd" version="1.1" creator="VisuGPX - https://www.visugpx.com">
  <metadata>
    <name>22,5 km boucle depuis le château de JAMBVILLE</name>
    <desc><![CDATA[22,5 km, boucle depuis le château de JAMBVILLE.
JAMBVILLE, AINCOURT, LAINVILLE en VEXIN.]]></desc>
  </metadata>
  <trk>
    <name><![CDATA[02-JUIL-22 06:02:40 PM]]></name>
    <trkseg>
      <trkpt lat="49.04647" lon="1.85224">
        <ele>124.3</ele>
        <time>2022-07-02T08:27:09Z</time>
      </trkpt>
      <trkpt lat="49.04647" lon="1.85224">
        <ele>124.3</ele>
        <time>2022-07-02T08:27:19Z</time>
      </trkpt>
      <trkpt lat="49.04647" lon="1.85224">
        <ele>124.3</ele>
        <time>2022-07-02T08:27:22Z</time>
      </trkpt>
      <trkpt lat="49.04648" lon="1.85224">
        <ele>124.3</ele>
        <time>2022-07-02T08:27:26Z</time>
      </trkpt>
      <trkpt lat="49.04649" lon="1.85225">
        <ele>124.4</ele>
        <time>2022-07-02T08:27:31Z</time>
      </trkpt>
      <trkpt lat="49.04654" lon="1.85229">
        <ele>124.5</ele>
        <time>2022-07-02T08:27:38Z</time>
      </trkpt>
      <trkpt lat="49.04657" lon="1.85235">
        <ele>124.6</ele>
        <time>2022-07-02T08:27:45Z</time>
      </trkpt>
      <trkpt lat="49.04656" lon="1.85235">
        <ele>124.6</ele>
        <time>2022-07-02T08:27:52Z</time>
      </trkpt>
      <trkpt lat="49.04656" lon="1.85234">
        <ele>124.6</ele>
        <time>2022-07-02T08:28:03Z</time>
      </trkpt>
      <trkpt lat="49.04656" lon="1.85234">
        <ele>124.6</ele>
        <time>2022-07-02T08:28:14Z</time>
      </trkpt>
      <trkpt lat="49.04657" lon="1.85233">
        <ele>124.6</ele>
        <time>2022-07-02T08:28:27Z</time>
      </trkpt>
      <trkpt lat="49.04657" lon="1.85233">
        <ele>124.6</ele>
        <time>2022-07-02T08:28:35Z</time>
      </trkpt>
      <trkpt lat="49.04657" lon="1.85234">
        <ele>124.6</ele>
        <time>2022-07-02T08:28:45Z</time>
      </trkpt>
      <trkpt lat="49.04657" lon="1.85235">
        <ele>124.7</ele>
        <time>2022-07-02T08:28:55Z</time>
      </trkpt>
      <trkpt lat="49.04656" lon="1.85236">
        <ele>124.6</ele>
        <time>2022-07-02T08:29:01Z</time>
      </trkpt>
      <trkpt lat="49.04657" lon="1.85236">
        <ele>124.7</ele>
        <time>2022-07-02T08:29:09Z</time>
      </trkpt>
      <trkpt lat="49.04659" lon="1.85239">
        <ele>124.7</ele>
        <time>2022-07-02T08:29:16Z</time>
      </trkpt>
      <trkpt lat="49.0466" lon="1.85241">
        <ele>124.8</ele>
        <time>2022-07-02T08:29:25Z</time>
      </trkpt>
      <trkpt lat="49.0466" lon="1.85241">
        <ele>124.8</ele>
        <time>2022-07-02T08:29:34Z</time>
      </trkpt>
      <trkpt lat="49.0466" lon="1.85239">
        <ele>124.8</ele>
        <time>2022-07-02T08:29:43Z</time>
      </trkpt>
      <trkpt lat="49.04661" lon="1.85238">
        <ele>124.8</ele>
        <time>2022-07-02T08:29:51Z</time>
      </trkpt>
      <trkpt lat="49.0466" lon="1.85236">
        <ele>124.8</ele>
        <time>2022-07-02T08:29:57Z</time>
      </trkpt>
      <trkpt lat="49.04661" lon="1.85232">
        <ele>124.8</ele>
        <time>2022-07-02T08:30:03Z</time>
      </trkpt>
      <trkpt lat="49.04659" lon="1.85226">
        <ele>124.7</ele>
        <time>2022-07-02T08:30:11Z</time>
      </trkpt>
      <trkpt lat="49.04657" lon="1.8522">
        <ele>124.7</ele>
        <time>2022-07-02T08:30:18Z</time>
      </trkpt>
      <trkpt lat="49.04655" lon="1.85215">
        <ele>124.8</ele>
        <time>2022-07-02T08:30:24Z</time>
      </trkpt>
      <trkpt lat="49.04654" lon="1.85212">
        <ele>124.9</ele>
        <time>2022-07-02T08:30:28Z</time>
      </trkpt>
      <trkpt lat="49.0465" lon="1.85202">
        <ele>125.1</ele>
        <time>2022-07-02T08:30:37Z</time>
      </trkpt>
      <trkpt lat="49.04645" lon="1.85192">
        <ele>125.2</ele>
        <time>2022-07-02T08:30:45Z</time>
      </trkpt>
      <trkpt lat="49.04643" lon="1.85183">
        <ele>125.2</ele>
        <time>2022-07-02T08:30:53Z</time>
      </trkpt>
      <trkpt lat="49.04642" lon="1.85177">
        <ele>125.1</ele>
        <time>2022-07-02T08:31:01Z</time>
      </trkpt>
      <trkpt lat="49.04643" lon="1.85176">
        <ele>125.1</ele>
        <time>2022-07-02T08:31:02Z</time>
      </trkpt>
      <trkpt lat="49.04645" lon="1.85164">
        <ele>125.3</ele>
        <time>2022-07-02T08:31:09Z</time>
      </trkpt>
      <trkpt lat="49.04645" lon="1.85155">
        <ele>125.6</ele>
        <time>2022-07-02T08:31:14Z</time>
      </trkpt>
      <trkpt lat="49.04646" lon="1.85142">
        <ele>125.9</ele>
        <time>2022-07-02T08:31:22Z</time>
      </trkpt>
      <trkpt lat="49.04648" lon="1.85135">
        <ele>126</ele>
        <time>2022-07-02T08:31:29Z</time>
      </trkpt>
      <trkpt lat="49.04647" lon="1.85132">
        <ele>126.1</ele>
        <time>2022-07-02T08:31:32Z</time>
      </trkpt>
      <trkpt lat="49.04648" lon="1.85133">
        <ele>126.1</ele>
        <time>2022-07-02T08:31:38Z</time>
      </trkpt>
      <trkpt lat="49.04648" lon="1.85133">
        <ele>126.1</ele>
        <time>2022-07-02T08:31:48Z</time>
      </trkpt>
      <trkpt lat="49.04648" lon="1.85133">
        <ele>126.1</ele>
        <time>2022-07-02T08:32:02Z</time>
      </trkpt>
      <trkpt lat="49.04647" lon="1.85133">
        <ele>126.1</ele>
        <time>2022-07-02T08:32:13Z</time>
      </trkpt>
      <trkpt lat="49.04654" lon="1.85127">
        <ele>126.2</ele>
        <time>2022-07-02T08:32:20Z</time>
      </trkpt>
      <trkpt lat="49.04664" lon="1.85118">
        <ele>126.7</ele>
        <time>2022-07-02T08:32:28Z</time>
      </trkpt>
      <trkpt lat="49.04673" lon="1.85108">
        <ele>127</ele>
        <time>2022-07-02T08:32:36Z</time>
      </trkpt>
      <trkpt lat="49.04682" lon="1.85097">
        <ele>127.3</ele>
        <time>2022-07-02T08:32:44Z</time>
      </trkpt>
      <trkpt lat="49.04693" lon="1.85079">
        <ele>127.9</ele>
        <time>2022-07-02T08:32:54Z</time>
      </trkpt>
      <trkpt lat="49.047" lon="1.85058">
        <ele>128</ele>
        <time>2022-07-02T08:33:04Z</time>
      </trkpt>
      <trkpt lat="49.04705" lon="1.85042">
        <ele>128.2</ele>
        <time>2022-07-02T08:33:12Z</time>
      </trkpt>
      <trkpt lat="49.04711" lon="1.85024">
        <ele>128.7</ele>
        <time>2022-07-02T08:33:21Z</time>
      </trkpt>
      <trkpt lat="49.04717" lon="1.8501">
        <ele>129.3</ele>
        <time>2022-07-02T08:33:29Z</time>
      </trkpt>
      <trkpt lat="49.04722" lon="1.84995">
        <ele>130.1</ele>
        <time>2022-07-02T08:33:38Z</time>
      </trkpt>
      <trkpt lat="49.04724" lon="1.84978">
        <ele>130.9</ele>
        <time>2022-07-02T08:33:47Z</time>
      </trkpt>
      <trkpt lat="49.0472" lon="1.84963">
        <ele>131.2</ele>
        <time>2022-07-02T08:33:55Z</time>
      </trkpt>
      <trkpt lat="49.04717" lon="1.84956">
        <ele>131.4</ele>
        <time>2022-07-02T08:34:00Z</time>
      </trkpt>
      <trkpt lat="49.04713" lon="1.8494">
        <ele>132</ele>
        <time>2022-07-02T08:34:10Z</time>
      </trkpt>
      <trkpt lat="49.0471" lon="1.8493">
        <ele>132.4</ele>
        <time>2022-07-02T08:34:16Z</time>
      </trkpt>
      <trkpt lat="49.04707" lon="1.84916">
        <ele>132.9</ele>
        <time>2022-07-02T08:34:24Z</time>
      </trkpt>
      <trkpt lat="49.04702" lon="1.84899">
        <ele>133.9</ele>
        <time>2022-07-02T08:34:34Z</time>
      </trkpt>
      <trkpt lat="49.04701" lon="1.84882">
        <ele>134.8</ele>
        <time>2022-07-02T08:34:43Z</time>
      </trkpt>
      <trkpt lat="49.04701" lon="1.84866">
        <ele>135.5</ele>
        <time>2022-07-02T08:34:51Z</time>
      </trkpt>
      <trkpt lat="49.04706" lon="1.84852">
        <ele>137</ele>
        <time>2022-07-02T08:34:59Z</time>
      </trkpt>
      <trkpt lat="49.04711" lon="1.84843">
        <ele>138.4</ele>
        <time>2022-07-02T08:35:07Z</time>
      </trkpt>
      <trkpt lat="49.04718" lon="1.84832">
        <ele>139.8</ele>
        <time>2022-07-02T08:35:16Z</time>
      </trkpt>
      <trkpt lat="49.04723" lon="1.84824">
        <ele>140.4</ele>
        <time>2022-07-02T08:35:22Z</time>
      </trkpt>
      <trkpt lat="49.0473" lon="1.84812">
        <ele>141.1</ele>
        <time>2022-07-02T08:35:32Z</time>
      </trkpt>
      <trkpt lat="49.04737" lon="1.84801">
        <ele>141.7</ele>
        <time>2022-07-02T08:35:41Z</time>
      </trkpt>
      <trkpt lat="49.04743" lon="1.84789">
        <ele>142.3</ele>
        <time>2022-07-02T08:35:49Z</time>
      </trkpt>
      <trkpt lat="49.04744" lon="1.84786">
        <ele>142.5</ele>
        <time>2022-07-02T08:35:51Z</time>
      </trkpt>
      <trkpt lat="49.0475" lon="1.84773">
        <ele>143.3</ele>
        <time>2022-07-02T08:35:59Z</time>
      </trkpt>
      <trkpt lat="49.04754" lon="1.84764">
        <ele>144.2</ele>
        <time>2022-07-02T08:36:05Z</time>
      </trkpt>
      <trkpt lat="49.04759" lon="1.84749">
        <ele>145.3</ele>
        <time>2022-07-02T08:36:14Z</time>
      </trkpt>
      <trkpt lat="49.04763" lon="1.84745">
        <ele>145.5</ele>
        <time>2022-07-02T08:36:18Z</time>
      </trkpt>
      <trkpt lat="49.04772" lon="1.84738">
        <ele>146.1</ele>
        <time>2022-07-02T08:36:27Z</time>
      </trkpt>
      <trkpt lat="49.04781" lon="1.84737">
        <ele>146.7</ele>
        <time>2022-07-02T08:36:35Z</time>
      </trkpt>
      <trkpt lat="49.0479" lon="1.84736">
        <ele>147.2</ele>
        <time>2022-07-02T08:36:42Z</time>
      </trkpt>
      <trkpt lat="49.04797" lon="1.84737">
        <ele>147.5</ele>
        <time>2022-07-02T08:36:49Z</time>
      </trkpt>
      <trkpt lat="49.04804" lon="1.84739">
        <ele>147.9</ele>
        <time>2022-07-02T08:36:55Z</time>
      </trkpt>
      <trkpt lat="49.04811" lon="1.84735">
        <ele>148.3</ele>
        <time>2022-07-02T08:37:01Z</time>
      </trkpt>
      <trkpt lat="49.04818" lon="1.84733">
        <ele>148.7</ele>
        <time>2022-07-02T08:37:06Z</time>
      </trkpt>
      <trkpt lat="49.0482" lon="1.84733">
        <ele>148.9</ele>
        <time>2022-07-02T08:37:08Z</time>
      </trkpt>
      <trkpt lat="49.04829" lon="1.84733">
        <ele>149.3</ele>
        <time>2022-07-02T08:37:15Z</time>
      </trkpt>
      <trkpt lat="49.04839" lon="1.84731">
        <ele>150.1</ele>
        <time>2022-07-02T08:37:23Z</time>
      </trkpt>
      <trkpt lat="49.04845" lon="1.84732">
        <ele>150.5</ele>
        <time>2022-07-02T08:37:27Z</time>
      </trkpt>
      <trkpt lat="49.04857" lon="1.84732">
        <ele>151.3</ele>
        <time>2022-07-02T08:37:37Z</time>
      </trkpt>
      <trkpt lat="49.04867" lon="1.84732">
        <ele>152</ele>
        <time>2022-07-02T08:37:45Z</time>
      </trkpt>
      <trkpt lat="49.04872" lon="1.84732">
        <ele>152.3</ele>
        <time>2022-07-02T08:37:49Z</time>
      </trkpt>
      <trkpt lat="49.04882" lon="1.8473">
        <ele>153</ele>
        <time>2022-07-02T08:37:57Z</time>
      </trkpt>
      <trkpt lat="49.04889" lon="1.84728">
        <ele>153.6</ele>
        <time>2022-07-02T08:38:03Z</time>
      </trkpt>
      <trkpt lat="49.049" lon="1.84725">
        <ele>153.8</ele>
        <time>2022-07-02T08:38:11Z</time>
      </trkpt>
      <trkpt lat="49.04906" lon="1.8472">
        <ele>154.1</ele>
        <time>2022-07-02T08:38:17Z</time>
      </trkpt>
      <trkpt lat="49.04912" lon="1.84709">
        <ele>154.5</ele>
        <time>2022-07-02T08:38:25Z</time>
      </trkpt>
      <trkpt lat="49.04914" lon="1.84696">
        <ele>155</ele>
        <time>2022-07-02T08:38:32Z</time>
      </trkpt>
      <trkpt lat="49.04916" lon="1.84687">
        <ele>155.3</ele>
        <time>2022-07-02T08:38:37Z</time>
      </trkpt>
      <trkpt lat="49.04917" lon="1.84676">
        <ele>155.7</ele>
        <time>2022-07-02T08:38:44Z</time>
      </trkpt>
      <trkpt lat="49.04918" lon="1.84675">
        <ele>155.7</ele>
        <time>2022-07-02T08:38:45Z</time>
      </trkpt>
      <trkpt lat="49.04921" lon="1.84666">
        <ele>156</ele>
        <time>2022-07-02T08:38:50Z</time>
      </trkpt>
      <trkpt lat="49.04923" lon="1.84658">
        <ele>156.5</ele>
        <time>2022-07-02T08:38:54Z</time>
      </trkpt>
      <trkpt lat="49.04926" lon="1.8465">
        <ele>157</ele>
        <time>2022-07-02T08:38:59Z</time>
      </trkpt>
      <trkpt lat="49.04929" lon="1.84638">
        <ele>157.6</ele>
        <time>2022-07-02T08:39:07Z</time>
      </trkpt>
      <trkpt lat="49.04929" lon="1.84633">
        <ele>157.8</ele>
        <time>2022-07-02T08:39:13Z</time>
      </trkpt>
      <trkpt lat="49.0493" lon="1.84623">
        <ele>158.4</ele>
        <time>2022-07-02T08:39:19Z</time>
      </trkpt>
      <trkpt lat="49.04928" lon="1.84603">
        <ele>159.3</ele>
        <time>2022-07-02T08:39:29Z</time>
      </trkpt>
      <trkpt lat="49.04927" lon="1.84587">
        <ele>159.9</ele>
        <time>2022-07-02T08:39:37Z</time>
      </trkpt>
      <trkpt lat="49.04925" lon="1.8458">
        <ele>160.1</ele>
        <time>2022-07-02T08:39:41Z</time>
      </trkpt>
      <trkpt lat="49.04924" lon="1.8457">
        <ele>160.5</ele>
        <time>2022-07-02T08:39:46Z</time>
      </trkpt>
      <trkpt lat="49.04923" lon="1.84557">
        <ele>161</ele>
        <time>2022-07-02T08:39:53Z</time>
      </trkpt>
      <trkpt lat="49.0492" lon="1.84541">
        <ele>161.5</ele>
        <time>2022-07-02T08:40:01Z</time>
      </trkpt>
      <trkpt lat="49.0492" lon="1.84524">
        <ele>162.1</ele>
        <time>2022-07-02T08:40:10Z</time>
      </trkpt>
      <trkpt lat="49.04921" lon="1.84512">
        <ele>162.6</ele>
        <time>2022-07-02T08:40:17Z</time>
      </trkpt>
      <trkpt lat="49.04921" lon="1.84498">
        <ele>163.2</ele>
        <time>2022-07-02T08:40:25Z</time>
      </trkpt>
      <trkpt lat="49.04921" lon="1.84482">
        <ele>163.8</ele>
        <time>2022-07-02T08:40:34Z</time>
      </trkpt>
      <trkpt lat="49.04921" lon="1.8448">
        <ele>163.9</ele>
        <time>2022-07-02T08:40:35Z</time>
      </trkpt>
      <trkpt lat="49.04921" lon="1.84467">
        <ele>164.5</ele>
        <time>2022-07-02T08:40:41Z</time>
      </trkpt>
      <trkpt lat="49.0492" lon="1.84451">
        <ele>165.7</ele>
        <time>2022-07-02T08:40:50Z</time>
      </trkpt>
      <trkpt lat="49.0492" lon="1.84437">
        <ele>166.7</ele>
        <time>2022-07-02T08:40:58Z</time>
      </trkpt>
      <trkpt lat="49.04919" lon="1.8443">
        <ele>167.1</ele>
        <time>2022-07-02T08:41:01Z</time>
      </trkpt>
      <trkpt lat="49.04918" lon="1.84411">
        <ele>168.2</ele>
        <time>2022-07-02T08:41:11Z</time>
      </trkpt>
      <trkpt lat="49.04917" lon="1.84401">
        <ele>168.6</ele>
        <time>2022-07-02T08:41:17Z</time>
      </trkpt>
      <trkpt lat="49.04916" lon="1.84386">
        <ele>169.2</ele>
        <time>2022-07-02T08:41:25Z</time>
      </trkpt>
      <trkpt lat="49.04917" lon="1.84381">
        <ele>169.6</ele>
        <time>2022-07-02T08:41:28Z</time>
      </trkpt>
      <trkpt lat="49.04919" lon="1.84375">
        <ele>170.2</ele>
        <time>2022-07-02T08:41:32Z</time>
      </trkpt>
      <trkpt lat="49.04922" lon="1.84371">
        <ele>170.8</ele>
        <time>2022-07-02T08:41:40Z</time>
      </trkpt>
      <trkpt lat="49.04922" lon="1.84371">
        <ele>170.8</ele>
        <time>2022-07-02T08:41:52Z</time>
      </trkpt>
      <trkpt lat="49.04923" lon="1.8437">
        <ele>170.9</ele>
        <time>2022-07-02T08:41:58Z</time>
      </trkpt>
      <trkpt lat="49.0493" lon="1.84372">
        <ele>171.5</ele>
        <time>2022-07-02T08:42:05Z</time>
      </trkpt>
      <trkpt lat="49.04939" lon="1.84373">
        <ele>172.2</ele>
        <time>2022-07-02T08:42:14Z</time>
      </trkpt>
      <trkpt lat="49.04941" lon="1.84373">
        <ele>172.3</ele>
        <time>2022-07-02T08:42:16Z</time>
      </trkpt>
      <trkpt lat="49.04943" lon="1.84374">
        <ele>172.5</ele>
        <time>2022-07-02T08:42:18Z</time>
      </trkpt>
      <trkpt lat="49.0495" lon="1.84378">
        <ele>172.7</ele>
        <time>2022-07-02T08:42:26Z</time>
      </trkpt>
      <trkpt lat="49.04956" lon="1.84377">
        <ele>173.3</ele>
        <time>2022-07-02T08:42:33Z</time>
      </trkpt>
      <trkpt lat="49.04964" lon="1.84383">
        <ele>173.6</ele>
        <time>2022-07-02T08:42:41Z</time>
      </trkpt>
      <trkpt lat="49.04972" lon="1.84387">
        <ele>174.1</ele>
        <time>2022-07-02T08:42:49Z</time>
      </trkpt>
      <trkpt lat="49.04979" lon="1.8439">
        <ele>174.6</ele>
        <time>2022-07-02T08:42:56Z</time>
      </trkpt>
      <trkpt lat="49.04984" lon="1.84391">
        <ele>175</ele>
        <time>2022-07-02T08:43:02Z</time>
      </trkpt>
      <trkpt lat="49.04991" lon="1.84393">
        <ele>175.5</ele>
        <time>2022-07-02T08:43:09Z</time>
      </trkpt>
      <trkpt lat="49.04999" lon="1.84393">
        <ele>176.3</ele>
        <time>2022-07-02T08:43:16Z</time>
      </trkpt>
      <trkpt lat="49.05008" lon="1.84395">
        <ele>176.7</ele>
        <time>2022-07-02T08:43:22Z</time>
      </trkpt>
      <trkpt lat="49.05012" lon="1.84397">
        <ele>176.8</ele>
        <time>2022-07-02T08:43:27Z</time>
      </trkpt>
      <trkpt lat="49.05016" lon="1.84399">
        <ele>177</ele>
        <time>2022-07-02T08:43:30Z</time>
      </trkpt>
      <trkpt lat="49.05024" lon="1.84396">
        <ele>177.9</ele>
        <time>2022-07-02T08:43:37Z</time>
      </trkpt>
      <trkpt lat="49.05032" lon="1.84393">
        <ele>178.5</ele>
        <time>2022-07-02T08:43:43Z</time>
      </trkpt>
      <trkpt lat="49.05038" lon="1.84391">
        <ele>178.8</ele>
        <time>2022-07-02T08:43:48Z</time>
      </trkpt>
      <trkpt lat="49.05044" lon="1.84388">
        <ele>179.1</ele>
        <time>2022-07-02T08:43:55Z</time>
      </trkpt>
      <trkpt lat="49.05054" lon="1.84385">
        <ele>179.3</ele>
        <time>2022-07-02T08:44:04Z</time>
      </trkpt>
      <trkpt lat="49.0506" lon="1.84382">
        <ele>179.5</ele>
        <time>2022-07-02T08:44:12Z</time>
      </trkpt>
      <trkpt lat="49.05069" lon="1.84377">
        <ele>179.8</ele>
        <time>2022-07-02T08:44:19Z</time>
      </trkpt>
      <trkpt lat="49.0508" lon="1.84375">
        <ele>180</ele>
        <time>2022-07-02T08:44:26Z</time>
      </trkpt>
      <trkpt lat="49.05089" lon="1.84377">
        <ele>179.9</ele>
        <time>2022-07-02T08:44:33Z</time>
      </trkpt>
      <trkpt lat="49.05096" lon="1.84372">
        <ele>180.2</ele>
        <time>2022-07-02T08:44:40Z</time>
      </trkpt>
      <trkpt lat="49.05108" lon="1.84368">
        <ele>180.5</ele>
        <time>2022-07-02T08:44:48Z</time>
      </trkpt>
      <trkpt lat="49.05115" lon="1.84367">
        <ele>180.3</ele>
        <time>2022-07-02T08:44:54Z</time>
      </trkpt>
      <trkpt lat="49.05124" lon="1.84365">
        <ele>179.8</ele>
        <time>2022-07-02T08:45:02Z</time>
      </trkpt>
      <trkpt lat="49.05128" lon="1.84364">
        <ele>179.6</ele>
        <time>2022-07-02T08:45:08Z</time>
      </trkpt>
      <trkpt lat="49.05132" lon="1.8436">
        <ele>179.5</ele>
        <time>2022-07-02T08:45:14Z</time>
      </trkpt>
      <trkpt lat="49.05144" lon="1.84355">
        <ele>179.4</ele>
        <time>2022-07-02T08:45:23Z</time>
      </trkpt>
      <trkpt lat="49.05152" lon="1.84352">
        <ele>179.7</ele>
        <time>2022-07-02T08:45:31Z</time>
      </trkpt>
      <trkpt lat="49.0516" lon="1.84349">
        <ele>179.9</ele>
        <time>2022-07-02T08:45:39Z</time>
      </trkpt>
      <trkpt lat="49.0517" lon="1.8434">
        <ele>180.3</ele>
        <time>2022-07-02T08:45:48Z</time>
      </trkpt>
      <trkpt lat="49.05177" lon="1.84333">
        <ele>180.2</ele>
        <time>2022-07-02T08:45:55Z</time>
      </trkpt>
      <trkpt lat="49.05185" lon="1.84329">
        <ele>180</ele>
        <time>2022-07-02T08:46:02Z</time>
      </trkpt>
      <trkpt lat="49.05191" lon="1.84323">
        <ele>179.9</ele>
        <time>2022-07-02T08:46:08Z</time>
      </trkpt>
      <trkpt lat="49.05197" lon="1.84317">
        <ele>180.1</ele>
        <time>2022-07-02T08:46:15Z</time>
      </trkpt>
      <trkpt lat="49.05205" lon="1.84311">
        <ele>180.2</ele>
        <time>2022-07-02T08:46:23Z</time>
      </trkpt>
      <trkpt lat="49.05209" lon="1.84309">
        <ele>180.3</ele>
        <time>2022-07-02T08:46:29Z</time>
      </trkpt>
      <trkpt lat="49.05216" lon="1.84304">
        <ele>180.3</ele>
        <time>2022-07-02T08:46:35Z</time>
      </trkpt>
      <trkpt lat="49.05222" lon="1.84296">
        <ele>180.3</ele>
        <time>2022-07-02T08:46:40Z</time>
      </trkpt>
      <trkpt lat="49.05226" lon="1.84293">
        <ele>180.4</ele>
        <time>2022-07-02T08:46:42Z</time>
      </trkpt>
      <trkpt lat="49.05234" lon="1.84286">
        <ele>180.7</ele>
        <time>2022-07-02T08:46:49Z</time>
      </trkpt>
      <trkpt lat="49.05239" lon="1.84281">
        <ele>180.9</ele>
        <time>2022-07-02T08:46:53Z</time>
      </trkpt>
      <trkpt lat="49.05243" lon="1.84272">
        <ele>181</ele>
        <time>2022-07-02T08:47:00Z</time>
      </trkpt>
      <trkpt lat="49.05252" lon="1.84266">
        <ele>181</ele>
        <time>2022-07-02T08:47:07Z</time>
      </trkpt>
      <trkpt lat="49.05253" lon="1.84264">
        <ele>180.9</ele>
        <time>2022-07-02T08:47:09Z</time>
      </trkpt>
      <trkpt lat="49.05266" lon="1.84257">
        <ele>180.9</ele>
        <time>2022-07-02T08:47:18Z</time>
      </trkpt>
      <trkpt lat="49.05275" lon="1.84256">
        <ele>180.8</ele>
        <time>2022-07-02T08:47:24Z</time>
      </trkpt>
      <trkpt lat="49.05285" lon="1.84256">
        <ele>180.8</ele>
        <time>2022-07-02T08:47:32Z</time>
      </trkpt>
      <trkpt lat="49.05289" lon="1.84255">
        <ele>180.8</ele>
        <time>2022-07-02T08:47:38Z</time>
      </trkpt>
      <trkpt lat="49.0529" lon="1.84255">
        <ele>180.8</ele>
        <time>2022-07-02T08:47:39Z</time>
      </trkpt>
      <trkpt lat="49.05298" lon="1.84251">
        <ele>181</ele>
        <time>2022-07-02T08:47:45Z</time>
      </trkpt>
      <trkpt lat="49.05309" lon="1.84248">
        <ele>181</ele>
        <time>2022-07-02T08:47:53Z</time>
      </trkpt>
      <trkpt lat="49.05318" lon="1.84246">
        <ele>181</ele>
        <time>2022-07-02T08:48:00Z</time>
      </trkpt>
      <trkpt lat="49.05326" lon="1.84245">
        <ele>181</ele>
        <time>2022-07-02T08:48:08Z</time>
      </trkpt>
      <trkpt lat="49.05334" lon="1.84243">
        <ele>181</ele>
        <time>2022-07-02T08:48:16Z</time>
      </trkpt>
      <trkpt lat="49.05339" lon="1.84242">
        <ele>180.9</ele>
        <time>2022-07-02T08:48:22Z</time>
      </trkpt>
      <trkpt lat="49.05343" lon="1.84243">
        <ele>180.9</ele>
        <time>2022-07-02T08:48:24Z</time>
      </trkpt>
      <trkpt lat="49.05353" lon="1.84245">
        <ele>180.9</ele>
        <time>2022-07-02T08:48:30Z</time>
      </trkpt>
      <trkpt lat="49.05359" lon="1.84244">
        <ele>180.8</ele>
        <time>2022-07-02T08:48:36Z</time>
      </trkpt>
      <trkpt lat="49.05365" lon="1.84244">
        <ele>180.7</ele>
        <time>2022-07-02T08:48:40Z</time>
      </trkpt>
      <trkpt lat="49.05375" lon="1.84247">
        <ele>180.4</ele>
        <time>2022-07-02T08:48:48Z</time>
      </trkpt>
      <trkpt lat="49.05383" lon="1.84246">
        <ele>180.2</ele>
        <time>2022-07-02T08:48:56Z</time>
      </trkpt>
      <trkpt lat="49.05394" lon="1.84248">
        <ele>179.8</ele>
        <time>2022-07-02T08:49:04Z</time>
      </trkpt>
      <trkpt lat="49.05405" lon="1.8425">
        <ele>179.4</ele>
        <time>2022-07-02T08:49:12Z</time>
      </trkpt>
      <trkpt lat="49.05412" lon="1.84251">
        <ele>179.1</ele>
        <time>2022-07-02T08:49:18Z</time>
      </trkpt>
      <trkpt lat="49.05419" lon="1.84251">
        <ele>178.9</ele>
        <time>2022-07-02T08:49:24Z</time>
      </trkpt>
      <trkpt lat="49.05428" lon="1.84253">
        <ele>178.5</ele>
        <time>2022-07-02T08:49:31Z</time>
      </trkpt>
      <trkpt lat="49.05437" lon="1.84255">
        <ele>178.1</ele>
        <time>2022-07-02T08:49:37Z</time>
      </trkpt>
      <trkpt lat="49.05446" lon="1.84256">
        <ele>177.8</ele>
        <time>2022-07-02T08:49:43Z</time>
      </trkpt>
      <trkpt lat="49.0545" lon="1.84255">
        <ele>178</ele>
        <time>2022-07-02T08:49:49Z</time>
      </trkpt>
      <trkpt lat="49.0546" lon="1.84259">
        <ele>178.3</ele>
        <time>2022-07-02T08:49:55Z</time>
      </trkpt>
      <trkpt lat="49.05463" lon="1.84258">
        <ele>178.4</ele>
        <time>2022-07-02T08:49:57Z</time>
      </trkpt>
      <trkpt lat="49.05468" lon="1.84258">
        <ele>178.6</ele>
        <time>2022-07-02T08:50:04Z</time>
      </trkpt>
      <trkpt lat="49.05471" lon="1.84259">
        <ele>178.6</ele>
        <time>2022-07-02T08:50:10Z</time>
      </trkpt>
      <trkpt lat="49.05482" lon="1.8426">
        <ele>179</ele>
        <time>2022-07-02T08:50:18Z</time>
      </trkpt>
      <trkpt lat="49.0549" lon="1.84263">
        <ele>179.2</ele>
        <time>2022-07-02T08:50:25Z</time>
      </trkpt>
      <trkpt lat="49.05499" lon="1.84264">
        <ele>179.4</ele>
        <time>2022-07-02T08:50:33Z</time>
      </trkpt>
      <trkpt lat="49.05506" lon="1.84265">
        <ele>179.6</ele>
        <time>2022-07-02T08:50:40Z</time>
      </trkpt>
      <trkpt lat="49.05515" lon="1.84267">
        <ele>179.7</ele>
        <time>2022-07-02T08:50:46Z</time>
      </trkpt>
      <trkpt lat="49.05525" lon="1.84267">
        <ele>179.9</ele>
        <time>2022-07-02T08:50:54Z</time>
      </trkpt>
      <trkpt lat="49.05529" lon="1.84265">
        <ele>180</ele>
        <time>2022-07-02T08:51:03Z</time>
      </trkpt>
      <trkpt lat="49.05535" lon="1.84259">
        <ele>180.3</ele>
        <time>2022-07-02T08:51:10Z</time>
      </trkpt>
      <trkpt lat="49.05539" lon="1.84255">
        <ele>180.4</ele>
        <time>2022-07-02T08:51:18Z</time>
      </trkpt>
      <trkpt lat="49.05541" lon="1.84253">
        <ele>180.5</ele>
        <time>2022-07-02T08:51:24Z</time>
      </trkpt>
      <trkpt lat="49.05542" lon="1.84251">
        <ele>180.5</ele>
        <time>2022-07-02T08:51:38Z</time>
      </trkpt>
      <trkpt lat="49.05544" lon="1.84252">
        <ele>180.6</ele>
        <time>2022-07-02T08:51:45Z</time>
      </trkpt>
      <trkpt lat="49.05546" lon="1.84254">
        <ele>180.7</ele>
        <time>2022-07-02T08:51:49Z</time>
      </trkpt>
      <trkpt lat="49.0555" lon="1.84257">
        <ele>180.8</ele>
        <time>2022-07-02T08:51:53Z</time>
      </trkpt>
      <trkpt lat="49.05553" lon="1.84259">
        <ele>180.9</ele>
        <time>2022-07-02T08:51:56Z</time>
      </trkpt>
      <trkpt lat="49.05558" lon="1.84267">
        <ele>181.2</ele>
        <time>2022-07-02T08:52:04Z</time>
      </trkpt>
      <trkpt lat="49.05564" lon="1.84276">
        <ele>181.6</ele>
        <time>2022-07-02T08:52:11Z</time>
      </trkpt>
      <trkpt lat="49.05568" lon="1.84279">
        <ele>181.9</ele>
        <time>2022-07-02T08:52:17Z</time>
      </trkpt>
      <trkpt lat="49.05571" lon="1.84281">
        <ele>182</ele>
        <time>2022-07-02T08:52:19Z</time>
      </trkpt>
      <trkpt lat="49.05575" lon="1.84287">
        <ele>182.1</ele>
        <time>2022-07-02T08:52:23Z</time>
      </trkpt>
      <trkpt lat="49.05579" lon="1.84293">
        <ele>182.1</ele>
        <time>2022-07-02T08:52:26Z</time>
      </trkpt>
      <trkpt lat="49.05588" lon="1.84301">
        <ele>182.5</ele>
        <time>2022-07-02T08:52:33Z</time>
      </trkpt>
      <trkpt lat="49.0559" lon="1.84305">
        <ele>182.5</ele>
        <time>2022-07-02T08:52:39Z</time>
      </trkpt>
      <trkpt lat="49.05597" lon="1.84312">
        <ele>182.6</ele>
        <time>2022-07-02T08:52:47Z</time>
      </trkpt>
      <trkpt lat="49.05598" lon="1.84313">
        <ele>182.6</ele>
        <time>2022-07-02T08:52:48Z</time>
      </trkpt>
      <trkpt lat="49.05607" lon="1.84321">
        <ele>183.1</ele>
        <time>2022-07-02T08:52:55Z</time>
      </trkpt>
      <trkpt lat="49.05613" lon="1.84327">
        <ele>183.4</ele>
        <time>2022-07-02T08:53:02Z</time>
      </trkpt>
      <trkpt lat="49.05621" lon="1.84335">
        <ele>183.6</ele>
        <time>2022-07-02T08:53:10Z</time>
      </trkpt>
      <trkpt lat="49.05632" lon="1.84344">
        <ele>184.1</ele>
        <time>2022-07-02T08:53:18Z</time>
      </trkpt>
      <trkpt lat="49.05635" lon="1.84345">
        <ele>184.3</ele>
        <time>2022-07-02T08:53:24Z</time>
      </trkpt>
      <trkpt lat="49.05638" lon="1.84347">
        <ele>184.4</ele>
        <time>2022-07-02T08:53:31Z</time>
      </trkpt>
      <trkpt lat="49.05642" lon="1.84351">
        <ele>184.5</ele>
        <time>2022-07-02T08:53:38Z</time>
      </trkpt>
      <trkpt lat="49.05653" lon="1.84357">
        <ele>184.6</ele>
        <time>2022-07-02T08:53:45Z</time>
      </trkpt>
      <trkpt lat="49.0566" lon="1.8436">
        <ele>184.8</ele>
        <time>2022-07-02T08:53:52Z</time>
      </trkpt>
      <trkpt lat="49.05672" lon="1.84366">
        <ele>185</ele>
        <time>2022-07-02T08:54:00Z</time>
      </trkpt>
      <trkpt lat="49.05674" lon="1.84369">
        <ele>185</ele>
        <time>2022-07-02T08:54:01Z</time>
      </trkpt>
      <trkpt lat="49.0568" lon="1.84374">
        <ele>185</ele>
        <time>2022-07-02T08:54:04Z</time>
      </trkpt>
      <trkpt lat="49.05694" lon="1.84387">
        <ele>185</ele>
        <time>2022-07-02T08:54:13Z</time>
      </trkpt>
      <trkpt lat="49.05701" lon="1.84391">
        <ele>185.2</ele>
        <time>2022-07-02T08:54:18Z</time>
      </trkpt>
      <trkpt lat="49.05709" lon="1.84396">
        <ele>185.3</ele>
        <time>2022-07-02T08:54:25Z</time>
      </trkpt>
      <trkpt lat="49.05717" lon="1.844">
        <ele>185.4</ele>
        <time>2022-07-02T08:54:33Z</time>
      </trkpt>
      <trkpt lat="49.05727" lon="1.84405">
        <ele>185.6</ele>
        <time>2022-07-02T08:54:41Z</time>
      </trkpt>
      <trkpt lat="49.05735" lon="1.84412">
        <ele>185.6</ele>
        <time>2022-07-02T08:54:49Z</time>
      </trkpt>
      <trkpt lat="49.05746" lon="1.84419">
        <ele>185.7</ele>
        <time>2022-07-02T08:54:56Z</time>
      </trkpt>
      <trkpt lat="49.05757" lon="1.84425">
        <ele>185.7</ele>
        <time>2022-07-02T08:55:03Z</time>
      </trkpt>
      <trkpt lat="49.05764" lon="1.8443">
        <ele>185.8</ele>
        <time>2022-07-02T08:55:10Z</time>
      </trkpt>
      <trkpt lat="49.0577" lon="1.84433">
        <ele>186</ele>
        <time>2022-07-02T08:55:18Z</time>
      </trkpt>
      <trkpt lat="49.05776" lon="1.84436">
        <ele>186.2</ele>
        <time>2022-07-02T08:55:24Z</time>
      </trkpt>
      <trkpt lat="49.05781" lon="1.84439">
        <ele>186.3</ele>
        <time>2022-07-02T08:55:32Z</time>
      </trkpt>
      <trkpt lat="49.05786" lon="1.84444">
        <ele>186.3</ele>
        <time>2022-07-02T08:55:36Z</time>
      </trkpt>
      <trkpt lat="49.05789" lon="1.84447">
        <ele>186.3</ele>
        <time>2022-07-02T08:55:39Z</time>
      </trkpt>
      <trkpt lat="49.05798" lon="1.84455">
        <ele>186.2</ele>
        <time>2022-07-02T08:55:46Z</time>
      </trkpt>
      <trkpt lat="49.05801" lon="1.84459">
        <ele>186.3</ele>
        <time>2022-07-02T08:55:51Z</time>
      </trkpt>
      <trkpt lat="49.05805" lon="1.84465">
        <ele>186.2</ele>
        <time>2022-07-02T08:55:57Z</time>
      </trkpt>
      <trkpt lat="49.05807" lon="1.84469">
        <ele>186.1</ele>
        <time>2022-07-02T08:56:02Z</time>
      </trkpt>
      <trkpt lat="49.05812" lon="1.84474">
        <ele>185.8</ele>
        <time>2022-07-02T08:56:09Z</time>
      </trkpt>
      <trkpt lat="49.05814" lon="1.84471">
        <ele>186</ele>
        <time>2022-07-02T08:56:19Z</time>
      </trkpt>
      <trkpt lat="49.05817" lon="1.8447">
        <ele>186.1</ele>
        <time>2022-07-02T08:56:33Z</time>
      </trkpt>
      <trkpt lat="49.05818" lon="1.84468">
        <ele>186.2</ele>
        <time>2022-07-02T08:56:45Z</time>
      </trkpt>
      <trkpt lat="49.05818" lon="1.84466">
        <ele>186.2</ele>
        <time>2022-07-02T08:57:05Z</time>
      </trkpt>
      <trkpt lat="49.05818" lon="1.84468">
        <ele>186.2</ele>
        <time>2022-07-02T08:57:15Z</time>
      </trkpt>
      <trkpt lat="49.05821" lon="1.8447">
        <ele>186.1</ele>
        <time>2022-07-02T08:57:31Z</time>
      </trkpt>
      <trkpt lat="49.05824" lon="1.84474">
        <ele>185.9</ele>
        <time>2022-07-02T08:57:37Z</time>
      </trkpt>
      <trkpt lat="49.05825" lon="1.84479">
        <ele>185.5</ele>
        <time>2022-07-02T08:57:41Z</time>
      </trkpt>
      <trkpt lat="49.05829" lon="1.84486">
        <ele>185</ele>
        <time>2022-07-02T08:57:48Z</time>
      </trkpt>
      <trkpt lat="49.0583" lon="1.84488">
        <ele>184.9</ele>
        <time>2022-07-02T08:57:49Z</time>
      </trkpt>
      <trkpt lat="49.05834" lon="1.84497">
        <ele>184.3</ele>
        <time>2022-07-02T08:57:57Z</time>
      </trkpt>
      <trkpt lat="49.05838" lon="1.84509">
        <ele>183.3</ele>
        <time>2022-07-02T08:58:04Z</time>
      </trkpt>
      <trkpt lat="49.0585" lon="1.84534">
        <ele>181.1</ele>
        <time>2022-07-02T08:58:11Z</time>
      </trkpt>
      <trkpt lat="49.05851" lon="1.84537">
        <ele>180.8</ele>
        <time>2022-07-02T08:58:12Z</time>
      </trkpt>
      <trkpt lat="49.05863" lon="1.84559">
        <ele>178.5</ele>
        <time>2022-07-02T08:58:20Z</time>
      </trkpt>
      <trkpt lat="49.05865" lon="1.84564">
        <ele>177.8</ele>
        <time>2022-07-02T08:58:22Z</time>
      </trkpt>
      <trkpt lat="49.05875" lon="1.84579">
        <ele>175.8</ele>
        <time>2022-07-02T08:58:30Z</time>
      </trkpt>
      <trkpt lat="49.0588" lon="1.84583">
        <ele>175.5</ele>
        <time>2022-07-02T08:58:36Z</time>
      </trkpt>
      <trkpt lat="49.0589" lon="1.84588">
        <ele>175.2</ele>
        <time>2022-07-02T08:58:45Z</time>
      </trkpt>
      <trkpt lat="49.05893" lon="1.8459">
        <ele>175.1</ele>
        <time>2022-07-02T08:58:47Z</time>
      </trkpt>
      <trkpt lat="49.05894" lon="1.84592">
        <ele>174.9</ele>
        <time>2022-07-02T08:58:52Z</time>
      </trkpt>
      <trkpt lat="49.05902" lon="1.84598">
        <ele>174.6</ele>
        <time>2022-07-02T08:58:58Z</time>
      </trkpt>
      <trkpt lat="49.05909" lon="1.84608">
        <ele>173.6</ele>
        <time>2022-07-02T08:59:06Z</time>
      </trkpt>
      <trkpt lat="49.0591" lon="1.84609">
        <ele>173.6</ele>
        <time>2022-07-02T08:59:07Z</time>
      </trkpt>
      <trkpt lat="49.05923" lon="1.84619">
        <ele>173.4</ele>
        <time>2022-07-02T08:59:16Z</time>
      </trkpt>
      <trkpt lat="49.05928" lon="1.84626">
        <ele>173</ele>
        <time>2022-07-02T08:59:24Z</time>
      </trkpt>
      <trkpt lat="49.05935" lon="1.84632">
        <ele>172.8</ele>
        <time>2022-07-02T08:59:32Z</time>
      </trkpt>
      <trkpt lat="49.05943" lon="1.84641">
        <ele>172.6</ele>
        <time>2022-07-02T08:59:40Z</time>
      </trkpt>
      <trkpt lat="49.05947" lon="1.8465">
        <ele>171.9</ele>
        <time>2022-07-02T08:59:47Z</time>
      </trkpt>
      <trkpt lat="49.0595" lon="1.8465">
        <ele>172</ele>
        <time>2022-07-02T08:59:51Z</time>
      </trkpt>
      <trkpt lat="49.05958" lon="1.84655">
        <ele>171.7</ele>
        <time>2022-07-02T08:59:57Z</time>
      </trkpt>
      <trkpt lat="49.0597" lon="1.84661">
        <ele>171.6</ele>
        <time>2022-07-02T09:00:05Z</time>
      </trkpt>
      <trkpt lat="49.05976" lon="1.84661">
        <ele>171.3</ele>
        <time>2022-07-02T09:00:12Z</time>
      </trkpt>
      <trkpt lat="49.05984" lon="1.84664">
        <ele>170.4</ele>
        <time>2022-07-02T09:00:19Z</time>
      </trkpt>
      <trkpt lat="49.05996" lon="1.84666">
        <ele>169.3</ele>
        <time>2022-07-02T09:00:27Z</time>
      </trkpt>
      <trkpt lat="49.06002" lon="1.84668">
        <ele>168.7</ele>
        <time>2022-07-02T09:00:32Z</time>
      </trkpt>
      <trkpt lat="49.06015" lon="1.84674">
        <ele>166.6</ele>
        <time>2022-07-02T09:00:40Z</time>
      </trkpt>
      <trkpt lat="49.06019" lon="1.84674">
        <ele>166</ele>
        <time>2022-07-02T09:00:47Z</time>
      </trkpt>
      <trkpt lat="49.06022" lon="1.84673">
        <ele>165.5</ele>
        <time>2022-07-02T09:00:53Z</time>
      </trkpt>
      <trkpt lat="49.0603" lon="1.84669">
        <ele>164.7</ele>
        <time>2022-07-02T09:01:00Z</time>
      </trkpt>
      <trkpt lat="49.0604" lon="1.84667">
        <ele>164.1</ele>
        <time>2022-07-02T09:01:07Z</time>
      </trkpt>
      <trkpt lat="49.06046" lon="1.84666">
        <ele>163.7</ele>
        <time>2022-07-02T09:01:13Z</time>
      </trkpt>
      <trkpt lat="49.06056" lon="1.84666">
        <ele>163</ele>
        <time>2022-07-02T09:01:20Z</time>
      </trkpt>
      <trkpt lat="49.06061" lon="1.84665">
        <ele>162.8</ele>
        <time>2022-07-02T09:01:23Z</time>
      </trkpt>
      <trkpt lat="49.06074" lon="1.84666">
        <ele>161.8</ele>
        <time>2022-07-02T09:01:30Z</time>
      </trkpt>
      <trkpt lat="49.06082" lon="1.84669">
        <ele>161</ele>
        <time>2022-07-02T09:01:38Z</time>
      </trkpt>
      <trkpt lat="49.06086" lon="1.84668">
        <ele>160.7</ele>
        <time>2022-07-02T09:01:43Z</time>
      </trkpt>
      <trkpt lat="49.06092" lon="1.84663">
        <ele>160.8</ele>
        <time>2022-07-02T09:01:50Z</time>
      </trkpt>
      <trkpt lat="49.061" lon="1.84662">
        <ele>160.3</ele>
        <time>2022-07-02T09:01:57Z</time>
      </trkpt>
      <trkpt lat="49.06103" lon="1.84656">
        <ele>160.7</ele>
        <time>2022-07-02T09:02:01Z</time>
      </trkpt>
      <trkpt lat="49.06111" lon="1.84648">
        <ele>161</ele>
        <time>2022-07-02T09:02:08Z</time>
      </trkpt>
      <trkpt lat="49.06119" lon="1.84641">
        <ele>161.2</ele>
        <time>2022-07-02T09:02:16Z</time>
      </trkpt>
      <trkpt lat="49.06125" lon="1.84634">
        <ele>161.3</ele>
        <time>2022-07-02T09:02:24Z</time>
      </trkpt>
      <trkpt lat="49.06128" lon="1.84631">
        <ele>161.2</ele>
        <time>2022-07-02T09:02:30Z</time>
      </trkpt>
      <trkpt lat="49.06131" lon="1.84626">
        <ele>161.2</ele>
        <time>2022-07-02T09:02:37Z</time>
      </trkpt>
      <trkpt lat="49.06134" lon="1.84623">
        <ele>161</ele>
        <time>2022-07-02T09:02:42Z</time>
      </trkpt>
      <trkpt lat="49.06136" lon="1.8462">
        <ele>160.9</ele>
        <time>2022-07-02T09:02:47Z</time>
      </trkpt>
      <trkpt lat="49.06143" lon="1.84614">
        <ele>161.1</ele>
        <time>2022-07-02T09:02:54Z</time>
      </trkpt>
      <trkpt lat="49.06147" lon="1.84604">
        <ele>161.2</ele>
        <time>2022-07-02T09:03:00Z</time>
      </trkpt>
      <trkpt lat="49.06149" lon="1.84597">
        <ele>161.2</ele>
        <time>2022-07-02T09:03:05Z</time>
      </trkpt>
      <trkpt lat="49.06153" lon="1.8459">
        <ele>161.1</ele>
        <time>2022-07-02T09:03:09Z</time>
      </trkpt>
      <trkpt lat="49.06157" lon="1.84579">
        <ele>160.8</ele>
        <time>2022-07-02T09:03:16Z</time>
      </trkpt>
      <trkpt lat="49.06161" lon="1.84573">
        <ele>160.4</ele>
        <time>2022-07-02T09:03:19Z</time>
      </trkpt>
      <trkpt lat="49.06166" lon="1.84564">
        <ele>159.6</ele>
        <time>2022-07-02T09:03:27Z</time>
      </trkpt>
      <trkpt lat="49.06171" lon="1.84558">
        <ele>159</ele>
        <time>2022-07-02T09:03:33Z</time>
      </trkpt>
      <trkpt lat="49.06176" lon="1.84549">
        <ele>158.5</ele>
        <time>2022-07-02T09:03:40Z</time>
      </trkpt>
      <trkpt lat="49.06182" lon="1.84535">
        <ele>157.7</ele>
        <time>2022-07-02T09:03:48Z</time>
      </trkpt>
      <trkpt lat="49.06186" lon="1.84523">
        <ele>157.3</ele>
        <time>2022-07-02T09:03:55Z</time>
      </trkpt>
      <trkpt lat="49.06187" lon="1.8452">
        <ele>157.2</ele>
        <time>2022-07-02T09:04:03Z</time>
      </trkpt>
      <trkpt lat="49.06187" lon="1.84519">
        <ele>157.2</ele>
        <time>2022-07-02T09:04:19Z</time>
      </trkpt>
      <trkpt lat="49.06187" lon="1.84517">
        <ele>157.2</ele>
        <time>2022-07-02T09:04:32Z</time>
      </trkpt>
      <trkpt lat="49.06188" lon="1.84515">
        <ele>157.1</ele>
        <time>2022-07-02T09:04:41Z</time>
      </trkpt>
      <trkpt lat="49.06188" lon="1.84515">
        <ele>157.1</ele>
        <time>2022-07-02T09:04:53Z</time>
      </trkpt>
      <trkpt lat="49.06188" lon="1.84512">
        <ele>157</ele>
        <time>2022-07-02T09:05:02Z</time>
      </trkpt>
      <trkpt lat="49.06188" lon="1.84511">
        <ele>157</ele>
        <time>2022-07-02T09:05:08Z</time>
      </trkpt>
      <trkpt lat="49.06188" lon="1.84507">
        <ele>157</ele>
        <time>2022-07-02T09:05:21Z</time>
      </trkpt>
      <trkpt lat="49.06188" lon="1.84506">
        <ele>157</ele>
        <time>2022-07-02T09:05:30Z</time>
      </trkpt>
      <trkpt lat="49.06189" lon="1.84504">
        <ele>156.9</ele>
        <time>2022-07-02T09:05:44Z</time>
      </trkpt>
      <trkpt lat="49.06189" lon="1.84503">
        <ele>156.8</ele>
        <time>2022-07-02T09:05:56Z</time>
      </trkpt>
      <trkpt lat="49.0619" lon="1.84499">
        <ele>156.6</ele>
        <time>2022-07-02T09:06:08Z</time>
      </trkpt>
      <trkpt lat="49.06191" lon="1.84499">
        <ele>156.5</ele>
        <time>2022-07-02T09:06:18Z</time>
      </trkpt>
      <trkpt lat="49.06192" lon="1.84498">
        <ele>156.4</ele>
        <time>2022-07-02T09:06:32Z</time>
      </trkpt>
      <trkpt lat="49.06192" lon="1.84497">
        <ele>156.4</ele>
        <time>2022-07-02T09:06:42Z</time>
      </trkpt>
      <trkpt lat="49.06192" lon="1.84496">
        <ele>156.3</ele>
        <time>2022-07-02T09:06:54Z</time>
      </trkpt>
      <trkpt lat="49.06193" lon="1.84495">
        <ele>156.3</ele>
        <time>2022-07-02T09:07:03Z</time>
      </trkpt>
      <trkpt lat="49.06193" lon="1.84495">
        <ele>156.2</ele>
        <time>2022-07-02T09:07:22Z</time>
      </trkpt>
      <trkpt lat="49.06193" lon="1.84495">
        <ele>156.2</ele>
        <time>2022-07-02T09:07:30Z</time>
      </trkpt>
      <trkpt lat="49.06194" lon="1.84495">
        <ele>156.1</ele>
        <time>2022-07-02T09:07:43Z</time>
      </trkpt>
      <trkpt lat="49.06194" lon="1.84495">
        <ele>156.1</ele>
        <time>2022-07-02T09:07:58Z</time>
      </trkpt>
      <trkpt lat="49.06194" lon="1.84495">
        <ele>156.1</ele>
        <time>2022-07-02T09:08:10Z</time>
      </trkpt>
      <trkpt lat="49.06195" lon="1.84492">
        <ele>156</ele>
        <time>2022-07-02T09:08:18Z</time>
      </trkpt>
      <trkpt lat="49.06195" lon="1.8449">
        <ele>156</ele>
        <time>2022-07-02T09:08:23Z</time>
      </trkpt>
      <trkpt lat="49.06196" lon="1.84485">
        <ele>155.9</ele>
        <time>2022-07-02T09:08:30Z</time>
      </trkpt>
      <trkpt lat="49.06198" lon="1.84472">
        <ele>155.8</ele>
        <time>2022-07-02T09:08:39Z</time>
      </trkpt>
      <trkpt lat="49.06198" lon="1.84464">
        <ele>156</ele>
        <time>2022-07-02T09:08:46Z</time>
      </trkpt>
      <trkpt lat="49.062" lon="1.84449">
        <ele>156.2</ele>
        <time>2022-07-02T09:08:53Z</time>
      </trkpt>
      <trkpt lat="49.06202" lon="1.84442">
        <ele>156.2</ele>
        <time>2022-07-02T09:08:57Z</time>
      </trkpt>
      <trkpt lat="49.06204" lon="1.8443">
        <ele>156.5</ele>
        <time>2022-07-02T09:09:04Z</time>
      </trkpt>
      <trkpt lat="49.06207" lon="1.84418">
        <ele>156.6</ele>
        <time>2022-07-02T09:09:10Z</time>
      </trkpt>
      <trkpt lat="49.06206" lon="1.84406">
        <ele>156.9</ele>
        <time>2022-07-02T09:09:18Z</time>
      </trkpt>
      <trkpt lat="49.06205" lon="1.844">
        <ele>157.2</ele>
        <time>2022-07-02T09:09:25Z</time>
      </trkpt>
      <trkpt lat="49.06204" lon="1.84396">
        <ele>157.5</ele>
        <time>2022-07-02T09:09:31Z</time>
      </trkpt>
      <trkpt lat="49.06207" lon="1.84384">
        <ele>157.3</ele>
        <time>2022-07-02T09:09:38Z</time>
      </trkpt>
      <trkpt lat="49.06208" lon="1.84373">
        <ele>157.3</ele>
        <time>2022-07-02T09:09:44Z</time>
      </trkpt>
      <trkpt lat="49.06209" lon="1.84365">
        <ele>157.3</ele>
        <time>2022-07-02T09:09:51Z</time>
      </trkpt>
      <trkpt lat="49.06212" lon="1.84357">
        <ele>157.3</ele>
        <time>2022-07-02T09:09:58Z</time>
      </trkpt>
      <trkpt lat="49.06213" lon="1.84349">
        <ele>157.4</ele>
        <time>2022-07-02T09:10:05Z</time>
      </trkpt>
      <trkpt lat="49.06216" lon="1.84336">
        <ele>157.6</ele>
        <time>2022-07-02T09:10:12Z</time>
      </trkpt>
      <trkpt lat="49.06222" lon="1.8432">
        <ele>157.5</ele>
        <time>2022-07-02T09:10:21Z</time>
      </trkpt>
      <trkpt lat="49.06226" lon="1.84312">
        <ele>157.4</ele>
        <time>2022-07-02T09:10:27Z</time>
      </trkpt>
      <trkpt lat="49.0623" lon="1.84302">
        <ele>157.4</ele>
        <time>2022-07-02T09:10:33Z</time>
      </trkpt>
      <trkpt lat="49.06233" lon="1.84292">
        <ele>157.6</ele>
        <time>2022-07-02T09:10:40Z</time>
      </trkpt>
      <trkpt lat="49.06236" lon="1.84285">
        <ele>157.7</ele>
        <time>2022-07-02T09:10:48Z</time>
      </trkpt>
      <trkpt lat="49.0624" lon="1.84277">
        <ele>157.5</ele>
        <time>2022-07-02T09:10:55Z</time>
      </trkpt>
      <trkpt lat="49.06243" lon="1.84266">
        <ele>157.3</ele>
        <time>2022-07-02T09:11:02Z</time>
      </trkpt>
      <trkpt lat="49.06245" lon="1.84259">
        <ele>157.3</ele>
        <time>2022-07-02T09:11:09Z</time>
      </trkpt>
      <trkpt lat="49.06249" lon="1.84252">
        <ele>157</ele>
        <time>2022-07-02T09:11:14Z</time>
      </trkpt>
      <trkpt lat="49.06252" lon="1.84243">
        <ele>156.3</ele>
        <time>2022-07-02T09:11:21Z</time>
      </trkpt>
      <trkpt lat="49.06259" lon="1.84231">
        <ele>154.7</ele>
        <time>2022-07-02T09:11:28Z</time>
      </trkpt>
      <trkpt lat="49.06261" lon="1.84222">
        <ele>154.1</ele>
        <time>2022-07-02T09:11:35Z</time>
      </trkpt>
      <trkpt lat="49.06263" lon="1.8421">
        <ele>153.5</ele>
        <time>2022-07-02T09:11:43Z</time>
      </trkpt>
      <trkpt lat="49.06267" lon="1.84199">
        <ele>152.5</ele>
        <time>2022-07-02T09:11:50Z</time>
      </trkpt>
      <trkpt lat="49.06268" lon="1.84193">
        <ele>152.1</ele>
        <time>2022-07-02T09:11:55Z</time>
      </trkpt>
      <trkpt lat="49.06269" lon="1.84184">
        <ele>151.7</ele>
        <time>2022-07-02T09:12:01Z</time>
      </trkpt>
      <trkpt lat="49.0627" lon="1.84181">
        <ele>151.6</ele>
        <time>2022-07-02T09:12:07Z</time>
      </trkpt>
      <trkpt lat="49.06272" lon="1.84174">
        <ele>151.1</ele>
        <time>2022-07-02T09:12:13Z</time>
      </trkpt>
      <trkpt lat="49.06272" lon="1.84169">
        <ele>151</ele>
        <time>2022-07-02T09:12:19Z</time>
      </trkpt>
      <trkpt lat="49.06273" lon="1.84165">
        <ele>150.8</ele>
        <time>2022-07-02T09:12:22Z</time>
      </trkpt>
      <trkpt lat="49.06274" lon="1.84154">
        <ele>150.2</ele>
        <time>2022-07-02T09:12:28Z</time>
      </trkpt>
      <trkpt lat="49.06277" lon="1.84147">
        <ele>149.5</ele>
        <time>2022-07-02T09:12:32Z</time>
      </trkpt>
      <trkpt lat="49.06278" lon="1.84143">
        <ele>149.1</ele>
        <time>2022-07-02T09:12:34Z</time>
      </trkpt>
      <trkpt lat="49.06282" lon="1.84123">
        <ele>148.2</ele>
        <time>2022-07-02T09:12:41Z</time>
      </trkpt>
      <trkpt lat="49.06281" lon="1.84117">
        <ele>148.5</ele>
        <time>2022-07-02T09:12:44Z</time>
      </trkpt>
      <trkpt lat="49.06279" lon="1.84107">
        <ele>148.4</ele>
        <time>2022-07-02T09:12:52Z</time>
      </trkpt>
      <trkpt lat="49.06279" lon="1.841">
        <ele>148.1</ele>
        <time>2022-07-02T09:12:57Z</time>
      </trkpt>
      <trkpt lat="49.06276" lon="1.84096">
        <ele>148</ele>
        <time>2022-07-02T09:13:01Z</time>
      </trkpt>
      <trkpt lat="49.06275" lon="1.84094">
        <ele>148</ele>
        <time>2022-07-02T09:13:03Z</time>
      </trkpt>
      <trkpt lat="49.06273" lon="1.84081">
        <ele>147.3</ele>
        <time>2022-07-02T09:13:10Z</time>
      </trkpt>
      <trkpt lat="49.06275" lon="1.84074">
        <ele>146.9</ele>
        <time>2022-07-02T09:13:15Z</time>
      </trkpt>
      <trkpt lat="49.06271" lon="1.84069">
        <ele>146.9</ele>
        <time>2022-07-02T09:13:23Z</time>
      </trkpt>
      <trkpt lat="49.06263" lon="1.84056">
        <ele>146.6</ele>
        <time>2022-07-02T09:13:31Z</time>
      </trkpt>
      <trkpt lat="49.06261" lon="1.84053">
        <ele>146.4</ele>
        <time>2022-07-02T09:13:33Z</time>
      </trkpt>
      <trkpt lat="49.06256" lon="1.84046">
        <ele>145.8</ele>
        <time>2022-07-02T09:13:40Z</time>
      </trkpt>
      <trkpt lat="49.06253" lon="1.84034">
        <ele>144.7</ele>
        <time>2022-07-02T09:13:47Z</time>
      </trkpt>
      <trkpt lat="49.06247" lon="1.84028">
        <ele>143.8</ele>
        <time>2022-07-02T09:13:53Z</time>
      </trkpt>
      <trkpt lat="49.06241" lon="1.8402">
        <ele>142.9</ele>
        <time>2022-07-02T09:13:59Z</time>
      </trkpt>
      <trkpt lat="49.0624" lon="1.84013">
        <ele>142.2</ele>
        <time>2022-07-02T09:14:03Z</time>
      </trkpt>
      <trkpt lat="49.06235" lon="1.84003">
        <ele>141.1</ele>
        <time>2022-07-02T09:14:09Z</time>
      </trkpt>
      <trkpt lat="49.06233" lon="1.83989">
        <ele>140</ele>
        <time>2022-07-02T09:14:16Z</time>
      </trkpt>
      <trkpt lat="49.06233" lon="1.83987">
        <ele>139.8</ele>
        <time>2022-07-02T09:14:17Z</time>
      </trkpt>
      <trkpt lat="49.06228" lon="1.83974">
        <ele>138.5</ele>
        <time>2022-07-02T09:14:25Z</time>
      </trkpt>
      <trkpt lat="49.06227" lon="1.83971">
        <ele>138.3</ele>
        <time>2022-07-02T09:14:27Z</time>
      </trkpt>
      <trkpt lat="49.06223" lon="1.83958">
        <ele>137.1</ele>
        <time>2022-07-02T09:14:35Z</time>
      </trkpt>
      <trkpt lat="49.06223" lon="1.83957">
        <ele>136.9</ele>
        <time>2022-07-02T09:14:36Z</time>
      </trkpt>
      <trkpt lat="49.06218" lon="1.83945">
        <ele>135.7</ele>
        <time>2022-07-02T09:14:44Z</time>
      </trkpt>
      <trkpt lat="49.06217" lon="1.83942">
        <ele>135.4</ele>
        <time>2022-07-02T09:14:46Z</time>
      </trkpt>
      <trkpt lat="49.06212" lon="1.83932">
        <ele>134.4</ele>
        <time>2022-07-02T09:14:52Z</time>
      </trkpt>
      <trkpt lat="49.0621" lon="1.83918">
        <ele>133.2</ele>
        <time>2022-07-02T09:14:59Z</time>
      </trkpt>
      <trkpt lat="49.06206" lon="1.83907">
        <ele>132.2</ele>
        <time>2022-07-02T09:15:06Z</time>
      </trkpt>
      <trkpt lat="49.06205" lon="1.83904">
        <ele>131.8</ele>
        <time>2022-07-02T09:15:08Z</time>
      </trkpt>
      <trkpt lat="49.06205" lon="1.83894">
        <ele>131.1</ele>
        <time>2022-07-02T09:15:15Z</time>
      </trkpt>
      <trkpt lat="49.06201" lon="1.83887">
        <ele>130.3</ele>
        <time>2022-07-02T09:15:21Z</time>
      </trkpt>
      <trkpt lat="49.06197" lon="1.83874">
        <ele>129.1</ele>
        <time>2022-07-02T09:15:28Z</time>
      </trkpt>
      <trkpt lat="49.06192" lon="1.8386">
        <ele>127.9</ele>
        <time>2022-07-02T09:15:37Z</time>
      </trkpt>
      <trkpt lat="49.06188" lon="1.83853">
        <ele>127.5</ele>
        <time>2022-07-02T09:15:44Z</time>
      </trkpt>
      <trkpt lat="49.06184" lon="1.83845">
        <ele>127.1</ele>
        <time>2022-07-02T09:15:51Z</time>
      </trkpt>
      <trkpt lat="49.06184" lon="1.83844">
        <ele>127</ele>
        <time>2022-07-02T09:15:52Z</time>
      </trkpt>
      <trkpt lat="49.06184" lon="1.83838">
        <ele>126.6</ele>
        <time>2022-07-02T09:15:56Z</time>
      </trkpt>
      <trkpt lat="49.0618" lon="1.8383">
        <ele>126.3</ele>
        <time>2022-07-02T09:16:04Z</time>
      </trkpt>
      <trkpt lat="49.06175" lon="1.83821">
        <ele>125.8</ele>
        <time>2022-07-02T09:16:11Z</time>
      </trkpt>
      <trkpt lat="49.06171" lon="1.83811">
        <ele>125.2</ele>
        <time>2022-07-02T09:16:18Z</time>
      </trkpt>
      <trkpt lat="49.0617" lon="1.83806">
        <ele>124.9</ele>
        <time>2022-07-02T09:16:22Z</time>
      </trkpt>
      <trkpt lat="49.06169" lon="1.83802">
        <ele>124.7</ele>
        <time>2022-07-02T09:16:28Z</time>
      </trkpt>
      <trkpt lat="49.06169" lon="1.83801">
        <ele>124.6</ele>
        <time>2022-07-02T09:16:42Z</time>
      </trkpt>
      <trkpt lat="49.06171" lon="1.83797">
        <ele>124.3</ele>
        <time>2022-07-02T09:16:55Z</time>
      </trkpt>
      <trkpt lat="49.06171" lon="1.83796">
        <ele>124.2</ele>
        <time>2022-07-02T09:17:03Z</time>
      </trkpt>
      <trkpt lat="49.06171" lon="1.83797">
        <ele>124.3</ele>
        <time>2022-07-02T09:17:16Z</time>
      </trkpt>
      <trkpt lat="49.06171" lon="1.83797">
        <ele>124.3</ele>
        <time>2022-07-02T09:17:23Z</time>
      </trkpt>
      <trkpt lat="49.06171" lon="1.83796">
        <ele>124.2</ele>
        <time>2022-07-02T09:17:30Z</time>
      </trkpt>
      <trkpt lat="49.06169" lon="1.8379">
        <ele>123.9</ele>
        <time>2022-07-02T09:17:34Z</time>
      </trkpt>
      <trkpt lat="49.06162" lon="1.83769">
        <ele>122.6</ele>
        <time>2022-07-02T09:17:42Z</time>
      </trkpt>
      <trkpt lat="49.06157" lon="1.83742">
        <ele>121.6</ele>
        <time>2022-07-02T09:17:52Z</time>
      </trkpt>
      <trkpt lat="49.06156" lon="1.83721">
        <ele>121.2</ele>
        <time>2022-07-02T09:18:00Z</time>
      </trkpt>
      <trkpt lat="49.06158" lon="1.83698">
        <ele>121.4</ele>
        <time>2022-07-02T09:18:08Z</time>
      </trkpt>
      <trkpt lat="49.06158" lon="1.83681">
        <ele>121.1</ele>
        <time>2022-07-02T09:18:15Z</time>
      </trkpt>
      <trkpt lat="49.06158" lon="1.83666">
        <ele>120.7</ele>
        <time>2022-07-02T09:18:22Z</time>
      </trkpt>
      <trkpt lat="49.06158" lon="1.83648">
        <ele>120.7</ele>
        <time>2022-07-02T09:18:30Z</time>
      </trkpt>
      <trkpt lat="49.06158" lon="1.8364">
        <ele>120.7</ele>
        <time>2022-07-02T09:18:36Z</time>
      </trkpt>
      <trkpt lat="49.06158" lon="1.83632">
        <ele>120.8</ele>
        <time>2022-07-02T09:18:41Z</time>
      </trkpt>
      <trkpt lat="49.06159" lon="1.83622">
        <ele>121</ele>
        <time>2022-07-02T09:18:47Z</time>
      </trkpt>
      <trkpt lat="49.06158" lon="1.83613">
        <ele>121</ele>
        <time>2022-07-02T09:18:53Z</time>
      </trkpt>
      <trkpt lat="49.06157" lon="1.83603">
        <ele>121</ele>
        <time>2022-07-02T09:18:59Z</time>
      </trkpt>
      <trkpt lat="49.06156" lon="1.83597">
        <ele>120.9</ele>
        <time>2022-07-02T09:19:03Z</time>
      </trkpt>
      <trkpt lat="49.06155" lon="1.83584">
        <ele>120.7</ele>
        <time>2022-07-02T09:19:10Z</time>
      </trkpt>
      <trkpt lat="49.06155" lon="1.83572">
        <ele>120.9</ele>
        <time>2022-07-02T09:19:16Z</time>
      </trkpt>
      <trkpt lat="49.06158" lon="1.83562">
        <ele>121.3</ele>
        <time>2022-07-02T09:19:21Z</time>
      </trkpt>
      <trkpt lat="49.06158" lon="1.83542">
        <ele>121.4</ele>
        <time>2022-07-02T09:19:29Z</time>
      </trkpt>
      <trkpt lat="49.06157" lon="1.83533">
        <ele>121.3</ele>
        <time>2022-07-02T09:19:33Z</time>
      </trkpt>
      <trkpt lat="49.06157" lon="1.83517">
        <ele>121.3</ele>
        <time>2022-07-02T09:19:41Z</time>
      </trkpt>
      <trkpt lat="49.06157" lon="1.83513">
        <ele>121.3</ele>
        <time>2022-07-02T09:19:43Z</time>
      </trkpt>
      <trkpt lat="49.06157" lon="1.83504">
        <ele>121.3</ele>
        <time>2022-07-02T09:19:49Z</time>
      </trkpt>
      <trkpt lat="49.06157" lon="1.83497">
        <ele>121.3</ele>
        <time>2022-07-02T09:19:53Z</time>
      </trkpt>
      <trkpt lat="49.06155" lon="1.83489">
        <ele>121.4</ele>
        <time>2022-07-02T09:19:59Z</time>
      </trkpt>
      <trkpt lat="49.06155" lon="1.83477">
        <ele>121.6</ele>
        <time>2022-07-02T09:20:05Z</time>
      </trkpt>
      <trkpt lat="49.06154" lon="1.83462">
        <ele>121.6</ele>
        <time>2022-07-02T09:20:13Z</time>
      </trkpt>
      <trkpt lat="49.06154" lon="1.83449">
        <ele>121.6</ele>
        <time>2022-07-02T09:20:20Z</time>
      </trkpt>
      <trkpt lat="49.06153" lon="1.83429">
        <ele>121.5</ele>
        <time>2022-07-02T09:20:30Z</time>
      </trkpt>
      <trkpt lat="49.06151" lon="1.8341">
        <ele>121.2</ele>
        <time>2022-07-02T09:20:40Z</time>
      </trkpt>
      <trkpt lat="49.0615" lon="1.8339">
        <ele>120.8</ele>
        <time>2022-07-02T09:20:50Z</time>
      </trkpt>
      <trkpt lat="49.06149" lon="1.83377">
        <ele>120.7</ele>
        <time>2022-07-02T09:20:57Z</time>
      </trkpt>
      <trkpt lat="49.06149" lon="1.83368">
        <ele>120.7</ele>
        <time>2022-07-02T09:21:02Z</time>
      </trkpt>
      <trkpt lat="49.06147" lon="1.83353">
        <ele>120.3</ele>
        <time>2022-07-02T09:21:10Z</time>
      </trkpt>
      <trkpt lat="49.06147" lon="1.83346">
        <ele>120.1</ele>
        <time>2022-07-02T09:21:14Z</time>
      </trkpt>
      <trkpt lat="49.06145" lon="1.83331">
        <ele>119.4</ele>
        <time>2022-07-02T09:21:22Z</time>
      </trkpt>
      <trkpt lat="49.06145" lon="1.83327">
        <ele>119.3</ele>
        <time>2022-07-02T09:21:24Z</time>
      </trkpt>
      <trkpt lat="49.06146" lon="1.83312">
        <ele>118.8</ele>
        <time>2022-07-02T09:21:33Z</time>
      </trkpt>
      <trkpt lat="49.06147" lon="1.83307">
        <ele>118.6</ele>
        <time>2022-07-02T09:21:36Z</time>
      </trkpt>
      <trkpt lat="49.06146" lon="1.83297">
        <ele>118.5</ele>
        <time>2022-07-02T09:21:43Z</time>
      </trkpt>
      <trkpt lat="49.06146" lon="1.83296">
        <ele>118.5</ele>
        <time>2022-07-02T09:21:44Z</time>
      </trkpt>
      <trkpt lat="49.06144" lon="1.8329">
        <ele>118.4</ele>
        <time>2022-07-02T09:21:48Z</time>
      </trkpt>
      <trkpt lat="49.06143" lon="1.83283">
        <ele>118.3</ele>
        <time>2022-07-02T09:21:52Z</time>
      </trkpt>
      <trkpt lat="49.06143" lon="1.83277">
        <ele>118.3</ele>
        <time>2022-07-02T09:21:58Z</time>
      </trkpt>
      <trkpt lat="49.06142" lon="1.83264">
        <ele>118.2</ele>
        <time>2022-07-02T09:22:05Z</time>
      </trkpt>
      <trkpt lat="49.06141" lon="1.83255">
        <ele>118.1</ele>
        <time>2022-07-02T09:22:11Z</time>
      </trkpt>
      <trkpt lat="49.06139" lon="1.83243">
        <ele>117.8</ele>
        <time>2022-07-02T09:22:19Z</time>
      </trkpt>
      <trkpt lat="49.06137" lon="1.83229">
        <ele>117.2</ele>
        <time>2022-07-02T09:22:28Z</time>
      </trkpt>
      <trkpt lat="49.06135" lon="1.83219">
        <ele>116.8</ele>
        <time>2022-07-02T09:22:35Z</time>
      </trkpt>
      <trkpt lat="49.06135" lon="1.83218">
        <ele>116.8</ele>
        <time>2022-07-02T09:22:36Z</time>
      </trkpt>
      <trkpt lat="49.06134" lon="1.8321">
        <ele>116.8</ele>
        <time>2022-07-02T09:22:42Z</time>
      </trkpt>
      <trkpt lat="49.06133" lon="1.83194">
        <ele>116.6</ele>
        <time>2022-07-02T09:22:49Z</time>
      </trkpt>
      <trkpt lat="49.06133" lon="1.8319">
        <ele>116.5</ele>
        <time>2022-07-02T09:22:51Z</time>
      </trkpt>
      <trkpt lat="49.06132" lon="1.83178">
        <ele>116.1</ele>
        <time>2022-07-02T09:22:58Z</time>
      </trkpt>
      <trkpt lat="49.06133" lon="1.83175">
        <ele>116</ele>
        <time>2022-07-02T09:23:00Z</time>
      </trkpt>
      <trkpt lat="49.0613" lon="1.83156">
        <ele>115.3</ele>
        <time>2022-07-02T09:23:10Z</time>
      </trkpt>
      <trkpt lat="49.0613" lon="1.83144">
        <ele>114.9</ele>
        <time>2022-07-02T09:23:16Z</time>
      </trkpt>
      <trkpt lat="49.06128" lon="1.83138">
        <ele>114.6</ele>
        <time>2022-07-02T09:23:20Z</time>
      </trkpt>
      <trkpt lat="49.06128" lon="1.83135">
        <ele>114.5</ele>
        <time>2022-07-02T09:23:22Z</time>
      </trkpt>
      <trkpt lat="49.06126" lon="1.83119">
        <ele>113.8</ele>
        <time>2022-07-02T09:23:30Z</time>
      </trkpt>
      <trkpt lat="49.06125" lon="1.83104">
        <ele>113.3</ele>
        <time>2022-07-02T09:23:39Z</time>
      </trkpt>
      <trkpt lat="49.06125" lon="1.83096">
        <ele>113</ele>
        <time>2022-07-02T09:23:43Z</time>
      </trkpt>
      <trkpt lat="49.06124" lon="1.83077">
        <ele>112.1</ele>
        <time>2022-07-02T09:23:52Z</time>
      </trkpt>
      <trkpt lat="49.06124" lon="1.83067">
        <ele>111.6</ele>
        <time>2022-07-02T09:23:58Z</time>
      </trkpt>
      <trkpt lat="49.06124" lon="1.83057">
        <ele>111</ele>
        <time>2022-07-02T09:24:03Z</time>
      </trkpt>
      <trkpt lat="49.06124" lon="1.83044">
        <ele>110.6</ele>
        <time>2022-07-02T09:24:10Z</time>
      </trkpt>
      <trkpt lat="49.06125" lon="1.83037">
        <ele>110.3</ele>
        <time>2022-07-02T09:24:14Z</time>
      </trkpt>
      <trkpt lat="49.06124" lon="1.83021">
        <ele>109.6</ele>
        <time>2022-07-02T09:24:22Z</time>
      </trkpt>
      <trkpt lat="49.06125" lon="1.83017">
        <ele>109.4</ele>
        <time>2022-07-02T09:24:25Z</time>
      </trkpt>
      <trkpt lat="49.06124" lon="1.83011">
        <ele>109.1</ele>
        <time>2022-07-02T09:24:28Z</time>
      </trkpt>
      <trkpt lat="49.06124" lon="1.83006">
        <ele>108.8</ele>
        <time>2022-07-02T09:24:30Z</time>
      </trkpt>
      <trkpt lat="49.0612" lon="1.82997">
        <ele>108.2</ele>
        <time>2022-07-02T09:24:36Z</time>
      </trkpt>
      <trkpt lat="49.06118" lon="1.82993">
        <ele>108</ele>
        <time>2022-07-02T09:24:42Z</time>
      </trkpt>
      <trkpt lat="49.06118" lon="1.82989">
        <ele>107.8</ele>
        <time>2022-07-02T09:24:47Z</time>
      </trkpt>
      <trkpt lat="49.06119" lon="1.82988">
        <ele>107.8</ele>
        <time>2022-07-02T09:24:55Z</time>
      </trkpt>
      <trkpt lat="49.06119" lon="1.82987">
        <ele>107.8</ele>
        <time>2022-07-02T09:25:03Z</time>
      </trkpt>
      <trkpt lat="49.06119" lon="1.82987">
        <ele>107.8</ele>
        <time>2022-07-02T09:25:17Z</time>
      </trkpt>
      <trkpt lat="49.06119" lon="1.82987">
        <ele>107.8</ele>
        <time>2022-07-02T09:25:26Z</time>
      </trkpt>
      <trkpt lat="49.06119" lon="1.82985">
        <ele>107.8</ele>
        <time>2022-07-02T09:25:35Z</time>
      </trkpt>
      <trkpt lat="49.06119" lon="1.82984">
        <ele>107.7</ele>
        <time>2022-07-02T09:25:36Z</time>
      </trkpt>
      <trkpt lat="49.0612" lon="1.82974">
        <ele>107.4</ele>
        <time>2022-07-02T09:25:44Z</time>
      </trkpt>
      <trkpt lat="49.06117" lon="1.82969">
        <ele>107.3</ele>
        <time>2022-07-02T09:25:49Z</time>
      </trkpt>
      <trkpt lat="49.06116" lon="1.82963">
        <ele>107.5</ele>
        <time>2022-07-02T09:25:53Z</time>
      </trkpt>
      <trkpt lat="49.06113" lon="1.82951">
        <ele>107.8</ele>
        <time>2022-07-02T09:26:01Z</time>
      </trkpt>
      <trkpt lat="49.0611" lon="1.82936">
        <ele>108</ele>
        <time>2022-07-02T09:26:11Z</time>
      </trkpt>
      <trkpt lat="49.06108" lon="1.82921">
        <ele>108.1</ele>
        <time>2022-07-02T09:26:20Z</time>
      </trkpt>
      <trkpt lat="49.06107" lon="1.82915">
        <ele>108.2</ele>
        <time>2022-07-02T09:26:24Z</time>
      </trkpt>
      <trkpt lat="49.06105" lon="1.82906">
        <ele>108.3</ele>
        <time>2022-07-02T09:26:30Z</time>
      </trkpt>
      <trkpt lat="49.06104" lon="1.829">
        <ele>108.4</ele>
        <time>2022-07-02T09:26:34Z</time>
      </trkpt>
      <trkpt lat="49.06104" lon="1.82897">
        <ele>108.5</ele>
        <time>2022-07-02T09:26:36Z</time>
      </trkpt>
      <trkpt lat="49.06102" lon="1.82893">
        <ele>108.6</ele>
        <time>2022-07-02T09:26:40Z</time>
      </trkpt>
      <trkpt lat="49.06102" lon="1.8289">
        <ele>108.6</ele>
        <time>2022-07-02T09:26:42Z</time>
      </trkpt>
      <trkpt lat="49.061" lon="1.82879">
        <ele>109.2</ele>
        <time>2022-07-02T09:26:50Z</time>
      </trkpt>
      <trkpt lat="49.061" lon="1.82874">
        <ele>109.4</ele>
        <time>2022-07-02T09:26:54Z</time>
      </trkpt>
      <trkpt lat="49.06099" lon="1.8286">
        <ele>109.9</ele>
        <time>2022-07-02T09:27:02Z</time>
      </trkpt>
      <trkpt lat="49.06099" lon="1.82848">
        <ele>109.9</ele>
        <time>2022-07-02T09:27:09Z</time>
      </trkpt>
      <trkpt lat="49.06099" lon="1.82836">
        <ele>109.9</ele>
        <time>2022-07-02T09:27:17Z</time>
      </trkpt>
      <trkpt lat="49.06098" lon="1.82824">
        <ele>110.2</ele>
        <time>2022-07-02T09:27:25Z</time>
      </trkpt>
      <trkpt lat="49.06098" lon="1.82813">
        <ele>110.7</ele>
        <time>2022-07-02T09:27:33Z</time>
      </trkpt>
      <trkpt lat="49.06099" lon="1.82801">
        <ele>111.1</ele>
        <time>2022-07-02T09:27:41Z</time>
      </trkpt>
      <trkpt lat="49.06098" lon="1.82789">
        <ele>111.6</ele>
        <time>2022-07-02T09:27:49Z</time>
      </trkpt>
      <trkpt lat="49.06098" lon="1.82775">
        <ele>112</ele>
        <time>2022-07-02T09:27:58Z</time>
      </trkpt>
      <trkpt lat="49.06098" lon="1.82764">
        <ele>112</ele>
        <time>2022-07-02T09:28:05Z</time>
      </trkpt>
      <trkpt lat="49.06097" lon="1.82753">
        <ele>112</ele>
        <time>2022-07-02T09:28:13Z</time>
      </trkpt>
      <trkpt lat="49.06097" lon="1.82742">
        <ele>112.3</ele>
        <time>2022-07-02T09:28:21Z</time>
      </trkpt>
      <trkpt lat="49.06097" lon="1.82728">
        <ele>112.8</ele>
        <time>2022-07-02T09:28:30Z</time>
      </trkpt>
      <trkpt lat="49.06096" lon="1.82716">
        <ele>113.1</ele>
        <time>2022-07-02T09:28:38Z</time>
      </trkpt>
      <trkpt lat="49.06096" lon="1.82704">
        <ele>113.1</ele>
        <time>2022-07-02T09:28:46Z</time>
      </trkpt>
      <trkpt lat="49.06096" lon="1.82696">
        <ele>113.1</ele>
        <time>2022-07-02T09:28:51Z</time>
      </trkpt>
      <trkpt lat="49.06096" lon="1.82691">
        <ele>113.2</ele>
        <time>2022-07-02T09:28:54Z</time>
      </trkpt>
      <trkpt lat="49.06095" lon="1.82678">
        <ele>113.7</ele>
        <time>2022-07-02T09:29:03Z</time>
      </trkpt>
      <trkpt lat="49.06095" lon="1.82665">
        <ele>114.2</ele>
        <time>2022-07-02T09:29:11Z</time>
      </trkpt>
      <trkpt lat="49.06093" lon="1.82652">
        <ele>114.5</ele>
        <time>2022-07-02T09:29:19Z</time>
      </trkpt>
      <trkpt lat="49.06092" lon="1.8264">
        <ele>114.7</ele>
        <time>2022-07-02T09:29:26Z</time>
      </trkpt>
      <trkpt lat="49.06092" lon="1.82628">
        <ele>114.9</ele>
        <time>2022-07-02T09:29:34Z</time>
      </trkpt>
      <trkpt lat="49.06092" lon="1.82616">
        <ele>115.3</ele>
        <time>2022-07-02T09:29:42Z</time>
      </trkpt>
      <trkpt lat="49.06092" lon="1.82603">
        <ele>115.6</ele>
        <time>2022-07-02T09:29:50Z</time>
      </trkpt>
      <trkpt lat="49.06092" lon="1.82595">
        <ele>115.9</ele>
        <time>2022-07-02T09:29:56Z</time>
      </trkpt>
      <trkpt lat="49.06092" lon="1.82584">
        <ele>116.3</ele>
        <time>2022-07-02T09:30:03Z</time>
      </trkpt>
      <trkpt lat="49.06093" lon="1.82572">
        <ele>116.7</ele>
        <time>2022-07-02T09:30:11Z</time>
      </trkpt>
      <trkpt lat="49.06094" lon="1.82561">
        <ele>117.1</ele>
        <time>2022-07-02T09:30:19Z</time>
      </trkpt>
      <trkpt lat="49.06094" lon="1.82549">
        <ele>117.3</ele>
        <time>2022-07-02T09:30:27Z</time>
      </trkpt>
      <trkpt lat="49.06095" lon="1.82536">
        <ele>117.5</ele>
        <time>2022-07-02T09:30:35Z</time>
      </trkpt>
      <trkpt lat="49.06095" lon="1.82525">
        <ele>117.6</ele>
        <time>2022-07-02T09:30:42Z</time>
      </trkpt>
      <trkpt lat="49.06095" lon="1.82515">
        <ele>117.8</ele>
        <time>2022-07-02T09:30:48Z</time>
      </trkpt>
      <trkpt lat="49.06097" lon="1.82498">
        <ele>118.1</ele>
        <time>2022-07-02T09:30:58Z</time>
      </trkpt>
      <trkpt lat="49.06098" lon="1.82484">
        <ele>118.2</ele>
        <time>2022-07-02T09:31:06Z</time>
      </trkpt>
      <trkpt lat="49.06099" lon="1.82469">
        <ele>118.5</ele>
        <time>2022-07-02T09:31:15Z</time>
      </trkpt>
      <trkpt lat="49.06099" lon="1.82454">
        <ele>118.7</ele>
        <time>2022-07-02T09:31:24Z</time>
      </trkpt>
      <trkpt lat="49.061" lon="1.82442">
        <ele>118.8</ele>
        <time>2022-07-02T09:31:31Z</time>
      </trkpt>
      <trkpt lat="49.061" lon="1.82428">
        <ele>119.4</ele>
        <time>2022-07-02T09:31:39Z</time>
      </trkpt>
      <trkpt lat="49.061" lon="1.82426">
        <ele>119.5</ele>
        <time>2022-07-02T09:31:40Z</time>
      </trkpt>
      <trkpt lat="49.06101" lon="1.82412">
        <ele>119.8</ele>
        <time>2022-07-02T09:31:48Z</time>
      </trkpt>
      <trkpt lat="49.06102" lon="1.82399">
        <ele>120.1</ele>
        <time>2022-07-02T09:31:56Z</time>
      </trkpt>
      <trkpt lat="49.06103" lon="1.82386">
        <ele>120.3</ele>
        <time>2022-07-02T09:32:04Z</time>
      </trkpt>
      <trkpt lat="49.06104" lon="1.8237">
        <ele>120.4</ele>
        <time>2022-07-02T09:32:14Z</time>
      </trkpt>
      <trkpt lat="49.06104" lon="1.82364">
        <ele>120.5</ele>
        <time>2022-07-02T09:32:17Z</time>
      </trkpt>
      <trkpt lat="49.06105" lon="1.82356">
        <ele>120.6</ele>
        <time>2022-07-02T09:32:22Z</time>
      </trkpt>
      <trkpt lat="49.06106" lon="1.82341">
        <ele>121</ele>
        <time>2022-07-02T09:32:30Z</time>
      </trkpt>
      <trkpt lat="49.06106" lon="1.82338">
        <ele>121</ele>
        <time>2022-07-02T09:32:32Z</time>
      </trkpt>
      <trkpt lat="49.06108" lon="1.82326">
        <ele>121.6</ele>
        <time>2022-07-02T09:32:39Z</time>
      </trkpt>
      <trkpt lat="49.06111" lon="1.82315">
        <ele>122.3</ele>
        <time>2022-07-02T09:32:46Z</time>
      </trkpt>
      <trkpt lat="49.06111" lon="1.82309">
        <ele>122.8</ele>
        <time>2022-07-02T09:32:50Z</time>
      </trkpt>
      <trkpt lat="49.06113" lon="1.82297">
        <ele>123.3</ele>
        <time>2022-07-02T09:32:58Z</time>
      </trkpt>
      <trkpt lat="49.06114" lon="1.82284">
        <ele>123.7</ele>
        <time>2022-07-02T09:33:07Z</time>
      </trkpt>
      <trkpt lat="49.06114" lon="1.82282">
        <ele>123.7</ele>
        <time>2022-07-02T09:33:08Z</time>
      </trkpt>
      <trkpt lat="49.06115" lon="1.82277">
        <ele>123.9</ele>
        <time>2022-07-02T09:33:15Z</time>
      </trkpt>
      <trkpt lat="49.06115" lon="1.82267">
        <ele>124.6</ele>
        <time>2022-07-02T09:33:21Z</time>
      </trkpt>
      <trkpt lat="49.06116" lon="1.82255">
        <ele>125.3</ele>
        <time>2022-07-02T09:33:28Z</time>
      </trkpt>
      <trkpt lat="49.06116" lon="1.82242">
        <ele>126</ele>
        <time>2022-07-02T09:33:36Z</time>
      </trkpt>
      <trkpt lat="49.06116" lon="1.82229">
        <ele>126.5</ele>
        <time>2022-07-02T09:33:44Z</time>
      </trkpt>
      <trkpt lat="49.06116" lon="1.82223">
        <ele>126.8</ele>
        <time>2022-07-02T09:33:48Z</time>
      </trkpt>
      <trkpt lat="49.06116" lon="1.82208">
        <ele>127.4</ele>
        <time>2022-07-02T09:33:57Z</time>
      </trkpt>
      <trkpt lat="49.06115" lon="1.82191">
        <ele>128</ele>
        <time>2022-07-02T09:34:06Z</time>
      </trkpt>
      <trkpt lat="49.06114" lon="1.82179">
        <ele>128.5</ele>
        <time>2022-07-02T09:34:13Z</time>
      </trkpt>
      <trkpt lat="49.06115" lon="1.82165">
        <ele>128.9</ele>
        <time>2022-07-02T09:34:21Z</time>
      </trkpt>
      <trkpt lat="49.06114" lon="1.82148">
        <ele>129.5</ele>
        <time>2022-07-02T09:34:30Z</time>
      </trkpt>
      <trkpt lat="49.06114" lon="1.8213">
        <ele>130.2</ele>
        <time>2022-07-02T09:34:40Z</time>
      </trkpt>
      <trkpt lat="49.06113" lon="1.82119">
        <ele>130.6</ele>
        <time>2022-07-02T09:34:47Z</time>
      </trkpt>
      <trkpt lat="49.06111" lon="1.82105">
        <ele>131.2</ele>
        <time>2022-07-02T09:34:56Z</time>
      </trkpt>
      <trkpt lat="49.0611" lon="1.82089">
        <ele>131.8</ele>
        <time>2022-07-02T09:35:05Z</time>
      </trkpt>
      <trkpt lat="49.06108" lon="1.82074">
        <ele>132.4</ele>
        <time>2022-07-02T09:35:14Z</time>
      </trkpt>
      <trkpt lat="49.06107" lon="1.82061">
        <ele>133</ele>
        <time>2022-07-02T09:35:22Z</time>
      </trkpt>
      <trkpt lat="49.06106" lon="1.82046">
        <ele>133.5</ele>
        <time>2022-07-02T09:35:30Z</time>
      </trkpt>
      <trkpt lat="49.06105" lon="1.82033">
        <ele>134</ele>
        <time>2022-07-02T09:35:38Z</time>
      </trkpt>
      <trkpt lat="49.06104" lon="1.82019">
        <ele>134.6</ele>
        <time>2022-07-02T09:35:47Z</time>
      </trkpt>
      <trkpt lat="49.06103" lon="1.82002">
        <ele>135.2</ele>
        <time>2022-07-02T09:35:57Z</time>
      </trkpt>
      <trkpt lat="49.06101" lon="1.81986">
        <ele>135.9</ele>
        <time>2022-07-02T09:36:06Z</time>
      </trkpt>
      <trkpt lat="49.06099" lon="1.8197">
        <ele>136.5</ele>
        <time>2022-07-02T09:36:15Z</time>
      </trkpt>
      <trkpt lat="49.06098" lon="1.81954">
        <ele>137.1</ele>
        <time>2022-07-02T09:36:25Z</time>
      </trkpt>
      <trkpt lat="49.06097" lon="1.81938">
        <ele>137.7</ele>
        <time>2022-07-02T09:36:35Z</time>
      </trkpt>
      <trkpt lat="49.06099" lon="1.81934">
        <ele>137.8</ele>
        <time>2022-07-02T09:36:39Z</time>
      </trkpt>
      <trkpt lat="49.06104" lon="1.8193">
        <ele>137.8</ele>
        <time>2022-07-02T09:36:46Z</time>
      </trkpt>
      <trkpt lat="49.06107" lon="1.81929">
        <ele>137.7</ele>
        <time>2022-07-02T09:36:48Z</time>
      </trkpt>
      <trkpt lat="49.06118" lon="1.81926">
        <ele>137.8</ele>
        <time>2022-07-02T09:36:57Z</time>
      </trkpt>
      <trkpt lat="49.06125" lon="1.81924">
        <ele>138.1</ele>
        <time>2022-07-02T09:37:04Z</time>
      </trkpt>
      <trkpt lat="49.06136" lon="1.81922">
        <ele>138.5</ele>
        <time>2022-07-02T09:37:12Z</time>
      </trkpt>
      <trkpt lat="49.06142" lon="1.81921">
        <ele>138.6</ele>
        <time>2022-07-02T09:37:16Z</time>
      </trkpt>
      <trkpt lat="49.06151" lon="1.81919">
        <ele>138.4</ele>
        <time>2022-07-02T09:37:24Z</time>
      </trkpt>
      <trkpt lat="49.0616" lon="1.81918">
        <ele>138.2</ele>
        <time>2022-07-02T09:37:31Z</time>
      </trkpt>
      <trkpt lat="49.06169" lon="1.81916">
        <ele>138</ele>
        <time>2022-07-02T09:37:38Z</time>
      </trkpt>
      <trkpt lat="49.06178" lon="1.81913">
        <ele>138.2</ele>
        <time>2022-07-02T09:37:45Z</time>
      </trkpt>
      <trkpt lat="49.06188" lon="1.81912">
        <ele>138.2</ele>
        <time>2022-07-02T09:37:52Z</time>
      </trkpt>
      <trkpt lat="49.06191" lon="1.81912">
        <ele>138.2</ele>
        <time>2022-07-02T09:37:55Z</time>
      </trkpt>
      <trkpt lat="49.062" lon="1.8191">
        <ele>137.8</ele>
        <time>2022-07-02T09:38:03Z</time>
      </trkpt>
      <trkpt lat="49.06206" lon="1.8191">
        <ele>137.4</ele>
        <time>2022-07-02T09:38:07Z</time>
      </trkpt>
      <trkpt lat="49.06214" lon="1.81908">
        <ele>136.9</ele>
        <time>2022-07-02T09:38:14Z</time>
      </trkpt>
      <trkpt lat="49.06224" lon="1.81908">
        <ele>136.2</ele>
        <time>2022-07-02T09:38:22Z</time>
      </trkpt>
      <trkpt lat="49.06233" lon="1.81906">
        <ele>136</ele>
        <time>2022-07-02T09:38:29Z</time>
      </trkpt>
      <trkpt lat="49.06242" lon="1.81906">
        <ele>135.7</ele>
        <time>2022-07-02T09:38:36Z</time>
      </trkpt>
      <trkpt lat="49.06248" lon="1.81904">
        <ele>135.5</ele>
        <time>2022-07-02T09:38:41Z</time>
      </trkpt>
      <trkpt lat="49.06254" lon="1.81904">
        <ele>135.5</ele>
        <time>2022-07-02T09:38:46Z</time>
      </trkpt>
      <trkpt lat="49.06265" lon="1.81901">
        <ele>135.6</ele>
        <time>2022-07-02T09:38:55Z</time>
      </trkpt>
      <trkpt lat="49.06276" lon="1.81901">
        <ele>135.6</ele>
        <time>2022-07-02T09:39:03Z</time>
      </trkpt>
      <trkpt lat="49.06285" lon="1.819">
        <ele>135.9</ele>
        <time>2022-07-02T09:39:10Z</time>
      </trkpt>
      <trkpt lat="49.06298" lon="1.81899">
        <ele>136.4</ele>
        <time>2022-07-02T09:39:20Z</time>
      </trkpt>
      <trkpt lat="49.06308" lon="1.81897">
        <ele>136.8</ele>
        <time>2022-07-02T09:39:28Z</time>
      </trkpt>
      <trkpt lat="49.06316" lon="1.81897">
        <ele>137</ele>
        <time>2022-07-02T09:39:35Z</time>
      </trkpt>
      <trkpt lat="49.06323" lon="1.81897">
        <ele>137.2</ele>
        <time>2022-07-02T09:39:40Z</time>
      </trkpt>
      <trkpt lat="49.06325" lon="1.81897">
        <ele>137.2</ele>
        <time>2022-07-02T09:39:42Z</time>
      </trkpt>
      <trkpt lat="49.06334" lon="1.81894">
        <ele>137.6</ele>
        <time>2022-07-02T09:39:50Z</time>
      </trkpt>
      <trkpt lat="49.0634" lon="1.81895">
        <ele>137.6</ele>
        <time>2022-07-02T09:39:55Z</time>
      </trkpt>
      <trkpt lat="49.06351" lon="1.81894">
        <ele>137.7</ele>
        <time>2022-07-02T09:40:03Z</time>
      </trkpt>
      <trkpt lat="49.0636" lon="1.81894">
        <ele>137.6</ele>
        <time>2022-07-02T09:40:11Z</time>
      </trkpt>
      <trkpt lat="49.06362" lon="1.81893">
        <ele>137.7</ele>
        <time>2022-07-02T09:40:13Z</time>
      </trkpt>
      <trkpt lat="49.06372" lon="1.81893">
        <ele>137.4</ele>
        <time>2022-07-02T09:40:21Z</time>
      </trkpt>
      <trkpt lat="49.06381" lon="1.81893">
        <ele>137.1</ele>
        <time>2022-07-02T09:40:29Z</time>
      </trkpt>
      <trkpt lat="49.06384" lon="1.81889">
        <ele>137.2</ele>
        <time>2022-07-02T09:40:33Z</time>
      </trkpt>
      <trkpt lat="49.06384" lon="1.81887">
        <ele>137.3</ele>
        <time>2022-07-02T09:40:35Z</time>
      </trkpt>
      <trkpt lat="49.06384" lon="1.8188">
        <ele>137.8</ele>
        <time>2022-07-02T09:40:39Z</time>
      </trkpt>
      <trkpt lat="49.06381" lon="1.8187">
        <ele>138.6</ele>
        <time>2022-07-02T09:40:46Z</time>
      </trkpt>
      <trkpt lat="49.06381" lon="1.81869">
        <ele>138.7</ele>
        <time>2022-07-02T09:40:47Z</time>
      </trkpt>
      <trkpt lat="49.06379" lon="1.81856">
        <ele>139.7</ele>
        <time>2022-07-02T09:40:56Z</time>
      </trkpt>
      <trkpt lat="49.06377" lon="1.81848">
        <ele>140.2</ele>
        <time>2022-07-02T09:41:01Z</time>
      </trkpt>
      <trkpt lat="49.06376" lon="1.81839">
        <ele>140.7</ele>
        <time>2022-07-02T09:41:06Z</time>
      </trkpt>
      <trkpt lat="49.06375" lon="1.81835">
        <ele>140.9</ele>
        <time>2022-07-02T09:41:09Z</time>
      </trkpt>
      <trkpt lat="49.06373" lon="1.81821">
        <ele>142</ele>
        <time>2022-07-02T09:41:17Z</time>
      </trkpt>
      <trkpt lat="49.06371" lon="1.81809">
        <ele>143.1</ele>
        <time>2022-07-02T09:41:25Z</time>
      </trkpt>
      <trkpt lat="49.0637" lon="1.81805">
        <ele>143.4</ele>
        <time>2022-07-02T09:41:28Z</time>
      </trkpt>
      <trkpt lat="49.06369" lon="1.81801">
        <ele>143.6</ele>
        <time>2022-07-02T09:41:30Z</time>
      </trkpt>
      <trkpt lat="49.06367" lon="1.81786">
        <ele>144.6</ele>
        <time>2022-07-02T09:41:39Z</time>
      </trkpt>
      <trkpt lat="49.06366" lon="1.81775">
        <ele>145.3</ele>
        <time>2022-07-02T09:41:46Z</time>
      </trkpt>
      <trkpt lat="49.06364" lon="1.81768">
        <ele>145.8</ele>
        <time>2022-07-02T09:41:50Z</time>
      </trkpt>
      <trkpt lat="49.06364" lon="1.81762">
        <ele>146.2</ele>
        <time>2022-07-02T09:41:54Z</time>
      </trkpt>
      <trkpt lat="49.06362" lon="1.81748">
        <ele>147.1</ele>
        <time>2022-07-02T09:42:03Z</time>
      </trkpt>
      <trkpt lat="49.06361" lon="1.81734">
        <ele>147.6</ele>
        <time>2022-07-02T09:42:12Z</time>
      </trkpt>
      <trkpt lat="49.06359" lon="1.81723">
        <ele>148</ele>
        <time>2022-07-02T09:42:19Z</time>
      </trkpt>
      <trkpt lat="49.06358" lon="1.81717">
        <ele>148.4</ele>
        <time>2022-07-02T09:42:23Z</time>
      </trkpt>
      <trkpt lat="49.06357" lon="1.81704">
        <ele>149.3</ele>
        <time>2022-07-02T09:42:31Z</time>
      </trkpt>
      <trkpt lat="49.06356" lon="1.81694">
        <ele>150</ele>
        <time>2022-07-02T09:42:38Z</time>
      </trkpt>
      <trkpt lat="49.06355" lon="1.81688">
        <ele>150.4</ele>
        <time>2022-07-02T09:42:42Z</time>
      </trkpt>
      <trkpt lat="49.06354" lon="1.81672">
        <ele>151.4</ele>
        <time>2022-07-02T09:42:51Z</time>
      </trkpt>
      <trkpt lat="49.06353" lon="1.81658">
        <ele>152</ele>
        <time>2022-07-02T09:43:00Z</time>
      </trkpt>
      <trkpt lat="49.06353" lon="1.81655">
        <ele>152.1</ele>
        <time>2022-07-02T09:43:02Z</time>
      </trkpt>
      <trkpt lat="49.06351" lon="1.81643">
        <ele>152.5</ele>
        <time>2022-07-02T09:43:09Z</time>
      </trkpt>
      <trkpt lat="49.06351" lon="1.81635">
        <ele>152.9</ele>
        <time>2022-07-02T09:43:14Z</time>
      </trkpt>
      <trkpt lat="49.0635" lon="1.81622">
        <ele>153.8</ele>
        <time>2022-07-02T09:43:22Z</time>
      </trkpt>
      <trkpt lat="49.06348" lon="1.8161">
        <ele>154.6</ele>
        <time>2022-07-02T09:43:29Z</time>
      </trkpt>
      <trkpt lat="49.06347" lon="1.81598">
        <ele>155.2</ele>
        <time>2022-07-02T09:43:37Z</time>
      </trkpt>
      <trkpt lat="49.06346" lon="1.81586">
        <ele>155.8</ele>
        <time>2022-07-02T09:43:45Z</time>
      </trkpt>
      <trkpt lat="49.06346" lon="1.81581">
        <ele>156</ele>
        <time>2022-07-02T09:43:48Z</time>
      </trkpt>
      <trkpt lat="49.06347" lon="1.81565">
        <ele>156.6</ele>
        <time>2022-07-02T09:43:57Z</time>
      </trkpt>
      <trkpt lat="49.06346" lon="1.81554">
        <ele>157</ele>
        <time>2022-07-02T09:44:04Z</time>
      </trkpt>
      <trkpt lat="49.06345" lon="1.81542">
        <ele>157.8</ele>
        <time>2022-07-02T09:44:12Z</time>
      </trkpt>
      <trkpt lat="49.06345" lon="1.81541">
        <ele>157.9</ele>
        <time>2022-07-02T09:44:13Z</time>
      </trkpt>
      <trkpt lat="49.06344" lon="1.81528">
        <ele>158.7</ele>
        <time>2022-07-02T09:44:22Z</time>
      </trkpt>
      <trkpt lat="49.06342" lon="1.81521">
        <ele>158.9</ele>
        <time>2022-07-02T09:44:26Z</time>
      </trkpt>
      <trkpt lat="49.06341" lon="1.81506">
        <ele>159.4</ele>
        <time>2022-07-02T09:44:35Z</time>
      </trkpt>
      <trkpt lat="49.06341" lon="1.815">
        <ele>159.6</ele>
        <time>2022-07-02T09:44:38Z</time>
      </trkpt>
      <trkpt lat="49.06341" lon="1.81487">
        <ele>160</ele>
        <time>2022-07-02T09:44:46Z</time>
      </trkpt>
      <trkpt lat="49.0634" lon="1.81482">
        <ele>160.1</ele>
        <time>2022-07-02T09:44:49Z</time>
      </trkpt>
      <trkpt lat="49.06337" lon="1.81466">
        <ele>160.2</ele>
        <time>2022-07-02T09:44:59Z</time>
      </trkpt>
      <trkpt lat="49.06335" lon="1.81461">
        <ele>160.1</ele>
        <time>2022-07-02T09:45:02Z</time>
      </trkpt>
      <trkpt lat="49.06335" lon="1.81451">
        <ele>160.1</ele>
        <time>2022-07-02T09:45:08Z</time>
      </trkpt>
      <trkpt lat="49.06335" lon="1.81445">
        <ele>160.2</ele>
        <time>2022-07-02T09:45:12Z</time>
      </trkpt>
      <trkpt lat="49.06336" lon="1.8144">
        <ele>160.2</ele>
        <time>2022-07-02T09:45:16Z</time>
      </trkpt>
      <trkpt lat="49.06335" lon="1.81435">
        <ele>160.1</ele>
        <time>2022-07-02T09:45:19Z</time>
      </trkpt>
      <trkpt lat="49.06335" lon="1.81422">
        <ele>160.1</ele>
        <time>2022-07-02T09:45:28Z</time>
      </trkpt>
      <trkpt lat="49.06337" lon="1.81417">
        <ele>160.2</ele>
        <time>2022-07-02T09:45:36Z</time>
      </trkpt>
      <trkpt lat="49.06339" lon="1.81417">
        <ele>160.4</ele>
        <time>2022-07-02T09:45:44Z</time>
      </trkpt>
      <trkpt lat="49.06339" lon="1.81416">
        <ele>160.4</ele>
        <time>2022-07-02T09:45:52Z</time>
      </trkpt>
      <trkpt lat="49.06338" lon="1.81414">
        <ele>160.3</ele>
        <time>2022-07-02T09:46:05Z</time>
      </trkpt>
      <trkpt lat="49.06338" lon="1.81414">
        <ele>160.4</ele>
        <time>2022-07-02T09:46:12Z</time>
      </trkpt>
      <trkpt lat="49.06339" lon="1.81414">
        <ele>160.4</ele>
        <time>2022-07-02T09:46:13Z</time>
      </trkpt>
      <trkpt lat="49.06342" lon="1.81411">
        <ele>160.6</ele>
        <time>2022-07-02T09:46:18Z</time>
      </trkpt>
      <trkpt lat="49.06345" lon="1.8141">
        <ele>160.8</ele>
        <time>2022-07-02T09:46:21Z</time>
      </trkpt>
      <trkpt lat="49.06352" lon="1.81408">
        <ele>161.4</ele>
        <time>2022-07-02T09:46:29Z</time>
      </trkpt>
      <trkpt lat="49.06359" lon="1.81405">
        <ele>161.9</ele>
        <time>2022-07-02T09:46:37Z</time>
      </trkpt>
      <trkpt lat="49.06361" lon="1.81404">
        <ele>162</ele>
        <time>2022-07-02T09:46:39Z</time>
      </trkpt>
      <trkpt lat="49.06364" lon="1.81402">
        <ele>162.2</ele>
        <time>2022-07-02T09:46:46Z</time>
      </trkpt>
      <trkpt lat="49.06364" lon="1.81401">
        <ele>162.2</ele>
        <time>2022-07-02T09:46:53Z</time>
      </trkpt>
      <trkpt lat="49.06364" lon="1.81399">
        <ele>162.2</ele>
        <time>2022-07-02T09:47:00Z</time>
      </trkpt>
      <trkpt lat="49.06364" lon="1.81393">
        <ele>162.2</ele>
        <time>2022-07-02T09:47:07Z</time>
      </trkpt>
      <trkpt lat="49.06368" lon="1.81391">
        <ele>162.5</ele>
        <time>2022-07-02T09:47:12Z</time>
      </trkpt>
      <trkpt lat="49.06376" lon="1.81389">
        <ele>163</ele>
        <time>2022-07-02T09:47:19Z</time>
      </trkpt>
      <trkpt lat="49.06385" lon="1.81388">
        <ele>163.7</ele>
        <time>2022-07-02T09:47:27Z</time>
      </trkpt>
      <trkpt lat="49.06391" lon="1.81384">
        <ele>164.5</ele>
        <time>2022-07-02T09:47:33Z</time>
      </trkpt>
      <trkpt lat="49.06398" lon="1.8138">
        <ele>165.3</ele>
        <time>2022-07-02T09:47:40Z</time>
      </trkpt>
      <trkpt lat="49.06403" lon="1.81378">
        <ele>165.9</ele>
        <time>2022-07-02T09:47:45Z</time>
      </trkpt>
      <trkpt lat="49.0641" lon="1.81377">
        <ele>166.7</ele>
        <time>2022-07-02T09:47:52Z</time>
      </trkpt>
      <trkpt lat="49.06416" lon="1.81373">
        <ele>167.5</ele>
        <time>2022-07-02T09:47:58Z</time>
      </trkpt>
      <trkpt lat="49.06423" lon="1.81369">
        <ele>168.5</ele>
        <time>2022-07-02T09:48:05Z</time>
      </trkpt>
      <trkpt lat="49.06435" lon="1.81363">
        <ele>169.9</ele>
        <time>2022-07-02T09:48:15Z</time>
      </trkpt>
      <trkpt lat="49.06444" lon="1.81356">
        <ele>170.8</ele>
        <time>2022-07-02T09:48:24Z</time>
      </trkpt>
      <trkpt lat="49.06455" lon="1.81352">
        <ele>171.8</ele>
        <time>2022-07-02T09:48:32Z</time>
      </trkpt>
      <trkpt lat="49.06462" lon="1.8135">
        <ele>172.5</ele>
        <time>2022-07-02T09:48:39Z</time>
      </trkpt>
      <trkpt lat="49.06463" lon="1.8135">
        <ele>172.6</ele>
        <time>2022-07-02T09:48:40Z</time>
      </trkpt>
      <trkpt lat="49.06466" lon="1.81349">
        <ele>172.9</ele>
        <time>2022-07-02T09:48:44Z</time>
      </trkpt>
      <trkpt lat="49.06468" lon="1.81348">
        <ele>173</ele>
        <time>2022-07-02T09:48:46Z</time>
      </trkpt>
      <trkpt lat="49.06472" lon="1.81348">
        <ele>173.5</ele>
        <time>2022-07-02T09:48:51Z</time>
      </trkpt>
      <trkpt lat="49.06478" lon="1.81343">
        <ele>174</ele>
        <time>2022-07-02T09:48:57Z</time>
      </trkpt>
      <trkpt lat="49.06483" lon="1.81342">
        <ele>174.6</ele>
        <time>2022-07-02T09:49:03Z</time>
      </trkpt>
      <trkpt lat="49.0649" lon="1.81337">
        <ele>175.2</ele>
        <time>2022-07-02T09:49:10Z</time>
      </trkpt>
      <trkpt lat="49.06498" lon="1.81331">
        <ele>175.7</ele>
        <time>2022-07-02T09:49:18Z</time>
      </trkpt>
      <trkpt lat="49.06501" lon="1.81329">
        <ele>176</ele>
        <time>2022-07-02T09:49:24Z</time>
      </trkpt>
      <trkpt lat="49.06509" lon="1.81321">
        <ele>176.5</ele>
        <time>2022-07-02T09:49:31Z</time>
      </trkpt>
      <trkpt lat="49.06518" lon="1.81317">
        <ele>177.3</ele>
        <time>2022-07-02T09:49:38Z</time>
      </trkpt>
      <trkpt lat="49.06526" lon="1.81313">
        <ele>178.1</ele>
        <time>2022-07-02T09:49:46Z</time>
      </trkpt>
      <trkpt lat="49.06529" lon="1.8131">
        <ele>178.3</ele>
        <time>2022-07-02T09:49:48Z</time>
      </trkpt>
      <trkpt lat="49.06534" lon="1.81306">
        <ele>178.9</ele>
        <time>2022-07-02T09:49:52Z</time>
      </trkpt>
      <trkpt lat="49.06541" lon="1.81303">
        <ele>179.9</ele>
        <time>2022-07-02T09:49:59Z</time>
      </trkpt>
      <trkpt lat="49.06546" lon="1.81299">
        <ele>180.5</ele>
        <time>2022-07-02T09:50:06Z</time>
      </trkpt>
      <trkpt lat="49.06552" lon="1.81297">
        <ele>181.2</ele>
        <time>2022-07-02T09:50:12Z</time>
      </trkpt>
      <trkpt lat="49.0656" lon="1.81292">
        <ele>182</ele>
        <time>2022-07-02T09:50:21Z</time>
      </trkpt>
      <trkpt lat="49.06566" lon="1.81289">
        <ele>182.5</ele>
        <time>2022-07-02T09:50:27Z</time>
      </trkpt>
      <trkpt lat="49.06575" lon="1.8129">
        <ele>183.5</ele>
        <time>2022-07-02T09:50:35Z</time>
      </trkpt>
      <trkpt lat="49.06577" lon="1.8129">
        <ele>183.7</ele>
        <time>2022-07-02T09:50:38Z</time>
      </trkpt>
      <trkpt lat="49.06585" lon="1.81284">
        <ele>184.3</ele>
        <time>2022-07-02T09:50:45Z</time>
      </trkpt>
      <trkpt lat="49.0659" lon="1.81284">
        <ele>184.7</ele>
        <time>2022-07-02T09:50:52Z</time>
      </trkpt>
      <trkpt lat="49.06597" lon="1.81281">
        <ele>185.1</ele>
        <time>2022-07-02T09:50:59Z</time>
      </trkpt>
      <trkpt lat="49.066" lon="1.8128">
        <ele>185.3</ele>
        <time>2022-07-02T09:51:01Z</time>
      </trkpt>
      <trkpt lat="49.06607" lon="1.81274">
        <ele>185.6</ele>
        <time>2022-07-02T09:51:07Z</time>
      </trkpt>
      <trkpt lat="49.06613" lon="1.81273">
        <ele>185.9</ele>
        <time>2022-07-02T09:51:14Z</time>
      </trkpt>
      <trkpt lat="49.06618" lon="1.81271">
        <ele>186</ele>
        <time>2022-07-02T09:51:21Z</time>
      </trkpt>
      <trkpt lat="49.06624" lon="1.81267">
        <ele>186.1</ele>
        <time>2022-07-02T09:51:27Z</time>
      </trkpt>
      <trkpt lat="49.06627" lon="1.81267">
        <ele>186.2</ele>
        <time>2022-07-02T09:51:29Z</time>
      </trkpt>
      <trkpt lat="49.06636" lon="1.81264">
        <ele>186.4</ele>
        <time>2022-07-02T09:51:38Z</time>
      </trkpt>
      <trkpt lat="49.0664" lon="1.81265">
        <ele>186.7</ele>
        <time>2022-07-02T09:51:42Z</time>
      </trkpt>
      <trkpt lat="49.06652" lon="1.81261">
        <ele>187.4</ele>
        <time>2022-07-02T09:51:51Z</time>
      </trkpt>
      <trkpt lat="49.06653" lon="1.81261">
        <ele>187.4</ele>
        <time>2022-07-02T09:51:52Z</time>
      </trkpt>
      <trkpt lat="49.06659" lon="1.81259">
        <ele>187.8</ele>
        <time>2022-07-02T09:51:57Z</time>
      </trkpt>
      <trkpt lat="49.06662" lon="1.81257">
        <ele>187.9</ele>
        <time>2022-07-02T09:51:59Z</time>
      </trkpt>
      <trkpt lat="49.06665" lon="1.81257">
        <ele>188.2</ele>
        <time>2022-07-02T09:52:02Z</time>
      </trkpt>
      <trkpt lat="49.06673" lon="1.81254">
        <ele>188.1</ele>
        <time>2022-07-02T09:52:08Z</time>
      </trkpt>
      <trkpt lat="49.0668" lon="1.81246">
        <ele>187.7</ele>
        <time>2022-07-02T09:52:16Z</time>
      </trkpt>
      <trkpt lat="49.06685" lon="1.81237">
        <ele>187.2</ele>
        <time>2022-07-02T09:52:22Z</time>
      </trkpt>
      <trkpt lat="49.06696" lon="1.81229">
        <ele>187.3</ele>
        <time>2022-07-02T09:52:31Z</time>
      </trkpt>
      <trkpt lat="49.067" lon="1.81224">
        <ele>187.2</ele>
        <time>2022-07-02T09:52:36Z</time>
      </trkpt>
      <trkpt lat="49.06707" lon="1.81213">
        <ele>186.8</ele>
        <time>2022-07-02T09:52:45Z</time>
      </trkpt>
      <trkpt lat="49.06713" lon="1.81207">
        <ele>186.7</ele>
        <time>2022-07-02T09:52:52Z</time>
      </trkpt>
      <trkpt lat="49.06721" lon="1.81203">
        <ele>187.2</ele>
        <time>2022-07-02T09:52:58Z</time>
      </trkpt>
      <trkpt lat="49.06726" lon="1.81199">
        <ele>187.3</ele>
        <time>2022-07-02T09:53:02Z</time>
      </trkpt>
      <trkpt lat="49.0673" lon="1.81196">
        <ele>187.3</ele>
        <time>2022-07-02T09:53:06Z</time>
      </trkpt>
      <trkpt lat="49.06737" lon="1.81191">
        <ele>187.4</ele>
        <time>2022-07-02T09:53:12Z</time>
      </trkpt>
      <trkpt lat="49.06747" lon="1.81181">
        <ele>187.3</ele>
        <time>2022-07-02T09:53:20Z</time>
      </trkpt>
      <trkpt lat="49.06755" lon="1.81171">
        <ele>187.4</ele>
        <time>2022-07-02T09:53:28Z</time>
      </trkpt>
      <trkpt lat="49.06759" lon="1.81168">
        <ele>187.4</ele>
        <time>2022-07-02T09:53:31Z</time>
      </trkpt>
      <trkpt lat="49.06765" lon="1.81162">
        <ele>187.3</ele>
        <time>2022-07-02T09:53:37Z</time>
      </trkpt>
      <trkpt lat="49.06771" lon="1.81157">
        <ele>187.3</ele>
        <time>2022-07-02T09:53:42Z</time>
      </trkpt>
      <trkpt lat="49.06779" lon="1.81148">
        <ele>187.4</ele>
        <time>2022-07-02T09:53:51Z</time>
      </trkpt>
      <trkpt lat="49.06787" lon="1.8114">
        <ele>187.4</ele>
        <time>2022-07-02T09:53:59Z</time>
      </trkpt>
      <trkpt lat="49.06793" lon="1.81133">
        <ele>187.2</ele>
        <time>2022-07-02T09:54:05Z</time>
      </trkpt>
      <trkpt lat="49.06794" lon="1.81131">
        <ele>187.2</ele>
        <time>2022-07-02T09:54:07Z</time>
      </trkpt>
      <trkpt lat="49.068" lon="1.81124">
        <ele>187.2</ele>
        <time>2022-07-02T09:54:15Z</time>
      </trkpt>
      <trkpt lat="49.06809" lon="1.81115">
        <ele>187.2</ele>
        <time>2022-07-02T09:54:22Z</time>
      </trkpt>
      <trkpt lat="49.06816" lon="1.81107">
        <ele>187.1</ele>
        <time>2022-07-02T09:54:28Z</time>
      </trkpt>
      <trkpt lat="49.06823" lon="1.81099">
        <ele>187</ele>
        <time>2022-07-02T09:54:35Z</time>
      </trkpt>
      <trkpt lat="49.06824" lon="1.81097">
        <ele>187</ele>
        <time>2022-07-02T09:54:36Z</time>
      </trkpt>
      <trkpt lat="49.0683" lon="1.81084">
        <ele>186.8</ele>
        <time>2022-07-02T09:54:44Z</time>
      </trkpt>
      <trkpt lat="49.06834" lon="1.81079">
        <ele>186.9</ele>
        <time>2022-07-02T09:54:48Z</time>
      </trkpt>
      <trkpt lat="49.06838" lon="1.81073">
        <ele>186.9</ele>
        <time>2022-07-02T09:54:54Z</time>
      </trkpt>
      <trkpt lat="49.0684" lon="1.81069">
        <ele>187</ele>
        <time>2022-07-02T09:54:57Z</time>
      </trkpt>
      <trkpt lat="49.06847" lon="1.81063">
        <ele>187.3</ele>
        <time>2022-07-02T09:55:04Z</time>
      </trkpt>
      <trkpt lat="49.06851" lon="1.8106">
        <ele>187.4</ele>
        <time>2022-07-02T09:55:08Z</time>
      </trkpt>
      <trkpt lat="49.06856" lon="1.81055">
        <ele>187.6</ele>
        <time>2022-07-02T09:55:15Z</time>
      </trkpt>
      <trkpt lat="49.06863" lon="1.81047">
        <ele>187.8</ele>
        <time>2022-07-02T09:55:22Z</time>
      </trkpt>
      <trkpt lat="49.06871" lon="1.81036">
        <ele>188.2</ele>
        <time>2022-07-02T09:55:30Z</time>
      </trkpt>
      <trkpt lat="49.06874" lon="1.81033">
        <ele>188.5</ele>
        <time>2022-07-02T09:55:33Z</time>
      </trkpt>
      <trkpt lat="49.06881" lon="1.81024">
        <ele>189.1</ele>
        <time>2022-07-02T09:55:40Z</time>
      </trkpt>
      <trkpt lat="49.06883" lon="1.8102">
        <ele>189.3</ele>
        <time>2022-07-02T09:55:46Z</time>
      </trkpt>
      <trkpt lat="49.06887" lon="1.81005">
        <ele>189.7</ele>
        <time>2022-07-02T09:55:58Z</time>
      </trkpt>
      <trkpt lat="49.06886" lon="1.81003">
        <ele>189.7</ele>
        <time>2022-07-02T09:56:06Z</time>
      </trkpt>
      <trkpt lat="49.06886" lon="1.81002">
        <ele>189.6</ele>
        <time>2022-07-02T09:56:17Z</time>
      </trkpt>
      <trkpt lat="49.06886" lon="1.81001">
        <ele>189.7</ele>
        <time>2022-07-02T09:56:27Z</time>
      </trkpt>
      <trkpt lat="49.06886" lon="1.81001">
        <ele>189.6</ele>
        <time>2022-07-02T09:56:41Z</time>
      </trkpt>
      <trkpt lat="49.06887" lon="1.81001">
        <ele>189.7</ele>
        <time>2022-07-02T09:56:51Z</time>
      </trkpt>
      <trkpt lat="49.06886" lon="1.81">
        <ele>189.6</ele>
        <time>2022-07-02T09:56:58Z</time>
      </trkpt>
      <trkpt lat="49.06886" lon="1.80999">
        <ele>189.6</ele>
        <time>2022-07-02T09:57:10Z</time>
      </trkpt>
      <trkpt lat="49.06886" lon="1.81">
        <ele>189.6</ele>
        <time>2022-07-02T09:57:23Z</time>
      </trkpt>
      <trkpt lat="49.06885" lon="1.81">
        <ele>189.5</ele>
        <time>2022-07-02T09:57:35Z</time>
      </trkpt>
      <trkpt lat="49.06886" lon="1.81">
        <ele>189.5</ele>
        <time>2022-07-02T09:57:45Z</time>
      </trkpt>
      <trkpt lat="49.06887" lon="1.80999">
        <ele>189.7</ele>
        <time>2022-07-02T09:57:55Z</time>
      </trkpt>
      <trkpt lat="49.06894" lon="1.80994">
        <ele>190.2</ele>
        <time>2022-07-02T09:58:03Z</time>
      </trkpt>
      <trkpt lat="49.06898" lon="1.80992">
        <ele>190.5</ele>
        <time>2022-07-02T09:58:09Z</time>
      </trkpt>
      <trkpt lat="49.06903" lon="1.8099">
        <ele>190.9</ele>
        <time>2022-07-02T09:58:16Z</time>
      </trkpt>
      <trkpt lat="49.06907" lon="1.80988">
        <ele>191.1</ele>
        <time>2022-07-02T09:58:22Z</time>
      </trkpt>
      <trkpt lat="49.06915" lon="1.80984">
        <ele>191.8</ele>
        <time>2022-07-02T09:58:29Z</time>
      </trkpt>
      <trkpt lat="49.0692" lon="1.80983">
        <ele>192.1</ele>
        <time>2022-07-02T09:58:35Z</time>
      </trkpt>
      <trkpt lat="49.06925" lon="1.80978">
        <ele>192.2</ele>
        <time>2022-07-02T09:58:41Z</time>
      </trkpt>
      <trkpt lat="49.06927" lon="1.80976">
        <ele>192.3</ele>
        <time>2022-07-02T09:58:46Z</time>
      </trkpt>
      <trkpt lat="49.06933" lon="1.80974">
        <ele>192.5</ele>
        <time>2022-07-02T09:58:52Z</time>
      </trkpt>
      <trkpt lat="49.06941" lon="1.80969">
        <ele>192.9</ele>
        <time>2022-07-02T09:59:00Z</time>
      </trkpt>
      <trkpt lat="49.06948" lon="1.80967">
        <ele>193</ele>
        <time>2022-07-02T09:59:06Z</time>
      </trkpt>
      <trkpt lat="49.06956" lon="1.8096">
        <ele>193</ele>
        <time>2022-07-02T09:59:12Z</time>
      </trkpt>
      <trkpt lat="49.06964" lon="1.80958">
        <ele>193</ele>
        <time>2022-07-02T09:59:20Z</time>
      </trkpt>
      <trkpt lat="49.06969" lon="1.80956">
        <ele>193</ele>
        <time>2022-07-02T09:59:24Z</time>
      </trkpt>
      <trkpt lat="49.06972" lon="1.80954">
        <ele>193</ele>
        <time>2022-07-02T09:59:26Z</time>
      </trkpt>
      <trkpt lat="49.06976" lon="1.80951">
        <ele>193</ele>
        <time>2022-07-02T09:59:30Z</time>
      </trkpt>
      <trkpt lat="49.06985" lon="1.80942">
        <ele>193</ele>
        <time>2022-07-02T09:59:40Z</time>
      </trkpt>
      <trkpt lat="49.06991" lon="1.80937">
        <ele>193</ele>
        <time>2022-07-02T09:59:47Z</time>
      </trkpt>
      <trkpt lat="49.06999" lon="1.80933">
        <ele>193</ele>
        <time>2022-07-02T09:59:55Z</time>
      </trkpt>
      <trkpt lat="49.07008" lon="1.80927">
        <ele>192.9</ele>
        <time>2022-07-02T10:00:04Z</time>
      </trkpt>
      <trkpt lat="49.07013" lon="1.80926">
        <ele>192.9</ele>
        <time>2022-07-02T10:00:10Z</time>
      </trkpt>
      <trkpt lat="49.07017" lon="1.80924">
        <ele>192.8</ele>
        <time>2022-07-02T10:00:17Z</time>
      </trkpt>
      <trkpt lat="49.07022" lon="1.8092">
        <ele>192.9</ele>
        <time>2022-07-02T10:00:23Z</time>
      </trkpt>
      <trkpt lat="49.07033" lon="1.80919">
        <ele>192.7</ele>
        <time>2022-07-02T10:00:32Z</time>
      </trkpt>
      <trkpt lat="49.07038" lon="1.80916">
        <ele>192.7</ele>
        <time>2022-07-02T10:00:38Z</time>
      </trkpt>
      <trkpt lat="49.07043" lon="1.80912">
        <ele>192.6</ele>
        <time>2022-07-02T10:00:45Z</time>
      </trkpt>
      <trkpt lat="49.0705" lon="1.80907">
        <ele>192.6</ele>
        <time>2022-07-02T10:00:51Z</time>
      </trkpt>
      <trkpt lat="49.07057" lon="1.80902">
        <ele>192.5</ele>
        <time>2022-07-02T10:00:58Z</time>
      </trkpt>
      <trkpt lat="49.07065" lon="1.80898">
        <ele>192.3</ele>
        <time>2022-07-02T10:01:05Z</time>
      </trkpt>
      <trkpt lat="49.07073" lon="1.80895">
        <ele>192.2</ele>
        <time>2022-07-02T10:01:11Z</time>
      </trkpt>
      <trkpt lat="49.0708" lon="1.80887">
        <ele>192.2</ele>
        <time>2022-07-02T10:01:19Z</time>
      </trkpt>
      <trkpt lat="49.0709" lon="1.80878">
        <ele>192.2</ele>
        <time>2022-07-02T10:01:27Z</time>
      </trkpt>
      <trkpt lat="49.07097" lon="1.80873">
        <ele>192.1</ele>
        <time>2022-07-02T10:01:35Z</time>
      </trkpt>
      <trkpt lat="49.07104" lon="1.80868">
        <ele>192</ele>
        <time>2022-07-02T10:01:42Z</time>
      </trkpt>
      <trkpt lat="49.0711" lon="1.80864">
        <ele>192</ele>
        <time>2022-07-02T10:01:50Z</time>
      </trkpt>
      <trkpt lat="49.07118" lon="1.80857">
        <ele>192.3</ele>
        <time>2022-07-02T10:01:58Z</time>
      </trkpt>
      <trkpt lat="49.07123" lon="1.80854">
        <ele>192.5</ele>
        <time>2022-07-02T10:02:05Z</time>
      </trkpt>
      <trkpt lat="49.0713" lon="1.80849">
        <ele>192.9</ele>
        <time>2022-07-02T10:02:12Z</time>
      </trkpt>
      <trkpt lat="49.07136" lon="1.80842">
        <ele>193.4</ele>
        <time>2022-07-02T10:02:19Z</time>
      </trkpt>
      <trkpt lat="49.0714" lon="1.80837">
        <ele>193.7</ele>
        <time>2022-07-02T10:02:26Z</time>
      </trkpt>
      <trkpt lat="49.07151" lon="1.80832">
        <ele>194</ele>
        <time>2022-07-02T10:02:36Z</time>
      </trkpt>
      <trkpt lat="49.07156" lon="1.80831">
        <ele>194.1</ele>
        <time>2022-07-02T10:02:42Z</time>
      </trkpt>
      <trkpt lat="49.07162" lon="1.80829">
        <ele>194.1</ele>
        <time>2022-07-02T10:02:49Z</time>
      </trkpt>
      <trkpt lat="49.0717" lon="1.80825">
        <ele>194.2</ele>
        <time>2022-07-02T10:02:55Z</time>
      </trkpt>
      <trkpt lat="49.07177" lon="1.8082">
        <ele>194.1</ele>
        <time>2022-07-02T10:03:03Z</time>
      </trkpt>
      <trkpt lat="49.07178" lon="1.80816">
        <ele>194.2</ele>
        <time>2022-07-02T10:03:06Z</time>
      </trkpt>
      <trkpt lat="49.07184" lon="1.80806">
        <ele>194.4</ele>
        <time>2022-07-02T10:03:13Z</time>
      </trkpt>
      <trkpt lat="49.07185" lon="1.80802">
        <ele>194.5</ele>
        <time>2022-07-02T10:03:16Z</time>
      </trkpt>
      <trkpt lat="49.07187" lon="1.80799">
        <ele>194.5</ele>
        <time>2022-07-02T10:03:22Z</time>
      </trkpt>
      <trkpt lat="49.07192" lon="1.80795">
        <ele>194.5</ele>
        <time>2022-07-02T10:03:29Z</time>
      </trkpt>
      <trkpt lat="49.07197" lon="1.80792">
        <ele>194.4</ele>
        <time>2022-07-02T10:03:35Z</time>
      </trkpt>
      <trkpt lat="49.07201" lon="1.80787">
        <ele>194.4</ele>
        <time>2022-07-02T10:03:40Z</time>
      </trkpt>
      <trkpt lat="49.07207" lon="1.80779">
        <ele>194.5</ele>
        <time>2022-07-02T10:03:46Z</time>
      </trkpt>
      <trkpt lat="49.07211" lon="1.80772">
        <ele>194.6</ele>
        <time>2022-07-02T10:03:54Z</time>
      </trkpt>
      <trkpt lat="49.07215" lon="1.80767">
        <ele>194.7</ele>
        <time>2022-07-02T10:03:59Z</time>
      </trkpt>
      <trkpt lat="49.07221" lon="1.80763">
        <ele>194.6</ele>
        <time>2022-07-02T10:04:06Z</time>
      </trkpt>
      <trkpt lat="49.07225" lon="1.8076">
        <ele>194.4</ele>
        <time>2022-07-02T10:04:12Z</time>
      </trkpt>
      <trkpt lat="49.07226" lon="1.80758">
        <ele>194.4</ele>
        <time>2022-07-02T10:04:20Z</time>
      </trkpt>
      <trkpt lat="49.0723" lon="1.80754">
        <ele>194.2</ele>
        <time>2022-07-02T10:04:28Z</time>
      </trkpt>
      <trkpt lat="49.07237" lon="1.80749">
        <ele>194</ele>
        <time>2022-07-02T10:04:35Z</time>
      </trkpt>
      <trkpt lat="49.07239" lon="1.80748">
        <ele>193.9</ele>
        <time>2022-07-02T10:04:37Z</time>
      </trkpt>
      <trkpt lat="49.07246" lon="1.80741">
        <ele>193.9</ele>
        <time>2022-07-02T10:04:45Z</time>
      </trkpt>
      <trkpt lat="49.07252" lon="1.80737">
        <ele>193.7</ele>
        <time>2022-07-02T10:04:51Z</time>
      </trkpt>
      <trkpt lat="49.07258" lon="1.8073">
        <ele>193.4</ele>
        <time>2022-07-02T10:04:58Z</time>
      </trkpt>
      <trkpt lat="49.07263" lon="1.80727">
        <ele>193</ele>
        <time>2022-07-02T10:05:04Z</time>
      </trkpt>
      <trkpt lat="49.0727" lon="1.80723">
        <ele>192.7</ele>
        <time>2022-07-02T10:05:12Z</time>
      </trkpt>
      <trkpt lat="49.07275" lon="1.80718">
        <ele>192.8</ele>
        <time>2022-07-02T10:05:18Z</time>
      </trkpt>
      <trkpt lat="49.07281" lon="1.80713">
        <ele>192.7</ele>
        <time>2022-07-02T10:05:25Z</time>
      </trkpt>
      <trkpt lat="49.07289" lon="1.80709">
        <ele>192.4</ele>
        <time>2022-07-02T10:05:32Z</time>
      </trkpt>
      <trkpt lat="49.07295" lon="1.80706">
        <ele>192.2</ele>
        <time>2022-07-02T10:05:39Z</time>
      </trkpt>
      <trkpt lat="49.07296" lon="1.80703">
        <ele>192.6</ele>
        <time>2022-07-02T10:05:48Z</time>
      </trkpt>
      <trkpt lat="49.07297" lon="1.80703">
        <ele>192.4</ele>
        <time>2022-07-02T10:05:55Z</time>
      </trkpt>
      <trkpt lat="49.07299" lon="1.80703">
        <ele>192.3</ele>
        <time>2022-07-02T10:06:04Z</time>
      </trkpt>
      <trkpt lat="49.07299" lon="1.80703">
        <ele>192.3</ele>
        <time>2022-07-02T10:06:12Z</time>
      </trkpt>
      <trkpt lat="49.07301" lon="1.80702">
        <ele>192.3</ele>
        <time>2022-07-02T10:06:20Z</time>
      </trkpt>
      <trkpt lat="49.07303" lon="1.80698">
        <ele>192.7</ele>
        <time>2022-07-02T10:06:25Z</time>
      </trkpt>
      <trkpt lat="49.07304" lon="1.80694">
        <ele>193.2</ele>
        <time>2022-07-02T10:06:28Z</time>
      </trkpt>
      <trkpt lat="49.07306" lon="1.8069">
        <ele>193.4</ele>
        <time>2022-07-02T10:06:31Z</time>
      </trkpt>
      <trkpt lat="49.0731" lon="1.80676">
        <ele>194.3</ele>
        <time>2022-07-02T10:06:38Z</time>
      </trkpt>
      <trkpt lat="49.07313" lon="1.80661">
        <ele>195.2</ele>
        <time>2022-07-02T10:06:45Z</time>
      </trkpt>
      <trkpt lat="49.07316" lon="1.80647">
        <ele>195.7</ele>
        <time>2022-07-02T10:06:52Z</time>
      </trkpt>
      <trkpt lat="49.07317" lon="1.80632">
        <ele>196.2</ele>
        <time>2022-07-02T10:07:00Z</time>
      </trkpt>
      <trkpt lat="49.07318" lon="1.80625">
        <ele>196.5</ele>
        <time>2022-07-02T10:07:04Z</time>
      </trkpt>
      <trkpt lat="49.07319" lon="1.80619">
        <ele>196.7</ele>
        <time>2022-07-02T10:07:08Z</time>
      </trkpt>
      <trkpt lat="49.0732" lon="1.80615">
        <ele>196.8</ele>
        <time>2022-07-02T10:07:10Z</time>
      </trkpt>
      <trkpt lat="49.07324" lon="1.80603">
        <ele>197</ele>
        <time>2022-07-02T10:07:18Z</time>
      </trkpt>
      <trkpt lat="49.07326" lon="1.80593">
        <ele>197</ele>
        <time>2022-07-02T10:07:25Z</time>
      </trkpt>
      <trkpt lat="49.07326" lon="1.80586">
        <ele>197</ele>
        <time>2022-07-02T10:07:31Z</time>
      </trkpt>
      <trkpt lat="49.07328" lon="1.80574">
        <ele>197.3</ele>
        <time>2022-07-02T10:07:38Z</time>
      </trkpt>
      <trkpt lat="49.07329" lon="1.80562">
        <ele>197.7</ele>
        <time>2022-07-02T10:07:45Z</time>
      </trkpt>
      <trkpt lat="49.07333" lon="1.80551">
        <ele>198</ele>
        <time>2022-07-02T10:07:52Z</time>
      </trkpt>
      <trkpt lat="49.07335" lon="1.80541">
        <ele>198</ele>
        <time>2022-07-02T10:07:59Z</time>
      </trkpt>
      <trkpt lat="49.07338" lon="1.80533">
        <ele>198</ele>
        <time>2022-07-02T10:08:05Z</time>
      </trkpt>
      <trkpt lat="49.0734" lon="1.80524">
        <ele>198</ele>
        <time>2022-07-02T10:08:11Z</time>
      </trkpt>
      <trkpt lat="49.07345" lon="1.80511">
        <ele>198.3</ele>
        <time>2022-07-02T10:08:18Z</time>
      </trkpt>
      <trkpt lat="49.07346" lon="1.80509">
        <ele>198.3</ele>
        <time>2022-07-02T10:08:19Z</time>
      </trkpt>
      <trkpt lat="49.0735" lon="1.80497">
        <ele>198.6</ele>
        <time>2022-07-02T10:08:26Z</time>
      </trkpt>
      <trkpt lat="49.07352" lon="1.8049">
        <ele>198.8</ele>
        <time>2022-07-02T10:08:31Z</time>
      </trkpt>
      <trkpt lat="49.07357" lon="1.80477">
        <ele>199</ele>
        <time>2022-07-02T10:08:39Z</time>
      </trkpt>
      <trkpt lat="49.07359" lon="1.80471">
        <ele>199</ele>
        <time>2022-07-02T10:08:43Z</time>
      </trkpt>
      <trkpt lat="49.07362" lon="1.80463">
        <ele>199</ele>
        <time>2022-07-02T10:08:49Z</time>
      </trkpt>
      <trkpt lat="49.07363" lon="1.80454">
        <ele>199</ele>
        <time>2022-07-02T10:08:54Z</time>
      </trkpt>
      <trkpt lat="49.07367" lon="1.80449">
        <ele>199.2</ele>
        <time>2022-07-02T10:08:59Z</time>
      </trkpt>
      <trkpt lat="49.07371" lon="1.8044">
        <ele>199.5</ele>
        <time>2022-07-02T10:09:05Z</time>
      </trkpt>
      <trkpt lat="49.07376" lon="1.80433">
        <ele>199.7</ele>
        <time>2022-07-02T10:09:12Z</time>
      </trkpt>
      <trkpt lat="49.07381" lon="1.80429">
        <ele>199.9</ele>
        <time>2022-07-02T10:09:19Z</time>
      </trkpt>
      <trkpt lat="49.07385" lon="1.80427">
        <ele>199.9</ele>
        <time>2022-07-02T10:09:24Z</time>
      </trkpt>
      <trkpt lat="49.07393" lon="1.80425">
        <ele>200</ele>
        <time>2022-07-02T10:09:31Z</time>
      </trkpt>
      <trkpt lat="49.074" lon="1.80423">
        <ele>200</ele>
        <time>2022-07-02T10:09:38Z</time>
      </trkpt>
      <trkpt lat="49.07402" lon="1.80423">
        <ele>200</ele>
        <time>2022-07-02T10:09:40Z</time>
      </trkpt>
      <trkpt lat="49.07405" lon="1.80422">
        <ele>200</ele>
        <time>2022-07-02T10:09:43Z</time>
      </trkpt>
      <trkpt lat="49.07415" lon="1.80421">
        <ele>200</ele>
        <time>2022-07-02T10:09:51Z</time>
      </trkpt>
      <trkpt lat="49.0742" lon="1.80421">
        <ele>200</ele>
        <time>2022-07-02T10:09:58Z</time>
      </trkpt>
      <trkpt lat="49.07427" lon="1.80421">
        <ele>200</ele>
        <time>2022-07-02T10:10:06Z</time>
      </trkpt>
      <trkpt lat="49.07433" lon="1.80419">
        <ele>200</ele>
        <time>2022-07-02T10:10:12Z</time>
      </trkpt>
      <trkpt lat="49.07438" lon="1.80416">
        <ele>200</ele>
        <time>2022-07-02T10:10:18Z</time>
      </trkpt>
      <trkpt lat="49.07448" lon="1.80411">
        <ele>200</ele>
        <time>2022-07-02T10:10:26Z</time>
      </trkpt>
      <trkpt lat="49.07449" lon="1.80411">
        <ele>200</ele>
        <time>2022-07-02T10:10:27Z</time>
      </trkpt>
      <trkpt lat="49.07455" lon="1.80411">
        <ele>200</ele>
        <time>2022-07-02T10:10:34Z</time>
      </trkpt>
      <trkpt lat="49.07457" lon="1.8041">
        <ele>200</ele>
        <time>2022-07-02T10:10:39Z</time>
      </trkpt>
      <trkpt lat="49.07458" lon="1.8041">
        <ele>200</ele>
        <time>2022-07-02T10:10:40Z</time>
      </trkpt>
      <trkpt lat="49.07467" lon="1.80409">
        <ele>200</ele>
        <time>2022-07-02T10:10:46Z</time>
      </trkpt>
      <trkpt lat="49.07473" lon="1.80407">
        <ele>200</ele>
        <time>2022-07-02T10:10:54Z</time>
      </trkpt>
      <trkpt lat="49.07475" lon="1.80406">
        <ele>200</ele>
        <time>2022-07-02T10:10:56Z</time>
      </trkpt>
      <trkpt lat="49.07479" lon="1.80402">
        <ele>200</ele>
        <time>2022-07-02T10:11:02Z</time>
      </trkpt>
      <trkpt lat="49.07486" lon="1.80397">
        <ele>200</ele>
        <time>2022-07-02T10:11:06Z</time>
      </trkpt>
      <trkpt lat="49.07496" lon="1.80398">
        <ele>200</ele>
        <time>2022-07-02T10:11:12Z</time>
      </trkpt>
      <trkpt lat="49.07503" lon="1.80396">
        <ele>200</ele>
        <time>2022-07-02T10:11:18Z</time>
      </trkpt>
      <trkpt lat="49.07508" lon="1.80395">
        <ele>200</ele>
        <time>2022-07-02T10:11:22Z</time>
      </trkpt>
      <trkpt lat="49.07515" lon="1.80388">
        <ele>200</ele>
        <time>2022-07-02T10:11:29Z</time>
      </trkpt>
      <trkpt lat="49.07521" lon="1.80384">
        <ele>200</ele>
        <time>2022-07-02T10:11:34Z</time>
      </trkpt>
      <trkpt lat="49.07527" lon="1.80379">
        <ele>200</ele>
        <time>2022-07-02T10:11:39Z</time>
      </trkpt>
      <trkpt lat="49.07533" lon="1.80375">
        <ele>200</ele>
        <time>2022-07-02T10:11:45Z</time>
      </trkpt>
      <trkpt lat="49.07537" lon="1.8037">
        <ele>200</ele>
        <time>2022-07-02T10:11:51Z</time>
      </trkpt>
      <trkpt lat="49.07542" lon="1.80366">
        <ele>200</ele>
        <time>2022-07-02T10:11:58Z</time>
      </trkpt>
      <trkpt lat="49.07549" lon="1.80363">
        <ele>200</ele>
        <time>2022-07-02T10:12:04Z</time>
      </trkpt>
      <trkpt lat="49.07556" lon="1.80361">
        <ele>200</ele>
        <time>2022-07-02T10:12:10Z</time>
      </trkpt>
      <trkpt lat="49.07562" lon="1.80358">
        <ele>199.9</ele>
        <time>2022-07-02T10:12:16Z</time>
      </trkpt>
      <trkpt lat="49.07568" lon="1.80355">
        <ele>199.9</ele>
        <time>2022-07-02T10:12:22Z</time>
      </trkpt>
      <trkpt lat="49.07575" lon="1.80351">
        <ele>199.9</ele>
        <time>2022-07-02T10:12:29Z</time>
      </trkpt>
      <trkpt lat="49.07582" lon="1.80343">
        <ele>200</ele>
        <time>2022-07-02T10:12:37Z</time>
      </trkpt>
      <trkpt lat="49.07583" lon="1.80342">
        <ele>200</ele>
        <time>2022-07-02T10:12:38Z</time>
      </trkpt>
      <trkpt lat="49.07591" lon="1.80337">
        <ele>199.8</ele>
        <time>2022-07-02T10:12:46Z</time>
      </trkpt>
      <trkpt lat="49.076" lon="1.80342">
        <ele>199.6</ele>
        <time>2022-07-02T10:12:54Z</time>
      </trkpt>
      <trkpt lat="49.07607" lon="1.80347">
        <ele>199.5</ele>
        <time>2022-07-02T10:13:02Z</time>
      </trkpt>
      <trkpt lat="49.07608" lon="1.80347">
        <ele>199.5</ele>
        <time>2022-07-02T10:13:03Z</time>
      </trkpt>
      <trkpt lat="49.07611" lon="1.80348">
        <ele>199.5</ele>
        <time>2022-07-02T10:13:05Z</time>
      </trkpt>
      <trkpt lat="49.07619" lon="1.80347">
        <ele>199.2</ele>
        <time>2022-07-02T10:13:12Z</time>
      </trkpt>
      <trkpt lat="49.07625" lon="1.80351">
        <ele>199.1</ele>
        <time>2022-07-02T10:13:18Z</time>
      </trkpt>
      <trkpt lat="49.07628" lon="1.8035">
        <ele>199</ele>
        <time>2022-07-02T10:13:21Z</time>
      </trkpt>
      <trkpt lat="49.07629" lon="1.80352">
        <ele>199</ele>
        <time>2022-07-02T10:13:25Z</time>
      </trkpt>
      <trkpt lat="49.07632" lon="1.80358">
        <ele>199.1</ele>
        <time>2022-07-02T10:13:29Z</time>
      </trkpt>
      <trkpt lat="49.07638" lon="1.80363">
        <ele>199.1</ele>
        <time>2022-07-02T10:13:34Z</time>
      </trkpt>
      <trkpt lat="49.07644" lon="1.80366">
        <ele>199.2</ele>
        <time>2022-07-02T10:13:39Z</time>
      </trkpt>
      <trkpt lat="49.07649" lon="1.80367">
        <ele>199.2</ele>
        <time>2022-07-02T10:13:43Z</time>
      </trkpt>
      <trkpt lat="49.07654" lon="1.80365">
        <ele>199.1</ele>
        <time>2022-07-02T10:13:47Z</time>
      </trkpt>
      <trkpt lat="49.07656" lon="1.80362">
        <ele>199</ele>
        <time>2022-07-02T10:13:50Z</time>
      </trkpt>
      <trkpt lat="49.07662" lon="1.80355">
        <ele>199</ele>
        <time>2022-07-02T10:13:57Z</time>
      </trkpt>
      <trkpt lat="49.07665" lon="1.80352">
        <ele>199</ele>
        <time>2022-07-02T10:14:02Z</time>
      </trkpt>
      <trkpt lat="49.0767" lon="1.80345">
        <ele>199.1</ele>
        <time>2022-07-02T10:14:08Z</time>
      </trkpt>
      <trkpt lat="49.07675" lon="1.80337">
        <ele>199</ele>
        <time>2022-07-02T10:14:15Z</time>
      </trkpt>
      <trkpt lat="49.07676" lon="1.80334">
        <ele>199</ele>
        <time>2022-07-02T10:14:17Z</time>
      </trkpt>
      <trkpt lat="49.07681" lon="1.80325">
        <ele>198.7</ele>
        <time>2022-07-02T10:14:24Z</time>
      </trkpt>
      <trkpt lat="49.07687" lon="1.80317">
        <ele>198.4</ele>
        <time>2022-07-02T10:14:30Z</time>
      </trkpt>
      <trkpt lat="49.07691" lon="1.80312">
        <ele>198.2</ele>
        <time>2022-07-02T10:14:35Z</time>
      </trkpt>
      <trkpt lat="49.07698" lon="1.80304">
        <ele>197.8</ele>
        <time>2022-07-02T10:14:42Z</time>
      </trkpt>
      <trkpt lat="49.07702" lon="1.80298">
        <ele>197.5</ele>
        <time>2022-07-02T10:14:46Z</time>
      </trkpt>
      <trkpt lat="49.0771" lon="1.80292">
        <ele>197.2</ele>
        <time>2022-07-02T10:14:53Z</time>
      </trkpt>
      <trkpt lat="49.07715" lon="1.80286">
        <ele>197.1</ele>
        <time>2022-07-02T10:14:58Z</time>
      </trkpt>
      <trkpt lat="49.07722" lon="1.80274">
        <ele>196.9</ele>
        <time>2022-07-02T10:15:07Z</time>
      </trkpt>
      <trkpt lat="49.07728" lon="1.8027">
        <ele>196.7</ele>
        <time>2022-07-02T10:15:14Z</time>
      </trkpt>
      <trkpt lat="49.07729" lon="1.80266">
        <ele>196.6</ele>
        <time>2022-07-02T10:15:16Z</time>
      </trkpt>
      <trkpt lat="49.07735" lon="1.80253">
        <ele>196.1</ele>
        <time>2022-07-02T10:15:24Z</time>
      </trkpt>
      <trkpt lat="49.07739" lon="1.8025">
        <ele>196</ele>
        <time>2022-07-02T10:15:27Z</time>
      </trkpt>
      <trkpt lat="49.07742" lon="1.80246">
        <ele>196</ele>
        <time>2022-07-02T10:15:30Z</time>
      </trkpt>
      <trkpt lat="49.07746" lon="1.80238">
        <ele>196</ele>
        <time>2022-07-02T10:15:36Z</time>
      </trkpt>
      <trkpt lat="49.07752" lon="1.80227">
        <ele>196</ele>
        <time>2022-07-02T10:15:43Z</time>
      </trkpt>
      <trkpt lat="49.07755" lon="1.80221">
        <ele>196</ele>
        <time>2022-07-02T10:15:47Z</time>
      </trkpt>
      <trkpt lat="49.07762" lon="1.80208">
        <ele>195.5</ele>
        <time>2022-07-02T10:15:55Z</time>
      </trkpt>
      <trkpt lat="49.07765" lon="1.80199">
        <ele>195.2</ele>
        <time>2022-07-02T10:16:02Z</time>
      </trkpt>
      <trkpt lat="49.0777" lon="1.80192">
        <ele>195</ele>
        <time>2022-07-02T10:16:09Z</time>
      </trkpt>
      <trkpt lat="49.07772" lon="1.80189">
        <ele>195</ele>
        <time>2022-07-02T10:16:12Z</time>
      </trkpt>
      <trkpt lat="49.07774" lon="1.80186">
        <ele>195</ele>
        <time>2022-07-02T10:16:14Z</time>
      </trkpt>
      <trkpt lat="49.07777" lon="1.80181">
        <ele>195</ele>
        <time>2022-07-02T10:16:19Z</time>
      </trkpt>
      <trkpt lat="49.07781" lon="1.80174">
        <ele>195</ele>
        <time>2022-07-02T10:16:26Z</time>
      </trkpt>
      <trkpt lat="49.07781" lon="1.80171">
        <ele>195</ele>
        <time>2022-07-02T10:16:28Z</time>
      </trkpt>
      <trkpt lat="49.07782" lon="1.80168">
        <ele>195</ele>
        <time>2022-07-02T10:16:30Z</time>
      </trkpt>
      <trkpt lat="49.07784" lon="1.80163">
        <ele>195</ele>
        <time>2022-07-02T10:16:36Z</time>
      </trkpt>
      <trkpt lat="49.07786" lon="1.8016">
        <ele>195</ele>
        <time>2022-07-02T10:16:38Z</time>
      </trkpt>
      <trkpt lat="49.07793" lon="1.80148">
        <ele>195</ele>
        <time>2022-07-02T10:16:46Z</time>
      </trkpt>
      <trkpt lat="49.07796" lon="1.80138">
        <ele>195</ele>
        <time>2022-07-02T10:16:51Z</time>
      </trkpt>
      <trkpt lat="49.078" lon="1.80132">
        <ele>195</ele>
        <time>2022-07-02T10:16:55Z</time>
      </trkpt>
      <trkpt lat="49.07807" lon="1.80118">
        <ele>195</ele>
        <time>2022-07-02T10:17:02Z</time>
      </trkpt>
      <trkpt lat="49.07816" lon="1.80108">
        <ele>195</ele>
        <time>2022-07-02T10:17:10Z</time>
      </trkpt>
      <trkpt lat="49.07824" lon="1.80103">
        <ele>195</ele>
        <time>2022-07-02T10:17:16Z</time>
      </trkpt>
      <trkpt lat="49.07825" lon="1.80099">
        <ele>195</ele>
        <time>2022-07-02T10:17:18Z</time>
      </trkpt>
      <trkpt lat="49.07828" lon="1.80093">
        <ele>195</ele>
        <time>2022-07-02T10:17:22Z</time>
      </trkpt>
      <trkpt lat="49.0783" lon="1.80091">
        <ele>195</ele>
        <time>2022-07-02T10:17:24Z</time>
      </trkpt>
      <trkpt lat="49.07834" lon="1.80087">
        <ele>195</ele>
        <time>2022-07-02T10:17:27Z</time>
      </trkpt>
      <trkpt lat="49.0784" lon="1.80081">
        <ele>194.9</ele>
        <time>2022-07-02T10:17:34Z</time>
      </trkpt>
      <trkpt lat="49.07842" lon="1.8008">
        <ele>194.9</ele>
        <time>2022-07-02T10:17:36Z</time>
      </trkpt>
      <trkpt lat="49.07848" lon="1.80073">
        <ele>194.6</ele>
        <time>2022-07-02T10:17:42Z</time>
      </trkpt>
      <trkpt lat="49.07854" lon="1.80067">
        <ele>194.4</ele>
        <time>2022-07-02T10:17:49Z</time>
      </trkpt>
      <trkpt lat="49.07859" lon="1.80066">
        <ele>194.4</ele>
        <time>2022-07-02T10:17:56Z</time>
      </trkpt>
      <trkpt lat="49.07867" lon="1.80062">
        <ele>194.4</ele>
        <time>2022-07-02T10:18:03Z</time>
      </trkpt>
      <trkpt lat="49.07871" lon="1.80061">
        <ele>194.5</ele>
        <time>2022-07-02T10:18:09Z</time>
      </trkpt>
      <trkpt lat="49.07872" lon="1.80061">
        <ele>194.5</ele>
        <time>2022-07-02T10:18:10Z</time>
      </trkpt>
      <trkpt lat="49.07874" lon="1.80061">
        <ele>194.6</ele>
        <time>2022-07-02T10:18:12Z</time>
      </trkpt>
      <trkpt lat="49.07883" lon="1.80059">
        <ele>194.8</ele>
        <time>2022-07-02T10:18:20Z</time>
      </trkpt>
      <trkpt lat="49.07888" lon="1.80051">
        <ele>194.8</ele>
        <time>2022-07-02T10:18:26Z</time>
      </trkpt>
      <trkpt lat="49.07889" lon="1.8005">
        <ele>194.8</ele>
        <time>2022-07-02T10:18:27Z</time>
      </trkpt>
      <trkpt lat="49.07899" lon="1.80045">
        <ele>194.2</ele>
        <time>2022-07-02T10:18:33Z</time>
      </trkpt>
      <trkpt lat="49.07902" lon="1.80042">
        <ele>194</ele>
        <time>2022-07-02T10:18:35Z</time>
      </trkpt>
      <trkpt lat="49.07908" lon="1.8004">
        <ele>193.7</ele>
        <time>2022-07-02T10:18:41Z</time>
      </trkpt>
      <trkpt lat="49.07912" lon="1.80038">
        <ele>193.5</ele>
        <time>2022-07-02T10:18:45Z</time>
      </trkpt>
      <trkpt lat="49.07917" lon="1.80034">
        <ele>193.2</ele>
        <time>2022-07-02T10:18:50Z</time>
      </trkpt>
      <trkpt lat="49.07922" lon="1.80028">
        <ele>193</ele>
        <time>2022-07-02T10:18:57Z</time>
      </trkpt>
      <trkpt lat="49.07933" lon="1.80027">
        <ele>193</ele>
        <time>2022-07-02T10:19:04Z</time>
      </trkpt>
      <trkpt lat="49.07937" lon="1.80023">
        <ele>192.9</ele>
        <time>2022-07-02T10:19:08Z</time>
      </trkpt>
      <trkpt lat="49.07942" lon="1.80022">
        <ele>192.8</ele>
        <time>2022-07-02T10:19:11Z</time>
      </trkpt>
      <trkpt lat="49.07954" lon="1.80017">
        <ele>192.3</ele>
        <time>2022-07-02T10:19:19Z</time>
      </trkpt>
      <trkpt lat="49.07957" lon="1.80014">
        <ele>192.1</ele>
        <time>2022-07-02T10:19:22Z</time>
      </trkpt>
      <trkpt lat="49.07965" lon="1.80014">
        <ele>191.7</ele>
        <time>2022-07-02T10:19:30Z</time>
      </trkpt>
      <trkpt lat="49.0797" lon="1.80012">
        <ele>191.5</ele>
        <time>2022-07-02T10:19:35Z</time>
      </trkpt>
      <trkpt lat="49.07979" lon="1.80008">
        <ele>191</ele>
        <time>2022-07-02T10:19:43Z</time>
      </trkpt>
      <trkpt lat="49.07987" lon="1.80004">
        <ele>190.6</ele>
        <time>2022-07-02T10:19:49Z</time>
      </trkpt>
      <trkpt lat="49.07992" lon="1.80002">
        <ele>190.4</ele>
        <time>2022-07-02T10:19:53Z</time>
      </trkpt>
      <trkpt lat="49.08003" lon="1.80002">
        <ele>190.1</ele>
        <time>2022-07-02T10:20:00Z</time>
      </trkpt>
      <trkpt lat="49.0801" lon="1.79998">
        <ele>189.9</ele>
        <time>2022-07-02T10:20:06Z</time>
      </trkpt>
      <trkpt lat="49.0801" lon="1.79997">
        <ele>189.9</ele>
        <time>2022-07-02T10:20:07Z</time>
      </trkpt>
      <trkpt lat="49.08016" lon="1.79993">
        <ele>189.6</ele>
        <time>2022-07-02T10:20:13Z</time>
      </trkpt>
      <trkpt lat="49.0802" lon="1.79987">
        <ele>189.2</ele>
        <time>2022-07-02T10:20:19Z</time>
      </trkpt>
      <trkpt lat="49.08024" lon="1.79986">
        <ele>189</ele>
        <time>2022-07-02T10:20:24Z</time>
      </trkpt>
      <trkpt lat="49.08026" lon="1.79985">
        <ele>189</ele>
        <time>2022-07-02T10:20:27Z</time>
      </trkpt>
      <trkpt lat="49.08034" lon="1.79983">
        <ele>188.9</ele>
        <time>2022-07-02T10:20:35Z</time>
      </trkpt>
      <trkpt lat="49.08044" lon="1.79978">
        <ele>188.9</ele>
        <time>2022-07-02T10:20:43Z</time>
      </trkpt>
      <trkpt lat="49.08055" lon="1.79974">
        <ele>189.1</ele>
        <time>2022-07-02T10:20:50Z</time>
      </trkpt>
      <trkpt lat="49.08057" lon="1.79973">
        <ele>188.9</ele>
        <time>2022-07-02T10:20:52Z</time>
      </trkpt>
      <trkpt lat="49.08066" lon="1.79967">
        <ele>188</ele>
        <time>2022-07-02T10:20:59Z</time>
      </trkpt>
      <trkpt lat="49.08069" lon="1.79964">
        <ele>187.6</ele>
        <time>2022-07-02T10:21:02Z</time>
      </trkpt>
      <trkpt lat="49.08074" lon="1.79959">
        <ele>187.1</ele>
        <time>2022-07-02T10:21:06Z</time>
      </trkpt>
      <trkpt lat="49.08076" lon="1.79957">
        <ele>186.8</ele>
        <time>2022-07-02T10:21:08Z</time>
      </trkpt>
      <trkpt lat="49.08081" lon="1.79946">
        <ele>186.2</ele>
        <time>2022-07-02T10:21:15Z</time>
      </trkpt>
      <trkpt lat="49.08084" lon="1.79937">
        <ele>185.4</ele>
        <time>2022-07-02T10:21:21Z</time>
      </trkpt>
      <trkpt lat="49.08085" lon="1.79934">
        <ele>185.1</ele>
        <time>2022-07-02T10:21:23Z</time>
      </trkpt>
      <trkpt lat="49.0809" lon="1.79931">
        <ele>184.5</ele>
        <time>2022-07-02T10:21:27Z</time>
      </trkpt>
      <trkpt lat="49.08095" lon="1.79922">
        <ele>183.6</ele>
        <time>2022-07-02T10:21:34Z</time>
      </trkpt>
      <trkpt lat="49.081" lon="1.79915">
        <ele>182.7</ele>
        <time>2022-07-02T10:21:40Z</time>
      </trkpt>
      <trkpt lat="49.08104" lon="1.79912">
        <ele>182.3</ele>
        <time>2022-07-02T10:21:45Z</time>
      </trkpt>
      <trkpt lat="49.08108" lon="1.7991">
        <ele>182</ele>
        <time>2022-07-02T10:21:50Z</time>
      </trkpt>
      <trkpt lat="49.08114" lon="1.79913">
        <ele>181.7</ele>
        <time>2022-07-02T10:21:55Z</time>
      </trkpt>
      <trkpt lat="49.08118" lon="1.79913">
        <ele>181.4</ele>
        <time>2022-07-02T10:21:59Z</time>
      </trkpt>
      <trkpt lat="49.08122" lon="1.79911">
        <ele>181</ele>
        <time>2022-07-02T10:22:06Z</time>
      </trkpt>
      <trkpt lat="49.08125" lon="1.7991">
        <ele>180.8</ele>
        <time>2022-07-02T10:22:13Z</time>
      </trkpt>
      <trkpt lat="49.08132" lon="1.79908">
        <ele>180.2</ele>
        <time>2022-07-02T10:22:20Z</time>
      </trkpt>
      <trkpt lat="49.0814" lon="1.79906">
        <ele>179.5</ele>
        <time>2022-07-02T10:22:25Z</time>
      </trkpt>
      <trkpt lat="49.08148" lon="1.79909">
        <ele>178.9</ele>
        <time>2022-07-02T10:22:31Z</time>
      </trkpt>
      <trkpt lat="49.08153" lon="1.79912">
        <ele>178.7</ele>
        <time>2022-07-02T10:22:36Z</time>
      </trkpt>
      <trkpt lat="49.08161" lon="1.79916">
        <ele>178.3</ele>
        <time>2022-07-02T10:22:43Z</time>
      </trkpt>
      <trkpt lat="49.08165" lon="1.79919">
        <ele>178.2</ele>
        <time>2022-07-02T10:22:46Z</time>
      </trkpt>
      <trkpt lat="49.08168" lon="1.79923">
        <ele>178.1</ele>
        <time>2022-07-02T10:22:49Z</time>
      </trkpt>
      <trkpt lat="49.08178" lon="1.7993">
        <ele>177.3</ele>
        <time>2022-07-02T10:22:57Z</time>
      </trkpt>
      <trkpt lat="49.08179" lon="1.79931">
        <ele>177.2</ele>
        <time>2022-07-02T10:22:58Z</time>
      </trkpt>
      <trkpt lat="49.08182" lon="1.79929">
        <ele>176.8</ele>
        <time>2022-07-02T10:23:04Z</time>
      </trkpt>
      <trkpt lat="49.08191" lon="1.79932">
        <ele>175.9</ele>
        <time>2022-07-02T10:23:10Z</time>
      </trkpt>
      <trkpt lat="49.08193" lon="1.79933">
        <ele>175.7</ele>
        <time>2022-07-02T10:23:12Z</time>
      </trkpt>
      <trkpt lat="49.08203" lon="1.79933">
        <ele>174.5</ele>
        <time>2022-07-02T10:23:18Z</time>
      </trkpt>
      <trkpt lat="49.08205" lon="1.79933">
        <ele>174.3</ele>
        <time>2022-07-02T10:23:19Z</time>
      </trkpt>
      <trkpt lat="49.08215" lon="1.79938">
        <ele>173.4</ele>
        <time>2022-07-02T10:23:26Z</time>
      </trkpt>
      <trkpt lat="49.08227" lon="1.79942">
        <ele>172.2</ele>
        <time>2022-07-02T10:23:33Z</time>
      </trkpt>
      <trkpt lat="49.0823" lon="1.79943">
        <ele>171.9</ele>
        <time>2022-07-02T10:23:37Z</time>
      </trkpt>
      <trkpt lat="49.0824" lon="1.79941">
        <ele>170.3</ele>
        <time>2022-07-02T10:23:45Z</time>
      </trkpt>
      <trkpt lat="49.08241" lon="1.79941">
        <ele>170.1</ele>
        <time>2022-07-02T10:23:46Z</time>
      </trkpt>
      <trkpt lat="49.08247" lon="1.79935">
        <ele>169.1</ele>
        <time>2022-07-02T10:23:51Z</time>
      </trkpt>
      <trkpt lat="49.08255" lon="1.79932">
        <ele>168.1</ele>
        <time>2022-07-02T10:23:58Z</time>
      </trkpt>
      <trkpt lat="49.08262" lon="1.79928">
        <ele>167.4</ele>
        <time>2022-07-02T10:24:04Z</time>
      </trkpt>
      <trkpt lat="49.08268" lon="1.79927">
        <ele>166.9</ele>
        <time>2022-07-02T10:24:09Z</time>
      </trkpt>
      <trkpt lat="49.08274" lon="1.79922">
        <ele>166.3</ele>
        <time>2022-07-02T10:24:16Z</time>
      </trkpt>
      <trkpt lat="49.08278" lon="1.79922">
        <ele>166</ele>
        <time>2022-07-02T10:24:21Z</time>
      </trkpt>
      <trkpt lat="49.08284" lon="1.79914">
        <ele>165.5</ele>
        <time>2022-07-02T10:24:27Z</time>
      </trkpt>
      <trkpt lat="49.08294" lon="1.79912">
        <ele>164.6</ele>
        <time>2022-07-02T10:24:34Z</time>
      </trkpt>
      <trkpt lat="49.083" lon="1.7991">
        <ele>164.2</ele>
        <time>2022-07-02T10:24:38Z</time>
      </trkpt>
      <trkpt lat="49.08309" lon="1.79905">
        <ele>163.3</ele>
        <time>2022-07-02T10:24:45Z</time>
      </trkpt>
      <trkpt lat="49.08311" lon="1.79903">
        <ele>163</ele>
        <time>2022-07-02T10:24:47Z</time>
      </trkpt>
      <trkpt lat="49.08321" lon="1.79895">
        <ele>162</ele>
        <time>2022-07-02T10:24:55Z</time>
      </trkpt>
      <trkpt lat="49.08325" lon="1.79888">
        <ele>161.6</ele>
        <time>2022-07-02T10:25:00Z</time>
      </trkpt>
      <trkpt lat="49.08331" lon="1.79882">
        <ele>161.2</ele>
        <time>2022-07-02T10:25:04Z</time>
      </trkpt>
      <trkpt lat="49.08335" lon="1.7988">
        <ele>160.8</ele>
        <time>2022-07-02T10:25:07Z</time>
      </trkpt>
      <trkpt lat="49.08341" lon="1.7987">
        <ele>160.2</ele>
        <time>2022-07-02T10:25:13Z</time>
      </trkpt>
      <trkpt lat="49.08348" lon="1.79861">
        <ele>159.4</ele>
        <time>2022-07-02T10:25:20Z</time>
      </trkpt>
      <trkpt lat="49.0835" lon="1.79858">
        <ele>159.1</ele>
        <time>2022-07-02T10:25:22Z</time>
      </trkpt>
      <trkpt lat="49.08357" lon="1.79845">
        <ele>157.8</ele>
        <time>2022-07-02T10:25:30Z</time>
      </trkpt>
      <trkpt lat="49.0836" lon="1.79843">
        <ele>157.5</ele>
        <time>2022-07-02T10:25:32Z</time>
      </trkpt>
      <trkpt lat="49.08367" lon="1.79833">
        <ele>156.6</ele>
        <time>2022-07-02T10:25:39Z</time>
      </trkpt>
      <trkpt lat="49.08374" lon="1.79823">
        <ele>156.1</ele>
        <time>2022-07-02T10:25:47Z</time>
      </trkpt>
      <trkpt lat="49.08379" lon="1.79814">
        <ele>155.7</ele>
        <time>2022-07-02T10:25:53Z</time>
      </trkpt>
      <trkpt lat="49.08387" lon="1.79805">
        <ele>155.1</ele>
        <time>2022-07-02T10:26:00Z</time>
      </trkpt>
      <trkpt lat="49.08393" lon="1.79794">
        <ele>154.7</ele>
        <time>2022-07-02T10:26:07Z</time>
      </trkpt>
      <trkpt lat="49.08395" lon="1.79792">
        <ele>154.6</ele>
        <time>2022-07-02T10:26:09Z</time>
      </trkpt>
      <trkpt lat="49.08401" lon="1.79782">
        <ele>154.1</ele>
        <time>2022-07-02T10:26:16Z</time>
      </trkpt>
      <trkpt lat="49.08408" lon="1.79773">
        <ele>153.5</ele>
        <time>2022-07-02T10:26:23Z</time>
      </trkpt>
      <trkpt lat="49.08415" lon="1.79763">
        <ele>153.1</ele>
        <time>2022-07-02T10:26:31Z</time>
      </trkpt>
      <trkpt lat="49.08421" lon="1.79758">
        <ele>152.7</ele>
        <time>2022-07-02T10:26:37Z</time>
      </trkpt>
      <trkpt lat="49.08427" lon="1.79748">
        <ele>152.2</ele>
        <time>2022-07-02T10:26:44Z</time>
      </trkpt>
      <trkpt lat="49.08435" lon="1.7974">
        <ele>151.3</ele>
        <time>2022-07-02T10:26:51Z</time>
      </trkpt>
      <trkpt lat="49.08441" lon="1.79732">
        <ele>150.6</ele>
        <time>2022-07-02T10:26:57Z</time>
      </trkpt>
      <trkpt lat="49.08445" lon="1.79723">
        <ele>150</ele>
        <time>2022-07-02T10:27:03Z</time>
      </trkpt>
      <trkpt lat="49.08448" lon="1.79718">
        <ele>149.8</ele>
        <time>2022-07-02T10:27:06Z</time>
      </trkpt>
      <trkpt lat="49.08453" lon="1.79709">
        <ele>149.4</ele>
        <time>2022-07-02T10:27:12Z</time>
      </trkpt>
      <trkpt lat="49.08454" lon="1.79706">
        <ele>149.3</ele>
        <time>2022-07-02T10:27:15Z</time>
      </trkpt>
      <trkpt lat="49.08459" lon="1.797">
        <ele>148.9</ele>
        <time>2022-07-02T10:27:21Z</time>
      </trkpt>
      <trkpt lat="49.08461" lon="1.79697">
        <ele>148.8</ele>
        <time>2022-07-02T10:27:23Z</time>
      </trkpt>
      <trkpt lat="49.08465" lon="1.79692">
        <ele>148.5</ele>
        <time>2022-07-02T10:27:27Z</time>
      </trkpt>
      <trkpt lat="49.08468" lon="1.79687">
        <ele>148.3</ele>
        <time>2022-07-02T10:27:30Z</time>
      </trkpt>
      <trkpt lat="49.08473" lon="1.79678">
        <ele>148</ele>
        <time>2022-07-02T10:27:36Z</time>
      </trkpt>
      <trkpt lat="49.08479" lon="1.79668">
        <ele>147.7</ele>
        <time>2022-07-02T10:27:43Z</time>
      </trkpt>
      <trkpt lat="49.08484" lon="1.79663">
        <ele>147.6</ele>
        <time>2022-07-02T10:27:49Z</time>
      </trkpt>
      <trkpt lat="49.08488" lon="1.79658">
        <ele>147.6</ele>
        <time>2022-07-02T10:27:56Z</time>
      </trkpt>
      <trkpt lat="49.08491" lon="1.79656">
        <ele>147.6</ele>
        <time>2022-07-02T10:28:03Z</time>
      </trkpt>
      <trkpt lat="49.08492" lon="1.79657">
        <ele>147.6</ele>
        <time>2022-07-02T10:28:14Z</time>
      </trkpt>
      <trkpt lat="49.08492" lon="1.79657">
        <ele>147.5</ele>
        <time>2022-07-02T10:28:20Z</time>
      </trkpt>
      <trkpt lat="49.08493" lon="1.79655">
        <ele>147.5</ele>
        <time>2022-07-02T10:28:27Z</time>
      </trkpt>
      <trkpt lat="49.08497" lon="1.79648">
        <ele>147.7</ele>
        <time>2022-07-02T10:28:34Z</time>
      </trkpt>
      <trkpt lat="49.08502" lon="1.79637">
        <ele>148</ele>
        <time>2022-07-02T10:28:41Z</time>
      </trkpt>
      <trkpt lat="49.08504" lon="1.79636">
        <ele>148</ele>
        <time>2022-07-02T10:28:43Z</time>
      </trkpt>
      <trkpt lat="49.08513" lon="1.79638">
        <ele>148</ele>
        <time>2022-07-02T10:28:51Z</time>
      </trkpt>
      <trkpt lat="49.08514" lon="1.79639">
        <ele>148</ele>
        <time>2022-07-02T10:28:57Z</time>
      </trkpt>
      <trkpt lat="49.08514" lon="1.79637">
        <ele>148</ele>
        <time>2022-07-02T10:29:17Z</time>
      </trkpt>
      <trkpt lat="49.08513" lon="1.79637">
        <ele>148</ele>
        <time>2022-07-02T10:29:34Z</time>
      </trkpt>
      <trkpt lat="49.08512" lon="1.79636">
        <ele>148</ele>
        <time>2022-07-02T10:29:37Z</time>
      </trkpt>
      <trkpt lat="49.08511" lon="1.79635">
        <ele>148</ele>
        <time>2022-07-02T10:29:39Z</time>
      </trkpt>
      <trkpt lat="49.08509" lon="1.79635">
        <ele>148</ele>
        <time>2022-07-02T10:29:41Z</time>
      </trkpt>
      <trkpt lat="49.08504" lon="1.79638">
        <ele>148</ele>
        <time>2022-07-02T10:29:48Z</time>
      </trkpt>
      <trkpt lat="49.085" lon="1.79645">
        <ele>147.8</ele>
        <time>2022-07-02T10:29:53Z</time>
      </trkpt>
      <trkpt lat="49.08497" lon="1.79646">
        <ele>147.8</ele>
        <time>2022-07-02T10:29:56Z</time>
      </trkpt>
      <trkpt lat="49.08492" lon="1.79654">
        <ele>147.6</ele>
        <time>2022-07-02T10:30:04Z</time>
      </trkpt>
      <trkpt lat="49.08492" lon="1.79653">
        <ele>147.6</ele>
        <time>2022-07-02T10:30:15Z</time>
      </trkpt>
      <trkpt lat="49.08492" lon="1.79654">
        <ele>147.6</ele>
        <time>2022-07-02T10:30:22Z</time>
      </trkpt>
      <trkpt lat="49.08491" lon="1.7965">
        <ele>147.7</ele>
        <time>2022-07-02T10:30:29Z</time>
      </trkpt>
      <trkpt lat="49.0849" lon="1.79649">
        <ele>147.8</ele>
        <time>2022-07-02T10:30:38Z</time>
      </trkpt>
      <trkpt lat="49.08489" lon="1.79649">
        <ele>147.8</ele>
        <time>2022-07-02T10:30:54Z</time>
      </trkpt>
      <trkpt lat="49.08489" lon="1.79649">
        <ele>147.8</ele>
        <time>2022-07-02T10:31:07Z</time>
      </trkpt>
      <trkpt lat="49.0849" lon="1.79649">
        <ele>147.8</ele>
        <time>2022-07-02T10:31:18Z</time>
      </trkpt>
      <trkpt lat="49.0849" lon="1.79649">
        <ele>147.8</ele>
        <time>2022-07-02T10:31:32Z</time>
      </trkpt>
      <trkpt lat="49.0849" lon="1.79649">
        <ele>147.8</ele>
        <time>2022-07-02T10:31:49Z</time>
      </trkpt>
      <trkpt lat="49.0849" lon="1.79648">
        <ele>147.8</ele>
        <time>2022-07-02T10:32:10Z</time>
      </trkpt>
      <trkpt lat="49.0849" lon="1.79649">
        <ele>147.8</ele>
        <time>2022-07-02T10:32:28Z</time>
      </trkpt>
      <trkpt lat="49.0849" lon="1.79649">
        <ele>147.8</ele>
        <time>2022-07-02T10:32:50Z</time>
      </trkpt>
      <trkpt lat="49.0849" lon="1.79649">
        <ele>147.8</ele>
        <time>2022-07-02T10:33:08Z</time>
      </trkpt>
      <trkpt lat="49.0849" lon="1.79648">
        <ele>147.8</ele>
        <time>2022-07-02T10:33:28Z</time>
      </trkpt>
      <trkpt lat="49.08491" lon="1.79648">
        <ele>147.8</ele>
        <time>2022-07-02T10:33:44Z</time>
      </trkpt>
      <trkpt lat="49.08491" lon="1.79648">
        <ele>147.8</ele>
        <time>2022-07-02T10:33:59Z</time>
      </trkpt>
      <trkpt lat="49.08491" lon="1.79648">
        <ele>147.8</ele>
        <time>2022-07-02T10:34:15Z</time>
      </trkpt>
      <trkpt lat="49.08491" lon="1.79648">
        <ele>147.8</ele>
        <time>2022-07-02T10:34:33Z</time>
      </trkpt>
      <trkpt lat="49.08491" lon="1.79649">
        <ele>147.7</ele>
        <time>2022-07-02T10:34:55Z</time>
      </trkpt>
      <trkpt lat="49.08491" lon="1.7965">
        <ele>147.7</ele>
        <time>2022-07-02T10:35:13Z</time>
      </trkpt>
      <trkpt lat="49.08491" lon="1.7965">
        <ele>147.7</ele>
        <time>2022-07-02T10:35:34Z</time>
      </trkpt>
      <trkpt lat="49.0849" lon="1.7965">
        <ele>147.7</ele>
        <time>2022-07-02T10:35:54Z</time>
      </trkpt>
      <trkpt lat="49.0849" lon="1.7965">
        <ele>147.7</ele>
        <time>2022-07-02T10:36:13Z</time>
      </trkpt>
      <trkpt lat="49.08491" lon="1.79649">
        <ele>147.8</ele>
        <time>2022-07-02T10:36:31Z</time>
      </trkpt>
      <trkpt lat="49.08491" lon="1.79649">
        <ele>147.8</ele>
        <time>2022-07-02T10:36:48Z</time>
      </trkpt>
      <trkpt lat="49.0849" lon="1.79648">
        <ele>147.8</ele>
        <time>2022-07-02T10:37:07Z</time>
      </trkpt>
      <trkpt lat="49.0849" lon="1.79648">
        <ele>147.8</ele>
        <time>2022-07-02T10:37:25Z</time>
      </trkpt>
      <trkpt lat="49.0849" lon="1.79648">
        <ele>147.8</ele>
        <time>2022-07-02T10:37:48Z</time>
      </trkpt>
      <trkpt lat="49.0849" lon="1.79648">
        <ele>147.8</ele>
        <time>2022-07-02T10:38:08Z</time>
      </trkpt>
      <trkpt lat="49.0849" lon="1.79648">
        <ele>147.8</ele>
        <time>2022-07-02T10:38:25Z</time>
      </trkpt>
      <trkpt lat="49.08489" lon="1.79649">
        <ele>147.8</ele>
        <time>2022-07-02T10:38:47Z</time>
      </trkpt>
      <trkpt lat="49.08489" lon="1.79649">
        <ele>147.8</ele>
        <time>2022-07-02T10:39:08Z</time>
      </trkpt>
      <trkpt lat="49.08489" lon="1.7965">
        <ele>147.8</ele>
        <time>2022-07-02T10:39:29Z</time>
      </trkpt>
      <trkpt lat="49.08489" lon="1.7965">
        <ele>147.8</ele>
        <time>2022-07-02T10:39:49Z</time>
      </trkpt>
      <trkpt lat="49.08489" lon="1.7965">
        <ele>147.8</ele>
        <time>2022-07-02T10:40:12Z</time>
      </trkpt>
      <trkpt lat="49.08489" lon="1.7965">
        <ele>147.8</ele>
        <time>2022-07-02T10:40:32Z</time>
      </trkpt>
      <trkpt lat="49.08489" lon="1.7965">
        <ele>147.8</ele>
        <time>2022-07-02T10:40:51Z</time>
      </trkpt>
      <trkpt lat="49.08489" lon="1.79651">
        <ele>147.7</ele>
        <time>2022-07-02T10:41:12Z</time>
      </trkpt>
      <trkpt lat="49.08489" lon="1.79651">
        <ele>147.7</ele>
        <time>2022-07-02T10:41:33Z</time>
      </trkpt>
      <trkpt lat="49.08489" lon="1.7965">
        <ele>147.8</ele>
        <time>2022-07-02T10:41:52Z</time>
      </trkpt>
      <trkpt lat="49.08489" lon="1.79649">
        <ele>147.8</ele>
        <time>2022-07-02T10:42:09Z</time>
      </trkpt>
      <trkpt lat="49.08489" lon="1.79649">
        <ele>147.8</ele>
        <time>2022-07-02T10:42:30Z</time>
      </trkpt>
      <trkpt lat="49.08489" lon="1.79649">
        <ele>147.8</ele>
        <time>2022-07-02T10:42:48Z</time>
      </trkpt>
      <trkpt lat="49.08489" lon="1.7965">
        <ele>147.8</ele>
        <time>2022-07-02T10:43:08Z</time>
      </trkpt>
      <trkpt lat="49.08489" lon="1.7965">
        <ele>147.8</ele>
        <time>2022-07-02T10:43:28Z</time>
      </trkpt>
      <trkpt lat="49.08489" lon="1.79649">
        <ele>147.8</ele>
        <time>2022-07-02T10:43:47Z</time>
      </trkpt>
      <trkpt lat="49.08489" lon="1.79649">
        <ele>147.8</ele>
        <time>2022-07-02T10:44:07Z</time>
      </trkpt>
      <trkpt lat="49.08489" lon="1.79649">
        <ele>147.8</ele>
        <time>2022-07-02T10:44:27Z</time>
      </trkpt>
      <trkpt lat="49.08489" lon="1.79649">
        <ele>147.8</ele>
        <time>2022-07-02T10:44:47Z</time>
      </trkpt>
      <trkpt lat="49.08489" lon="1.79649">
        <ele>147.8</ele>
        <time>2022-07-02T10:45:04Z</time>
      </trkpt>
      <trkpt lat="49.08489" lon="1.7965">
        <ele>147.8</ele>
        <time>2022-07-02T10:45:29Z</time>
      </trkpt>
      <trkpt lat="49.08489" lon="1.7965">
        <ele>147.8</ele>
        <time>2022-07-02T10:45:49Z</time>
      </trkpt>
      <trkpt lat="49.08489" lon="1.7965">
        <ele>147.8</ele>
        <time>2022-07-02T10:46:09Z</time>
      </trkpt>
      <trkpt lat="49.08489" lon="1.7965">
        <ele>147.8</ele>
        <time>2022-07-02T10:46:29Z</time>
      </trkpt>
      <trkpt lat="49.08489" lon="1.7965">
        <ele>147.8</ele>
        <time>2022-07-02T10:46:50Z</time>
      </trkpt>
      <trkpt lat="49.08489" lon="1.7965">
        <ele>147.8</ele>
        <time>2022-07-02T10:47:11Z</time>
      </trkpt>
      <trkpt lat="49.08489" lon="1.7965">
        <ele>147.8</ele>
        <time>2022-07-02T10:47:36Z</time>
      </trkpt>
      <trkpt lat="49.08488" lon="1.7965">
        <ele>147.8</ele>
        <time>2022-07-02T10:48:00Z</time>
      </trkpt>
      <trkpt lat="49.08488" lon="1.7965">
        <ele>147.8</ele>
        <time>2022-07-02T10:48:22Z</time>
      </trkpt>
      <trkpt lat="49.08488" lon="1.7965">
        <ele>147.8</ele>
        <time>2022-07-02T10:48:40Z</time>
      </trkpt>
      <trkpt lat="49.08488" lon="1.79649">
        <ele>147.8</ele>
        <time>2022-07-02T10:48:58Z</time>
      </trkpt>
      <trkpt lat="49.08488" lon="1.79649">
        <ele>147.8</ele>
        <time>2022-07-02T10:49:21Z</time>
      </trkpt>
      <trkpt lat="49.08488" lon="1.79649">
        <ele>147.8</ele>
        <time>2022-07-02T10:49:44Z</time>
      </trkpt>
      <trkpt lat="49.08488" lon="1.79649">
        <ele>147.8</ele>
        <time>2022-07-02T10:50:03Z</time>
      </trkpt>
      <trkpt lat="49.08488" lon="1.79648">
        <ele>147.8</ele>
        <time>2022-07-02T10:50:24Z</time>
      </trkpt>
      <trkpt lat="49.08488" lon="1.79647">
        <ele>147.8</ele>
        <time>2022-07-02T10:50:44Z</time>
      </trkpt>
      <trkpt lat="49.08488" lon="1.79647">
        <ele>147.8</ele>
        <time>2022-07-02T10:51:07Z</time>
      </trkpt>
      <trkpt lat="49.08488" lon="1.79648">
        <ele>147.8</ele>
        <time>2022-07-02T10:51:25Z</time>
      </trkpt>
      <trkpt lat="49.08488" lon="1.79648">
        <ele>147.8</ele>
        <time>2022-07-02T10:51:46Z</time>
      </trkpt>
      <trkpt lat="49.08487" lon="1.79648">
        <ele>147.8</ele>
        <time>2022-07-02T10:52:10Z</time>
      </trkpt>
      <trkpt lat="49.08488" lon="1.79648">
        <ele>147.8</ele>
        <time>2022-07-02T10:52:29Z</time>
      </trkpt>
      <trkpt lat="49.08488" lon="1.79648">
        <ele>147.8</ele>
        <time>2022-07-02T10:52:44Z</time>
      </trkpt>
      <trkpt lat="49.08488" lon="1.79648">
        <ele>147.8</ele>
        <time>2022-07-02T10:52:57Z</time>
      </trkpt>
      <trkpt lat="49.08488" lon="1.79648">
        <ele>147.8</ele>
        <time>2022-07-02T10:53:17Z</time>
      </trkpt>
      <trkpt lat="49.08488" lon="1.79648">
        <ele>147.8</ele>
        <time>2022-07-02T10:53:38Z</time>
      </trkpt>
      <trkpt lat="49.08489" lon="1.79648">
        <ele>147.8</ele>
        <time>2022-07-02T10:53:57Z</time>
      </trkpt>
      <trkpt lat="49.0849" lon="1.79649">
        <ele>147.8</ele>
        <time>2022-07-02T10:54:19Z</time>
      </trkpt>
      <trkpt lat="49.08489" lon="1.79649">
        <ele>147.8</ele>
        <time>2022-07-02T10:54:41Z</time>
      </trkpt>
      <trkpt lat="49.08489" lon="1.79649">
        <ele>147.8</ele>
        <time>2022-07-02T10:55:04Z</time>
      </trkpt>
      <trkpt lat="49.08489" lon="1.7965">
        <ele>147.8</ele>
        <time>2022-07-02T10:55:23Z</time>
      </trkpt>
      <trkpt lat="49.0849" lon="1.7965">
        <ele>147.7</ele>
        <time>2022-07-02T10:55:38Z</time>
      </trkpt>
      <trkpt lat="49.0849" lon="1.79651">
        <ele>147.7</ele>
        <time>2022-07-02T10:55:57Z</time>
      </trkpt>
      <trkpt lat="49.08491" lon="1.79651">
        <ele>147.7</ele>
        <time>2022-07-02T10:56:16Z</time>
      </trkpt>
      <trkpt lat="49.08491" lon="1.79651">
        <ele>147.7</ele>
        <time>2022-07-02T10:56:39Z</time>
      </trkpt>
      <trkpt lat="49.08492" lon="1.79651">
        <ele>147.7</ele>
        <time>2022-07-02T10:57:01Z</time>
      </trkpt>
      <trkpt lat="49.08492" lon="1.79651">
        <ele>147.7</ele>
        <time>2022-07-02T10:57:21Z</time>
      </trkpt>
      <trkpt lat="49.08492" lon="1.79651">
        <ele>147.7</ele>
        <time>2022-07-02T10:57:41Z</time>
      </trkpt>
      <trkpt lat="49.08492" lon="1.79651">
        <ele>147.7</ele>
        <time>2022-07-02T10:57:59Z</time>
      </trkpt>
      <trkpt lat="49.08491" lon="1.79651">
        <ele>147.7</ele>
        <time>2022-07-02T10:58:18Z</time>
      </trkpt>
      <trkpt lat="49.08491" lon="1.79651">
        <ele>147.7</ele>
        <time>2022-07-02T10:58:36Z</time>
      </trkpt>
      <trkpt lat="49.08491" lon="1.79651">
        <ele>147.7</ele>
        <time>2022-07-02T10:58:49Z</time>
      </trkpt>
      <trkpt lat="49.08491" lon="1.79652">
        <ele>147.7</ele>
        <time>2022-07-02T10:59:07Z</time>
      </trkpt>
      <trkpt lat="49.08491" lon="1.79652">
        <ele>147.7</ele>
        <time>2022-07-02T10:59:27Z</time>
      </trkpt>
      <trkpt lat="49.08491" lon="1.79652">
        <ele>147.7</ele>
        <time>2022-07-02T10:59:45Z</time>
      </trkpt>
      <trkpt lat="49.08491" lon="1.79652">
        <ele>147.7</ele>
        <time>2022-07-02T11:00:00Z</time>
      </trkpt>
      <trkpt lat="49.08492" lon="1.79652">
        <ele>147.7</ele>
        <time>2022-07-02T11:00:19Z</time>
      </trkpt>
      <trkpt lat="49.08492" lon="1.79651">
        <ele>147.7</ele>
        <time>2022-07-02T11:00:37Z</time>
      </trkpt>
      <trkpt lat="49.08492" lon="1.79651">
        <ele>147.7</ele>
        <time>2022-07-02T11:00:53Z</time>
      </trkpt>
      <trkpt lat="49.08492" lon="1.79651">
        <ele>147.7</ele>
        <time>2022-07-02T11:01:12Z</time>
      </trkpt>
      <trkpt lat="49.08492" lon="1.7965">
        <ele>147.7</ele>
        <time>2022-07-02T11:01:28Z</time>
      </trkpt>
      <trkpt lat="49.08492" lon="1.7965">
        <ele>147.7</ele>
        <time>2022-07-02T11:01:44Z</time>
      </trkpt>
      <trkpt lat="49.08492" lon="1.7965">
        <ele>147.7</ele>
        <time>2022-07-02T11:02:02Z</time>
      </trkpt>
      <trkpt lat="49.08492" lon="1.7965">
        <ele>147.7</ele>
        <time>2022-07-02T11:02:20Z</time>
      </trkpt>
      <trkpt lat="49.08492" lon="1.7965">
        <ele>147.7</ele>
        <time>2022-07-02T11:02:35Z</time>
      </trkpt>
      <trkpt lat="49.08492" lon="1.7965">
        <ele>147.7</ele>
        <time>2022-07-02T11:02:50Z</time>
      </trkpt>
      <trkpt lat="49.08492" lon="1.79649">
        <ele>147.7</ele>
        <time>2022-07-02T11:03:06Z</time>
      </trkpt>
      <trkpt lat="49.08491" lon="1.7965">
        <ele>147.7</ele>
        <time>2022-07-02T11:03:20Z</time>
      </trkpt>
      <trkpt lat="49.08491" lon="1.79649">
        <ele>147.7</ele>
        <time>2022-07-02T11:03:36Z</time>
      </trkpt>
      <trkpt lat="49.08491" lon="1.79649">
        <ele>147.8</ele>
        <time>2022-07-02T11:03:52Z</time>
      </trkpt>
      <trkpt lat="49.0849" lon="1.79649">
        <ele>147.8</ele>
        <time>2022-07-02T11:04:09Z</time>
      </trkpt>
      <trkpt lat="49.0849" lon="1.79649">
        <ele>147.8</ele>
        <time>2022-07-02T11:04:24Z</time>
      </trkpt>
      <trkpt lat="49.08491" lon="1.7965">
        <ele>147.7</ele>
        <time>2022-07-02T11:04:40Z</time>
      </trkpt>
      <trkpt lat="49.08491" lon="1.7965">
        <ele>147.7</ele>
        <time>2022-07-02T11:04:56Z</time>
      </trkpt>
      <trkpt lat="49.08491" lon="1.79649">
        <ele>147.7</ele>
        <time>2022-07-02T11:05:14Z</time>
      </trkpt>
      <trkpt lat="49.08491" lon="1.7965">
        <ele>147.7</ele>
        <time>2022-07-02T11:05:29Z</time>
      </trkpt>
      <trkpt lat="49.08491" lon="1.79649">
        <ele>147.7</ele>
        <time>2022-07-02T11:05:42Z</time>
      </trkpt>
      <trkpt lat="49.08491" lon="1.79649">
        <ele>147.7</ele>
        <time>2022-07-02T11:05:57Z</time>
      </trkpt>
      <trkpt lat="49.08491" lon="1.79649">
        <ele>147.8</ele>
        <time>2022-07-02T11:06:12Z</time>
      </trkpt>
      <trkpt lat="49.08491" lon="1.79649">
        <ele>147.8</ele>
        <time>2022-07-02T11:06:29Z</time>
      </trkpt>
      <trkpt lat="49.0849" lon="1.79649">
        <ele>147.8</ele>
        <time>2022-07-02T11:06:40Z</time>
      </trkpt>
      <trkpt lat="49.0849" lon="1.79649">
        <ele>147.8</ele>
        <time>2022-07-02T11:06:53Z</time>
      </trkpt>
      <trkpt lat="49.0849" lon="1.79649">
        <ele>147.8</ele>
        <time>2022-07-02T11:07:05Z</time>
      </trkpt>
      <trkpt lat="49.0849" lon="1.79649">
        <ele>147.8</ele>
        <time>2022-07-02T11:07:19Z</time>
      </trkpt>
      <trkpt lat="49.0849" lon="1.79649">
        <ele>147.8</ele>
        <time>2022-07-02T11:07:34Z</time>
      </trkpt>
      <trkpt lat="49.08491" lon="1.7965">
        <ele>147.7</ele>
        <time>2022-07-02T11:07:50Z</time>
      </trkpt>
      <trkpt lat="49.0849" lon="1.7965">
        <ele>147.7</ele>
        <time>2022-07-02T11:08:05Z</time>
      </trkpt>
      <trkpt lat="49.0849" lon="1.7965">
        <ele>147.7</ele>
        <time>2022-07-02T11:08:17Z</time>
      </trkpt>
      <trkpt lat="49.08491" lon="1.7965">
        <ele>147.7</ele>
        <time>2022-07-02T11:08:29Z</time>
      </trkpt>
      <trkpt lat="49.0849" lon="1.79649">
        <ele>147.8</ele>
        <time>2022-07-02T11:08:37Z</time>
      </trkpt>
      <trkpt lat="49.0849" lon="1.79649">
        <ele>147.8</ele>
        <time>2022-07-02T11:08:53Z</time>
      </trkpt>
      <trkpt lat="49.0849" lon="1.79649">
        <ele>147.8</ele>
        <time>2022-07-02T11:09:04Z</time>
      </trkpt>
      <trkpt lat="49.08489" lon="1.79649">
        <ele>147.8</ele>
        <time>2022-07-02T11:09:27Z</time>
      </trkpt>
      <trkpt lat="49.08489" lon="1.79649">
        <ele>147.8</ele>
        <time>2022-07-02T11:09:47Z</time>
      </trkpt>
      <trkpt lat="49.08488" lon="1.79649">
        <ele>147.8</ele>
        <time>2022-07-02T11:10:04Z</time>
      </trkpt>
      <trkpt lat="49.08488" lon="1.79649">
        <ele>147.8</ele>
        <time>2022-07-02T11:10:26Z</time>
      </trkpt>
      <trkpt lat="49.08488" lon="1.79649">
        <ele>147.8</ele>
        <time>2022-07-02T11:10:46Z</time>
      </trkpt>
      <trkpt lat="49.08488" lon="1.79649">
        <ele>147.8</ele>
        <time>2022-07-02T11:11:07Z</time>
      </trkpt>
      <trkpt lat="49.08488" lon="1.79649">
        <ele>147.8</ele>
        <time>2022-07-02T11:11:28Z</time>
      </trkpt>
      <trkpt lat="49.08488" lon="1.79648">
        <ele>147.8</ele>
        <time>2022-07-02T11:11:50Z</time>
      </trkpt>
      <trkpt lat="49.08487" lon="1.79649">
        <ele>147.8</ele>
        <time>2022-07-02T11:12:12Z</time>
      </trkpt>
      <trkpt lat="49.08487" lon="1.79648">
        <ele>147.8</ele>
        <time>2022-07-02T11:12:32Z</time>
      </trkpt>
      <trkpt lat="49.08488" lon="1.79647">
        <ele>147.8</ele>
        <time>2022-07-02T11:12:53Z</time>
      </trkpt>
      <trkpt lat="49.08488" lon="1.79647">
        <ele>147.8</ele>
        <time>2022-07-02T11:13:13Z</time>
      </trkpt>
      <trkpt lat="49.08487" lon="1.79648">
        <ele>147.8</ele>
        <time>2022-07-02T11:13:31Z</time>
      </trkpt>
      <trkpt lat="49.08487" lon="1.79648">
        <ele>147.8</ele>
        <time>2022-07-02T11:13:49Z</time>
      </trkpt>
      <trkpt lat="49.08488" lon="1.79648">
        <ele>147.8</ele>
        <time>2022-07-02T11:14:10Z</time>
      </trkpt>
      <trkpt lat="49.08487" lon="1.79648">
        <ele>147.8</ele>
        <time>2022-07-02T11:14:29Z</time>
      </trkpt>
      <trkpt lat="49.08487" lon="1.79647">
        <ele>147.8</ele>
        <time>2022-07-02T11:14:48Z</time>
      </trkpt>
      <trkpt lat="49.08487" lon="1.79647">
        <ele>147.8</ele>
        <time>2022-07-02T11:15:08Z</time>
      </trkpt>
      <trkpt lat="49.08487" lon="1.79647">
        <ele>147.8</ele>
        <time>2022-07-02T11:15:26Z</time>
      </trkpt>
      <trkpt lat="49.08487" lon="1.79648">
        <ele>147.8</ele>
        <time>2022-07-02T11:15:45Z</time>
      </trkpt>
      <trkpt lat="49.08488" lon="1.79647">
        <ele>147.8</ele>
        <time>2022-07-02T11:16:07Z</time>
      </trkpt>
      <trkpt lat="49.08488" lon="1.79647">
        <ele>147.8</ele>
        <time>2022-07-02T11:16:27Z</time>
      </trkpt>
      <trkpt lat="49.08488" lon="1.79647">
        <ele>147.8</ele>
        <time>2022-07-02T11:16:48Z</time>
      </trkpt>
      <trkpt lat="49.08488" lon="1.79647">
        <ele>147.8</ele>
        <time>2022-07-02T11:17:10Z</time>
      </trkpt>
      <trkpt lat="49.08488" lon="1.79646">
        <ele>147.9</ele>
        <time>2022-07-02T11:17:26Z</time>
      </trkpt>
      <trkpt lat="49.08489" lon="1.79645">
        <ele>147.9</ele>
        <time>2022-07-02T11:17:51Z</time>
      </trkpt>
      <trkpt lat="49.08489" lon="1.79645">
        <ele>147.9</ele>
        <time>2022-07-02T11:18:13Z</time>
      </trkpt>
      <trkpt lat="49.08489" lon="1.79646">
        <ele>147.9</ele>
        <time>2022-07-02T11:18:33Z</time>
      </trkpt>
      <trkpt lat="49.08488" lon="1.79645">
        <ele>147.9</ele>
        <time>2022-07-02T11:18:54Z</time>
      </trkpt>
      <trkpt lat="49.08488" lon="1.79646">
        <ele>147.9</ele>
        <time>2022-07-02T11:19:06Z</time>
      </trkpt>
      <trkpt lat="49.08488" lon="1.79647">
        <ele>147.8</ele>
        <time>2022-07-02T11:19:23Z</time>
      </trkpt>
      <trkpt lat="49.08487" lon="1.79647">
        <ele>147.8</ele>
        <time>2022-07-02T11:19:43Z</time>
      </trkpt>
      <trkpt lat="49.08487" lon="1.79647">
        <ele>147.8</ele>
        <time>2022-07-02T11:19:57Z</time>
      </trkpt>
      <trkpt lat="49.08487" lon="1.79648">
        <ele>147.8</ele>
        <time>2022-07-02T11:20:11Z</time>
      </trkpt>
      <trkpt lat="49.08487" lon="1.79648">
        <ele>147.8</ele>
        <time>2022-07-02T11:20:26Z</time>
      </trkpt>
      <trkpt lat="49.08487" lon="1.79648">
        <ele>147.8</ele>
        <time>2022-07-02T11:20:39Z</time>
      </trkpt>
      <trkpt lat="49.08487" lon="1.7965">
        <ele>147.8</ele>
        <time>2022-07-02T11:20:57Z</time>
      </trkpt>
      <trkpt lat="49.08487" lon="1.7965">
        <ele>147.8</ele>
        <time>2022-07-02T11:21:16Z</time>
      </trkpt>
      <trkpt lat="49.08487" lon="1.7965">
        <ele>147.8</ele>
        <time>2022-07-02T11:21:35Z</time>
      </trkpt>
      <trkpt lat="49.08488" lon="1.7965">
        <ele>147.8</ele>
        <time>2022-07-02T11:21:54Z</time>
      </trkpt>
      <trkpt lat="49.08488" lon="1.79649">
        <ele>147.8</ele>
        <time>2022-07-02T11:22:13Z</time>
      </trkpt>
      <trkpt lat="49.08488" lon="1.79649">
        <ele>147.8</ele>
        <time>2022-07-02T11:22:32Z</time>
      </trkpt>
      <trkpt lat="49.08488" lon="1.7965">
        <ele>147.8</ele>
        <time>2022-07-02T11:22:51Z</time>
      </trkpt>
      <trkpt lat="49.08488" lon="1.7965">
        <ele>147.8</ele>
        <time>2022-07-02T11:23:14Z</time>
      </trkpt>
      <trkpt lat="49.08488" lon="1.7965">
        <ele>147.8</ele>
        <time>2022-07-02T11:23:31Z</time>
      </trkpt>
      <trkpt lat="49.08489" lon="1.7965">
        <ele>147.8</ele>
        <time>2022-07-02T11:23:49Z</time>
      </trkpt>
      <trkpt lat="49.08488" lon="1.79651">
        <ele>147.8</ele>
        <time>2022-07-02T11:24:06Z</time>
      </trkpt>
      <trkpt lat="49.08488" lon="1.79651">
        <ele>147.8</ele>
        <time>2022-07-02T11:24:25Z</time>
      </trkpt>
      <trkpt lat="49.08488" lon="1.79651">
        <ele>147.8</ele>
        <time>2022-07-02T11:24:45Z</time>
      </trkpt>
      <trkpt lat="49.08487" lon="1.79651">
        <ele>147.8</ele>
        <time>2022-07-02T11:25:04Z</time>
      </trkpt>
      <trkpt lat="49.08487" lon="1.79652">
        <ele>147.7</ele>
        <time>2022-07-02T11:25:20Z</time>
      </trkpt>
      <trkpt lat="49.08488" lon="1.79652">
        <ele>147.7</ele>
        <time>2022-07-02T11:25:34Z</time>
      </trkpt>
      <trkpt lat="49.08488" lon="1.79653">
        <ele>147.7</ele>
        <time>2022-07-02T11:25:52Z</time>
      </trkpt>
      <trkpt lat="49.08489" lon="1.79653">
        <ele>147.7</ele>
        <time>2022-07-02T11:26:11Z</time>
      </trkpt>
      <trkpt lat="49.08489" lon="1.79653">
        <ele>147.7</ele>
        <time>2022-07-02T11:26:30Z</time>
      </trkpt>
      <trkpt lat="49.08488" lon="1.79652">
        <ele>147.7</ele>
        <time>2022-07-02T11:26:46Z</time>
      </trkpt>
      <trkpt lat="49.08489" lon="1.79651">
        <ele>147.7</ele>
        <time>2022-07-02T11:27:02Z</time>
      </trkpt>
      <trkpt lat="49.08489" lon="1.79649">
        <ele>147.8</ele>
        <time>2022-07-02T11:27:09Z</time>
      </trkpt>
      <trkpt lat="49.0849" lon="1.79648">
        <ele>147.8</ele>
        <time>2022-07-02T11:27:17Z</time>
      </trkpt>
      <trkpt lat="49.0849" lon="1.79645">
        <ele>147.9</ele>
        <time>2022-07-02T11:27:29Z</time>
      </trkpt>
      <trkpt lat="49.0849" lon="1.79645">
        <ele>147.9</ele>
        <time>2022-07-02T11:27:46Z</time>
      </trkpt>
      <trkpt lat="49.0849" lon="1.79646">
        <ele>147.8</ele>
        <time>2022-07-02T11:28:01Z</time>
      </trkpt>
      <trkpt lat="49.0849" lon="1.79647">
        <ele>147.8</ele>
        <time>2022-07-02T11:28:21Z</time>
      </trkpt>
      <trkpt lat="49.08491" lon="1.79646">
        <ele>147.8</ele>
        <time>2022-07-02T11:28:40Z</time>
      </trkpt>
      <trkpt lat="49.08491" lon="1.79646">
        <ele>147.8</ele>
        <time>2022-07-02T11:28:59Z</time>
      </trkpt>
      <trkpt lat="49.08491" lon="1.79646">
        <ele>147.8</ele>
        <time>2022-07-02T11:29:16Z</time>
      </trkpt>
      <trkpt lat="49.08491" lon="1.79645">
        <ele>147.8</ele>
        <time>2022-07-02T11:29:32Z</time>
      </trkpt>
      <trkpt lat="49.08492" lon="1.79646">
        <ele>147.8</ele>
        <time>2022-07-02T11:29:49Z</time>
      </trkpt>
      <trkpt lat="49.08492" lon="1.79646">
        <ele>147.8</ele>
        <time>2022-07-02T11:30:07Z</time>
      </trkpt>
      <trkpt lat="49.08492" lon="1.79647">
        <ele>147.8</ele>
        <time>2022-07-02T11:30:27Z</time>
      </trkpt>
      <trkpt lat="49.08492" lon="1.79647">
        <ele>147.8</ele>
        <time>2022-07-02T11:30:45Z</time>
      </trkpt>
      <trkpt lat="49.08493" lon="1.79647">
        <ele>147.8</ele>
        <time>2022-07-02T11:31:01Z</time>
      </trkpt>
      <trkpt lat="49.08493" lon="1.79647">
        <ele>147.8</ele>
        <time>2022-07-02T11:31:18Z</time>
      </trkpt>
      <trkpt lat="49.08494" lon="1.79647">
        <ele>147.8</ele>
        <time>2022-07-02T11:31:31Z</time>
      </trkpt>
      <trkpt lat="49.08494" lon="1.79647">
        <ele>147.8</ele>
        <time>2022-07-02T11:31:49Z</time>
      </trkpt>
      <trkpt lat="49.08494" lon="1.79647">
        <ele>147.8</ele>
        <time>2022-07-02T11:32:05Z</time>
      </trkpt>
      <trkpt lat="49.08494" lon="1.79646">
        <ele>147.8</ele>
        <time>2022-07-02T11:32:20Z</time>
      </trkpt>
      <trkpt lat="49.08494" lon="1.79646">
        <ele>147.8</ele>
        <time>2022-07-02T11:32:38Z</time>
      </trkpt>
      <trkpt lat="49.08494" lon="1.79646">
        <ele>147.8</ele>
        <time>2022-07-02T11:32:56Z</time>
      </trkpt>
      <trkpt lat="49.08494" lon="1.79646">
        <ele>147.8</ele>
        <time>2022-07-02T11:33:13Z</time>
      </trkpt>
      <trkpt lat="49.08494" lon="1.79647">
        <ele>147.8</ele>
        <time>2022-07-02T11:33:33Z</time>
      </trkpt>
      <trkpt lat="49.08494" lon="1.79646">
        <ele>147.8</ele>
        <time>2022-07-02T11:33:51Z</time>
      </trkpt>
      <trkpt lat="49.08493" lon="1.79647">
        <ele>147.8</ele>
        <time>2022-07-02T11:34:12Z</time>
      </trkpt>
      <trkpt lat="49.08493" lon="1.79647">
        <ele>147.8</ele>
        <time>2022-07-02T11:34:30Z</time>
      </trkpt>
      <trkpt lat="49.08492" lon="1.79647">
        <ele>147.8</ele>
        <time>2022-07-02T11:34:51Z</time>
      </trkpt>
      <trkpt lat="49.08492" lon="1.79647">
        <ele>147.8</ele>
        <time>2022-07-02T11:35:10Z</time>
      </trkpt>
      <trkpt lat="49.08492" lon="1.79646">
        <ele>147.8</ele>
        <time>2022-07-02T11:35:27Z</time>
      </trkpt>
      <trkpt lat="49.08492" lon="1.79646">
        <ele>147.8</ele>
        <time>2022-07-02T11:35:43Z</time>
      </trkpt>
      <trkpt lat="49.08493" lon="1.79647">
        <ele>147.8</ele>
        <time>2022-07-02T11:36:01Z</time>
      </trkpt>
      <trkpt lat="49.08492" lon="1.79648">
        <ele>147.8</ele>
        <time>2022-07-02T11:36:19Z</time>
      </trkpt>
      <trkpt lat="49.08492" lon="1.79648">
        <ele>147.8</ele>
        <time>2022-07-02T11:36:37Z</time>
      </trkpt>
      <trkpt lat="49.08491" lon="1.79648">
        <ele>147.8</ele>
        <time>2022-07-02T11:36:54Z</time>
      </trkpt>
      <trkpt lat="49.08491" lon="1.79648">
        <ele>147.8</ele>
        <time>2022-07-02T11:37:12Z</time>
      </trkpt>
      <trkpt lat="49.08492" lon="1.79649">
        <ele>147.7</ele>
        <time>2022-07-02T11:37:29Z</time>
      </trkpt>
      <trkpt lat="49.08491" lon="1.79648">
        <ele>147.8</ele>
        <time>2022-07-02T11:37:51Z</time>
      </trkpt>
      <trkpt lat="49.08491" lon="1.79647">
        <ele>147.8</ele>
        <time>2022-07-02T11:38:09Z</time>
      </trkpt>
      <trkpt lat="49.08491" lon="1.79647">
        <ele>147.8</ele>
        <time>2022-07-02T11:38:25Z</time>
      </trkpt>
      <trkpt lat="49.08492" lon="1.79647">
        <ele>147.8</ele>
        <time>2022-07-02T11:38:36Z</time>
      </trkpt>
      <trkpt lat="49.08492" lon="1.79647">
        <ele>147.8</ele>
        <time>2022-07-02T11:38:47Z</time>
      </trkpt>
      <trkpt lat="49.08492" lon="1.79647">
        <ele>147.8</ele>
        <time>2022-07-02T11:39:00Z</time>
      </trkpt>
      <trkpt lat="49.08492" lon="1.79646">
        <ele>147.8</ele>
        <time>2022-07-02T11:39:12Z</time>
      </trkpt>
      <trkpt lat="49.08492" lon="1.79646">
        <ele>147.8</ele>
        <time>2022-07-02T11:39:22Z</time>
      </trkpt>
      <trkpt lat="49.08491" lon="1.79646">
        <ele>147.8</ele>
        <time>2022-07-02T11:39:29Z</time>
      </trkpt>
      <trkpt lat="49.08488" lon="1.79652">
        <ele>147.7</ele>
        <time>2022-07-02T11:39:36Z</time>
      </trkpt>
      <trkpt lat="49.08488" lon="1.79655">
        <ele>147.7</ele>
        <time>2022-07-02T11:39:44Z</time>
      </trkpt>
      <trkpt lat="49.08488" lon="1.79654">
        <ele>147.7</ele>
        <time>2022-07-02T11:39:51Z</time>
      </trkpt>
      <trkpt lat="49.08488" lon="1.79655">
        <ele>147.7</ele>
        <time>2022-07-02T11:40:04Z</time>
      </trkpt>
      <trkpt lat="49.08488" lon="1.79655">
        <ele>147.7</ele>
        <time>2022-07-02T11:40:12Z</time>
      </trkpt>
      <trkpt lat="49.08488" lon="1.79655">
        <ele>147.7</ele>
        <time>2022-07-02T11:40:22Z</time>
      </trkpt>
      <trkpt lat="49.08489" lon="1.79654">
        <ele>147.7</ele>
        <time>2022-07-02T11:40:32Z</time>
      </trkpt>
      <trkpt lat="49.08489" lon="1.79654">
        <ele>147.7</ele>
        <time>2022-07-02T11:40:40Z</time>
      </trkpt>
      <trkpt lat="49.08488" lon="1.79654">
        <ele>147.7</ele>
        <time>2022-07-02T11:40:48Z</time>
      </trkpt>
      <trkpt lat="49.08486" lon="1.79655">
        <ele>147.7</ele>
        <time>2022-07-02T11:40:54Z</time>
      </trkpt>
      <trkpt lat="49.08486" lon="1.79654">
        <ele>147.7</ele>
        <time>2022-07-02T11:41:03Z</time>
      </trkpt>
      <trkpt lat="49.08486" lon="1.79653">
        <ele>147.7</ele>
        <time>2022-07-02T11:41:15Z</time>
      </trkpt>
      <trkpt lat="49.08485" lon="1.79652">
        <ele>147.8</ele>
        <time>2022-07-02T11:41:34Z</time>
      </trkpt>
      <trkpt lat="49.08485" lon="1.79653">
        <ele>147.8</ele>
        <time>2022-07-02T11:41:42Z</time>
      </trkpt>
      <trkpt lat="49.08485" lon="1.79654">
        <ele>147.8</ele>
        <time>2022-07-02T11:41:56Z</time>
      </trkpt>
      <trkpt lat="49.08485" lon="1.79657">
        <ele>147.7</ele>
        <time>2022-07-02T11:42:03Z</time>
      </trkpt>
      <trkpt lat="49.08485" lon="1.79658">
        <ele>147.7</ele>
        <time>2022-07-02T11:42:15Z</time>
      </trkpt>
      <trkpt lat="49.08485" lon="1.79658">
        <ele>147.7</ele>
        <time>2022-07-02T11:42:28Z</time>
      </trkpt>
      <trkpt lat="49.08485" lon="1.79659">
        <ele>147.7</ele>
        <time>2022-07-02T11:42:41Z</time>
      </trkpt>
      <trkpt lat="49.08486" lon="1.7966">
        <ele>147.6</ele>
        <time>2022-07-02T11:42:55Z</time>
      </trkpt>
      <trkpt lat="49.08486" lon="1.7966">
        <ele>147.6</ele>
        <time>2022-07-02T11:43:03Z</time>
      </trkpt>
      <trkpt lat="49.08487" lon="1.7966">
        <ele>147.6</ele>
        <time>2022-07-02T11:43:16Z</time>
      </trkpt>
      <trkpt lat="49.08487" lon="1.7966">
        <ele>147.6</ele>
        <time>2022-07-02T11:43:31Z</time>
      </trkpt>
      <trkpt lat="49.08487" lon="1.79661">
        <ele>147.6</ele>
        <time>2022-07-02T11:43:43Z</time>
      </trkpt>
      <trkpt lat="49.08487" lon="1.79661">
        <ele>147.6</ele>
        <time>2022-07-02T11:43:59Z</time>
      </trkpt>
      <trkpt lat="49.08487" lon="1.79661">
        <ele>147.6</ele>
        <time>2022-07-02T11:44:05Z</time>
      </trkpt>
      <trkpt lat="49.08488" lon="1.79661">
        <ele>147.5</ele>
        <time>2022-07-02T11:44:16Z</time>
      </trkpt>
      <trkpt lat="49.08488" lon="1.79662">
        <ele>147.5</ele>
        <time>2022-07-02T11:44:29Z</time>
      </trkpt>
      <trkpt lat="49.08488" lon="1.79662">
        <ele>147.5</ele>
        <time>2022-07-02T11:44:40Z</time>
      </trkpt>
      <trkpt lat="49.08488" lon="1.79663">
        <ele>147.5</ele>
        <time>2022-07-02T11:44:49Z</time>
      </trkpt>
      <trkpt lat="49.08489" lon="1.79661">
        <ele>147.5</ele>
        <time>2022-07-02T11:44:55Z</time>
      </trkpt>
      <trkpt lat="49.08489" lon="1.7966">
        <ele>147.6</ele>
        <time>2022-07-02T11:45:05Z</time>
      </trkpt>
      <trkpt lat="49.08489" lon="1.7966">
        <ele>147.6</ele>
        <time>2022-07-02T11:45:13Z</time>
      </trkpt>
      <trkpt lat="49.08486" lon="1.79664">
        <ele>147.5</ele>
        <time>2022-07-02T11:45:23Z</time>
      </trkpt>
      <trkpt lat="49.08481" lon="1.79669">
        <ele>147.7</ele>
        <time>2022-07-02T11:45:30Z</time>
      </trkpt>
      <trkpt lat="49.08479" lon="1.79673">
        <ele>147.7</ele>
        <time>2022-07-02T11:45:34Z</time>
      </trkpt>
      <trkpt lat="49.08474" lon="1.7968">
        <ele>147.9</ele>
        <time>2022-07-02T11:45:40Z</time>
      </trkpt>
      <trkpt lat="49.08471" lon="1.79682">
        <ele>148.1</ele>
        <time>2022-07-02T11:45:45Z</time>
      </trkpt>
      <trkpt lat="49.08468" lon="1.79686">
        <ele>148.3</ele>
        <time>2022-07-02T11:45:51Z</time>
      </trkpt>
      <trkpt lat="49.08465" lon="1.79691">
        <ele>148.5</ele>
        <time>2022-07-02T11:45:58Z</time>
      </trkpt>
      <trkpt lat="49.0846" lon="1.79697">
        <ele>148.9</ele>
        <time>2022-07-02T11:46:07Z</time>
      </trkpt>
      <trkpt lat="49.08455" lon="1.79707">
        <ele>149.2</ele>
        <time>2022-07-02T11:46:15Z</time>
      </trkpt>
      <trkpt lat="49.08451" lon="1.79709">
        <ele>149.5</ele>
        <time>2022-07-02T11:46:20Z</time>
      </trkpt>
      <trkpt lat="49.08447" lon="1.79719">
        <ele>149.8</ele>
        <time>2022-07-02T11:46:29Z</time>
      </trkpt>
      <trkpt lat="49.08442" lon="1.79728">
        <ele>150.4</ele>
        <time>2022-07-02T11:46:37Z</time>
      </trkpt>
      <trkpt lat="49.08441" lon="1.7973">
        <ele>150.5</ele>
        <time>2022-07-02T11:46:39Z</time>
      </trkpt>
      <trkpt lat="49.08438" lon="1.79735">
        <ele>150.9</ele>
        <time>2022-07-02T11:46:43Z</time>
      </trkpt>
      <trkpt lat="49.08435" lon="1.79739">
        <ele>151.3</ele>
        <time>2022-07-02T11:46:48Z</time>
      </trkpt>
      <trkpt lat="49.0843" lon="1.79744">
        <ele>151.8</ele>
        <time>2022-07-02T11:46:53Z</time>
      </trkpt>
      <trkpt lat="49.08424" lon="1.7975">
        <ele>152.4</ele>
        <time>2022-07-02T11:47:00Z</time>
      </trkpt>
      <trkpt lat="49.08421" lon="1.79755">
        <ele>152.7</ele>
        <time>2022-07-02T11:47:07Z</time>
      </trkpt>
      <trkpt lat="49.08417" lon="1.79764">
        <ele>153</ele>
        <time>2022-07-02T11:47:16Z</time>
      </trkpt>
      <trkpt lat="49.08414" lon="1.79774">
        <ele>153.2</ele>
        <time>2022-07-02T11:47:25Z</time>
      </trkpt>
      <trkpt lat="49.08406" lon="1.79785">
        <ele>153.7</ele>
        <time>2022-07-02T11:47:35Z</time>
      </trkpt>
      <trkpt lat="49.08403" lon="1.79789">
        <ele>153.9</ele>
        <time>2022-07-02T11:47:38Z</time>
      </trkpt>
      <trkpt lat="49.08399" lon="1.79801">
        <ele>154.3</ele>
        <time>2022-07-02T11:47:47Z</time>
      </trkpt>
      <trkpt lat="49.08394" lon="1.79807">
        <ele>154.6</ele>
        <time>2022-07-02T11:47:53Z</time>
      </trkpt>
      <trkpt lat="49.08384" lon="1.79819">
        <ele>155.3</ele>
        <time>2022-07-02T11:48:03Z</time>
      </trkpt>
      <trkpt lat="49.0838" lon="1.79824">
        <ele>155.7</ele>
        <time>2022-07-02T11:48:09Z</time>
      </trkpt>
      <trkpt lat="49.08374" lon="1.79832">
        <ele>156.1</ele>
        <time>2022-07-02T11:48:17Z</time>
      </trkpt>
      <trkpt lat="49.08369" lon="1.79838">
        <ele>156.6</ele>
        <time>2022-07-02T11:48:25Z</time>
      </trkpt>
      <trkpt lat="49.08364" lon="1.79843">
        <ele>157.1</ele>
        <time>2022-07-02T11:48:31Z</time>
      </trkpt>
      <trkpt lat="49.08361" lon="1.79846">
        <ele>157.5</ele>
        <time>2022-07-02T11:48:35Z</time>
      </trkpt>
      <trkpt lat="49.08358" lon="1.79853">
        <ele>158.1</ele>
        <time>2022-07-02T11:48:41Z</time>
      </trkpt>
      <trkpt lat="49.08352" lon="1.79859">
        <ele>158.9</ele>
        <time>2022-07-02T11:48:49Z</time>
      </trkpt>
      <trkpt lat="49.08348" lon="1.79868">
        <ele>159.5</ele>
        <time>2022-07-02T11:48:57Z</time>
      </trkpt>
      <trkpt lat="49.08345" lon="1.79871">
        <ele>159.8</ele>
        <time>2022-07-02T11:49:00Z</time>
      </trkpt>
      <trkpt lat="49.08338" lon="1.7988">
        <ele>160.5</ele>
        <time>2022-07-02T11:49:08Z</time>
      </trkpt>
      <trkpt lat="49.08333" lon="1.79885">
        <ele>161</ele>
        <time>2022-07-02T11:49:14Z</time>
      </trkpt>
      <trkpt lat="49.08331" lon="1.79888">
        <ele>161.2</ele>
        <time>2022-07-02T11:49:17Z</time>
      </trkpt>
      <trkpt lat="49.08325" lon="1.79894">
        <ele>161.6</ele>
        <time>2022-07-02T11:49:23Z</time>
      </trkpt>
      <trkpt lat="49.08319" lon="1.79901">
        <ele>162.2</ele>
        <time>2022-07-02T11:49:30Z</time>
      </trkpt>
      <trkpt lat="49.08314" lon="1.79904">
        <ele>162.8</ele>
        <time>2022-07-02T11:49:36Z</time>
      </trkpt>
      <trkpt lat="49.08314" lon="1.79902">
        <ele>162.7</ele>
        <time>2022-07-02T11:49:43Z</time>
      </trkpt>
      <trkpt lat="49.08313" lon="1.79904">
        <ele>162.9</ele>
        <time>2022-07-02T11:49:53Z</time>
      </trkpt>
      <trkpt lat="49.08313" lon="1.79904">
        <ele>162.9</ele>
        <time>2022-07-02T11:49:54Z</time>
      </trkpt>
      <trkpt lat="49.08312" lon="1.79913">
        <ele>163.2</ele>
        <time>2022-07-02T11:50:00Z</time>
      </trkpt>
      <trkpt lat="49.08307" lon="1.79918">
        <ele>163.8</ele>
        <time>2022-07-02T11:50:07Z</time>
      </trkpt>
      <trkpt lat="49.08307" lon="1.79919">
        <ele>163.9</ele>
        <time>2022-07-02T11:50:08Z</time>
      </trkpt>
      <trkpt lat="49.083" lon="1.79929">
        <ele>164.4</ele>
        <time>2022-07-02T11:50:14Z</time>
      </trkpt>
      <trkpt lat="49.08298" lon="1.79931">
        <ele>164.5</ele>
        <time>2022-07-02T11:50:16Z</time>
      </trkpt>
      <trkpt lat="49.08295" lon="1.79943">
        <ele>164.8</ele>
        <time>2022-07-02T11:50:23Z</time>
      </trkpt>
      <trkpt lat="49.08293" lon="1.79947">
        <ele>164.9</ele>
        <time>2022-07-02T11:50:30Z</time>
      </trkpt>
      <trkpt lat="49.08292" lon="1.79949">
        <ele>165</ele>
        <time>2022-07-02T11:50:33Z</time>
      </trkpt>
      <trkpt lat="49.08289" lon="1.79962">
        <ele>165.2</ele>
        <time>2022-07-02T11:50:41Z</time>
      </trkpt>
      <trkpt lat="49.08289" lon="1.79966">
        <ele>165.2</ele>
        <time>2022-07-02T11:50:45Z</time>
      </trkpt>
      <trkpt lat="49.08285" lon="1.79972">
        <ele>165.5</ele>
        <time>2022-07-02T11:50:48Z</time>
      </trkpt>
      <trkpt lat="49.08276" lon="1.79984">
        <ele>166.6</ele>
        <time>2022-07-02T11:50:55Z</time>
      </trkpt>
      <trkpt lat="49.08272" lon="1.79987">
        <ele>167.1</ele>
        <time>2022-07-02T11:50:58Z</time>
      </trkpt>
      <trkpt lat="49.08266" lon="1.79992">
        <ele>168</ele>
        <time>2022-07-02T11:51:04Z</time>
      </trkpt>
      <trkpt lat="49.08262" lon="1.79996">
        <ele>168.5</ele>
        <time>2022-07-02T11:51:08Z</time>
      </trkpt>
      <trkpt lat="49.0826" lon="1.79998">
        <ele>168.9</ele>
        <time>2022-07-02T11:51:11Z</time>
      </trkpt>
      <trkpt lat="49.08256" lon="1.80003">
        <ele>169.3</ele>
        <time>2022-07-02T11:51:18Z</time>
      </trkpt>
      <trkpt lat="49.08255" lon="1.80008">
        <ele>169.5</ele>
        <time>2022-07-02T11:51:25Z</time>
      </trkpt>
      <trkpt lat="49.08253" lon="1.80011">
        <ele>169.7</ele>
        <time>2022-07-02T11:51:30Z</time>
      </trkpt>
      <trkpt lat="49.08253" lon="1.80013">
        <ele>169.7</ele>
        <time>2022-07-02T11:51:36Z</time>
      </trkpt>
      <trkpt lat="49.08255" lon="1.80019">
        <ele>169.6</ele>
        <time>2022-07-02T11:51:42Z</time>
      </trkpt>
      <trkpt lat="49.08253" lon="1.80026">
        <ele>169.8</ele>
        <time>2022-07-02T11:51:49Z</time>
      </trkpt>
      <trkpt lat="49.08259" lon="1.80033">
        <ele>169.6</ele>
        <time>2022-07-02T11:51:56Z</time>
      </trkpt>
      <trkpt lat="49.08259" lon="1.80039">
        <ele>169.9</ele>
        <time>2022-07-02T11:52:04Z</time>
      </trkpt>
      <trkpt lat="49.08262" lon="1.80045">
        <ele>170</ele>
        <time>2022-07-02T11:52:10Z</time>
      </trkpt>
      <trkpt lat="49.08263" lon="1.80048">
        <ele>170.1</ele>
        <time>2022-07-02T11:52:12Z</time>
      </trkpt>
      <trkpt lat="49.08276" lon="1.80061">
        <ele>170.4</ele>
        <time>2022-07-02T11:52:19Z</time>
      </trkpt>
      <trkpt lat="49.08284" lon="1.80069">
        <ele>170.5</ele>
        <time>2022-07-02T11:52:28Z</time>
      </trkpt>
      <trkpt lat="49.08284" lon="1.80075">
        <ele>170.9</ele>
        <time>2022-07-02T11:52:36Z</time>
      </trkpt>
      <trkpt lat="49.08287" lon="1.80084">
        <ele>171.4</ele>
        <time>2022-07-02T11:52:45Z</time>
      </trkpt>
      <trkpt lat="49.08296" lon="1.80094">
        <ele>171.5</ele>
        <time>2022-07-02T11:52:53Z</time>
      </trkpt>
      <trkpt lat="49.08299" lon="1.80105">
        <ele>172</ele>
        <time>2022-07-02T11:52:59Z</time>
      </trkpt>
      <trkpt lat="49.08302" lon="1.80111">
        <ele>172.3</ele>
        <time>2022-07-02T11:53:04Z</time>
      </trkpt>
      <trkpt lat="49.08306" lon="1.80114">
        <ele>172.2</ele>
        <time>2022-07-02T11:53:07Z</time>
      </trkpt>
      <trkpt lat="49.0831" lon="1.8012">
        <ele>172.4</ele>
        <time>2022-07-02T11:53:10Z</time>
      </trkpt>
      <trkpt lat="49.08316" lon="1.80129">
        <ele>172.7</ele>
        <time>2022-07-02T11:53:16Z</time>
      </trkpt>
      <trkpt lat="49.0832" lon="1.80144">
        <ele>173.1</ele>
        <time>2022-07-02T11:53:25Z</time>
      </trkpt>
      <trkpt lat="49.08321" lon="1.80147">
        <ele>173.1</ele>
        <time>2022-07-02T11:53:26Z</time>
      </trkpt>
      <trkpt lat="49.08328" lon="1.80158">
        <ele>173.1</ele>
        <time>2022-07-02T11:53:34Z</time>
      </trkpt>
      <trkpt lat="49.08335" lon="1.80162">
        <ele>172.8</ele>
        <time>2022-07-02T11:53:38Z</time>
      </trkpt>
      <trkpt lat="49.08346" lon="1.80182">
        <ele>172.4</ele>
        <time>2022-07-02T11:53:49Z</time>
      </trkpt>
      <trkpt lat="49.08345" lon="1.80195">
        <ele>172.7</ele>
        <time>2022-07-02T11:53:54Z</time>
      </trkpt>
      <trkpt lat="49.08347" lon="1.80199">
        <ele>172.7</ele>
        <time>2022-07-02T11:53:56Z</time>
      </trkpt>
      <trkpt lat="49.08364" lon="1.80211">
        <ele>171.3</ele>
        <time>2022-07-02T11:54:02Z</time>
      </trkpt>
      <trkpt lat="49.08368" lon="1.80212">
        <ele>171</ele>
        <time>2022-07-02T11:54:06Z</time>
      </trkpt>
      <trkpt lat="49.0837" lon="1.80208">
        <ele>170.7</ele>
        <time>2022-07-02T11:54:11Z</time>
      </trkpt>
      <trkpt lat="49.08375" lon="1.80203">
        <ele>170.1</ele>
        <time>2022-07-02T11:54:17Z</time>
      </trkpt>
      <trkpt lat="49.08374" lon="1.80201">
        <ele>170.2</ele>
        <time>2022-07-02T11:54:26Z</time>
      </trkpt>
      <trkpt lat="49.08376" lon="1.80202">
        <ele>170.1</ele>
        <time>2022-07-02T11:54:28Z</time>
      </trkpt>
      <trkpt lat="49.08381" lon="1.80211">
        <ele>169.7</ele>
        <time>2022-07-02T11:54:36Z</time>
      </trkpt>
      <trkpt lat="49.08386" lon="1.80217">
        <ele>169.3</ele>
        <time>2022-07-02T11:54:43Z</time>
      </trkpt>
      <trkpt lat="49.0839" lon="1.80223">
        <ele>168.9</ele>
        <time>2022-07-02T11:54:48Z</time>
      </trkpt>
      <trkpt lat="49.08395" lon="1.8023">
        <ele>168.3</ele>
        <time>2022-07-02T11:54:55Z</time>
      </trkpt>
      <trkpt lat="49.08396" lon="1.80236">
        <ele>168.2</ele>
        <time>2022-07-02T11:55:02Z</time>
      </trkpt>
      <trkpt lat="49.08398" lon="1.80243">
        <ele>168</ele>
        <time>2022-07-02T11:55:11Z</time>
      </trkpt>
      <trkpt lat="49.08401" lon="1.80252">
        <ele>167.7</ele>
        <time>2022-07-02T11:55:19Z</time>
      </trkpt>
      <trkpt lat="49.084" lon="1.80257">
        <ele>167.7</ele>
        <time>2022-07-02T11:55:26Z</time>
      </trkpt>
      <trkpt lat="49.08399" lon="1.80262">
        <ele>167.6</ele>
        <time>2022-07-02T11:55:34Z</time>
      </trkpt>
      <trkpt lat="49.08398" lon="1.80267">
        <ele>167.6</ele>
        <time>2022-07-02T11:55:41Z</time>
      </trkpt>
      <trkpt lat="49.08398" lon="1.8027">
        <ele>167.5</ele>
        <time>2022-07-02T11:55:49Z</time>
      </trkpt>
      <trkpt lat="49.084" lon="1.80281">
        <ele>167.2</ele>
        <time>2022-07-02T11:55:57Z</time>
      </trkpt>
      <trkpt lat="49.08398" lon="1.80286">
        <ele>167.3</ele>
        <time>2022-07-02T11:56:03Z</time>
      </trkpt>
      <trkpt lat="49.08401" lon="1.8029">
        <ele>167.1</ele>
        <time>2022-07-02T11:56:09Z</time>
      </trkpt>
      <trkpt lat="49.08404" lon="1.80299">
        <ele>166.9</ele>
        <time>2022-07-02T11:56:18Z</time>
      </trkpt>
      <trkpt lat="49.08402" lon="1.80309">
        <ele>167.1</ele>
        <time>2022-07-02T11:56:28Z</time>
      </trkpt>
      <trkpt lat="49.08415" lon="1.80328">
        <ele>166.2</ele>
        <time>2022-07-02T11:56:39Z</time>
      </trkpt>
      <trkpt lat="49.08412" lon="1.80332">
        <ele>166.3</ele>
        <time>2022-07-02T11:56:46Z</time>
      </trkpt>
      <trkpt lat="49.08415" lon="1.80334">
        <ele>166.2</ele>
        <time>2022-07-02T11:56:48Z</time>
      </trkpt>
      <trkpt lat="49.08409" lon="1.80336">
        <ele>166.6</ele>
        <time>2022-07-02T11:56:55Z</time>
      </trkpt>
      <trkpt lat="49.08409" lon="1.80342">
        <ele>166.5</ele>
        <time>2022-07-02T11:57:01Z</time>
      </trkpt>
      <trkpt lat="49.08437" lon="1.80358">
        <ele>165.9</ele>
        <time>2022-07-02T11:57:09Z</time>
      </trkpt>
      <trkpt lat="49.0844" lon="1.80361">
        <ele>166</ele>
        <time>2022-07-02T11:57:11Z</time>
      </trkpt>
      <trkpt lat="49.08442" lon="1.80364">
        <ele>166.2</ele>
        <time>2022-07-02T11:57:13Z</time>
      </trkpt>
      <trkpt lat="49.08452" lon="1.80371">
        <ele>166.7</ele>
        <time>2022-07-02T11:57:20Z</time>
      </trkpt>
      <trkpt lat="49.08504" lon="1.80406">
        <ele>168.1</ele>
        <time>2022-07-02T11:57:27Z</time>
      </trkpt>
      <trkpt lat="49.0851" lon="1.80413">
        <ele>168.4</ele>
        <time>2022-07-02T11:57:34Z</time>
      </trkpt>
      <trkpt lat="49.0851" lon="1.80415">
        <ele>168.5</ele>
        <time>2022-07-02T11:57:40Z</time>
      </trkpt>
      <trkpt lat="49.08511" lon="1.80418">
        <ele>168.6</ele>
        <time>2022-07-02T11:57:46Z</time>
      </trkpt>
      <trkpt lat="49.08514" lon="1.80423">
        <ele>168.6</ele>
        <time>2022-07-02T11:57:52Z</time>
      </trkpt>
      <trkpt lat="49.08519" lon="1.8043">
        <ele>168.7</ele>
        <time>2022-07-02T11:57:59Z</time>
      </trkpt>
      <trkpt lat="49.08523" lon="1.80435">
        <ele>168.7</ele>
        <time>2022-07-02T11:58:06Z</time>
      </trkpt>
      <trkpt lat="49.0853" lon="1.80441">
        <ele>168.9</ele>
        <time>2022-07-02T11:58:12Z</time>
      </trkpt>
      <trkpt lat="49.08536" lon="1.80452">
        <ele>169.3</ele>
        <time>2022-07-02T11:58:18Z</time>
      </trkpt>
      <trkpt lat="49.08543" lon="1.8046">
        <ele>169.6</ele>
        <time>2022-07-02T11:58:25Z</time>
      </trkpt>
      <trkpt lat="49.0855" lon="1.80468">
        <ele>169.8</ele>
        <time>2022-07-02T11:58:32Z</time>
      </trkpt>
      <trkpt lat="49.0855" lon="1.80471">
        <ele>169.9</ele>
        <time>2022-07-02T11:58:38Z</time>
      </trkpt>
      <trkpt lat="49.08552" lon="1.80479">
        <ele>170.2</ele>
        <time>2022-07-02T11:58:45Z</time>
      </trkpt>
      <trkpt lat="49.08557" lon="1.80488">
        <ele>170.6</ele>
        <time>2022-07-02T11:58:52Z</time>
      </trkpt>
      <trkpt lat="49.08558" lon="1.80496">
        <ele>170.9</ele>
        <time>2022-07-02T11:58:59Z</time>
      </trkpt>
      <trkpt lat="49.08556" lon="1.8051">
        <ele>171.3</ele>
        <time>2022-07-02T11:59:12Z</time>
      </trkpt>
      <trkpt lat="49.08568" lon="1.80517">
        <ele>171.3</ele>
        <time>2022-07-02T11:59:19Z</time>
      </trkpt>
      <trkpt lat="49.08591" lon="1.8053">
        <ele>171.1</ele>
        <time>2022-07-02T11:59:27Z</time>
      </trkpt>
      <trkpt lat="49.08596" lon="1.80536">
        <ele>171.3</ele>
        <time>2022-07-02T11:59:34Z</time>
      </trkpt>
      <trkpt lat="49.08596" lon="1.80538">
        <ele>171.4</ele>
        <time>2022-07-02T11:59:41Z</time>
      </trkpt>
      <trkpt lat="49.08597" lon="1.80543">
        <ele>171.5</ele>
        <time>2022-07-02T11:59:46Z</time>
      </trkpt>
      <trkpt lat="49.08599" lon="1.80547">
        <ele>171.7</ele>
        <time>2022-07-02T11:59:52Z</time>
      </trkpt>
      <trkpt lat="49.08601" lon="1.80551">
        <ele>171.8</ele>
        <time>2022-07-02T11:59:55Z</time>
      </trkpt>
      <trkpt lat="49.08609" lon="1.80561">
        <ele>172</ele>
        <time>2022-07-02T12:00:03Z</time>
      </trkpt>
      <trkpt lat="49.08613" lon="1.80565">
        <ele>172</ele>
        <time>2022-07-02T12:00:07Z</time>
      </trkpt>
      <trkpt lat="49.08616" lon="1.8057">
        <ele>171.9</ele>
        <time>2022-07-02T12:00:11Z</time>
      </trkpt>
      <trkpt lat="49.08618" lon="1.80575">
        <ele>171.9</ele>
        <time>2022-07-02T12:00:14Z</time>
      </trkpt>
      <trkpt lat="49.08622" lon="1.80584">
        <ele>172</ele>
        <time>2022-07-02T12:00:22Z</time>
      </trkpt>
      <trkpt lat="49.08622" lon="1.80593">
        <ele>172</ele>
        <time>2022-07-02T12:00:28Z</time>
      </trkpt>
      <trkpt lat="49.08626" lon="1.80601">
        <ele>172</ele>
        <time>2022-07-02T12:00:31Z</time>
      </trkpt>
      <trkpt lat="49.08629" lon="1.80609">
        <ele>172</ele>
        <time>2022-07-02T12:00:36Z</time>
      </trkpt>
      <trkpt lat="49.08631" lon="1.80618">
        <ele>172</ele>
        <time>2022-07-02T12:00:41Z</time>
      </trkpt>
      <trkpt lat="49.08634" lon="1.80629">
        <ele>172</ele>
        <time>2022-07-02T12:00:49Z</time>
      </trkpt>
      <trkpt lat="49.08641" lon="1.80643">
        <ele>171.8</ele>
        <time>2022-07-02T12:00:56Z</time>
      </trkpt>
      <trkpt lat="49.08649" lon="1.80656">
        <ele>171.4</ele>
        <time>2022-07-02T12:01:02Z</time>
      </trkpt>
      <trkpt lat="49.08649" lon="1.80663">
        <ele>171.1</ele>
        <time>2022-07-02T12:01:07Z</time>
      </trkpt>
      <trkpt lat="49.08659" lon="1.80674">
        <ele>170.8</ele>
        <time>2022-07-02T12:01:13Z</time>
      </trkpt>
      <trkpt lat="49.08668" lon="1.80692">
        <ele>170.1</ele>
        <time>2022-07-02T12:01:22Z</time>
      </trkpt>
      <trkpt lat="49.08673" lon="1.8071">
        <ele>169.9</ele>
        <time>2022-07-02T12:01:30Z</time>
      </trkpt>
      <trkpt lat="49.08672" lon="1.80723">
        <ele>169.8</ele>
        <time>2022-07-02T12:01:37Z</time>
      </trkpt>
      <trkpt lat="49.08669" lon="1.80731">
        <ele>169.6</ele>
        <time>2022-07-02T12:01:42Z</time>
      </trkpt>
      <trkpt lat="49.08673" lon="1.80746">
        <ele>169.1</ele>
        <time>2022-07-02T12:01:49Z</time>
      </trkpt>
      <trkpt lat="49.0867" lon="1.80757">
        <ele>168.8</ele>
        <time>2022-07-02T12:01:56Z</time>
      </trkpt>
      <trkpt lat="49.08671" lon="1.80768">
        <ele>168.4</ele>
        <time>2022-07-02T12:02:02Z</time>
      </trkpt>
      <trkpt lat="49.08673" lon="1.80782">
        <ele>167.8</ele>
        <time>2022-07-02T12:02:10Z</time>
      </trkpt>
      <trkpt lat="49.08676" lon="1.8079">
        <ele>167.6</ele>
        <time>2022-07-02T12:02:18Z</time>
      </trkpt>
      <trkpt lat="49.08677" lon="1.80791">
        <ele>167.5</ele>
        <time>2022-07-02T12:02:20Z</time>
      </trkpt>
      <trkpt lat="49.08678" lon="1.80799">
        <ele>167.2</ele>
        <time>2022-07-02T12:02:28Z</time>
      </trkpt>
      <trkpt lat="49.08671" lon="1.80813">
        <ele>166.7</ele>
        <time>2022-07-02T12:02:33Z</time>
      </trkpt>
      <trkpt lat="49.08674" lon="1.80824">
        <ele>166.3</ele>
        <time>2022-07-02T12:02:39Z</time>
      </trkpt>
      <trkpt lat="49.08674" lon="1.80831">
        <ele>166.1</ele>
        <time>2022-07-02T12:02:45Z</time>
      </trkpt>
      <trkpt lat="49.08678" lon="1.80838">
        <ele>165.7</ele>
        <time>2022-07-02T12:02:53Z</time>
      </trkpt>
      <trkpt lat="49.08682" lon="1.80843">
        <ele>165.5</ele>
        <time>2022-07-02T12:03:02Z</time>
      </trkpt>
      <trkpt lat="49.08699" lon="1.80859">
        <ele>165.2</ele>
        <time>2022-07-02T12:03:10Z</time>
      </trkpt>
      <trkpt lat="49.08705" lon="1.80866">
        <ele>165.3</ele>
        <time>2022-07-02T12:03:16Z</time>
      </trkpt>
      <trkpt lat="49.08709" lon="1.8087">
        <ele>165.4</ele>
        <time>2022-07-02T12:03:27Z</time>
      </trkpt>
      <trkpt lat="49.08708" lon="1.80869">
        <ele>165.4</ele>
        <time>2022-07-02T12:03:35Z</time>
      </trkpt>
      <trkpt lat="49.08707" lon="1.80867">
        <ele>165.4</ele>
        <time>2022-07-02T12:03:48Z</time>
      </trkpt>
      <trkpt lat="49.08706" lon="1.80864">
        <ele>165.4</ele>
        <time>2022-07-02T12:03:54Z</time>
      </trkpt>
      <trkpt lat="49.08706" lon="1.80864">
        <ele>165.4</ele>
        <time>2022-07-02T12:04:02Z</time>
      </trkpt>
      <trkpt lat="49.08706" lon="1.80864">
        <ele>165.4</ele>
        <time>2022-07-02T12:04:10Z</time>
      </trkpt>
      <trkpt lat="49.08705" lon="1.80864">
        <ele>165.3</ele>
        <time>2022-07-02T12:04:19Z</time>
      </trkpt>
      <trkpt lat="49.08705" lon="1.80863">
        <ele>165.4</ele>
        <time>2022-07-02T12:04:27Z</time>
      </trkpt>
      <trkpt lat="49.08704" lon="1.80863">
        <ele>165.3</ele>
        <time>2022-07-02T12:04:34Z</time>
      </trkpt>
      <trkpt lat="49.08703" lon="1.80863">
        <ele>165.3</ele>
        <time>2022-07-02T12:04:36Z</time>
      </trkpt>
      <trkpt lat="49.08701" lon="1.80864">
        <ele>165.2</ele>
        <time>2022-07-02T12:04:38Z</time>
      </trkpt>
      <trkpt lat="49.08699" lon="1.80864">
        <ele>165.2</ele>
        <time>2022-07-02T12:04:45Z</time>
      </trkpt>
      <trkpt lat="49.087" lon="1.80864">
        <ele>165.2</ele>
        <time>2022-07-02T12:04:46Z</time>
      </trkpt>
      <trkpt lat="49.08699" lon="1.80865">
        <ele>165.2</ele>
        <time>2022-07-02T12:04:52Z</time>
      </trkpt>
      <trkpt lat="49.087" lon="1.80864">
        <ele>165.2</ele>
        <time>2022-07-02T12:05:04Z</time>
      </trkpt>
      <trkpt lat="49.08701" lon="1.80864">
        <ele>165.2</ele>
        <time>2022-07-02T12:05:09Z</time>
      </trkpt>
      <trkpt lat="49.08698" lon="1.80864">
        <ele>165.1</ele>
        <time>2022-07-02T12:05:14Z</time>
      </trkpt>
      <trkpt lat="49.08698" lon="1.80864">
        <ele>165.1</ele>
        <time>2022-07-02T12:05:23Z</time>
      </trkpt>
      <trkpt lat="49.08698" lon="1.80863">
        <ele>165.1</ele>
        <time>2022-07-02T12:05:38Z</time>
      </trkpt>
      <trkpt lat="49.08698" lon="1.80862">
        <ele>165.1</ele>
        <time>2022-07-02T12:05:54Z</time>
      </trkpt>
      <trkpt lat="49.08697" lon="1.80863">
        <ele>165.1</ele>
        <time>2022-07-02T12:06:08Z</time>
      </trkpt>
      <trkpt lat="49.08697" lon="1.80863">
        <ele>165.1</ele>
        <time>2022-07-02T12:06:25Z</time>
      </trkpt>
      <trkpt lat="49.08697" lon="1.80863">
        <ele>165.1</ele>
        <time>2022-07-02T12:06:35Z</time>
      </trkpt>
      <trkpt lat="49.08698" lon="1.80862">
        <ele>165.1</ele>
        <time>2022-07-02T12:06:42Z</time>
      </trkpt>
      <trkpt lat="49.087" lon="1.80862">
        <ele>165.2</ele>
        <time>2022-07-02T12:06:51Z</time>
      </trkpt>
      <trkpt lat="49.08702" lon="1.80865">
        <ele>165.2</ele>
        <time>2022-07-02T12:06:57Z</time>
      </trkpt>
      <trkpt lat="49.08707" lon="1.80867">
        <ele>165.3</ele>
        <time>2022-07-02T12:07:04Z</time>
      </trkpt>
      <trkpt lat="49.08713" lon="1.80866">
        <ele>165.5</ele>
        <time>2022-07-02T12:07:10Z</time>
      </trkpt>
      <trkpt lat="49.08719" lon="1.80859">
        <ele>165.9</ele>
        <time>2022-07-02T12:07:17Z</time>
      </trkpt>
      <trkpt lat="49.08726" lon="1.80849">
        <ele>165.9</ele>
        <time>2022-07-02T12:07:26Z</time>
      </trkpt>
      <trkpt lat="49.08735" lon="1.80842">
        <ele>165.9</ele>
        <time>2022-07-02T12:07:32Z</time>
      </trkpt>
      <trkpt lat="49.08741" lon="1.80832">
        <ele>166</ele>
        <time>2022-07-02T12:07:40Z</time>
      </trkpt>
      <trkpt lat="49.08745" lon="1.80823">
        <ele>166.4</ele>
        <time>2022-07-02T12:07:46Z</time>
      </trkpt>
      <trkpt lat="49.08751" lon="1.80812">
        <ele>166.7</ele>
        <time>2022-07-02T12:07:54Z</time>
      </trkpt>
      <trkpt lat="49.08752" lon="1.80809">
        <ele>166.8</ele>
        <time>2022-07-02T12:07:57Z</time>
      </trkpt>
      <trkpt lat="49.08755" lon="1.80804">
        <ele>166.8</ele>
        <time>2022-07-02T12:08:01Z</time>
      </trkpt>
      <trkpt lat="49.08762" lon="1.80795">
        <ele>166.7</ele>
        <time>2022-07-02T12:08:10Z</time>
      </trkpt>
      <trkpt lat="49.08768" lon="1.80785">
        <ele>166.8</ele>
        <time>2022-07-02T12:08:17Z</time>
      </trkpt>
      <trkpt lat="49.08774" lon="1.80775">
        <ele>167</ele>
        <time>2022-07-02T12:08:24Z</time>
      </trkpt>
      <trkpt lat="49.08776" lon="1.80772">
        <ele>167</ele>
        <time>2022-07-02T12:08:26Z</time>
      </trkpt>
      <trkpt lat="49.08779" lon="1.80755">
        <ele>167</ele>
        <time>2022-07-02T12:08:30Z</time>
      </trkpt>
      <trkpt lat="49.0878" lon="1.80751">
        <ele>167.1</ele>
        <time>2022-07-02T12:08:32Z</time>
      </trkpt>
      <trkpt lat="49.08783" lon="1.80744">
        <ele>167.4</ele>
        <time>2022-07-02T12:08:37Z</time>
      </trkpt>
      <trkpt lat="49.08785" lon="1.80739">
        <ele>167.6</ele>
        <time>2022-07-02T12:08:41Z</time>
      </trkpt>
      <trkpt lat="49.08789" lon="1.8073">
        <ele>167.8</ele>
        <time>2022-07-02T12:08:47Z</time>
      </trkpt>
      <trkpt lat="49.08793" lon="1.8072">
        <ele>168</ele>
        <time>2022-07-02T12:08:54Z</time>
      </trkpt>
      <trkpt lat="49.08794" lon="1.80714">
        <ele>168</ele>
        <time>2022-07-02T12:08:58Z</time>
      </trkpt>
      <trkpt lat="49.088" lon="1.80704">
        <ele>168</ele>
        <time>2022-07-02T12:09:05Z</time>
      </trkpt>
      <trkpt lat="49.08805" lon="1.8069">
        <ele>168.1</ele>
        <time>2022-07-02T12:09:13Z</time>
      </trkpt>
      <trkpt lat="49.08811" lon="1.80678">
        <ele>168.6</ele>
        <time>2022-07-02T12:09:21Z</time>
      </trkpt>
      <trkpt lat="49.08816" lon="1.80667">
        <ele>169</ele>
        <time>2022-07-02T12:09:29Z</time>
      </trkpt>
      <trkpt lat="49.08819" lon="1.80662">
        <ele>169.1</ele>
        <time>2022-07-02T12:09:33Z</time>
      </trkpt>
      <trkpt lat="49.08825" lon="1.80647">
        <ele>169.2</ele>
        <time>2022-07-02T12:09:42Z</time>
      </trkpt>
      <trkpt lat="49.08828" lon="1.80637">
        <ele>169.2</ele>
        <time>2022-07-02T12:09:50Z</time>
      </trkpt>
      <trkpt lat="49.08832" lon="1.80629">
        <ele>169.1</ele>
        <time>2022-07-02T12:09:57Z</time>
      </trkpt>
      <trkpt lat="49.08836" lon="1.80619">
        <ele>168.7</ele>
        <time>2022-07-02T12:10:05Z</time>
      </trkpt>
      <trkpt lat="49.08839" lon="1.80607">
        <ele>168.3</ele>
        <time>2022-07-02T12:10:12Z</time>
      </trkpt>
      <trkpt lat="49.08842" lon="1.80596">
        <ele>168.5</ele>
        <time>2022-07-02T12:10:20Z</time>
      </trkpt>
      <trkpt lat="49.08846" lon="1.80581">
        <ele>168.8</ele>
        <time>2022-07-02T12:10:28Z</time>
      </trkpt>
      <trkpt lat="49.08848" lon="1.80569">
        <ele>169.5</ele>
        <time>2022-07-02T12:10:36Z</time>
      </trkpt>
      <trkpt lat="49.08852" lon="1.8056">
        <ele>169.7</ele>
        <time>2022-07-02T12:10:43Z</time>
      </trkpt>
      <trkpt lat="49.08852" lon="1.80556">
        <ele>169.9</ele>
        <time>2022-07-02T12:10:45Z</time>
      </trkpt>
      <trkpt lat="49.08856" lon="1.80546">
        <ele>170</ele>
        <time>2022-07-02T12:10:53Z</time>
      </trkpt>
      <trkpt lat="49.08861" lon="1.8053">
        <ele>170</ele>
        <time>2022-07-02T12:11:01Z</time>
      </trkpt>
      <trkpt lat="49.08865" lon="1.80519">
        <ele>170.2</ele>
        <time>2022-07-02T12:11:08Z</time>
      </trkpt>
      <trkpt lat="49.0887" lon="1.80502">
        <ele>170.9</ele>
        <time>2022-07-02T12:11:17Z</time>
      </trkpt>
      <trkpt lat="49.08876" lon="1.80491">
        <ele>170.8</ele>
        <time>2022-07-02T12:11:24Z</time>
      </trkpt>
      <trkpt lat="49.08881" lon="1.80475">
        <ele>171</ele>
        <time>2022-07-02T12:11:32Z</time>
      </trkpt>
      <trkpt lat="49.08884" lon="1.80461">
        <ele>171.4</ele>
        <time>2022-07-02T12:11:38Z</time>
      </trkpt>
      <trkpt lat="49.0889" lon="1.80452">
        <ele>171.3</ele>
        <time>2022-07-02T12:11:45Z</time>
      </trkpt>
      <trkpt lat="49.08892" lon="1.8045">
        <ele>171.4</ele>
        <time>2022-07-02T12:11:47Z</time>
      </trkpt>
      <trkpt lat="49.08898" lon="1.80444">
        <ele>171.1</ele>
        <time>2022-07-02T12:11:53Z</time>
      </trkpt>
      <trkpt lat="49.08904" lon="1.80437">
        <ele>170.9</ele>
        <time>2022-07-02T12:12:01Z</time>
      </trkpt>
      <trkpt lat="49.08914" lon="1.8043">
        <ele>170.4</ele>
        <time>2022-07-02T12:12:09Z</time>
      </trkpt>
      <trkpt lat="49.08918" lon="1.80422">
        <ele>170.5</ele>
        <time>2022-07-02T12:12:16Z</time>
      </trkpt>
      <trkpt lat="49.08921" lon="1.80418">
        <ele>170.6</ele>
        <time>2022-07-02T12:12:19Z</time>
      </trkpt>
      <trkpt lat="49.08929" lon="1.80411">
        <ele>170.9</ele>
        <time>2022-07-02T12:12:27Z</time>
      </trkpt>
      <trkpt lat="49.08934" lon="1.80404">
        <ele>171.4</ele>
        <time>2022-07-02T12:12:36Z</time>
      </trkpt>
      <trkpt lat="49.0894" lon="1.80394">
        <ele>172.5</ele>
        <time>2022-07-02T12:12:44Z</time>
      </trkpt>
      <trkpt lat="49.08941" lon="1.80385">
        <ele>173.8</ele>
        <time>2022-07-02T12:12:48Z</time>
      </trkpt>
      <trkpt lat="49.08949" lon="1.80371">
        <ele>175.1</ele>
        <time>2022-07-02T12:12:57Z</time>
      </trkpt>
      <trkpt lat="49.08956" lon="1.8036">
        <ele>175.9</ele>
        <time>2022-07-02T12:13:05Z</time>
      </trkpt>
      <trkpt lat="49.08959" lon="1.80352">
        <ele>176.2</ele>
        <time>2022-07-02T12:13:11Z</time>
      </trkpt>
      <trkpt lat="49.08962" lon="1.80341">
        <ele>176.8</ele>
        <time>2022-07-02T12:13:18Z</time>
      </trkpt>
      <trkpt lat="49.08962" lon="1.80338">
        <ele>177</ele>
        <time>2022-07-02T12:13:20Z</time>
      </trkpt>
      <trkpt lat="49.08963" lon="1.80335">
        <ele>177.2</ele>
        <time>2022-07-02T12:13:22Z</time>
      </trkpt>
      <trkpt lat="49.08963" lon="1.80321">
        <ele>178.1</ele>
        <time>2022-07-02T12:13:32Z</time>
      </trkpt>
      <trkpt lat="49.08962" lon="1.80317">
        <ele>178.5</ele>
        <time>2022-07-02T12:13:36Z</time>
      </trkpt>
      <trkpt lat="49.0896" lon="1.80307">
        <ele>179.3</ele>
        <time>2022-07-02T12:13:45Z</time>
      </trkpt>
      <trkpt lat="49.08958" lon="1.80292">
        <ele>179.7</ele>
        <time>2022-07-02T12:13:53Z</time>
      </trkpt>
      <trkpt lat="49.08958" lon="1.80286">
        <ele>179.9</ele>
        <time>2022-07-02T12:13:56Z</time>
      </trkpt>
      <trkpt lat="49.08956" lon="1.80283">
        <ele>180.1</ele>
        <time>2022-07-02T12:13:58Z</time>
      </trkpt>
      <trkpt lat="49.08954" lon="1.80278">
        <ele>180.3</ele>
        <time>2022-07-02T12:14:02Z</time>
      </trkpt>
      <trkpt lat="49.0895" lon="1.80268">
        <ele>180</ele>
        <time>2022-07-02T12:14:09Z</time>
      </trkpt>
      <trkpt lat="49.08949" lon="1.80257">
        <ele>179.3</ele>
        <time>2022-07-02T12:14:17Z</time>
      </trkpt>
      <trkpt lat="49.08947" lon="1.80239">
        <ele>178.2</ele>
        <time>2022-07-02T12:14:26Z</time>
      </trkpt>
      <trkpt lat="49.08943" lon="1.80221">
        <ele>177.2</ele>
        <time>2022-07-02T12:14:36Z</time>
      </trkpt>
      <trkpt lat="49.0894" lon="1.80197">
        <ele>175.8</ele>
        <time>2022-07-02T12:14:46Z</time>
      </trkpt>
      <trkpt lat="49.08939" lon="1.80169">
        <ele>173.1</ele>
        <time>2022-07-02T12:14:55Z</time>
      </trkpt>
      <trkpt lat="49.08935" lon="1.80146">
        <ele>172</ele>
        <time>2022-07-02T12:15:05Z</time>
      </trkpt>
      <trkpt lat="49.08931" lon="1.80132">
        <ele>171.7</ele>
        <time>2022-07-02T12:15:14Z</time>
      </trkpt>
      <trkpt lat="49.08925" lon="1.80119">
        <ele>172</ele>
        <time>2022-07-02T12:15:23Z</time>
      </trkpt>
      <trkpt lat="49.08923" lon="1.80106">
        <ele>172.1</ele>
        <time>2022-07-02T12:15:31Z</time>
      </trkpt>
      <trkpt lat="49.0892" lon="1.80094">
        <ele>172.5</ele>
        <time>2022-07-02T12:15:39Z</time>
      </trkpt>
      <trkpt lat="49.0892" lon="1.80082">
        <ele>172.5</ele>
        <time>2022-07-02T12:15:47Z</time>
      </trkpt>
      <trkpt lat="49.08921" lon="1.80069">
        <ele>172.8</ele>
        <time>2022-07-02T12:15:55Z</time>
      </trkpt>
      <trkpt lat="49.08922" lon="1.80057">
        <ele>173.2</ele>
        <time>2022-07-02T12:16:03Z</time>
      </trkpt>
      <trkpt lat="49.08923" lon="1.80039">
        <ele>174.4</ele>
        <time>2022-07-02T12:16:11Z</time>
      </trkpt>
      <trkpt lat="49.08923" lon="1.80025">
        <ele>175.4</ele>
        <time>2022-07-02T12:16:19Z</time>
      </trkpt>
      <trkpt lat="49.08925" lon="1.80016">
        <ele>175.5</ele>
        <time>2022-07-02T12:16:25Z</time>
      </trkpt>
      <trkpt lat="49.08926" lon="1.80007">
        <ele>175.7</ele>
        <time>2022-07-02T12:16:31Z</time>
      </trkpt>
      <trkpt lat="49.08929" lon="1.79988">
        <ele>175.7</ele>
        <time>2022-07-02T12:16:40Z</time>
      </trkpt>
      <trkpt lat="49.08932" lon="1.79974">
        <ele>175.4</ele>
        <time>2022-07-02T12:16:48Z</time>
      </trkpt>
      <trkpt lat="49.08936" lon="1.79959">
        <ele>175.2</ele>
        <time>2022-07-02T12:16:57Z</time>
      </trkpt>
      <trkpt lat="49.08941" lon="1.79945">
        <ele>175.3</ele>
        <time>2022-07-02T12:17:06Z</time>
      </trkpt>
      <trkpt lat="49.08947" lon="1.7993">
        <ele>175.4</ele>
        <time>2022-07-02T12:17:16Z</time>
      </trkpt>
      <trkpt lat="49.08953" lon="1.79916">
        <ele>176</ele>
        <time>2022-07-02T12:17:25Z</time>
      </trkpt>
      <trkpt lat="49.08958" lon="1.79902">
        <ele>175.7</ele>
        <time>2022-07-02T12:17:34Z</time>
      </trkpt>
      <trkpt lat="49.08966" lon="1.79887">
        <ele>175.7</ele>
        <time>2022-07-02T12:17:43Z</time>
      </trkpt>
      <trkpt lat="49.08972" lon="1.79869">
        <ele>175.3</ele>
        <time>2022-07-02T12:17:52Z</time>
      </trkpt>
      <trkpt lat="49.08978" lon="1.79851">
        <ele>175.1</ele>
        <time>2022-07-02T12:18:01Z</time>
      </trkpt>
      <trkpt lat="49.08985" lon="1.79837">
        <ele>175.1</ele>
        <time>2022-07-02T12:18:10Z</time>
      </trkpt>
      <trkpt lat="49.08993" lon="1.7982">
        <ele>174.6</ele>
        <time>2022-07-02T12:18:20Z</time>
      </trkpt>
      <trkpt lat="49.09" lon="1.79804">
        <ele>173.9</ele>
        <time>2022-07-02T12:18:29Z</time>
      </trkpt>
      <trkpt lat="49.09007" lon="1.79786">
        <ele>173.8</ele>
        <time>2022-07-02T12:18:39Z</time>
      </trkpt>
      <trkpt lat="49.09009" lon="1.79783">
        <ele>173.9</ele>
        <time>2022-07-02T12:18:41Z</time>
      </trkpt>
      <trkpt lat="49.09018" lon="1.79764">
        <ele>174.2</ele>
        <time>2022-07-02T12:18:52Z</time>
      </trkpt>
      <trkpt lat="49.09025" lon="1.79747">
        <ele>174.7</ele>
        <time>2022-07-02T12:19:01Z</time>
      </trkpt>
      <trkpt lat="49.09032" lon="1.79731">
        <ele>175.2</ele>
        <time>2022-07-02T12:19:10Z</time>
      </trkpt>
      <trkpt lat="49.09039" lon="1.79717">
        <ele>176</ele>
        <time>2022-07-02T12:19:19Z</time>
      </trkpt>
      <trkpt lat="49.09046" lon="1.79703">
        <ele>177</ele>
        <time>2022-07-02T12:19:27Z</time>
      </trkpt>
      <trkpt lat="49.09051" lon="1.79689">
        <ele>177.7</ele>
        <time>2022-07-02T12:19:35Z</time>
      </trkpt>
      <trkpt lat="49.09059" lon="1.79671">
        <ele>178.2</ele>
        <time>2022-07-02T12:19:45Z</time>
      </trkpt>
      <trkpt lat="49.09065" lon="1.79657">
        <ele>178.6</ele>
        <time>2022-07-02T12:19:53Z</time>
      </trkpt>
      <trkpt lat="49.09066" lon="1.79655">
        <ele>178.6</ele>
        <time>2022-07-02T12:19:54Z</time>
      </trkpt>
      <trkpt lat="49.09076" lon="1.79644">
        <ele>178.9</ele>
        <time>2022-07-02T12:20:03Z</time>
      </trkpt>
      <trkpt lat="49.09085" lon="1.79625">
        <ele>179</ele>
        <time>2022-07-02T12:20:14Z</time>
      </trkpt>
      <trkpt lat="49.09092" lon="1.7961">
        <ele>179.3</ele>
        <time>2022-07-02T12:20:23Z</time>
      </trkpt>
      <trkpt lat="49.09102" lon="1.79595">
        <ele>179.7</ele>
        <time>2022-07-02T12:20:33Z</time>
      </trkpt>
      <trkpt lat="49.09113" lon="1.79577">
        <ele>180</ele>
        <time>2022-07-02T12:20:44Z</time>
      </trkpt>
      <trkpt lat="49.09123" lon="1.79563">
        <ele>180.3</ele>
        <time>2022-07-02T12:20:54Z</time>
      </trkpt>
      <trkpt lat="49.09134" lon="1.79551">
        <ele>181</ele>
        <time>2022-07-02T12:21:04Z</time>
      </trkpt>
      <trkpt lat="49.09145" lon="1.79548">
        <ele>181.1</ele>
        <time>2022-07-02T12:21:13Z</time>
      </trkpt>
      <trkpt lat="49.09157" lon="1.79543">
        <ele>180.8</ele>
        <time>2022-07-02T12:21:22Z</time>
      </trkpt>
      <trkpt lat="49.09159" lon="1.79543">
        <ele>180.7</ele>
        <time>2022-07-02T12:21:25Z</time>
      </trkpt>
      <trkpt lat="49.09166" lon="1.79532">
        <ele>180.9</ele>
        <time>2022-07-02T12:21:33Z</time>
      </trkpt>
      <trkpt lat="49.09168" lon="1.79517">
        <ele>181.3</ele>
        <time>2022-07-02T12:21:41Z</time>
      </trkpt>
      <trkpt lat="49.0917" lon="1.79502">
        <ele>181.7</ele>
        <time>2022-07-02T12:21:49Z</time>
      </trkpt>
      <trkpt lat="49.0917" lon="1.79498">
        <ele>181.7</ele>
        <time>2022-07-02T12:21:52Z</time>
      </trkpt>
      <trkpt lat="49.09169" lon="1.79494">
        <ele>181.9</ele>
        <time>2022-07-02T12:21:54Z</time>
      </trkpt>
      <trkpt lat="49.09167" lon="1.79481">
        <ele>182</ele>
        <time>2022-07-02T12:22:01Z</time>
      </trkpt>
      <trkpt lat="49.09174" lon="1.79471">
        <ele>181.7</ele>
        <time>2022-07-02T12:22:09Z</time>
      </trkpt>
      <trkpt lat="49.09177" lon="1.79458">
        <ele>181.6</ele>
        <time>2022-07-02T12:22:17Z</time>
      </trkpt>
      <trkpt lat="49.09177" lon="1.79457">
        <ele>181.6</ele>
        <time>2022-07-02T12:22:25Z</time>
      </trkpt>
      <trkpt lat="49.09176" lon="1.79456">
        <ele>181.6</ele>
        <time>2022-07-02T12:22:38Z</time>
      </trkpt>
      <trkpt lat="49.09176" lon="1.79456">
        <ele>181.7</ele>
        <time>2022-07-02T12:22:50Z</time>
      </trkpt>
      <trkpt lat="49.09177" lon="1.79455">
        <ele>181.6</ele>
        <time>2022-07-02T12:22:59Z</time>
      </trkpt>
      <trkpt lat="49.09177" lon="1.79454">
        <ele>181.6</ele>
        <time>2022-07-02T12:23:09Z</time>
      </trkpt>
      <trkpt lat="49.09177" lon="1.79454">
        <ele>181.6</ele>
        <time>2022-07-02T12:23:20Z</time>
      </trkpt>
      <trkpt lat="49.09177" lon="1.79454">
        <ele>181.6</ele>
        <time>2022-07-02T12:23:29Z</time>
      </trkpt>
      <trkpt lat="49.09177" lon="1.79455">
        <ele>181.6</ele>
        <time>2022-07-02T12:23:40Z</time>
      </trkpt>
      <trkpt lat="49.09178" lon="1.79455">
        <ele>181.6</ele>
        <time>2022-07-02T12:23:53Z</time>
      </trkpt>
      <trkpt lat="49.09178" lon="1.79456">
        <ele>181.6</ele>
        <time>2022-07-02T12:24:06Z</time>
      </trkpt>
      <trkpt lat="49.09178" lon="1.79456">
        <ele>181.6</ele>
        <time>2022-07-02T12:24:13Z</time>
      </trkpt>
      <trkpt lat="49.09178" lon="1.79456">
        <ele>181.6</ele>
        <time>2022-07-02T12:24:27Z</time>
      </trkpt>
      <trkpt lat="49.09179" lon="1.79456">
        <ele>181.6</ele>
        <time>2022-07-02T12:24:42Z</time>
      </trkpt>
      <trkpt lat="49.09179" lon="1.79456">
        <ele>181.6</ele>
        <time>2022-07-02T12:24:52Z</time>
      </trkpt>
      <trkpt lat="49.09178" lon="1.79455">
        <ele>181.6</ele>
        <time>2022-07-02T12:25:04Z</time>
      </trkpt>
      <trkpt lat="49.09179" lon="1.79456">
        <ele>181.6</ele>
        <time>2022-07-02T12:25:15Z</time>
      </trkpt>
      <trkpt lat="49.09179" lon="1.79452">
        <ele>181.5</ele>
        <time>2022-07-02T12:25:21Z</time>
      </trkpt>
      <trkpt lat="49.0918" lon="1.7945">
        <ele>181.5</ele>
        <time>2022-07-02T12:25:23Z</time>
      </trkpt>
      <trkpt lat="49.09183" lon="1.7944">
        <ele>181.5</ele>
        <time>2022-07-02T12:25:31Z</time>
      </trkpt>
      <trkpt lat="49.09184" lon="1.79436">
        <ele>181.6</ele>
        <time>2022-07-02T12:25:34Z</time>
      </trkpt>
      <trkpt lat="49.09185" lon="1.79421">
        <ele>181.9</ele>
        <time>2022-07-02T12:25:42Z</time>
      </trkpt>
      <trkpt lat="49.09187" lon="1.79413">
        <ele>182.1</ele>
        <time>2022-07-02T12:25:47Z</time>
      </trkpt>
      <trkpt lat="49.09189" lon="1.79407">
        <ele>182.4</ele>
        <time>2022-07-02T12:25:51Z</time>
      </trkpt>
      <trkpt lat="49.09192" lon="1.79391">
        <ele>182.9</ele>
        <time>2022-07-02T12:26:00Z</time>
      </trkpt>
      <trkpt lat="49.09194" lon="1.79376">
        <ele>183</ele>
        <time>2022-07-02T12:26:09Z</time>
      </trkpt>
      <trkpt lat="49.09196" lon="1.79361">
        <ele>182.9</ele>
        <time>2022-07-02T12:26:17Z</time>
      </trkpt>
      <trkpt lat="49.09196" lon="1.7936">
        <ele>182.9</ele>
        <time>2022-07-02T12:26:18Z</time>
      </trkpt>
      <trkpt lat="49.09197" lon="1.79356">
        <ele>183</ele>
        <time>2022-07-02T12:26:21Z</time>
      </trkpt>
      <trkpt lat="49.092" lon="1.7935">
        <ele>183</ele>
        <time>2022-07-02T12:26:26Z</time>
      </trkpt>
      <trkpt lat="49.09202" lon="1.79345">
        <ele>183.1</ele>
        <time>2022-07-02T12:26:32Z</time>
      </trkpt>
      <trkpt lat="49.09205" lon="1.79337">
        <ele>183.1</ele>
        <time>2022-07-02T12:26:40Z</time>
      </trkpt>
      <trkpt lat="49.09205" lon="1.79333">
        <ele>183.2</ele>
        <time>2022-07-02T12:26:47Z</time>
      </trkpt>
      <trkpt lat="49.09205" lon="1.79328">
        <ele>183.5</ele>
        <time>2022-07-02T12:26:52Z</time>
      </trkpt>
      <trkpt lat="49.09202" lon="1.79318">
        <ele>184.1</ele>
        <time>2022-07-02T12:26:59Z</time>
      </trkpt>
      <trkpt lat="49.09202" lon="1.79308">
        <ele>184.6</ele>
        <time>2022-07-02T12:27:08Z</time>
      </trkpt>
      <trkpt lat="49.09202" lon="1.79303">
        <ele>185</ele>
        <time>2022-07-02T12:27:14Z</time>
      </trkpt>
      <trkpt lat="49.092" lon="1.79297">
        <ele>185.6</ele>
        <time>2022-07-02T12:27:22Z</time>
      </trkpt>
      <trkpt lat="49.09195" lon="1.79292">
        <ele>186.5</ele>
        <time>2022-07-02T12:27:28Z</time>
      </trkpt>
      <trkpt lat="49.09188" lon="1.79287">
        <ele>187.1</ele>
        <time>2022-07-02T12:27:34Z</time>
      </trkpt>
      <trkpt lat="49.09181" lon="1.79283">
        <ele>187.5</ele>
        <time>2022-07-02T12:27:41Z</time>
      </trkpt>
      <trkpt lat="49.09174" lon="1.79279">
        <ele>187.9</ele>
        <time>2022-07-02T12:27:49Z</time>
      </trkpt>
      <trkpt lat="49.09171" lon="1.79278">
        <ele>188</ele>
        <time>2022-07-02T12:27:55Z</time>
      </trkpt>
      <trkpt lat="49.09164" lon="1.79275">
        <ele>188.3</ele>
        <time>2022-07-02T12:28:03Z</time>
      </trkpt>
      <trkpt lat="49.09156" lon="1.79267">
        <ele>189.4</ele>
        <time>2022-07-02T12:28:10Z</time>
      </trkpt>
      <trkpt lat="49.09148" lon="1.79261">
        <ele>190.1</ele>
        <time>2022-07-02T12:28:18Z</time>
      </trkpt>
      <trkpt lat="49.09143" lon="1.79258">
        <ele>190.4</ele>
        <time>2022-07-02T12:28:23Z</time>
      </trkpt>
      <trkpt lat="49.09136" lon="1.79247">
        <ele>191.2</ele>
        <time>2022-07-02T12:28:30Z</time>
      </trkpt>
      <trkpt lat="49.09132" lon="1.79246">
        <ele>191.3</ele>
        <time>2022-07-02T12:28:36Z</time>
      </trkpt>
      <trkpt lat="49.09126" lon="1.79239">
        <ele>191.8</ele>
        <time>2022-07-02T12:28:43Z</time>
      </trkpt>
      <trkpt lat="49.09118" lon="1.79227">
        <ele>192.6</ele>
        <time>2022-07-02T12:28:52Z</time>
      </trkpt>
      <trkpt lat="49.09117" lon="1.79222">
        <ele>193</ele>
        <time>2022-07-02T12:29:00Z</time>
      </trkpt>
      <trkpt lat="49.09113" lon="1.79217">
        <ele>193.4</ele>
        <time>2022-07-02T12:29:05Z</time>
      </trkpt>
      <trkpt lat="49.09107" lon="1.79208">
        <ele>193.7</ele>
        <time>2022-07-02T12:29:12Z</time>
      </trkpt>
      <trkpt lat="49.09101" lon="1.79196">
        <ele>194.2</ele>
        <time>2022-07-02T12:29:19Z</time>
      </trkpt>
      <trkpt lat="49.09096" lon="1.79187">
        <ele>194.2</ele>
        <time>2022-07-02T12:29:25Z</time>
      </trkpt>
      <trkpt lat="49.0909" lon="1.79174">
        <ele>194.2</ele>
        <time>2022-07-02T12:29:33Z</time>
      </trkpt>
      <trkpt lat="49.09087" lon="1.79164">
        <ele>194.3</ele>
        <time>2022-07-02T12:29:39Z</time>
      </trkpt>
      <trkpt lat="49.09084" lon="1.79155">
        <ele>194.4</ele>
        <time>2022-07-02T12:29:45Z</time>
      </trkpt>
      <trkpt lat="49.09083" lon="1.79145">
        <ele>194.7</ele>
        <time>2022-07-02T12:29:52Z</time>
      </trkpt>
      <trkpt lat="49.09081" lon="1.79133">
        <ele>195</ele>
        <time>2022-07-02T12:29:59Z</time>
      </trkpt>
      <trkpt lat="49.0908" lon="1.79125">
        <ele>195.1</ele>
        <time>2022-07-02T12:30:07Z</time>
      </trkpt>
      <trkpt lat="49.09078" lon="1.79116">
        <ele>195.2</ele>
        <time>2022-07-02T12:30:14Z</time>
      </trkpt>
      <trkpt lat="49.09077" lon="1.79107">
        <ele>195.5</ele>
        <time>2022-07-02T12:30:21Z</time>
      </trkpt>
      <trkpt lat="49.09075" lon="1.79093">
        <ele>195.9</ele>
        <time>2022-07-02T12:30:29Z</time>
      </trkpt>
      <trkpt lat="49.09074" lon="1.79086">
        <ele>196.2</ele>
        <time>2022-07-02T12:30:33Z</time>
      </trkpt>
      <trkpt lat="49.09071" lon="1.79078">
        <ele>196.2</ele>
        <time>2022-07-02T12:30:40Z</time>
      </trkpt>
      <trkpt lat="49.0907" lon="1.79073">
        <ele>196.2</ele>
        <time>2022-07-02T12:30:44Z</time>
      </trkpt>
      <trkpt lat="49.09069" lon="1.7906">
        <ele>196.4</ele>
        <time>2022-07-02T12:30:50Z</time>
      </trkpt>
      <trkpt lat="49.09069" lon="1.79051">
        <ele>196.6</ele>
        <time>2022-07-02T12:30:54Z</time>
      </trkpt>
      <trkpt lat="49.09066" lon="1.79036">
        <ele>197.1</ele>
        <time>2022-07-02T12:31:02Z</time>
      </trkpt>
      <trkpt lat="49.09065" lon="1.79033">
        <ele>197.2</ele>
        <time>2022-07-02T12:31:04Z</time>
      </trkpt>
      <trkpt lat="49.09065" lon="1.79021">
        <ele>197.4</ele>
        <time>2022-07-02T12:31:09Z</time>
      </trkpt>
      <trkpt lat="49.09062" lon="1.79012">
        <ele>197.4</ele>
        <time>2022-07-02T12:31:17Z</time>
      </trkpt>
      <trkpt lat="49.09061" lon="1.79004">
        <ele>197.3</ele>
        <time>2022-07-02T12:31:23Z</time>
      </trkpt>
      <trkpt lat="49.09059" lon="1.78996">
        <ele>197.4</ele>
        <time>2022-07-02T12:31:29Z</time>
      </trkpt>
      <trkpt lat="49.09057" lon="1.78982">
        <ele>197.7</ele>
        <time>2022-07-02T12:31:37Z</time>
      </trkpt>
      <trkpt lat="49.09053" lon="1.78967">
        <ele>197.8</ele>
        <time>2022-07-02T12:31:46Z</time>
      </trkpt>
      <trkpt lat="49.09052" lon="1.78955">
        <ele>197.7</ele>
        <time>2022-07-02T12:31:53Z</time>
      </trkpt>
      <trkpt lat="49.09053" lon="1.78944">
        <ele>197.7</ele>
        <time>2022-07-02T12:32:00Z</time>
      </trkpt>
      <trkpt lat="49.0905" lon="1.78922">
        <ele>197.4</ele>
        <time>2022-07-02T12:32:10Z</time>
      </trkpt>
      <trkpt lat="49.09048" lon="1.78915">
        <ele>197.2</ele>
        <time>2022-07-02T12:32:15Z</time>
      </trkpt>
      <trkpt lat="49.09046" lon="1.78903">
        <ele>196.9</ele>
        <time>2022-07-02T12:32:22Z</time>
      </trkpt>
      <trkpt lat="49.09047" lon="1.78888">
        <ele>197</ele>
        <time>2022-07-02T12:32:30Z</time>
      </trkpt>
      <trkpt lat="49.09048" lon="1.78882">
        <ele>197.4</ele>
        <time>2022-07-02T12:32:34Z</time>
      </trkpt>
      <trkpt lat="49.09048" lon="1.78872">
        <ele>197.7</ele>
        <time>2022-07-02T12:32:41Z</time>
      </trkpt>
      <trkpt lat="49.09048" lon="1.78863">
        <ele>198.1</ele>
        <time>2022-07-02T12:32:48Z</time>
      </trkpt>
      <trkpt lat="49.09047" lon="1.7886">
        <ele>198.2</ele>
        <time>2022-07-02T12:32:50Z</time>
      </trkpt>
      <trkpt lat="49.09047" lon="1.78851">
        <ele>198.4</ele>
        <time>2022-07-02T12:32:54Z</time>
      </trkpt>
      <trkpt lat="49.09045" lon="1.78841">
        <ele>198.6</ele>
        <time>2022-07-02T12:33:01Z</time>
      </trkpt>
      <trkpt lat="49.09041" lon="1.78825">
        <ele>198.6</ele>
        <time>2022-07-02T12:33:10Z</time>
      </trkpt>
      <trkpt lat="49.09041" lon="1.78821">
        <ele>198.7</ele>
        <time>2022-07-02T12:33:13Z</time>
      </trkpt>
      <trkpt lat="49.09039" lon="1.78811">
        <ele>198.7</ele>
        <time>2022-07-02T12:33:21Z</time>
      </trkpt>
      <trkpt lat="49.09038" lon="1.78796">
        <ele>199.1</ele>
        <time>2022-07-02T12:33:28Z</time>
      </trkpt>
      <trkpt lat="49.09036" lon="1.78784">
        <ele>199.4</ele>
        <time>2022-07-02T12:33:35Z</time>
      </trkpt>
      <trkpt lat="49.09035" lon="1.78772">
        <ele>199.7</ele>
        <time>2022-07-02T12:33:42Z</time>
      </trkpt>
      <trkpt lat="49.09035" lon="1.78765">
        <ele>199.9</ele>
        <time>2022-07-02T12:33:47Z</time>
      </trkpt>
      <trkpt lat="49.09035" lon="1.78756">
        <ele>200.1</ele>
        <time>2022-07-02T12:33:53Z</time>
      </trkpt>
      <trkpt lat="49.09035" lon="1.78743">
        <ele>200.3</ele>
        <time>2022-07-02T12:34:01Z</time>
      </trkpt>
      <trkpt lat="49.09035" lon="1.78737">
        <ele>200.3</ele>
        <time>2022-07-02T12:34:09Z</time>
      </trkpt>
      <trkpt lat="49.09038" lon="1.78719">
        <ele>200.4</ele>
        <time>2022-07-02T12:34:16Z</time>
      </trkpt>
      <trkpt lat="49.09038" lon="1.78707">
        <ele>200.4</ele>
        <time>2022-07-02T12:34:24Z</time>
      </trkpt>
      <trkpt lat="49.09035" lon="1.787">
        <ele>200.3</ele>
        <time>2022-07-02T12:34:30Z</time>
      </trkpt>
      <trkpt lat="49.09034" lon="1.78689">
        <ele>200.2</ele>
        <time>2022-07-02T12:34:37Z</time>
      </trkpt>
      <trkpt lat="49.09033" lon="1.7868">
        <ele>200.2</ele>
        <time>2022-07-02T12:34:44Z</time>
      </trkpt>
      <trkpt lat="49.09031" lon="1.78673">
        <ele>200.1</ele>
        <time>2022-07-02T12:34:51Z</time>
      </trkpt>
      <trkpt lat="49.09031" lon="1.7866">
        <ele>200.1</ele>
        <time>2022-07-02T12:34:59Z</time>
      </trkpt>
      <trkpt lat="49.0903" lon="1.78643">
        <ele>200.1</ele>
        <time>2022-07-02T12:35:08Z</time>
      </trkpt>
      <trkpt lat="49.09029" lon="1.78623">
        <ele>200</ele>
        <time>2022-07-02T12:35:16Z</time>
      </trkpt>
      <trkpt lat="49.09029" lon="1.78606">
        <ele>200</ele>
        <time>2022-07-02T12:35:25Z</time>
      </trkpt>
      <trkpt lat="49.09028" lon="1.78585">
        <ele>200</ele>
        <time>2022-07-02T12:35:34Z</time>
      </trkpt>
      <trkpt lat="49.09026" lon="1.78563">
        <ele>199.9</ele>
        <time>2022-07-02T12:35:43Z</time>
      </trkpt>
      <trkpt lat="49.09025" lon="1.7855">
        <ele>199.9</ele>
        <time>2022-07-02T12:35:50Z</time>
      </trkpt>
      <trkpt lat="49.09026" lon="1.78538">
        <ele>199.9</ele>
        <time>2022-07-02T12:35:57Z</time>
      </trkpt>
      <trkpt lat="49.09028" lon="1.78525">
        <ele>200</ele>
        <time>2022-07-02T12:36:05Z</time>
      </trkpt>
      <trkpt lat="49.09027" lon="1.78506">
        <ele>200</ele>
        <time>2022-07-02T12:36:13Z</time>
      </trkpt>
      <trkpt lat="49.09026" lon="1.78473">
        <ele>199</ele>
        <time>2022-07-02T12:36:22Z</time>
      </trkpt>
      <trkpt lat="49.09026" lon="1.78465">
        <ele>199</ele>
        <time>2022-07-02T12:36:27Z</time>
      </trkpt>
      <trkpt lat="49.09026" lon="1.78456">
        <ele>199</ele>
        <time>2022-07-02T12:36:33Z</time>
      </trkpt>
      <trkpt lat="49.09023" lon="1.78449">
        <ele>199</ele>
        <time>2022-07-02T12:36:40Z</time>
      </trkpt>
      <trkpt lat="49.09023" lon="1.78447">
        <ele>199</ele>
        <time>2022-07-02T12:36:46Z</time>
      </trkpt>
      <trkpt lat="49.09023" lon="1.78442">
        <ele>199.1</ele>
        <time>2022-07-02T12:36:54Z</time>
      </trkpt>
      <trkpt lat="49.09021" lon="1.78428">
        <ele>199.4</ele>
        <time>2022-07-02T12:37:02Z</time>
      </trkpt>
      <trkpt lat="49.09021" lon="1.78414">
        <ele>199.7</ele>
        <time>2022-07-02T12:37:09Z</time>
      </trkpt>
      <trkpt lat="49.0902" lon="1.78407">
        <ele>199.7</ele>
        <time>2022-07-02T12:37:17Z</time>
      </trkpt>
      <trkpt lat="49.09018" lon="1.78396">
        <ele>199.6</ele>
        <time>2022-07-02T12:37:24Z</time>
      </trkpt>
      <trkpt lat="49.09015" lon="1.78382">
        <ele>199.7</ele>
        <time>2022-07-02T12:37:32Z</time>
      </trkpt>
      <trkpt lat="49.09013" lon="1.7837">
        <ele>199.8</ele>
        <time>2022-07-02T12:37:39Z</time>
      </trkpt>
      <trkpt lat="49.09011" lon="1.78362">
        <ele>200</ele>
        <time>2022-07-02T12:37:46Z</time>
      </trkpt>
      <trkpt lat="49.09011" lon="1.78359">
        <ele>200</ele>
        <time>2022-07-02T12:37:53Z</time>
      </trkpt>
      <trkpt lat="49.0901" lon="1.78351">
        <ele>200</ele>
        <time>2022-07-02T12:38:00Z</time>
      </trkpt>
      <trkpt lat="49.09009" lon="1.78338">
        <ele>200</ele>
        <time>2022-07-02T12:38:09Z</time>
      </trkpt>
      <trkpt lat="49.09009" lon="1.78328">
        <ele>200</ele>
        <time>2022-07-02T12:38:17Z</time>
      </trkpt>
      <trkpt lat="49.09007" lon="1.7831">
        <ele>200</ele>
        <time>2022-07-02T12:38:26Z</time>
      </trkpt>
      <trkpt lat="49.09007" lon="1.78306">
        <ele>200</ele>
        <time>2022-07-02T12:38:34Z</time>
      </trkpt>
      <trkpt lat="49.09007" lon="1.78295">
        <ele>200</ele>
        <time>2022-07-02T12:38:42Z</time>
      </trkpt>
      <trkpt lat="49.09006" lon="1.78284">
        <ele>200</ele>
        <time>2022-07-02T12:38:52Z</time>
      </trkpt>
      <trkpt lat="49.09004" lon="1.78265">
        <ele>200</ele>
        <time>2022-07-02T12:39:00Z</time>
      </trkpt>
      <trkpt lat="49.09004" lon="1.78257">
        <ele>200</ele>
        <time>2022-07-02T12:39:08Z</time>
      </trkpt>
      <trkpt lat="49.09004" lon="1.78251">
        <ele>200</ele>
        <time>2022-07-02T12:39:14Z</time>
      </trkpt>
      <trkpt lat="49.09001" lon="1.78238">
        <ele>200.4</ele>
        <time>2022-07-02T12:39:20Z</time>
      </trkpt>
      <trkpt lat="49.08996" lon="1.78222">
        <ele>201</ele>
        <time>2022-07-02T12:39:27Z</time>
      </trkpt>
      <trkpt lat="49.08995" lon="1.782">
        <ele>201</ele>
        <time>2022-07-02T12:39:34Z</time>
      </trkpt>
      <trkpt lat="49.08998" lon="1.78187">
        <ele>201</ele>
        <time>2022-07-02T12:39:41Z</time>
      </trkpt>
      <trkpt lat="49.08998" lon="1.78174">
        <ele>201</ele>
        <time>2022-07-02T12:39:47Z</time>
      </trkpt>
      <trkpt lat="49.08996" lon="1.78156">
        <ele>201</ele>
        <time>2022-07-02T12:39:55Z</time>
      </trkpt>
      <trkpt lat="49.08996" lon="1.78142">
        <ele>201</ele>
        <time>2022-07-02T12:40:03Z</time>
      </trkpt>
      <trkpt lat="49.08996" lon="1.78138">
        <ele>201</ele>
        <time>2022-07-02T12:40:09Z</time>
      </trkpt>
      <trkpt lat="49.08994" lon="1.78135">
        <ele>201</ele>
        <time>2022-07-02T12:40:15Z</time>
      </trkpt>
      <trkpt lat="49.08992" lon="1.78128">
        <ele>201.1</ele>
        <time>2022-07-02T12:40:23Z</time>
      </trkpt>
      <trkpt lat="49.08993" lon="1.78126">
        <ele>201.1</ele>
        <time>2022-07-02T12:40:30Z</time>
      </trkpt>
      <trkpt lat="49.08991" lon="1.78118">
        <ele>201.2</ele>
        <time>2022-07-02T12:40:36Z</time>
      </trkpt>
      <trkpt lat="49.08991" lon="1.78108">
        <ele>201.3</ele>
        <time>2022-07-02T12:40:43Z</time>
      </trkpt>
      <trkpt lat="49.08993" lon="1.78097">
        <ele>201.3</ele>
        <time>2022-07-02T12:40:50Z</time>
      </trkpt>
      <trkpt lat="49.08993" lon="1.78089">
        <ele>201.3</ele>
        <time>2022-07-02T12:40:57Z</time>
      </trkpt>
      <trkpt lat="49.08994" lon="1.7808">
        <ele>201.2</ele>
        <time>2022-07-02T12:41:04Z</time>
      </trkpt>
      <trkpt lat="49.08996" lon="1.78071">
        <ele>201.2</ele>
        <time>2022-07-02T12:41:11Z</time>
      </trkpt>
      <trkpt lat="49.08998" lon="1.78058">
        <ele>201.1</ele>
        <time>2022-07-02T12:41:19Z</time>
      </trkpt>
      <trkpt lat="49.08999" lon="1.78047">
        <ele>201</ele>
        <time>2022-07-02T12:41:26Z</time>
      </trkpt>
      <trkpt lat="49.08999" lon="1.78035">
        <ele>201</ele>
        <time>2022-07-02T12:41:34Z</time>
      </trkpt>
      <trkpt lat="49.09" lon="1.78019">
        <ele>201</ele>
        <time>2022-07-02T12:41:44Z</time>
      </trkpt>
      <trkpt lat="49.09002" lon="1.77992">
        <ele>201</ele>
        <time>2022-07-02T12:41:51Z</time>
      </trkpt>
      <trkpt lat="49.08997" lon="1.77981">
        <ele>201.1</ele>
        <time>2022-07-02T12:41:58Z</time>
      </trkpt>
      <trkpt lat="49.08996" lon="1.77974">
        <ele>201.1</ele>
        <time>2022-07-02T12:42:06Z</time>
      </trkpt>
      <trkpt lat="49.08997" lon="1.77969">
        <ele>201.1</ele>
        <time>2022-07-02T12:42:14Z</time>
      </trkpt>
      <trkpt lat="49.08997" lon="1.77965">
        <ele>201.1</ele>
        <time>2022-07-02T12:42:20Z</time>
      </trkpt>
      <trkpt lat="49.08997" lon="1.77958">
        <ele>201.1</ele>
        <time>2022-07-02T12:42:27Z</time>
      </trkpt>
      <trkpt lat="49.08997" lon="1.77941">
        <ele>201.1</ele>
        <time>2022-07-02T12:42:37Z</time>
      </trkpt>
      <trkpt lat="49.08994" lon="1.77932">
        <ele>201.2</ele>
        <time>2022-07-02T12:42:45Z</time>
      </trkpt>
      <trkpt lat="49.08994" lon="1.77921">
        <ele>201.2</ele>
        <time>2022-07-02T12:42:52Z</time>
      </trkpt>
      <trkpt lat="49.08991" lon="1.77912">
        <ele>201.3</ele>
        <time>2022-07-02T12:42:58Z</time>
      </trkpt>
      <trkpt lat="49.0899" lon="1.77904">
        <ele>201.2</ele>
        <time>2022-07-02T12:43:06Z</time>
      </trkpt>
      <trkpt lat="49.0899" lon="1.77891">
        <ele>201</ele>
        <time>2022-07-02T12:43:13Z</time>
      </trkpt>
      <trkpt lat="49.08993" lon="1.77879">
        <ele>201</ele>
        <time>2022-07-02T12:43:22Z</time>
      </trkpt>
      <trkpt lat="49.08995" lon="1.77866">
        <ele>201</ele>
        <time>2022-07-02T12:43:29Z</time>
      </trkpt>
      <trkpt lat="49.08994" lon="1.77856">
        <ele>201</ele>
        <time>2022-07-02T12:43:35Z</time>
      </trkpt>
      <trkpt lat="49.08993" lon="1.77847">
        <ele>201</ele>
        <time>2022-07-02T12:43:42Z</time>
      </trkpt>
      <trkpt lat="49.08991" lon="1.77835">
        <ele>201</ele>
        <time>2022-07-02T12:43:48Z</time>
      </trkpt>
      <trkpt lat="49.08991" lon="1.77826">
        <ele>200.8</ele>
        <time>2022-07-02T12:43:54Z</time>
      </trkpt>
      <trkpt lat="49.0899" lon="1.77822">
        <ele>200.7</ele>
        <time>2022-07-02T12:43:56Z</time>
      </trkpt>
      <trkpt lat="49.08987" lon="1.77814">
        <ele>200.6</ele>
        <time>2022-07-02T12:44:03Z</time>
      </trkpt>
      <trkpt lat="49.08984" lon="1.77808">
        <ele>200.6</ele>
        <time>2022-07-02T12:44:14Z</time>
      </trkpt>
      <trkpt lat="49.08984" lon="1.77807">
        <ele>200.6</ele>
        <time>2022-07-02T12:44:15Z</time>
      </trkpt>
      <trkpt lat="49.08983" lon="1.778">
        <ele>200.5</ele>
        <time>2022-07-02T12:44:18Z</time>
      </trkpt>
      <trkpt lat="49.08982" lon="1.77784">
        <ele>200.1</ele>
        <time>2022-07-02T12:44:24Z</time>
      </trkpt>
      <trkpt lat="49.0898" lon="1.77774">
        <ele>200</ele>
        <time>2022-07-02T12:44:32Z</time>
      </trkpt>
      <trkpt lat="49.0898" lon="1.7776">
        <ele>200</ele>
        <time>2022-07-02T12:44:38Z</time>
      </trkpt>
      <trkpt lat="49.08985" lon="1.77738">
        <ele>199.8</ele>
        <time>2022-07-02T12:44:45Z</time>
      </trkpt>
      <trkpt lat="49.08982" lon="1.77741">
        <ele>199.8</ele>
        <time>2022-07-02T12:44:52Z</time>
      </trkpt>
      <trkpt lat="49.08977" lon="1.77737">
        <ele>199.6</ele>
        <time>2022-07-02T12:44:58Z</time>
      </trkpt>
      <trkpt lat="49.08976" lon="1.77732">
        <ele>199.4</ele>
        <time>2022-07-02T12:45:02Z</time>
      </trkpt>
      <trkpt lat="49.08971" lon="1.77723">
        <ele>199</ele>
        <time>2022-07-02T12:45:11Z</time>
      </trkpt>
      <trkpt lat="49.08968" lon="1.77715">
        <ele>199</ele>
        <time>2022-07-02T12:45:18Z</time>
      </trkpt>
      <trkpt lat="49.08969" lon="1.77702">
        <ele>198.9</ele>
        <time>2022-07-02T12:45:26Z</time>
      </trkpt>
      <trkpt lat="49.0897" lon="1.77695">
        <ele>198.9</ele>
        <time>2022-07-02T12:45:33Z</time>
      </trkpt>
      <trkpt lat="49.08971" lon="1.77687">
        <ele>198.7</ele>
        <time>2022-07-02T12:45:40Z</time>
      </trkpt>
      <trkpt lat="49.0897" lon="1.77679">
        <ele>198.4</ele>
        <time>2022-07-02T12:45:46Z</time>
      </trkpt>
      <trkpt lat="49.08974" lon="1.7767">
        <ele>198.2</ele>
        <time>2022-07-02T12:45:54Z</time>
      </trkpt>
      <trkpt lat="49.08977" lon="1.77667">
        <ele>198.2</ele>
        <time>2022-07-02T12:46:01Z</time>
      </trkpt>
      <trkpt lat="49.08982" lon="1.77653">
        <ele>198.3</ele>
        <time>2022-07-02T12:46:08Z</time>
      </trkpt>
      <trkpt lat="49.08983" lon="1.77649">
        <ele>198.4</ele>
        <time>2022-07-02T12:46:16Z</time>
      </trkpt>
      <trkpt lat="49.08981" lon="1.77641">
        <ele>198.3</ele>
        <time>2022-07-02T12:46:23Z</time>
      </trkpt>
      <trkpt lat="49.0898" lon="1.7763">
        <ele>198</ele>
        <time>2022-07-02T12:46:31Z</time>
      </trkpt>
      <trkpt lat="49.08981" lon="1.77615">
        <ele>197.5</ele>
        <time>2022-07-02T12:46:38Z</time>
      </trkpt>
      <trkpt lat="49.0898" lon="1.77612">
        <ele>197.3</ele>
        <time>2022-07-02T12:46:44Z</time>
      </trkpt>
      <trkpt lat="49.08982" lon="1.77602">
        <ele>197.4</ele>
        <time>2022-07-02T12:46:50Z</time>
      </trkpt>
      <trkpt lat="49.08984" lon="1.77583">
        <ele>197.8</ele>
        <time>2022-07-02T12:47:00Z</time>
      </trkpt>
      <trkpt lat="49.08985" lon="1.77567">
        <ele>197.9</ele>
        <time>2022-07-02T12:47:07Z</time>
      </trkpt>
      <trkpt lat="49.08989" lon="1.77547">
        <ele>198.3</ele>
        <time>2022-07-02T12:47:15Z</time>
      </trkpt>
      <trkpt lat="49.08989" lon="1.77538">
        <ele>198.4</ele>
        <time>2022-07-02T12:47:21Z</time>
      </trkpt>
      <trkpt lat="49.08988" lon="1.77523">
        <ele>198.6</ele>
        <time>2022-07-02T12:47:29Z</time>
      </trkpt>
      <trkpt lat="49.08988" lon="1.77512">
        <ele>198.6</ele>
        <time>2022-07-02T12:47:36Z</time>
      </trkpt>
      <trkpt lat="49.0899" lon="1.77495">
        <ele>198.7</ele>
        <time>2022-07-02T12:47:45Z</time>
      </trkpt>
      <trkpt lat="49.08991" lon="1.77485">
        <ele>198.9</ele>
        <time>2022-07-02T12:47:53Z</time>
      </trkpt>
      <trkpt lat="49.08992" lon="1.77482">
        <ele>198.9</ele>
        <time>2022-07-02T12:48:00Z</time>
      </trkpt>
      <trkpt lat="49.08991" lon="1.77477">
        <ele>198.9</ele>
        <time>2022-07-02T12:48:07Z</time>
      </trkpt>
      <trkpt lat="49.08996" lon="1.7747">
        <ele>199</ele>
        <time>2022-07-02T12:48:14Z</time>
      </trkpt>
      <trkpt lat="49.08999" lon="1.77455">
        <ele>199</ele>
        <time>2022-07-02T12:48:22Z</time>
      </trkpt>
      <trkpt lat="49.09001" lon="1.77444">
        <ele>199</ele>
        <time>2022-07-02T12:48:29Z</time>
      </trkpt>
      <trkpt lat="49.09002" lon="1.77435">
        <ele>199</ele>
        <time>2022-07-02T12:48:36Z</time>
      </trkpt>
      <trkpt lat="49.09003" lon="1.77433">
        <ele>199</ele>
        <time>2022-07-02T12:48:46Z</time>
      </trkpt>
      <trkpt lat="49.09003" lon="1.77427">
        <ele>199</ele>
        <time>2022-07-02T12:48:53Z</time>
      </trkpt>
      <trkpt lat="49.09002" lon="1.77415">
        <ele>199</ele>
        <time>2022-07-02T12:48:58Z</time>
      </trkpt>
      <trkpt lat="49.09002" lon="1.77406">
        <ele>199</ele>
        <time>2022-07-02T12:49:03Z</time>
      </trkpt>
      <trkpt lat="49.08998" lon="1.77394">
        <ele>199</ele>
        <time>2022-07-02T12:49:12Z</time>
      </trkpt>
      <trkpt lat="49.08995" lon="1.77385">
        <ele>199</ele>
        <time>2022-07-02T12:49:21Z</time>
      </trkpt>
      <trkpt lat="49.0899" lon="1.77372">
        <ele>199</ele>
        <time>2022-07-02T12:49:29Z</time>
      </trkpt>
      <trkpt lat="49.08987" lon="1.7736">
        <ele>199</ele>
        <time>2022-07-02T12:49:38Z</time>
      </trkpt>
      <trkpt lat="49.08984" lon="1.7735">
        <ele>199.2</ele>
        <time>2022-07-02T12:49:46Z</time>
      </trkpt>
      <trkpt lat="49.08981" lon="1.77344">
        <ele>199.2</ele>
        <time>2022-07-02T12:49:55Z</time>
      </trkpt>
      <trkpt lat="49.08978" lon="1.77334">
        <ele>199.2</ele>
        <time>2022-07-02T12:50:03Z</time>
      </trkpt>
      <trkpt lat="49.08976" lon="1.77324">
        <ele>199.4</ele>
        <time>2022-07-02T12:50:10Z</time>
      </trkpt>
      <trkpt lat="49.08975" lon="1.77319">
        <ele>199.6</ele>
        <time>2022-07-02T12:50:20Z</time>
      </trkpt>
      <trkpt lat="49.08977" lon="1.77307">
        <ele>200</ele>
        <time>2022-07-02T12:50:27Z</time>
      </trkpt>
      <trkpt lat="49.08978" lon="1.77291">
        <ele>200</ele>
        <time>2022-07-02T12:50:35Z</time>
      </trkpt>
      <trkpt lat="49.08976" lon="1.77279">
        <ele>200</ele>
        <time>2022-07-02T12:50:45Z</time>
      </trkpt>
      <trkpt lat="49.08968" lon="1.77275">
        <ele>199.9</ele>
        <time>2022-07-02T12:50:54Z</time>
      </trkpt>
      <trkpt lat="49.08963" lon="1.77277">
        <ele>199.7</ele>
        <time>2022-07-02T12:51:01Z</time>
      </trkpt>
      <trkpt lat="49.08955" lon="1.7728">
        <ele>199.4</ele>
        <time>2022-07-02T12:51:08Z</time>
      </trkpt>
      <trkpt lat="49.08944" lon="1.77279">
        <ele>199</ele>
        <time>2022-07-02T12:51:16Z</time>
      </trkpt>
      <trkpt lat="49.08936" lon="1.77281">
        <ele>198.7</ele>
        <time>2022-07-02T12:51:24Z</time>
      </trkpt>
      <trkpt lat="49.08932" lon="1.77282">
        <ele>198.6</ele>
        <time>2022-07-02T12:51:26Z</time>
      </trkpt>
      <trkpt lat="49.08917" lon="1.77281">
        <ele>198</ele>
        <time>2022-07-02T12:51:34Z</time>
      </trkpt>
      <trkpt lat="49.08908" lon="1.77276">
        <ele>197.7</ele>
        <time>2022-07-02T12:51:41Z</time>
      </trkpt>
      <trkpt lat="49.08902" lon="1.77271">
        <ele>197.5</ele>
        <time>2022-07-02T12:51:48Z</time>
      </trkpt>
      <trkpt lat="49.08895" lon="1.77259">
        <ele>197.2</ele>
        <time>2022-07-02T12:51:57Z</time>
      </trkpt>
      <trkpt lat="49.08888" lon="1.7725">
        <ele>196.9</ele>
        <time>2022-07-02T12:52:05Z</time>
      </trkpt>
      <trkpt lat="49.08886" lon="1.77248">
        <ele>196.8</ele>
        <time>2022-07-02T12:52:07Z</time>
      </trkpt>
      <trkpt lat="49.08876" lon="1.77236">
        <ele>196</ele>
        <time>2022-07-02T12:52:15Z</time>
      </trkpt>
      <trkpt lat="49.08868" lon="1.77231">
        <ele>195.5</ele>
        <time>2022-07-02T12:52:21Z</time>
      </trkpt>
      <trkpt lat="49.08865" lon="1.77223">
        <ele>195.3</ele>
        <time>2022-07-02T12:52:28Z</time>
      </trkpt>
      <trkpt lat="49.08859" lon="1.7721">
        <ele>195.2</ele>
        <time>2022-07-02T12:52:36Z</time>
      </trkpt>
      <trkpt lat="49.08856" lon="1.77201">
        <ele>194.9</ele>
        <time>2022-07-02T12:52:42Z</time>
      </trkpt>
      <trkpt lat="49.08853" lon="1.77194">
        <ele>194.6</ele>
        <time>2022-07-02T12:52:49Z</time>
      </trkpt>
      <trkpt lat="49.08852" lon="1.7719">
        <ele>194.5</ele>
        <time>2022-07-02T12:52:56Z</time>
      </trkpt>
      <trkpt lat="49.08853" lon="1.77189">
        <ele>194.6</ele>
        <time>2022-07-02T12:53:03Z</time>
      </trkpt>
      <trkpt lat="49.08854" lon="1.77188">
        <ele>194.7</ele>
        <time>2022-07-02T12:53:13Z</time>
      </trkpt>
      <trkpt lat="49.08855" lon="1.77187">
        <ele>194.9</ele>
        <time>2022-07-02T12:53:28Z</time>
      </trkpt>
      <trkpt lat="49.08856" lon="1.77186">
        <ele>195.1</ele>
        <time>2022-07-02T12:53:38Z</time>
      </trkpt>
      <trkpt lat="49.08856" lon="1.77186">
        <ele>195.1</ele>
        <time>2022-07-02T12:53:51Z</time>
      </trkpt>
      <trkpt lat="49.08855" lon="1.77185">
        <ele>194.9</ele>
        <time>2022-07-02T12:54:02Z</time>
      </trkpt>
      <trkpt lat="49.08851" lon="1.77176">
        <ele>194.5</ele>
        <time>2022-07-02T12:54:08Z</time>
      </trkpt>
      <trkpt lat="49.08848" lon="1.77173">
        <ele>194</ele>
        <time>2022-07-02T12:54:15Z</time>
      </trkpt>
      <trkpt lat="49.08848" lon="1.77172">
        <ele>194.1</ele>
        <time>2022-07-02T12:54:29Z</time>
      </trkpt>
      <trkpt lat="49.08848" lon="1.77174">
        <ele>193.9</ele>
        <time>2022-07-02T12:54:42Z</time>
      </trkpt>
      <trkpt lat="49.08847" lon="1.77174">
        <ele>193.9</ele>
        <time>2022-07-02T12:54:54Z</time>
      </trkpt>
      <trkpt lat="49.08846" lon="1.77173">
        <ele>193.8</ele>
        <time>2022-07-02T12:55:09Z</time>
      </trkpt>
      <trkpt lat="49.08846" lon="1.77174">
        <ele>193.8</ele>
        <time>2022-07-02T12:55:24Z</time>
      </trkpt>
      <trkpt lat="49.08847" lon="1.77173">
        <ele>193.9</ele>
        <time>2022-07-02T12:55:41Z</time>
      </trkpt>
      <trkpt lat="49.08848" lon="1.77173">
        <ele>193.9</ele>
        <time>2022-07-02T12:55:55Z</time>
      </trkpt>
      <trkpt lat="49.08848" lon="1.77171">
        <ele>194</ele>
        <time>2022-07-02T12:56:10Z</time>
      </trkpt>
      <trkpt lat="49.08847" lon="1.77171">
        <ele>193.9</ele>
        <time>2022-07-02T12:56:21Z</time>
      </trkpt>
      <trkpt lat="49.08847" lon="1.77171">
        <ele>193.8</ele>
        <time>2022-07-02T12:56:32Z</time>
      </trkpt>
      <trkpt lat="49.08847" lon="1.77171">
        <ele>193.8</ele>
        <time>2022-07-02T12:56:47Z</time>
      </trkpt>
      <trkpt lat="49.08846" lon="1.7717">
        <ele>193.8</ele>
        <time>2022-07-02T12:57:01Z</time>
      </trkpt>
      <trkpt lat="49.08845" lon="1.7717">
        <ele>193.7</ele>
        <time>2022-07-02T12:57:16Z</time>
      </trkpt>
      <trkpt lat="49.08845" lon="1.77169">
        <ele>193.6</ele>
        <time>2022-07-02T12:57:29Z</time>
      </trkpt>
      <trkpt lat="49.08845" lon="1.7717">
        <ele>193.6</ele>
        <time>2022-07-02T12:57:42Z</time>
      </trkpt>
      <trkpt lat="49.08845" lon="1.77169">
        <ele>193.6</ele>
        <time>2022-07-02T12:57:50Z</time>
      </trkpt>
      <trkpt lat="49.08845" lon="1.77169">
        <ele>193.6</ele>
        <time>2022-07-02T12:57:57Z</time>
      </trkpt>
      <trkpt lat="49.08845" lon="1.77169">
        <ele>193.6</ele>
        <time>2022-07-02T12:58:12Z</time>
      </trkpt>
      <trkpt lat="49.08845" lon="1.77168">
        <ele>193.6</ele>
        <time>2022-07-02T12:58:26Z</time>
      </trkpt>
      <trkpt lat="49.08844" lon="1.77167">
        <ele>193.6</ele>
        <time>2022-07-02T12:58:36Z</time>
      </trkpt>
      <trkpt lat="49.08844" lon="1.77165">
        <ele>193.6</ele>
        <time>2022-07-02T12:58:45Z</time>
      </trkpt>
      <trkpt lat="49.08844" lon="1.77162">
        <ele>193.8</ele>
        <time>2022-07-02T12:58:51Z</time>
      </trkpt>
      <trkpt lat="49.08842" lon="1.77157">
        <ele>193.9</ele>
        <time>2022-07-02T12:58:58Z</time>
      </trkpt>
      <trkpt lat="49.08841" lon="1.7715">
        <ele>194.2</ele>
        <time>2022-07-02T12:59:06Z</time>
      </trkpt>
      <trkpt lat="49.08839" lon="1.77141">
        <ele>194.5</ele>
        <time>2022-07-02T12:59:13Z</time>
      </trkpt>
      <trkpt lat="49.08836" lon="1.77132">
        <ele>194.7</ele>
        <time>2022-07-02T12:59:21Z</time>
      </trkpt>
      <trkpt lat="49.08831" lon="1.77124">
        <ele>195</ele>
        <time>2022-07-02T12:59:29Z</time>
      </trkpt>
      <trkpt lat="49.08827" lon="1.77112">
        <ele>195.7</ele>
        <time>2022-07-02T12:59:36Z</time>
      </trkpt>
      <trkpt lat="49.08822" lon="1.77097">
        <ele>196.3</ele>
        <time>2022-07-02T12:59:45Z</time>
      </trkpt>
      <trkpt lat="49.08818" lon="1.77088">
        <ele>196.7</ele>
        <time>2022-07-02T12:59:52Z</time>
      </trkpt>
      <trkpt lat="49.08817" lon="1.77083">
        <ele>197</ele>
        <time>2022-07-02T12:59:59Z</time>
      </trkpt>
      <trkpt lat="49.08817" lon="1.77081">
        <ele>197.1</ele>
        <time>2022-07-02T13:00:09Z</time>
      </trkpt>
      <trkpt lat="49.08807" lon="1.77082">
        <ele>197.1</ele>
        <time>2022-07-02T13:00:17Z</time>
      </trkpt>
      <trkpt lat="49.08798" lon="1.77082">
        <ele>197.3</ele>
        <time>2022-07-02T13:00:25Z</time>
      </trkpt>
      <trkpt lat="49.08791" lon="1.77083">
        <ele>197.5</ele>
        <time>2022-07-02T13:00:32Z</time>
      </trkpt>
      <trkpt lat="49.08783" lon="1.77081">
        <ele>197.8</ele>
        <time>2022-07-02T13:00:41Z</time>
      </trkpt>
      <trkpt lat="49.08776" lon="1.77077">
        <ele>198</ele>
        <time>2022-07-02T13:00:48Z</time>
      </trkpt>
      <trkpt lat="49.0877" lon="1.77079">
        <ele>198</ele>
        <time>2022-07-02T13:00:56Z</time>
      </trkpt>
      <trkpt lat="49.08765" lon="1.77083">
        <ele>198</ele>
        <time>2022-07-02T13:01:04Z</time>
      </trkpt>
      <trkpt lat="49.08761" lon="1.77092">
        <ele>197.6</ele>
        <time>2022-07-02T13:01:12Z</time>
      </trkpt>
      <trkpt lat="49.08756" lon="1.771">
        <ele>197.3</ele>
        <time>2022-07-02T13:01:21Z</time>
      </trkpt>
      <trkpt lat="49.08747" lon="1.77111">
        <ele>197</ele>
        <time>2022-07-02T13:01:28Z</time>
      </trkpt>
      <trkpt lat="49.08737" lon="1.77115">
        <ele>196.8</ele>
        <time>2022-07-02T13:01:35Z</time>
      </trkpt>
      <trkpt lat="49.08721" lon="1.77123">
        <ele>196.5</ele>
        <time>2022-07-02T13:01:44Z</time>
      </trkpt>
      <trkpt lat="49.08706" lon="1.77124">
        <ele>196</ele>
        <time>2022-07-02T13:01:53Z</time>
      </trkpt>
      <trkpt lat="49.08695" lon="1.77126">
        <ele>195.5</ele>
        <time>2022-07-02T13:02:02Z</time>
      </trkpt>
      <trkpt lat="49.0869" lon="1.77127">
        <ele>195.1</ele>
        <time>2022-07-02T13:02:11Z</time>
      </trkpt>
      <trkpt lat="49.08688" lon="1.77129">
        <ele>194.9</ele>
        <time>2022-07-02T13:02:19Z</time>
      </trkpt>
      <trkpt lat="49.08682" lon="1.7714">
        <ele>194</ele>
        <time>2022-07-02T13:02:29Z</time>
      </trkpt>
      <trkpt lat="49.08674" lon="1.77146">
        <ele>193</ele>
        <time>2022-07-02T13:02:35Z</time>
      </trkpt>
      <trkpt lat="49.0866" lon="1.77153">
        <ele>191.8</ele>
        <time>2022-07-02T13:02:43Z</time>
      </trkpt>
      <trkpt lat="49.08646" lon="1.7716">
        <ele>190.7</ele>
        <time>2022-07-02T13:02:52Z</time>
      </trkpt>
      <trkpt lat="49.08637" lon="1.77165">
        <ele>190.2</ele>
        <time>2022-07-02T13:03:01Z</time>
      </trkpt>
      <trkpt lat="49.08636" lon="1.77174">
        <ele>189.6</ele>
        <time>2022-07-02T13:03:09Z</time>
      </trkpt>
      <trkpt lat="49.08631" lon="1.77189">
        <ele>188.7</ele>
        <time>2022-07-02T13:03:16Z</time>
      </trkpt>
      <trkpt lat="49.0863" lon="1.77201">
        <ele>187.9</ele>
        <time>2022-07-02T13:03:23Z</time>
      </trkpt>
      <trkpt lat="49.08626" lon="1.77209">
        <ele>187.4</ele>
        <time>2022-07-02T13:03:28Z</time>
      </trkpt>
      <trkpt lat="49.08625" lon="1.77227">
        <ele>186</ele>
        <time>2022-07-02T13:03:37Z</time>
      </trkpt>
      <trkpt lat="49.0862" lon="1.77237">
        <ele>185.3</ele>
        <time>2022-07-02T13:03:45Z</time>
      </trkpt>
      <trkpt lat="49.08618" lon="1.77251">
        <ele>183.9</ele>
        <time>2022-07-02T13:03:52Z</time>
      </trkpt>
      <trkpt lat="49.08622" lon="1.77268">
        <ele>182.3</ele>
        <time>2022-07-02T13:04:01Z</time>
      </trkpt>
      <trkpt lat="49.08621" lon="1.77281">
        <ele>181.1</ele>
        <time>2022-07-02T13:04:11Z</time>
      </trkpt>
      <trkpt lat="49.08615" lon="1.77292">
        <ele>179.8</ele>
        <time>2022-07-02T13:04:18Z</time>
      </trkpt>
      <trkpt lat="49.08608" lon="1.77303">
        <ele>178.4</ele>
        <time>2022-07-02T13:04:25Z</time>
      </trkpt>
      <trkpt lat="49.08604" lon="1.77308">
        <ele>178.1</ele>
        <time>2022-07-02T13:04:32Z</time>
      </trkpt>
      <trkpt lat="49.08593" lon="1.77316">
        <ele>177.9</ele>
        <time>2022-07-02T13:04:39Z</time>
      </trkpt>
      <trkpt lat="49.08583" lon="1.77324">
        <ele>177.7</ele>
        <time>2022-07-02T13:04:45Z</time>
      </trkpt>
      <trkpt lat="49.08576" lon="1.77329">
        <ele>177.5</ele>
        <time>2022-07-02T13:04:48Z</time>
      </trkpt>
      <trkpt lat="49.08565" lon="1.77333">
        <ele>177.6</ele>
        <time>2022-07-02T13:04:55Z</time>
      </trkpt>
      <trkpt lat="49.0856" lon="1.77338">
        <ele>177.5</ele>
        <time>2022-07-02T13:05:02Z</time>
      </trkpt>
      <trkpt lat="49.08548" lon="1.77344">
        <ele>176.8</ele>
        <time>2022-07-02T13:05:12Z</time>
      </trkpt>
      <trkpt lat="49.08546" lon="1.77344">
        <ele>176.6</ele>
        <time>2022-07-02T13:05:13Z</time>
      </trkpt>
      <trkpt lat="49.08533" lon="1.7735">
        <ele>175.7</ele>
        <time>2022-07-02T13:05:21Z</time>
      </trkpt>
      <trkpt lat="49.08524" lon="1.7735">
        <ele>175.2</ele>
        <time>2022-07-02T13:05:29Z</time>
      </trkpt>
      <trkpt lat="49.08518" lon="1.77351">
        <ele>174.7</ele>
        <time>2022-07-02T13:05:36Z</time>
      </trkpt>
      <trkpt lat="49.08509" lon="1.77354">
        <ele>173.9</ele>
        <time>2022-07-02T13:05:44Z</time>
      </trkpt>
      <trkpt lat="49.08506" lon="1.77357">
        <ele>173.6</ele>
        <time>2022-07-02T13:05:53Z</time>
      </trkpt>
      <trkpt lat="49.08503" lon="1.77361">
        <ele>173.2</ele>
        <time>2022-07-02T13:05:58Z</time>
      </trkpt>
      <trkpt lat="49.08496" lon="1.77368">
        <ele>172.5</ele>
        <time>2022-07-02T13:06:05Z</time>
      </trkpt>
      <trkpt lat="49.08487" lon="1.77383">
        <ele>171.3</ele>
        <time>2022-07-02T13:06:14Z</time>
      </trkpt>
      <trkpt lat="49.08481" lon="1.77391">
        <ele>170.6</ele>
        <time>2022-07-02T13:06:21Z</time>
      </trkpt>
      <trkpt lat="49.08473" lon="1.77406">
        <ele>169.5</ele>
        <time>2022-07-02T13:06:29Z</time>
      </trkpt>
      <trkpt lat="49.08467" lon="1.77415">
        <ele>168.5</ele>
        <time>2022-07-02T13:06:37Z</time>
      </trkpt>
      <trkpt lat="49.08461" lon="1.77423">
        <ele>167.5</ele>
        <time>2022-07-02T13:06:45Z</time>
      </trkpt>
      <trkpt lat="49.08447" lon="1.77437">
        <ele>165.6</ele>
        <time>2022-07-02T13:06:56Z</time>
      </trkpt>
      <trkpt lat="49.08432" lon="1.77455">
        <ele>164.4</ele>
        <time>2022-07-02T13:07:07Z</time>
      </trkpt>
      <trkpt lat="49.08423" lon="1.77457">
        <ele>163.9</ele>
        <time>2022-07-02T13:07:14Z</time>
      </trkpt>
      <trkpt lat="49.08419" lon="1.77458">
        <ele>163.6</ele>
        <time>2022-07-02T13:07:16Z</time>
      </trkpt>
      <trkpt lat="49.08411" lon="1.77458">
        <ele>163.2</ele>
        <time>2022-07-02T13:07:25Z</time>
      </trkpt>
      <trkpt lat="49.08402" lon="1.77464">
        <ele>162.6</ele>
        <time>2022-07-02T13:07:34Z</time>
      </trkpt>
      <trkpt lat="49.08394" lon="1.77471">
        <ele>162.2</ele>
        <time>2022-07-02T13:07:42Z</time>
      </trkpt>
      <trkpt lat="49.08389" lon="1.77477">
        <ele>161.8</ele>
        <time>2022-07-02T13:07:49Z</time>
      </trkpt>
      <trkpt lat="49.08378" lon="1.77481">
        <ele>161</ele>
        <time>2022-07-02T13:07:57Z</time>
      </trkpt>
      <trkpt lat="49.08361" lon="1.77486">
        <ele>160</ele>
        <time>2022-07-02T13:08:05Z</time>
      </trkpt>
      <trkpt lat="49.08352" lon="1.77488">
        <ele>159.7</ele>
        <time>2022-07-02T13:08:12Z</time>
      </trkpt>
      <trkpt lat="49.08347" lon="1.77492">
        <ele>159.5</ele>
        <time>2022-07-02T13:08:20Z</time>
      </trkpt>
      <trkpt lat="49.0834" lon="1.77496">
        <ele>159.2</ele>
        <time>2022-07-02T13:08:28Z</time>
      </trkpt>
      <trkpt lat="49.08335" lon="1.77501">
        <ele>159</ele>
        <time>2022-07-02T13:08:36Z</time>
      </trkpt>
      <trkpt lat="49.08323" lon="1.77507">
        <ele>158.1</ele>
        <time>2022-07-02T13:08:44Z</time>
      </trkpt>
      <trkpt lat="49.08312" lon="1.77514">
        <ele>157.4</ele>
        <time>2022-07-02T13:08:53Z</time>
      </trkpt>
      <trkpt lat="49.08308" lon="1.77517">
        <ele>157.1</ele>
        <time>2022-07-02T13:09:00Z</time>
      </trkpt>
      <trkpt lat="49.08302" lon="1.77523">
        <ele>156.7</ele>
        <time>2022-07-02T13:09:07Z</time>
      </trkpt>
      <trkpt lat="49.083" lon="1.77524">
        <ele>156.6</ele>
        <time>2022-07-02T13:09:14Z</time>
      </trkpt>
      <trkpt lat="49.08287" lon="1.77526">
        <ele>155.7</ele>
        <time>2022-07-02T13:09:21Z</time>
      </trkpt>
      <trkpt lat="49.08272" lon="1.77529">
        <ele>154.3</ele>
        <time>2022-07-02T13:09:28Z</time>
      </trkpt>
      <trkpt lat="49.08256" lon="1.7753">
        <ele>152.6</ele>
        <time>2022-07-02T13:09:34Z</time>
      </trkpt>
      <trkpt lat="49.08244" lon="1.77524">
        <ele>151.3</ele>
        <time>2022-07-02T13:09:42Z</time>
      </trkpt>
      <trkpt lat="49.08235" lon="1.77519">
        <ele>150.3</ele>
        <time>2022-07-02T13:09:51Z</time>
      </trkpt>
      <trkpt lat="49.08226" lon="1.77514">
        <ele>149.4</ele>
        <time>2022-07-02T13:09:59Z</time>
      </trkpt>
      <trkpt lat="49.08219" lon="1.77515">
        <ele>148.7</ele>
        <time>2022-07-02T13:10:06Z</time>
      </trkpt>
      <trkpt lat="49.08209" lon="1.77517">
        <ele>147.5</ele>
        <time>2022-07-02T13:10:12Z</time>
      </trkpt>
      <trkpt lat="49.08197" lon="1.77516">
        <ele>146.3</ele>
        <time>2022-07-02T13:10:20Z</time>
      </trkpt>
      <trkpt lat="49.08193" lon="1.77515">
        <ele>145.9</ele>
        <time>2022-07-02T13:10:23Z</time>
      </trkpt>
      <trkpt lat="49.0819" lon="1.77513">
        <ele>145.7</ele>
        <time>2022-07-02T13:10:26Z</time>
      </trkpt>
      <trkpt lat="49.08184" lon="1.77509">
        <ele>145.5</ele>
        <time>2022-07-02T13:10:34Z</time>
      </trkpt>
      <trkpt lat="49.08184" lon="1.77508">
        <ele>145.5</ele>
        <time>2022-07-02T13:10:44Z</time>
      </trkpt>
      <trkpt lat="49.08184" lon="1.77508">
        <ele>145.5</ele>
        <time>2022-07-02T13:10:55Z</time>
      </trkpt>
      <trkpt lat="49.08184" lon="1.77506">
        <ele>145.5</ele>
        <time>2022-07-02T13:11:03Z</time>
      </trkpt>
      <trkpt lat="49.08183" lon="1.77505">
        <ele>145.5</ele>
        <time>2022-07-02T13:11:12Z</time>
      </trkpt>
      <trkpt lat="49.08182" lon="1.77502">
        <ele>145.5</ele>
        <time>2022-07-02T13:11:18Z</time>
      </trkpt>
      <trkpt lat="49.08182" lon="1.77502">
        <ele>145.5</ele>
        <time>2022-07-02T13:11:29Z</time>
      </trkpt>
      <trkpt lat="49.08181" lon="1.77502">
        <ele>145.5</ele>
        <time>2022-07-02T13:11:38Z</time>
      </trkpt>
      <trkpt lat="49.0818" lon="1.77502">
        <ele>145.4</ele>
        <time>2022-07-02T13:11:54Z</time>
      </trkpt>
      <trkpt lat="49.0818" lon="1.77503">
        <ele>145.4</ele>
        <time>2022-07-02T13:12:06Z</time>
      </trkpt>
      <trkpt lat="49.0818" lon="1.77503">
        <ele>145.4</ele>
        <time>2022-07-02T13:12:21Z</time>
      </trkpt>
      <trkpt lat="49.0818" lon="1.77502">
        <ele>145.4</ele>
        <time>2022-07-02T13:12:36Z</time>
      </trkpt>
      <trkpt lat="49.08179" lon="1.77501">
        <ele>145.4</ele>
        <time>2022-07-02T13:12:44Z</time>
      </trkpt>
      <trkpt lat="49.08179" lon="1.77501">
        <ele>145.4</ele>
        <time>2022-07-02T13:12:51Z</time>
      </trkpt>
      <trkpt lat="49.08177" lon="1.77501">
        <ele>145.3</ele>
        <time>2022-07-02T13:12:58Z</time>
      </trkpt>
      <trkpt lat="49.08171" lon="1.77499">
        <ele>145.2</ele>
        <time>2022-07-02T13:13:05Z</time>
      </trkpt>
      <trkpt lat="49.08164" lon="1.77499">
        <ele>145.2</ele>
        <time>2022-07-02T13:13:12Z</time>
      </trkpt>
      <trkpt lat="49.08154" lon="1.77497">
        <ele>146</ele>
        <time>2022-07-02T13:13:21Z</time>
      </trkpt>
      <trkpt lat="49.08147" lon="1.77495">
        <ele>146.6</ele>
        <time>2022-07-02T13:13:27Z</time>
      </trkpt>
      <trkpt lat="49.08139" lon="1.77491">
        <ele>147.3</ele>
        <time>2022-07-02T13:13:35Z</time>
      </trkpt>
      <trkpt lat="49.08126" lon="1.77488">
        <ele>148.3</ele>
        <time>2022-07-02T13:13:45Z</time>
      </trkpt>
      <trkpt lat="49.08115" lon="1.77485">
        <ele>149.3</ele>
        <time>2022-07-02T13:13:55Z</time>
      </trkpt>
      <trkpt lat="49.08105" lon="1.77482">
        <ele>149.9</ele>
        <time>2022-07-02T13:14:03Z</time>
      </trkpt>
      <trkpt lat="49.08094" lon="1.77478">
        <ele>150.4</ele>
        <time>2022-07-02T13:14:13Z</time>
      </trkpt>
      <trkpt lat="49.08082" lon="1.77475">
        <ele>150.9</ele>
        <time>2022-07-02T13:14:22Z</time>
      </trkpt>
      <trkpt lat="49.0807" lon="1.77472">
        <ele>151.5</ele>
        <time>2022-07-02T13:14:32Z</time>
      </trkpt>
      <trkpt lat="49.08059" lon="1.7747">
        <ele>152</ele>
        <time>2022-07-02T13:14:41Z</time>
      </trkpt>
      <trkpt lat="49.08045" lon="1.77466">
        <ele>151.8</ele>
        <time>2022-07-02T13:14:52Z</time>
      </trkpt>
      <trkpt lat="49.0803" lon="1.77461">
        <ele>151.5</ele>
        <time>2022-07-02T13:15:03Z</time>
      </trkpt>
      <trkpt lat="49.08016" lon="1.77454">
        <ele>151.6</ele>
        <time>2022-07-02T13:15:14Z</time>
      </trkpt>
      <trkpt lat="49.08007" lon="1.77448">
        <ele>151.9</ele>
        <time>2022-07-02T13:15:22Z</time>
      </trkpt>
      <trkpt lat="49.07995" lon="1.7744">
        <ele>152.3</ele>
        <time>2022-07-02T13:15:32Z</time>
      </trkpt>
      <trkpt lat="49.07988" lon="1.77435">
        <ele>152.6</ele>
        <time>2022-07-02T13:15:38Z</time>
      </trkpt>
      <trkpt lat="49.07987" lon="1.77432">
        <ele>152.7</ele>
        <time>2022-07-02T13:15:40Z</time>
      </trkpt>
      <trkpt lat="49.07985" lon="1.77431">
        <ele>152.8</ele>
        <time>2022-07-02T13:15:42Z</time>
      </trkpt>
      <trkpt lat="49.07983" lon="1.77428">
        <ele>152.8</ele>
        <time>2022-07-02T13:15:45Z</time>
      </trkpt>
      <trkpt lat="49.07974" lon="1.7742">
        <ele>153</ele>
        <time>2022-07-02T13:15:53Z</time>
      </trkpt>
      <trkpt lat="49.07965" lon="1.77411">
        <ele>153.6</ele>
        <time>2022-07-02T13:16:01Z</time>
      </trkpt>
      <trkpt lat="49.07957" lon="1.77403">
        <ele>154.3</ele>
        <time>2022-07-02T13:16:09Z</time>
      </trkpt>
      <trkpt lat="49.0795" lon="1.77394">
        <ele>154.8</ele>
        <time>2022-07-02T13:16:18Z</time>
      </trkpt>
      <trkpt lat="49.07942" lon="1.77385">
        <ele>155.1</ele>
        <time>2022-07-02T13:16:26Z</time>
      </trkpt>
      <trkpt lat="49.07935" lon="1.77377">
        <ele>155.2</ele>
        <time>2022-07-02T13:16:33Z</time>
      </trkpt>
      <trkpt lat="49.07934" lon="1.77376">
        <ele>155.3</ele>
        <time>2022-07-02T13:16:34Z</time>
      </trkpt>
      <trkpt lat="49.07931" lon="1.77375">
        <ele>155.3</ele>
        <time>2022-07-02T13:16:36Z</time>
      </trkpt>
      <trkpt lat="49.07923" lon="1.77367">
        <ele>155.6</ele>
        <time>2022-07-02T13:16:45Z</time>
      </trkpt>
      <trkpt lat="49.07918" lon="1.77358">
        <ele>156.1</ele>
        <time>2022-07-02T13:16:53Z</time>
      </trkpt>
      <trkpt lat="49.07917" lon="1.77355">
        <ele>156.2</ele>
        <time>2022-07-02T13:16:56Z</time>
      </trkpt>
      <trkpt lat="49.07913" lon="1.77348">
        <ele>156.3</ele>
        <time>2022-07-02T13:17:02Z</time>
      </trkpt>
      <trkpt lat="49.07906" lon="1.7734">
        <ele>156.4</ele>
        <time>2022-07-02T13:17:09Z</time>
      </trkpt>
      <trkpt lat="49.07899" lon="1.77333">
        <ele>156.4</ele>
        <time>2022-07-02T13:17:17Z</time>
      </trkpt>
      <trkpt lat="49.0789" lon="1.77327">
        <ele>156.3</ele>
        <time>2022-07-02T13:17:24Z</time>
      </trkpt>
      <trkpt lat="49.07886" lon="1.7732">
        <ele>156.3</ele>
        <time>2022-07-02T13:17:31Z</time>
      </trkpt>
      <trkpt lat="49.07882" lon="1.77314">
        <ele>156.3</ele>
        <time>2022-07-02T13:17:37Z</time>
      </trkpt>
      <trkpt lat="49.07876" lon="1.77309">
        <ele>156</ele>
        <time>2022-07-02T13:17:42Z</time>
      </trkpt>
      <trkpt lat="49.0787" lon="1.77304">
        <ele>155.7</ele>
        <time>2022-07-02T13:17:48Z</time>
      </trkpt>
      <trkpt lat="49.07863" lon="1.77295">
        <ele>155.5</ele>
        <time>2022-07-02T13:17:55Z</time>
      </trkpt>
      <trkpt lat="49.0786" lon="1.77292">
        <ele>155.4</ele>
        <time>2022-07-02T13:17:57Z</time>
      </trkpt>
      <trkpt lat="49.0785" lon="1.77286">
        <ele>155</ele>
        <time>2022-07-02T13:18:04Z</time>
      </trkpt>
      <trkpt lat="49.07846" lon="1.77278">
        <ele>154.9</ele>
        <time>2022-07-02T13:18:10Z</time>
      </trkpt>
      <trkpt lat="49.07838" lon="1.77272">
        <ele>154.3</ele>
        <time>2022-07-02T13:18:17Z</time>
      </trkpt>
      <trkpt lat="49.07833" lon="1.77268">
        <ele>154</ele>
        <time>2022-07-02T13:18:21Z</time>
      </trkpt>
      <trkpt lat="49.07826" lon="1.77263">
        <ele>153.5</ele>
        <time>2022-07-02T13:18:28Z</time>
      </trkpt>
      <trkpt lat="49.07817" lon="1.77256">
        <ele>152.8</ele>
        <time>2022-07-02T13:18:35Z</time>
      </trkpt>
      <trkpt lat="49.07808" lon="1.77248">
        <ele>152.2</ele>
        <time>2022-07-02T13:18:42Z</time>
      </trkpt>
      <trkpt lat="49.07802" lon="1.77239">
        <ele>151.7</ele>
        <time>2022-07-02T13:18:50Z</time>
      </trkpt>
      <trkpt lat="49.07799" lon="1.77236">
        <ele>151.5</ele>
        <time>2022-07-02T13:18:53Z</time>
      </trkpt>
      <trkpt lat="49.0779" lon="1.77227">
        <ele>150.9</ele>
        <time>2022-07-02T13:19:01Z</time>
      </trkpt>
      <trkpt lat="49.07786" lon="1.77219">
        <ele>150.7</ele>
        <time>2022-07-02T13:19:07Z</time>
      </trkpt>
      <trkpt lat="49.07784" lon="1.77217">
        <ele>150.6</ele>
        <time>2022-07-02T13:19:09Z</time>
      </trkpt>
      <trkpt lat="49.07773" lon="1.77208">
        <ele>150.5</ele>
        <time>2022-07-02T13:19:18Z</time>
      </trkpt>
      <trkpt lat="49.07764" lon="1.77201">
        <ele>150.8</ele>
        <time>2022-07-02T13:19:25Z</time>
      </trkpt>
      <trkpt lat="49.07755" lon="1.77194">
        <ele>151</ele>
        <time>2022-07-02T13:19:33Z</time>
      </trkpt>
      <trkpt lat="49.07755" lon="1.77193">
        <ele>151</ele>
        <time>2022-07-02T13:19:34Z</time>
      </trkpt>
      <trkpt lat="49.07746" lon="1.77184">
        <ele>151.4</ele>
        <time>2022-07-02T13:19:43Z</time>
      </trkpt>
      <trkpt lat="49.0774" lon="1.77177">
        <ele>151.6</ele>
        <time>2022-07-02T13:19:49Z</time>
      </trkpt>
      <trkpt lat="49.07736" lon="1.77173">
        <ele>151.8</ele>
        <time>2022-07-02T13:19:54Z</time>
      </trkpt>
      <trkpt lat="49.07734" lon="1.77168">
        <ele>151.9</ele>
        <time>2022-07-02T13:19:57Z</time>
      </trkpt>
      <trkpt lat="49.07726" lon="1.77157">
        <ele>152.3</ele>
        <time>2022-07-02T13:20:06Z</time>
      </trkpt>
      <trkpt lat="49.07715" lon="1.77147">
        <ele>153</ele>
        <time>2022-07-02T13:20:15Z</time>
      </trkpt>
      <trkpt lat="49.07708" lon="1.77138">
        <ele>153.5</ele>
        <time>2022-07-02T13:20:22Z</time>
      </trkpt>
      <trkpt lat="49.07701" lon="1.77131">
        <ele>153.8</ele>
        <time>2022-07-02T13:20:29Z</time>
      </trkpt>
      <trkpt lat="49.07692" lon="1.77122">
        <ele>154.1</ele>
        <time>2022-07-02T13:20:38Z</time>
      </trkpt>
      <trkpt lat="49.07689" lon="1.77119">
        <ele>154.2</ele>
        <time>2022-07-02T13:20:41Z</time>
      </trkpt>
      <trkpt lat="49.07685" lon="1.77114">
        <ele>154.3</ele>
        <time>2022-07-02T13:20:45Z</time>
      </trkpt>
      <trkpt lat="49.07681" lon="1.7711">
        <ele>154.5</ele>
        <time>2022-07-02T13:20:50Z</time>
      </trkpt>
      <trkpt lat="49.07676" lon="1.77103">
        <ele>154.9</ele>
        <time>2022-07-02T13:20:55Z</time>
      </trkpt>
      <trkpt lat="49.0767" lon="1.77099">
        <ele>155.3</ele>
        <time>2022-07-02T13:21:00Z</time>
      </trkpt>
      <trkpt lat="49.07668" lon="1.77097">
        <ele>155.5</ele>
        <time>2022-07-02T13:21:02Z</time>
      </trkpt>
      <trkpt lat="49.0766" lon="1.77091">
        <ele>156.3</ele>
        <time>2022-07-02T13:21:09Z</time>
      </trkpt>
      <trkpt lat="49.07655" lon="1.77086">
        <ele>156.8</ele>
        <time>2022-07-02T13:21:14Z</time>
      </trkpt>
      <trkpt lat="49.07645" lon="1.77077">
        <ele>157.8</ele>
        <time>2022-07-02T13:21:23Z</time>
      </trkpt>
      <trkpt lat="49.07641" lon="1.77075">
        <ele>158.1</ele>
        <time>2022-07-02T13:21:26Z</time>
      </trkpt>
      <trkpt lat="49.07635" lon="1.77072">
        <ele>158.7</ele>
        <time>2022-07-02T13:21:31Z</time>
      </trkpt>
      <trkpt lat="49.07633" lon="1.77073">
        <ele>158.9</ele>
        <time>2022-07-02T13:21:33Z</time>
      </trkpt>
      <trkpt lat="49.07624" lon="1.77072">
        <ele>159.8</ele>
        <time>2022-07-02T13:21:41Z</time>
      </trkpt>
      <trkpt lat="49.07621" lon="1.77071">
        <ele>160.1</ele>
        <time>2022-07-02T13:21:44Z</time>
      </trkpt>
      <trkpt lat="49.07612" lon="1.77068">
        <ele>160.9</ele>
        <time>2022-07-02T13:21:53Z</time>
      </trkpt>
      <trkpt lat="49.07605" lon="1.77065">
        <ele>161.6</ele>
        <time>2022-07-02T13:21:59Z</time>
      </trkpt>
      <trkpt lat="49.07597" lon="1.77061">
        <ele>162.4</ele>
        <time>2022-07-02T13:22:07Z</time>
      </trkpt>
      <trkpt lat="49.07586" lon="1.77056">
        <ele>163.7</ele>
        <time>2022-07-02T13:22:17Z</time>
      </trkpt>
      <trkpt lat="49.07576" lon="1.77052">
        <ele>164.5</ele>
        <time>2022-07-02T13:22:25Z</time>
      </trkpt>
      <trkpt lat="49.07565" lon="1.77046">
        <ele>165.6</ele>
        <time>2022-07-02T13:22:36Z</time>
      </trkpt>
      <trkpt lat="49.07555" lon="1.77042">
        <ele>166.6</ele>
        <time>2022-07-02T13:22:45Z</time>
      </trkpt>
      <trkpt lat="49.07545" lon="1.77037">
        <ele>167.6</ele>
        <time>2022-07-02T13:22:54Z</time>
      </trkpt>
      <trkpt lat="49.07535" lon="1.77031">
        <ele>168.5</ele>
        <time>2022-07-02T13:23:03Z</time>
      </trkpt>
      <trkpt lat="49.07526" lon="1.77027">
        <ele>169.3</ele>
        <time>2022-07-02T13:23:12Z</time>
      </trkpt>
      <trkpt lat="49.07516" lon="1.7702">
        <ele>170.4</ele>
        <time>2022-07-02T13:23:20Z</time>
      </trkpt>
      <trkpt lat="49.07508" lon="1.77016">
        <ele>171.3</ele>
        <time>2022-07-02T13:23:28Z</time>
      </trkpt>
      <trkpt lat="49.07503" lon="1.77014">
        <ele>171.7</ele>
        <time>2022-07-02T13:23:32Z</time>
      </trkpt>
      <trkpt lat="49.07495" lon="1.7701">
        <ele>172.4</ele>
        <time>2022-07-02T13:23:40Z</time>
      </trkpt>
      <trkpt lat="49.07485" lon="1.77007">
        <ele>173.1</ele>
        <time>2022-07-02T13:23:48Z</time>
      </trkpt>
      <trkpt lat="49.07477" lon="1.77004">
        <ele>173.7</ele>
        <time>2022-07-02T13:23:55Z</time>
      </trkpt>
      <trkpt lat="49.07467" lon="1.77">
        <ele>174.6</ele>
        <time>2022-07-02T13:24:04Z</time>
      </trkpt>
      <trkpt lat="49.07457" lon="1.76996">
        <ele>175.7</ele>
        <time>2022-07-02T13:24:13Z</time>
      </trkpt>
      <trkpt lat="49.07449" lon="1.76992">
        <ele>176.5</ele>
        <time>2022-07-02T13:24:20Z</time>
      </trkpt>
      <trkpt lat="49.07449" lon="1.76991">
        <ele>176.6</ele>
        <time>2022-07-02T13:24:21Z</time>
      </trkpt>
      <trkpt lat="49.07445" lon="1.76987">
        <ele>176.9</ele>
        <time>2022-07-02T13:24:25Z</time>
      </trkpt>
      <trkpt lat="49.07436" lon="1.76989">
        <ele>177.3</ele>
        <time>2022-07-02T13:24:33Z</time>
      </trkpt>
      <trkpt lat="49.0743" lon="1.76994">
        <ele>177.5</ele>
        <time>2022-07-02T13:24:40Z</time>
      </trkpt>
      <trkpt lat="49.0743" lon="1.76996">
        <ele>177.5</ele>
        <time>2022-07-02T13:24:48Z</time>
      </trkpt>
      <trkpt lat="49.0743" lon="1.76996">
        <ele>177.5</ele>
        <time>2022-07-02T13:24:57Z</time>
      </trkpt>
      <trkpt lat="49.0743" lon="1.76995">
        <ele>177.5</ele>
        <time>2022-07-02T13:25:06Z</time>
      </trkpt>
      <trkpt lat="49.0743" lon="1.76996">
        <ele>177.5</ele>
        <time>2022-07-02T13:25:15Z</time>
      </trkpt>
      <trkpt lat="49.07431" lon="1.76997">
        <ele>177.5</ele>
        <time>2022-07-02T13:25:23Z</time>
      </trkpt>
      <trkpt lat="49.07431" lon="1.76998">
        <ele>177.5</ele>
        <time>2022-07-02T13:25:32Z</time>
      </trkpt>
      <trkpt lat="49.07431" lon="1.76999">
        <ele>177.5</ele>
        <time>2022-07-02T13:25:40Z</time>
      </trkpt>
      <trkpt lat="49.07431" lon="1.76999">
        <ele>177.5</ele>
        <time>2022-07-02T13:25:49Z</time>
      </trkpt>
      <trkpt lat="49.07431" lon="1.77">
        <ele>177.5</ele>
        <time>2022-07-02T13:25:59Z</time>
      </trkpt>
      <trkpt lat="49.0743" lon="1.77">
        <ele>177.5</ele>
        <time>2022-07-02T13:26:09Z</time>
      </trkpt>
      <trkpt lat="49.0743" lon="1.77">
        <ele>177.5</ele>
        <time>2022-07-02T13:26:14Z</time>
      </trkpt>
      <trkpt lat="49.07429" lon="1.77">
        <ele>177.5</ele>
        <time>2022-07-02T13:26:23Z</time>
      </trkpt>
      <trkpt lat="49.07429" lon="1.77">
        <ele>177.6</ele>
        <time>2022-07-02T13:26:33Z</time>
      </trkpt>
      <trkpt lat="49.07429" lon="1.77">
        <ele>177.5</ele>
        <time>2022-07-02T13:26:41Z</time>
      </trkpt>
      <trkpt lat="49.07429" lon="1.77">
        <ele>177.6</ele>
        <time>2022-07-02T13:26:48Z</time>
      </trkpt>
      <trkpt lat="49.07429" lon="1.77">
        <ele>177.6</ele>
        <time>2022-07-02T13:27:01Z</time>
      </trkpt>
      <trkpt lat="49.07428" lon="1.77001">
        <ele>177.6</ele>
        <time>2022-07-02T13:27:10Z</time>
      </trkpt>
      <trkpt lat="49.07428" lon="1.77001">
        <ele>177.6</ele>
        <time>2022-07-02T13:27:20Z</time>
      </trkpt>
      <trkpt lat="49.07428" lon="1.77002">
        <ele>177.6</ele>
        <time>2022-07-02T13:27:33Z</time>
      </trkpt>
      <trkpt lat="49.07428" lon="1.77003">
        <ele>177.5</ele>
        <time>2022-07-02T13:27:48Z</time>
      </trkpt>
      <trkpt lat="49.07428" lon="1.77003">
        <ele>177.5</ele>
        <time>2022-07-02T13:28:00Z</time>
      </trkpt>
      <trkpt lat="49.07429" lon="1.77003">
        <ele>177.5</ele>
        <time>2022-07-02T13:28:13Z</time>
      </trkpt>
      <trkpt lat="49.07428" lon="1.77003">
        <ele>177.5</ele>
        <time>2022-07-02T13:28:22Z</time>
      </trkpt>
      <trkpt lat="49.07428" lon="1.77003">
        <ele>177.5</ele>
        <time>2022-07-02T13:28:30Z</time>
      </trkpt>
      <trkpt lat="49.07425" lon="1.77008">
        <ele>177.6</ele>
        <time>2022-07-02T13:28:38Z</time>
      </trkpt>
      <trkpt lat="49.07421" lon="1.77017">
        <ele>177.8</ele>
        <time>2022-07-02T13:28:46Z</time>
      </trkpt>
      <trkpt lat="49.07417" lon="1.77027">
        <ele>178</ele>
        <time>2022-07-02T13:28:55Z</time>
      </trkpt>
      <trkpt lat="49.07413" lon="1.77036">
        <ele>177.9</ele>
        <time>2022-07-02T13:29:02Z</time>
      </trkpt>
      <trkpt lat="49.0741" lon="1.77042">
        <ele>177.9</ele>
        <time>2022-07-02T13:29:07Z</time>
      </trkpt>
      <trkpt lat="49.07408" lon="1.77046">
        <ele>177.9</ele>
        <time>2022-07-02T13:29:10Z</time>
      </trkpt>
      <trkpt lat="49.07399" lon="1.77057">
        <ele>178.3</ele>
        <time>2022-07-02T13:29:19Z</time>
      </trkpt>
      <trkpt lat="49.07393" lon="1.77065">
        <ele>178.5</ele>
        <time>2022-07-02T13:29:26Z</time>
      </trkpt>
      <trkpt lat="49.07389" lon="1.7707">
        <ele>178.5</ele>
        <time>2022-07-02T13:29:30Z</time>
      </trkpt>
      <trkpt lat="49.07385" lon="1.7708">
        <ele>178.2</ele>
        <time>2022-07-02T13:29:37Z</time>
      </trkpt>
      <trkpt lat="49.0738" lon="1.77092">
        <ele>178.3</ele>
        <time>2022-07-02T13:29:45Z</time>
      </trkpt>
      <trkpt lat="49.07369" lon="1.77104">
        <ele>178.7</ele>
        <time>2022-07-02T13:29:55Z</time>
      </trkpt>
      <trkpt lat="49.07363" lon="1.7711">
        <ele>178.9</ele>
        <time>2022-07-02T13:30:00Z</time>
      </trkpt>
      <trkpt lat="49.07358" lon="1.7712">
        <ele>178.8</ele>
        <time>2022-07-02T13:30:08Z</time>
      </trkpt>
      <trkpt lat="49.07354" lon="1.77123">
        <ele>178.8</ele>
        <time>2022-07-02T13:30:11Z</time>
      </trkpt>
      <trkpt lat="49.07346" lon="1.77135">
        <ele>178.7</ele>
        <time>2022-07-02T13:30:21Z</time>
      </trkpt>
      <trkpt lat="49.07338" lon="1.77147">
        <ele>178.6</ele>
        <time>2022-07-02T13:30:30Z</time>
      </trkpt>
      <trkpt lat="49.07331" lon="1.77157">
        <ele>178.3</ele>
        <time>2022-07-02T13:30:38Z</time>
      </trkpt>
      <trkpt lat="49.07324" lon="1.77168">
        <ele>178</ele>
        <time>2022-07-02T13:30:46Z</time>
      </trkpt>
      <trkpt lat="49.07316" lon="1.77179">
        <ele>177.7</ele>
        <time>2022-07-02T13:30:55Z</time>
      </trkpt>
      <trkpt lat="49.07311" lon="1.77188">
        <ele>177.4</ele>
        <time>2022-07-02T13:31:03Z</time>
      </trkpt>
      <trkpt lat="49.07302" lon="1.77202">
        <ele>176.6</ele>
        <time>2022-07-02T13:31:13Z</time>
      </trkpt>
      <trkpt lat="49.07299" lon="1.77209">
        <ele>176.2</ele>
        <time>2022-07-02T13:31:18Z</time>
      </trkpt>
      <trkpt lat="49.07293" lon="1.77215">
        <ele>175.8</ele>
        <time>2022-07-02T13:31:28Z</time>
      </trkpt>
      <trkpt lat="49.07283" lon="1.77228">
        <ele>175</ele>
        <time>2022-07-02T13:31:35Z</time>
      </trkpt>
      <trkpt lat="49.07281" lon="1.77235">
        <ele>174.7</ele>
        <time>2022-07-02T13:31:42Z</time>
      </trkpt>
      <trkpt lat="49.07277" lon="1.77239">
        <ele>174.4</ele>
        <time>2022-07-02T13:31:49Z</time>
      </trkpt>
      <trkpt lat="49.07275" lon="1.77241">
        <ele>174.3</ele>
        <time>2022-07-02T13:32:04Z</time>
      </trkpt>
      <trkpt lat="49.07276" lon="1.77241">
        <ele>174.3</ele>
        <time>2022-07-02T13:32:10Z</time>
      </trkpt>
      <trkpt lat="49.07277" lon="1.77244">
        <ele>174.2</ele>
        <time>2022-07-02T13:32:16Z</time>
      </trkpt>
      <trkpt lat="49.07282" lon="1.77253">
        <ele>174.3</ele>
        <time>2022-07-02T13:32:23Z</time>
      </trkpt>
      <trkpt lat="49.07288" lon="1.77267">
        <ele>174.5</ele>
        <time>2022-07-02T13:32:32Z</time>
      </trkpt>
      <trkpt lat="49.07294" lon="1.77278">
        <ele>174.6</ele>
        <time>2022-07-02T13:32:39Z</time>
      </trkpt>
      <trkpt lat="49.07301" lon="1.77293">
        <ele>174.4</ele>
        <time>2022-07-02T13:32:48Z</time>
      </trkpt>
      <trkpt lat="49.07303" lon="1.77297">
        <ele>174.3</ele>
        <time>2022-07-02T13:32:51Z</time>
      </trkpt>
      <trkpt lat="49.07304" lon="1.77301">
        <ele>174.2</ele>
        <time>2022-07-02T13:32:54Z</time>
      </trkpt>
      <trkpt lat="49.07308" lon="1.77313">
        <ele>173.7</ele>
        <time>2022-07-02T13:33:02Z</time>
      </trkpt>
      <trkpt lat="49.07309" lon="1.77318">
        <ele>173.5</ele>
        <time>2022-07-02T13:33:05Z</time>
      </trkpt>
      <trkpt lat="49.07311" lon="1.77325">
        <ele>173.3</ele>
        <time>2022-07-02T13:33:09Z</time>
      </trkpt>
      <trkpt lat="49.07312" lon="1.77335">
        <ele>172.9</ele>
        <time>2022-07-02T13:33:15Z</time>
      </trkpt>
      <trkpt lat="49.07312" lon="1.7734">
        <ele>172.8</ele>
        <time>2022-07-02T13:33:18Z</time>
      </trkpt>
      <trkpt lat="49.07317" lon="1.77352">
        <ele>172.3</ele>
        <time>2022-07-02T13:33:26Z</time>
      </trkpt>
      <trkpt lat="49.07322" lon="1.77364">
        <ele>171.9</ele>
        <time>2022-07-02T13:33:34Z</time>
      </trkpt>
      <trkpt lat="49.07324" lon="1.77366">
        <ele>171.8</ele>
        <time>2022-07-02T13:33:36Z</time>
      </trkpt>
      <trkpt lat="49.07328" lon="1.77379">
        <ele>171.4</ele>
        <time>2022-07-02T13:33:43Z</time>
      </trkpt>
      <trkpt lat="49.07331" lon="1.77392">
        <ele>170.9</ele>
        <time>2022-07-02T13:33:50Z</time>
      </trkpt>
      <trkpt lat="49.07332" lon="1.77398">
        <ele>170.7</ele>
        <time>2022-07-02T13:33:54Z</time>
      </trkpt>
      <trkpt lat="49.07337" lon="1.77412">
        <ele>170</ele>
        <time>2022-07-02T13:34:02Z</time>
      </trkpt>
      <trkpt lat="49.07337" lon="1.77413">
        <ele>170</ele>
        <time>2022-07-02T13:34:03Z</time>
      </trkpt>
      <trkpt lat="49.0734" lon="1.7742">
        <ele>169.6</ele>
        <time>2022-07-02T13:34:06Z</time>
      </trkpt>
      <trkpt lat="49.07341" lon="1.77424">
        <ele>169.5</ele>
        <time>2022-07-02T13:34:09Z</time>
      </trkpt>
      <trkpt lat="49.07346" lon="1.77435">
        <ele>168.9</ele>
        <time>2022-07-02T13:34:17Z</time>
      </trkpt>
      <trkpt lat="49.07347" lon="1.77438">
        <ele>168.8</ele>
        <time>2022-07-02T13:34:19Z</time>
      </trkpt>
      <trkpt lat="49.0735" lon="1.77444">
        <ele>168.4</ele>
        <time>2022-07-02T13:34:24Z</time>
      </trkpt>
      <trkpt lat="49.07354" lon="1.77453">
        <ele>167.7</ele>
        <time>2022-07-02T13:34:30Z</time>
      </trkpt>
      <trkpt lat="49.07357" lon="1.77462">
        <ele>166.9</ele>
        <time>2022-07-02T13:34:35Z</time>
      </trkpt>
      <trkpt lat="49.07358" lon="1.77473">
        <ele>166.1</ele>
        <time>2022-07-02T13:34:42Z</time>
      </trkpt>
      <trkpt lat="49.07356" lon="1.77489">
        <ele>165.6</ele>
        <time>2022-07-02T13:34:50Z</time>
      </trkpt>
      <trkpt lat="49.0735" lon="1.77502">
        <ele>165.4</ele>
        <time>2022-07-02T13:34:59Z</time>
      </trkpt>
      <trkpt lat="49.07342" lon="1.77515">
        <ele>165.3</ele>
        <time>2022-07-02T13:35:09Z</time>
      </trkpt>
      <trkpt lat="49.07335" lon="1.77526">
        <ele>165.1</ele>
        <time>2022-07-02T13:35:18Z</time>
      </trkpt>
      <trkpt lat="49.07331" lon="1.77531">
        <ele>164.9</ele>
        <time>2022-07-02T13:35:24Z</time>
      </trkpt>
      <trkpt lat="49.0733" lon="1.77533">
        <ele>164.8</ele>
        <time>2022-07-02T13:35:26Z</time>
      </trkpt>
      <trkpt lat="49.07323" lon="1.7754">
        <ele>164.6</ele>
        <time>2022-07-02T13:35:33Z</time>
      </trkpt>
      <trkpt lat="49.07312" lon="1.7755">
        <ele>164.2</ele>
        <time>2022-07-02T13:35:44Z</time>
      </trkpt>
      <trkpt lat="49.07304" lon="1.7756">
        <ele>163.8</ele>
        <time>2022-07-02T13:35:53Z</time>
      </trkpt>
      <trkpt lat="49.073" lon="1.77567">
        <ele>163.6</ele>
        <time>2022-07-02T13:35:58Z</time>
      </trkpt>
      <trkpt lat="49.07299" lon="1.77573">
        <ele>163.4</ele>
        <time>2022-07-02T13:36:05Z</time>
      </trkpt>
      <trkpt lat="49.07297" lon="1.77574">
        <ele>163.3</ele>
        <time>2022-07-02T13:36:11Z</time>
      </trkpt>
      <trkpt lat="49.07296" lon="1.77575">
        <ele>163.3</ele>
        <time>2022-07-02T13:36:12Z</time>
      </trkpt>
      <trkpt lat="49.07287" lon="1.77584">
        <ele>163</ele>
        <time>2022-07-02T13:36:22Z</time>
      </trkpt>
      <trkpt lat="49.07277" lon="1.77591">
        <ele>162.7</ele>
        <time>2022-07-02T13:36:31Z</time>
      </trkpt>
      <trkpt lat="49.07268" lon="1.776">
        <ele>162.1</ele>
        <time>2022-07-02T13:36:40Z</time>
      </trkpt>
      <trkpt lat="49.07259" lon="1.77606">
        <ele>161.5</ele>
        <time>2022-07-02T13:36:48Z</time>
      </trkpt>
      <trkpt lat="49.07248" lon="1.77614">
        <ele>160.9</ele>
        <time>2022-07-02T13:36:58Z</time>
      </trkpt>
      <trkpt lat="49.07245" lon="1.77617">
        <ele>160.8</ele>
        <time>2022-07-02T13:37:01Z</time>
      </trkpt>
      <trkpt lat="49.07236" lon="1.77625">
        <ele>160.5</ele>
        <time>2022-07-02T13:37:10Z</time>
      </trkpt>
      <trkpt lat="49.07228" lon="1.77631">
        <ele>160.3</ele>
        <time>2022-07-02T13:37:18Z</time>
      </trkpt>
      <trkpt lat="49.07213" lon="1.77641">
        <ele>159.6</ele>
        <time>2022-07-02T13:37:29Z</time>
      </trkpt>
      <trkpt lat="49.07211" lon="1.77642">
        <ele>159.5</ele>
        <time>2022-07-02T13:37:31Z</time>
      </trkpt>
      <trkpt lat="49.07205" lon="1.77648">
        <ele>159.1</ele>
        <time>2022-07-02T13:37:38Z</time>
      </trkpt>
      <trkpt lat="49.07201" lon="1.77651">
        <ele>158.8</ele>
        <time>2022-07-02T13:37:41Z</time>
      </trkpt>
      <trkpt lat="49.07198" lon="1.77666">
        <ele>158.1</ele>
        <time>2022-07-02T13:37:50Z</time>
      </trkpt>
      <trkpt lat="49.07198" lon="1.77669">
        <ele>158.1</ele>
        <time>2022-07-02T13:37:52Z</time>
      </trkpt>
      <trkpt lat="49.07201" lon="1.77678">
        <ele>158.2</ele>
        <time>2022-07-02T13:37:59Z</time>
      </trkpt>
      <trkpt lat="49.07202" lon="1.7768">
        <ele>158.1</ele>
        <time>2022-07-02T13:38:01Z</time>
      </trkpt>
      <trkpt lat="49.07206" lon="1.77692">
        <ele>158</ele>
        <time>2022-07-02T13:38:09Z</time>
      </trkpt>
      <trkpt lat="49.07207" lon="1.77695">
        <ele>158</ele>
        <time>2022-07-02T13:38:11Z</time>
      </trkpt>
      <trkpt lat="49.07211" lon="1.77706">
        <ele>157.7</ele>
        <time>2022-07-02T13:38:20Z</time>
      </trkpt>
      <trkpt lat="49.07212" lon="1.77709">
        <ele>157.7</ele>
        <time>2022-07-02T13:38:22Z</time>
      </trkpt>
      <trkpt lat="49.07216" lon="1.77724">
        <ele>157.2</ele>
        <time>2022-07-02T13:38:31Z</time>
      </trkpt>
      <trkpt lat="49.07219" lon="1.77744">
        <ele>157</ele>
        <time>2022-07-02T13:38:40Z</time>
      </trkpt>
      <trkpt lat="49.0722" lon="1.77752">
        <ele>156.9</ele>
        <time>2022-07-02T13:38:44Z</time>
      </trkpt>
      <trkpt lat="49.07223" lon="1.77758">
        <ele>156.7</ele>
        <time>2022-07-02T13:38:48Z</time>
      </trkpt>
      <trkpt lat="49.07226" lon="1.77775">
        <ele>156.3</ele>
        <time>2022-07-02T13:38:57Z</time>
      </trkpt>
      <trkpt lat="49.07228" lon="1.77786">
        <ele>156.1</ele>
        <time>2022-07-02T13:39:03Z</time>
      </trkpt>
      <trkpt lat="49.07231" lon="1.77794">
        <ele>156</ele>
        <time>2022-07-02T13:39:08Z</time>
      </trkpt>
      <trkpt lat="49.07234" lon="1.77807">
        <ele>155.8</ele>
        <time>2022-07-02T13:39:15Z</time>
      </trkpt>
      <trkpt lat="49.07237" lon="1.77818">
        <ele>155.8</ele>
        <time>2022-07-02T13:39:22Z</time>
      </trkpt>
      <trkpt lat="49.07239" lon="1.77831">
        <ele>155.7</ele>
        <time>2022-07-02T13:39:30Z</time>
      </trkpt>
      <trkpt lat="49.07244" lon="1.7784">
        <ele>155.4</ele>
        <time>2022-07-02T13:39:35Z</time>
      </trkpt>
      <trkpt lat="49.07244" lon="1.77851">
        <ele>154.7</ele>
        <time>2022-07-02T13:39:40Z</time>
      </trkpt>
      <trkpt lat="49.07238" lon="1.77866">
        <ele>153.8</ele>
        <time>2022-07-02T13:39:49Z</time>
      </trkpt>
      <trkpt lat="49.07237" lon="1.77868">
        <ele>153.7</ele>
        <time>2022-07-02T13:39:51Z</time>
      </trkpt>
      <trkpt lat="49.07235" lon="1.77871">
        <ele>153.7</ele>
        <time>2022-07-02T13:39:54Z</time>
      </trkpt>
      <trkpt lat="49.07224" lon="1.7788">
        <ele>153.3</ele>
        <time>2022-07-02T13:40:04Z</time>
      </trkpt>
      <trkpt lat="49.07217" lon="1.77889">
        <ele>153.2</ele>
        <time>2022-07-02T13:40:12Z</time>
      </trkpt>
      <trkpt lat="49.07211" lon="1.77903">
        <ele>153</ele>
        <time>2022-07-02T13:40:20Z</time>
      </trkpt>
      <trkpt lat="49.07205" lon="1.77912">
        <ele>152.6</ele>
        <time>2022-07-02T13:40:30Z</time>
      </trkpt>
      <trkpt lat="49.07198" lon="1.77922">
        <ele>152.1</ele>
        <time>2022-07-02T13:40:38Z</time>
      </trkpt>
      <trkpt lat="49.07191" lon="1.77934">
        <ele>152.1</ele>
        <time>2022-07-02T13:40:47Z</time>
      </trkpt>
      <trkpt lat="49.07184" lon="1.77943">
        <ele>152</ele>
        <time>2022-07-02T13:40:55Z</time>
      </trkpt>
      <trkpt lat="49.07172" lon="1.77953">
        <ele>151.8</ele>
        <time>2022-07-02T13:41:04Z</time>
      </trkpt>
      <trkpt lat="49.0716" lon="1.77963">
        <ele>151.3</ele>
        <time>2022-07-02T13:41:14Z</time>
      </trkpt>
      <trkpt lat="49.07147" lon="1.77979">
        <ele>150.8</ele>
        <time>2022-07-02T13:41:25Z</time>
      </trkpt>
      <trkpt lat="49.07137" lon="1.77989">
        <ele>150.3</ele>
        <time>2022-07-02T13:41:34Z</time>
      </trkpt>
      <trkpt lat="49.07127" lon="1.78001">
        <ele>149.5</ele>
        <time>2022-07-02T13:41:44Z</time>
      </trkpt>
      <trkpt lat="49.07115" lon="1.78013">
        <ele>149.1</ele>
        <time>2022-07-02T13:41:55Z</time>
      </trkpt>
      <trkpt lat="49.07113" lon="1.78015">
        <ele>149</ele>
        <time>2022-07-02T13:42:00Z</time>
      </trkpt>
      <trkpt lat="49.07111" lon="1.78018">
        <ele>149</ele>
        <time>2022-07-02T13:42:03Z</time>
      </trkpt>
      <trkpt lat="49.07106" lon="1.78025">
        <ele>148.8</ele>
        <time>2022-07-02T13:42:08Z</time>
      </trkpt>
      <trkpt lat="49.07099" lon="1.78038">
        <ele>148.2</ele>
        <time>2022-07-02T13:42:17Z</time>
      </trkpt>
      <trkpt lat="49.07092" lon="1.78056">
        <ele>147.3</ele>
        <time>2022-07-02T13:42:28Z</time>
      </trkpt>
      <trkpt lat="49.07088" lon="1.78075">
        <ele>146.5</ele>
        <time>2022-07-02T13:42:37Z</time>
      </trkpt>
      <trkpt lat="49.07082" lon="1.7809">
        <ele>146</ele>
        <time>2022-07-02T13:42:46Z</time>
      </trkpt>
      <trkpt lat="49.07076" lon="1.78107">
        <ele>145.8</ele>
        <time>2022-07-02T13:42:56Z</time>
      </trkpt>
      <trkpt lat="49.07071" lon="1.78122">
        <ele>145.1</ele>
        <time>2022-07-02T13:43:05Z</time>
      </trkpt>
      <trkpt lat="49.07064" lon="1.78139">
        <ele>144.3</ele>
        <time>2022-07-02T13:43:15Z</time>
      </trkpt>
      <trkpt lat="49.0706" lon="1.78152">
        <ele>143.3</ele>
        <time>2022-07-02T13:43:23Z</time>
      </trkpt>
      <trkpt lat="49.07052" lon="1.78172">
        <ele>142</ele>
        <time>2022-07-02T13:43:35Z</time>
      </trkpt>
      <trkpt lat="49.07048" lon="1.78186">
        <ele>141.8</ele>
        <time>2022-07-02T13:43:43Z</time>
      </trkpt>
      <trkpt lat="49.07041" lon="1.78203">
        <ele>141.2</ele>
        <time>2022-07-02T13:43:54Z</time>
      </trkpt>
      <trkpt lat="49.07037" lon="1.78216">
        <ele>140.5</ele>
        <time>2022-07-02T13:44:02Z</time>
      </trkpt>
      <trkpt lat="49.07032" lon="1.78231">
        <ele>139.8</ele>
        <time>2022-07-02T13:44:11Z</time>
      </trkpt>
      <trkpt lat="49.07026" lon="1.78247">
        <ele>139</ele>
        <time>2022-07-02T13:44:21Z</time>
      </trkpt>
      <trkpt lat="49.07021" lon="1.78262">
        <ele>138.3</ele>
        <time>2022-07-02T13:44:31Z</time>
      </trkpt>
      <trkpt lat="49.07019" lon="1.78266">
        <ele>138.1</ele>
        <time>2022-07-02T13:44:34Z</time>
      </trkpt>
      <trkpt lat="49.07014" lon="1.7828">
        <ele>137.3</ele>
        <time>2022-07-02T13:44:45Z</time>
      </trkpt>
      <trkpt lat="49.0701" lon="1.78288">
        <ele>136.7</ele>
        <time>2022-07-02T13:44:51Z</time>
      </trkpt>
      <trkpt lat="49.07005" lon="1.78296">
        <ele>136</ele>
        <time>2022-07-02T13:44:57Z</time>
      </trkpt>
      <trkpt lat="49.07003" lon="1.783">
        <ele>135.5</ele>
        <time>2022-07-02T13:45:01Z</time>
      </trkpt>
      <trkpt lat="49.06997" lon="1.78312">
        <ele>134.6</ele>
        <time>2022-07-02T13:45:10Z</time>
      </trkpt>
      <trkpt lat="49.06989" lon="1.78324">
        <ele>133.9</ele>
        <time>2022-07-02T13:45:19Z</time>
      </trkpt>
      <trkpt lat="49.06981" lon="1.78338">
        <ele>133</ele>
        <time>2022-07-02T13:45:30Z</time>
      </trkpt>
      <trkpt lat="49.06974" lon="1.78347">
        <ele>132.1</ele>
        <time>2022-07-02T13:45:38Z</time>
      </trkpt>
      <trkpt lat="49.06967" lon="1.78356">
        <ele>131.2</ele>
        <time>2022-07-02T13:45:47Z</time>
      </trkpt>
      <trkpt lat="49.06958" lon="1.78367">
        <ele>130</ele>
        <time>2022-07-02T13:45:57Z</time>
      </trkpt>
      <trkpt lat="49.06948" lon="1.78379">
        <ele>128.9</ele>
        <time>2022-07-02T13:46:07Z</time>
      </trkpt>
      <trkpt lat="49.06937" lon="1.78389">
        <ele>127.7</ele>
        <time>2022-07-02T13:46:18Z</time>
      </trkpt>
      <trkpt lat="49.06928" lon="1.78398">
        <ele>126.8</ele>
        <time>2022-07-02T13:46:27Z</time>
      </trkpt>
      <trkpt lat="49.06921" lon="1.78407">
        <ele>125.9</ele>
        <time>2022-07-02T13:46:36Z</time>
      </trkpt>
      <trkpt lat="49.0691" lon="1.78413">
        <ele>125.2</ele>
        <time>2022-07-02T13:46:45Z</time>
      </trkpt>
      <trkpt lat="49.06901" lon="1.78421">
        <ele>124.9</ele>
        <time>2022-07-02T13:46:54Z</time>
      </trkpt>
      <trkpt lat="49.06892" lon="1.7843">
        <ele>124.5</ele>
        <time>2022-07-02T13:47:03Z</time>
      </trkpt>
      <trkpt lat="49.0688" lon="1.7844">
        <ele>124.1</ele>
        <time>2022-07-02T13:47:15Z</time>
      </trkpt>
      <trkpt lat="49.06871" lon="1.78449">
        <ele>123.9</ele>
        <time>2022-07-02T13:47:25Z</time>
      </trkpt>
      <trkpt lat="49.06865" lon="1.78452">
        <ele>123.8</ele>
        <time>2022-07-02T13:47:31Z</time>
      </trkpt>
      <trkpt lat="49.0686" lon="1.78459">
        <ele>123.5</ele>
        <time>2022-07-02T13:47:39Z</time>
      </trkpt>
      <trkpt lat="49.06854" lon="1.78466">
        <ele>123.2</ele>
        <time>2022-07-02T13:47:47Z</time>
      </trkpt>
      <trkpt lat="49.06845" lon="1.78479">
        <ele>123</ele>
        <time>2022-07-02T13:47:58Z</time>
      </trkpt>
      <trkpt lat="49.06839" lon="1.78491">
        <ele>123</ele>
        <time>2022-07-02T13:48:07Z</time>
      </trkpt>
      <trkpt lat="49.06835" lon="1.78505">
        <ele>123.2</ele>
        <time>2022-07-02T13:48:15Z</time>
      </trkpt>
      <trkpt lat="49.06831" lon="1.78521">
        <ele>123.7</ele>
        <time>2022-07-02T13:48:25Z</time>
      </trkpt>
      <trkpt lat="49.06827" lon="1.78528">
        <ele>123.8</ele>
        <time>2022-07-02T13:48:30Z</time>
      </trkpt>
      <trkpt lat="49.06825" lon="1.78532">
        <ele>124</ele>
        <time>2022-07-02T13:48:34Z</time>
      </trkpt>
      <trkpt lat="49.06822" lon="1.7854">
        <ele>124.5</ele>
        <time>2022-07-02T13:48:41Z</time>
      </trkpt>
      <trkpt lat="49.06816" lon="1.78554">
        <ele>125.2</ele>
        <time>2022-07-02T13:48:51Z</time>
      </trkpt>
      <trkpt lat="49.0681" lon="1.78561">
        <ele>125.9</ele>
        <time>2022-07-02T13:48:59Z</time>
      </trkpt>
      <trkpt lat="49.0681" lon="1.78561">
        <ele>125.9</ele>
        <time>2022-07-02T13:49:00Z</time>
      </trkpt>
      <trkpt lat="49.06801" lon="1.78568">
        <ele>127</ele>
        <time>2022-07-02T13:49:09Z</time>
      </trkpt>
      <trkpt lat="49.068" lon="1.78571">
        <ele>127.4</ele>
        <time>2022-07-02T13:49:13Z</time>
      </trkpt>
      <trkpt lat="49.06797" lon="1.78574">
        <ele>127.9</ele>
        <time>2022-07-02T13:49:17Z</time>
      </trkpt>
      <trkpt lat="49.06792" lon="1.78581">
        <ele>128.7</ele>
        <time>2022-07-02T13:49:24Z</time>
      </trkpt>
      <trkpt lat="49.06785" lon="1.78587">
        <ele>129.3</ele>
        <time>2022-07-02T13:49:32Z</time>
      </trkpt>
      <trkpt lat="49.06784" lon="1.78588">
        <ele>129.3</ele>
        <time>2022-07-02T13:49:33Z</time>
      </trkpt>
      <trkpt lat="49.06777" lon="1.78599">
        <ele>130.2</ele>
        <time>2022-07-02T13:49:43Z</time>
      </trkpt>
      <trkpt lat="49.06769" lon="1.78612">
        <ele>131.4</ele>
        <time>2022-07-02T13:49:53Z</time>
      </trkpt>
      <trkpt lat="49.06762" lon="1.78623">
        <ele>132.2</ele>
        <time>2022-07-02T13:50:02Z</time>
      </trkpt>
      <trkpt lat="49.06754" lon="1.78637">
        <ele>132.9</ele>
        <time>2022-07-02T13:50:13Z</time>
      </trkpt>
      <trkpt lat="49.06751" lon="1.78641">
        <ele>133.2</ele>
        <time>2022-07-02T13:50:16Z</time>
      </trkpt>
      <trkpt lat="49.06741" lon="1.78656">
        <ele>134.3</ele>
        <time>2022-07-02T13:50:28Z</time>
      </trkpt>
      <trkpt lat="49.06734" lon="1.78669">
        <ele>135.1</ele>
        <time>2022-07-02T13:50:38Z</time>
      </trkpt>
      <trkpt lat="49.06727" lon="1.7868">
        <ele>135.6</ele>
        <time>2022-07-02T13:50:47Z</time>
      </trkpt>
      <trkpt lat="49.06719" lon="1.78693">
        <ele>135.8</ele>
        <time>2022-07-02T13:50:57Z</time>
      </trkpt>
      <trkpt lat="49.06711" lon="1.78708">
        <ele>135.9</ele>
        <time>2022-07-02T13:51:08Z</time>
      </trkpt>
      <trkpt lat="49.06703" lon="1.78723">
        <ele>135.7</ele>
        <time>2022-07-02T13:51:18Z</time>
      </trkpt>
      <trkpt lat="49.067" lon="1.78736">
        <ele>135.9</ele>
        <time>2022-07-02T13:51:27Z</time>
      </trkpt>
      <trkpt lat="49.06696" lon="1.78745">
        <ele>135.9</ele>
        <time>2022-07-02T13:51:33Z</time>
      </trkpt>
      <trkpt lat="49.06693" lon="1.78758">
        <ele>136.5</ele>
        <time>2022-07-02T13:51:41Z</time>
      </trkpt>
      <trkpt lat="49.06692" lon="1.78761">
        <ele>136.6</ele>
        <time>2022-07-02T13:51:43Z</time>
      </trkpt>
      <trkpt lat="49.06689" lon="1.78771">
        <ele>137.1</ele>
        <time>2022-07-02T13:51:50Z</time>
      </trkpt>
      <trkpt lat="49.06686" lon="1.78782">
        <ele>137.5</ele>
        <time>2022-07-02T13:51:58Z</time>
      </trkpt>
      <trkpt lat="49.06685" lon="1.78783">
        <ele>137.5</ele>
        <time>2022-07-02T13:51:59Z</time>
      </trkpt>
      <trkpt lat="49.06682" lon="1.78804">
        <ele>138</ele>
        <time>2022-07-02T13:52:11Z</time>
      </trkpt>
      <trkpt lat="49.06679" lon="1.7882">
        <ele>138.4</ele>
        <time>2022-07-02T13:52:21Z</time>
      </trkpt>
      <trkpt lat="49.06676" lon="1.78837">
        <ele>138.7</ele>
        <time>2022-07-02T13:52:31Z</time>
      </trkpt>
      <trkpt lat="49.06675" lon="1.78844">
        <ele>138.7</ele>
        <time>2022-07-02T13:52:35Z</time>
      </trkpt>
      <trkpt lat="49.06673" lon="1.7886">
        <ele>138.6</ele>
        <time>2022-07-02T13:52:44Z</time>
      </trkpt>
      <trkpt lat="49.06671" lon="1.78877">
        <ele>139</ele>
        <time>2022-07-02T13:52:54Z</time>
      </trkpt>
      <trkpt lat="49.06669" lon="1.78898">
        <ele>139.5</ele>
        <time>2022-07-02T13:53:05Z</time>
      </trkpt>
      <trkpt lat="49.06667" lon="1.78914">
        <ele>139.9</ele>
        <time>2022-07-02T13:53:14Z</time>
      </trkpt>
      <trkpt lat="49.06664" lon="1.7893">
        <ele>140.2</ele>
        <time>2022-07-02T13:53:23Z</time>
      </trkpt>
      <trkpt lat="49.06662" lon="1.78947">
        <ele>140.6</ele>
        <time>2022-07-02T13:53:33Z</time>
      </trkpt>
      <trkpt lat="49.06662" lon="1.7895">
        <ele>140.7</ele>
        <time>2022-07-02T13:53:35Z</time>
      </trkpt>
      <trkpt lat="49.0666" lon="1.78971">
        <ele>141.4</ele>
        <time>2022-07-02T13:53:47Z</time>
      </trkpt>
      <trkpt lat="49.0666" lon="1.78977">
        <ele>141.9</ele>
        <time>2022-07-02T13:53:51Z</time>
      </trkpt>
      <trkpt lat="49.06659" lon="1.78994">
        <ele>143</ele>
        <time>2022-07-02T13:54:01Z</time>
      </trkpt>
      <trkpt lat="49.06659" lon="1.79005">
        <ele>143.8</ele>
        <time>2022-07-02T13:54:09Z</time>
      </trkpt>
      <trkpt lat="49.06658" lon="1.7902">
        <ele>144.8</ele>
        <time>2022-07-02T13:54:18Z</time>
      </trkpt>
      <trkpt lat="49.06657" lon="1.79031">
        <ele>145.5</ele>
        <time>2022-07-02T13:54:25Z</time>
      </trkpt>
      <trkpt lat="49.06655" lon="1.79043">
        <ele>146.3</ele>
        <time>2022-07-02T13:54:33Z</time>
      </trkpt>
      <trkpt lat="49.0665" lon="1.79059">
        <ele>146.9</ele>
        <time>2022-07-02T13:54:43Z</time>
      </trkpt>
      <trkpt lat="49.06644" lon="1.7907">
        <ele>146.9</ele>
        <time>2022-07-02T13:54:51Z</time>
      </trkpt>
      <trkpt lat="49.06636" lon="1.79086">
        <ele>146.8</ele>
        <time>2022-07-02T13:55:02Z</time>
      </trkpt>
      <trkpt lat="49.06627" lon="1.79102">
        <ele>146.7</ele>
        <time>2022-07-02T13:55:14Z</time>
      </trkpt>
      <trkpt lat="49.06618" lon="1.7912">
        <ele>146.8</ele>
        <time>2022-07-02T13:55:26Z</time>
      </trkpt>
      <trkpt lat="49.06612" lon="1.79133">
        <ele>146.9</ele>
        <time>2022-07-02T13:55:35Z</time>
      </trkpt>
      <trkpt lat="49.0661" lon="1.79149">
        <ele>147.7</ele>
        <time>2022-07-02T13:55:45Z</time>
      </trkpt>
      <trkpt lat="49.06609" lon="1.79166">
        <ele>148.9</ele>
        <time>2022-07-02T13:55:54Z</time>
      </trkpt>
      <trkpt lat="49.06609" lon="1.79179">
        <ele>149.4</ele>
        <time>2022-07-02T13:56:02Z</time>
      </trkpt>
      <trkpt lat="49.0661" lon="1.79195">
        <ele>150</ele>
        <time>2022-07-02T13:56:11Z</time>
      </trkpt>
      <trkpt lat="49.06612" lon="1.79208">
        <ele>150.5</ele>
        <time>2022-07-02T13:56:19Z</time>
      </trkpt>
      <trkpt lat="49.06613" lon="1.79215">
        <ele>150.8</ele>
        <time>2022-07-02T13:56:23Z</time>
      </trkpt>
      <trkpt lat="49.06617" lon="1.79231">
        <ele>151.6</ele>
        <time>2022-07-02T13:56:32Z</time>
      </trkpt>
      <trkpt lat="49.06617" lon="1.79234">
        <ele>151.7</ele>
        <time>2022-07-02T13:56:34Z</time>
      </trkpt>
      <trkpt lat="49.06614" lon="1.79245">
        <ele>152</ele>
        <time>2022-07-02T13:56:40Z</time>
      </trkpt>
      <trkpt lat="49.06612" lon="1.79254">
        <ele>152.2</ele>
        <time>2022-07-02T13:56:46Z</time>
      </trkpt>
      <trkpt lat="49.06609" lon="1.79261">
        <ele>152.3</ele>
        <time>2022-07-02T13:56:50Z</time>
      </trkpt>
      <trkpt lat="49.06605" lon="1.79277">
        <ele>152.5</ele>
        <time>2022-07-02T13:56:59Z</time>
      </trkpt>
      <trkpt lat="49.066" lon="1.79293">
        <ele>152.2</ele>
        <time>2022-07-02T13:57:08Z</time>
      </trkpt>
      <trkpt lat="49.06599" lon="1.79297">
        <ele>152.1</ele>
        <time>2022-07-02T13:57:10Z</time>
      </trkpt>
      <trkpt lat="49.06596" lon="1.79305">
        <ele>151.9</ele>
        <time>2022-07-02T13:57:15Z</time>
      </trkpt>
      <trkpt lat="49.06595" lon="1.79307">
        <ele>151.9</ele>
        <time>2022-07-02T13:57:17Z</time>
      </trkpt>
      <trkpt lat="49.06592" lon="1.79312">
        <ele>151.9</ele>
        <time>2022-07-02T13:57:21Z</time>
      </trkpt>
      <trkpt lat="49.06588" lon="1.79329">
        <ele>152.2</ele>
        <time>2022-07-02T13:57:30Z</time>
      </trkpt>
      <trkpt lat="49.06583" lon="1.79345">
        <ele>152.8</ele>
        <time>2022-07-02T13:57:40Z</time>
      </trkpt>
      <trkpt lat="49.06578" lon="1.79353">
        <ele>153.4</ele>
        <time>2022-07-02T13:57:46Z</time>
      </trkpt>
      <trkpt lat="49.06576" lon="1.79366">
        <ele>154.5</ele>
        <time>2022-07-02T13:57:53Z</time>
      </trkpt>
      <trkpt lat="49.06574" lon="1.79369">
        <ele>154.8</ele>
        <time>2022-07-02T13:57:55Z</time>
      </trkpt>
      <trkpt lat="49.06568" lon="1.79381">
        <ele>156.1</ele>
        <time>2022-07-02T13:58:04Z</time>
      </trkpt>
      <trkpt lat="49.06562" lon="1.79387">
        <ele>156.8</ele>
        <time>2022-07-02T13:58:12Z</time>
      </trkpt>
      <trkpt lat="49.06559" lon="1.79388">
        <ele>156.9</ele>
        <time>2022-07-02T13:58:15Z</time>
      </trkpt>
      <trkpt lat="49.06555" lon="1.79391">
        <ele>157.1</ele>
        <time>2022-07-02T13:58:18Z</time>
      </trkpt>
      <trkpt lat="49.06542" lon="1.79399">
        <ele>157.3</ele>
        <time>2022-07-02T13:58:28Z</time>
      </trkpt>
      <trkpt lat="49.06533" lon="1.79402">
        <ele>157.2</ele>
        <time>2022-07-02T13:58:36Z</time>
      </trkpt>
      <trkpt lat="49.06523" lon="1.79409">
        <ele>157.6</ele>
        <time>2022-07-02T13:58:45Z</time>
      </trkpt>
      <trkpt lat="49.06513" lon="1.79416">
        <ele>158.5</ele>
        <time>2022-07-02T13:58:54Z</time>
      </trkpt>
      <trkpt lat="49.06512" lon="1.79417">
        <ele>158.6</ele>
        <time>2022-07-02T13:58:56Z</time>
      </trkpt>
      <trkpt lat="49.06502" lon="1.79418">
        <ele>159</ele>
        <time>2022-07-02T13:59:06Z</time>
      </trkpt>
      <trkpt lat="49.06494" lon="1.79419">
        <ele>159.6</ele>
        <time>2022-07-02T13:59:14Z</time>
      </trkpt>
      <trkpt lat="49.06486" lon="1.79419">
        <ele>160.2</ele>
        <time>2022-07-02T13:59:23Z</time>
      </trkpt>
      <trkpt lat="49.0648" lon="1.7942">
        <ele>160.8</ele>
        <time>2022-07-02T13:59:31Z</time>
      </trkpt>
      <trkpt lat="49.06476" lon="1.79419">
        <ele>161</ele>
        <time>2022-07-02T13:59:39Z</time>
      </trkpt>
      <trkpt lat="49.0647" lon="1.79418">
        <ele>161.3</ele>
        <time>2022-07-02T13:59:47Z</time>
      </trkpt>
      <trkpt lat="49.06461" lon="1.79415">
        <ele>161.7</ele>
        <time>2022-07-02T13:59:54Z</time>
      </trkpt>
      <trkpt lat="49.06449" lon="1.79412">
        <ele>162.3</ele>
        <time>2022-07-02T14:00:01Z</time>
      </trkpt>
      <trkpt lat="49.06436" lon="1.79411">
        <ele>163.5</ele>
        <time>2022-07-02T14:00:09Z</time>
      </trkpt>
      <trkpt lat="49.06423" lon="1.79414">
        <ele>165</ele>
        <time>2022-07-02T14:00:18Z</time>
      </trkpt>
      <trkpt lat="49.06415" lon="1.79415">
        <ele>165.9</ele>
        <time>2022-07-02T14:00:27Z</time>
      </trkpt>
      <trkpt lat="49.06403" lon="1.79421">
        <ele>166.7</ele>
        <time>2022-07-02T14:00:37Z</time>
      </trkpt>
      <trkpt lat="49.06395" lon="1.79426">
        <ele>167.2</ele>
        <time>2022-07-02T14:00:45Z</time>
      </trkpt>
      <trkpt lat="49.06388" lon="1.79433">
        <ele>167.6</ele>
        <time>2022-07-02T14:00:53Z</time>
      </trkpt>
      <trkpt lat="49.06378" lon="1.79438">
        <ele>168.1</ele>
        <time>2022-07-02T14:01:01Z</time>
      </trkpt>
      <trkpt lat="49.06373" lon="1.79443">
        <ele>168.5</ele>
        <time>2022-07-02T14:01:08Z</time>
      </trkpt>
      <trkpt lat="49.06367" lon="1.79451">
        <ele>169.3</ele>
        <time>2022-07-02T14:01:16Z</time>
      </trkpt>
      <trkpt lat="49.06366" lon="1.79453">
        <ele>169.5</ele>
        <time>2022-07-02T14:01:18Z</time>
      </trkpt>
      <trkpt lat="49.06362" lon="1.79465">
        <ele>170.5</ele>
        <time>2022-07-02T14:01:27Z</time>
      </trkpt>
      <trkpt lat="49.06359" lon="1.79476">
        <ele>171</ele>
        <time>2022-07-02T14:01:35Z</time>
      </trkpt>
      <trkpt lat="49.06356" lon="1.79481">
        <ele>170.9</ele>
        <time>2022-07-02T14:01:39Z</time>
      </trkpt>
      <trkpt lat="49.06353" lon="1.79497">
        <ele>171.3</ele>
        <time>2022-07-02T14:01:48Z</time>
      </trkpt>
      <trkpt lat="49.0635" lon="1.79506">
        <ele>171.6</ele>
        <time>2022-07-02T14:01:55Z</time>
      </trkpt>
      <trkpt lat="49.06347" lon="1.7951">
        <ele>171.7</ele>
        <time>2022-07-02T14:02:02Z</time>
      </trkpt>
      <trkpt lat="49.06344" lon="1.79513">
        <ele>171.7</ele>
        <time>2022-07-02T14:02:19Z</time>
      </trkpt>
      <trkpt lat="49.06342" lon="1.79516">
        <ele>171.8</ele>
        <time>2022-07-02T14:02:34Z</time>
      </trkpt>
      <trkpt lat="49.0634" lon="1.79517">
        <ele>171.7</ele>
        <time>2022-07-02T14:02:39Z</time>
      </trkpt>
      <trkpt lat="49.0634" lon="1.79523">
        <ele>172.1</ele>
        <time>2022-07-02T14:02:48Z</time>
      </trkpt>
      <trkpt lat="49.06337" lon="1.7953">
        <ele>172.3</ele>
        <time>2022-07-02T14:02:57Z</time>
      </trkpt>
      <trkpt lat="49.06336" lon="1.79541">
        <ele>172.2</ele>
        <time>2022-07-02T14:03:02Z</time>
      </trkpt>
      <trkpt lat="49.06333" lon="1.79553">
        <ele>171.9</ele>
        <time>2022-07-02T14:03:09Z</time>
      </trkpt>
      <trkpt lat="49.0633" lon="1.79566">
        <ele>171.9</ele>
        <time>2022-07-02T14:03:16Z</time>
      </trkpt>
      <trkpt lat="49.06325" lon="1.79579">
        <ele>171.6</ele>
        <time>2022-07-02T14:03:24Z</time>
      </trkpt>
      <trkpt lat="49.06321" lon="1.79591">
        <ele>171.5</ele>
        <time>2022-07-02T14:03:31Z</time>
      </trkpt>
      <trkpt lat="49.06318" lon="1.79606">
        <ele>171.6</ele>
        <time>2022-07-02T14:03:38Z</time>
      </trkpt>
      <trkpt lat="49.06315" lon="1.79621">
        <ele>171.9</ele>
        <time>2022-07-02T14:03:46Z</time>
      </trkpt>
      <trkpt lat="49.06313" lon="1.79636">
        <ele>172.4</ele>
        <time>2022-07-02T14:03:54Z</time>
      </trkpt>
      <trkpt lat="49.06308" lon="1.79648">
        <ele>172.8</ele>
        <time>2022-07-02T14:04:03Z</time>
      </trkpt>
      <trkpt lat="49.06307" lon="1.7965">
        <ele>172.9</ele>
        <time>2022-07-02T14:04:04Z</time>
      </trkpt>
      <trkpt lat="49.063" lon="1.79663">
        <ele>173.5</ele>
        <time>2022-07-02T14:04:13Z</time>
      </trkpt>
      <trkpt lat="49.06292" lon="1.79671">
        <ele>173.8</ele>
        <time>2022-07-02T14:04:21Z</time>
      </trkpt>
      <trkpt lat="49.06287" lon="1.79679">
        <ele>174.2</ele>
        <time>2022-07-02T14:04:28Z</time>
      </trkpt>
      <trkpt lat="49.06279" lon="1.79692">
        <ele>174.9</ele>
        <time>2022-07-02T14:04:37Z</time>
      </trkpt>
      <trkpt lat="49.06275" lon="1.79695">
        <ele>174.9</ele>
        <time>2022-07-02T14:04:44Z</time>
      </trkpt>
      <trkpt lat="49.06273" lon="1.79697">
        <ele>174.8</ele>
        <time>2022-07-02T14:04:47Z</time>
      </trkpt>
      <trkpt lat="49.06265" lon="1.79704">
        <ele>174.8</ele>
        <time>2022-07-02T14:04:54Z</time>
      </trkpt>
      <trkpt lat="49.06259" lon="1.79711">
        <ele>174.8</ele>
        <time>2022-07-02T14:05:01Z</time>
      </trkpt>
      <trkpt lat="49.0625" lon="1.79721">
        <ele>174.9</ele>
        <time>2022-07-02T14:05:07Z</time>
      </trkpt>
      <trkpt lat="49.06247" lon="1.79724">
        <ele>174.8</ele>
        <time>2022-07-02T14:05:09Z</time>
      </trkpt>
      <trkpt lat="49.0624" lon="1.79737">
        <ele>174.5</ele>
        <time>2022-07-02T14:05:17Z</time>
      </trkpt>
      <trkpt lat="49.06236" lon="1.79747">
        <ele>174.4</ele>
        <time>2022-07-02T14:05:22Z</time>
      </trkpt>
      <trkpt lat="49.06232" lon="1.79764">
        <ele>175</ele>
        <time>2022-07-02T14:05:31Z</time>
      </trkpt>
      <trkpt lat="49.06231" lon="1.79765">
        <ele>175</ele>
        <time>2022-07-02T14:05:32Z</time>
      </trkpt>
      <trkpt lat="49.06228" lon="1.7977">
        <ele>175.1</ele>
        <time>2022-07-02T14:05:34Z</time>
      </trkpt>
      <trkpt lat="49.06223" lon="1.79778">
        <ele>175.2</ele>
        <time>2022-07-02T14:05:41Z</time>
      </trkpt>
      <trkpt lat="49.06223" lon="1.79779">
        <ele>175.2</ele>
        <time>2022-07-02T14:05:42Z</time>
      </trkpt>
      <trkpt lat="49.06218" lon="1.79787">
        <ele>175.2</ele>
        <time>2022-07-02T14:05:47Z</time>
      </trkpt>
      <trkpt lat="49.06216" lon="1.79792">
        <ele>175.3</ele>
        <time>2022-07-02T14:05:50Z</time>
      </trkpt>
      <trkpt lat="49.06211" lon="1.798">
        <ele>175.1</ele>
        <time>2022-07-02T14:05:55Z</time>
      </trkpt>
      <trkpt lat="49.06206" lon="1.79809">
        <ele>175</ele>
        <time>2022-07-02T14:06:02Z</time>
      </trkpt>
      <trkpt lat="49.06205" lon="1.79812">
        <ele>175</ele>
        <time>2022-07-02T14:06:04Z</time>
      </trkpt>
      <trkpt lat="49.06203" lon="1.79815">
        <ele>175</ele>
        <time>2022-07-02T14:06:06Z</time>
      </trkpt>
      <trkpt lat="49.06196" lon="1.79823">
        <ele>174.5</ele>
        <time>2022-07-02T14:06:13Z</time>
      </trkpt>
      <trkpt lat="49.06187" lon="1.79836">
        <ele>174.1</ele>
        <time>2022-07-02T14:06:22Z</time>
      </trkpt>
      <trkpt lat="49.06183" lon="1.79847">
        <ele>174.3</ele>
        <time>2022-07-02T14:06:27Z</time>
      </trkpt>
      <trkpt lat="49.06182" lon="1.79848">
        <ele>174.3</ele>
        <time>2022-07-02T14:06:28Z</time>
      </trkpt>
      <trkpt lat="49.06175" lon="1.7986">
        <ele>174.1</ele>
        <time>2022-07-02T14:06:37Z</time>
      </trkpt>
      <trkpt lat="49.06174" lon="1.79862">
        <ele>174.2</ele>
        <time>2022-07-02T14:06:49Z</time>
      </trkpt>
      <trkpt lat="49.06174" lon="1.79864">
        <ele>174.3</ele>
        <time>2022-07-02T14:06:57Z</time>
      </trkpt>
      <trkpt lat="49.06171" lon="1.79869">
        <ele>174.5</ele>
        <time>2022-07-02T14:07:01Z</time>
      </trkpt>
      <trkpt lat="49.06162" lon="1.79882">
        <ele>174.9</ele>
        <time>2022-07-02T14:07:10Z</time>
      </trkpt>
      <trkpt lat="49.06159" lon="1.79885">
        <ele>175</ele>
        <time>2022-07-02T14:07:13Z</time>
      </trkpt>
      <trkpt lat="49.06157" lon="1.79888">
        <ele>175.2</ele>
        <time>2022-07-02T14:07:16Z</time>
      </trkpt>
      <trkpt lat="49.06152" lon="1.79894">
        <ele>175.4</ele>
        <time>2022-07-02T14:07:22Z</time>
      </trkpt>
      <trkpt lat="49.06147" lon="1.799">
        <ele>175.7</ele>
        <time>2022-07-02T14:07:27Z</time>
      </trkpt>
      <trkpt lat="49.06144" lon="1.79903">
        <ele>175.8</ele>
        <time>2022-07-02T14:07:30Z</time>
      </trkpt>
      <trkpt lat="49.06142" lon="1.79906">
        <ele>176</ele>
        <time>2022-07-02T14:07:32Z</time>
      </trkpt>
      <trkpt lat="49.06133" lon="1.79916">
        <ele>176.9</ele>
        <time>2022-07-02T14:07:40Z</time>
      </trkpt>
      <trkpt lat="49.06132" lon="1.79917">
        <ele>177</ele>
        <time>2022-07-02T14:07:41Z</time>
      </trkpt>
      <trkpt lat="49.06126" lon="1.79923">
        <ele>177.6</ele>
        <time>2022-07-02T14:07:48Z</time>
      </trkpt>
      <trkpt lat="49.06125" lon="1.79924">
        <ele>177.7</ele>
        <time>2022-07-02T14:07:49Z</time>
      </trkpt>
      <trkpt lat="49.06118" lon="1.79933">
        <ele>178.3</ele>
        <time>2022-07-02T14:07:57Z</time>
      </trkpt>
      <trkpt lat="49.06116" lon="1.79936">
        <ele>178.5</ele>
        <time>2022-07-02T14:07:59Z</time>
      </trkpt>
      <trkpt lat="49.06109" lon="1.79947">
        <ele>179.2</ele>
        <time>2022-07-02T14:08:07Z</time>
      </trkpt>
      <trkpt lat="49.06103" lon="1.79956">
        <ele>179.7</ele>
        <time>2022-07-02T14:08:15Z</time>
      </trkpt>
      <trkpt lat="49.06096" lon="1.79967">
        <ele>180.2</ele>
        <time>2022-07-02T14:08:22Z</time>
      </trkpt>
      <trkpt lat="49.06093" lon="1.79971">
        <ele>180.3</ele>
        <time>2022-07-02T14:08:25Z</time>
      </trkpt>
      <trkpt lat="49.06086" lon="1.79983">
        <ele>180.8</ele>
        <time>2022-07-02T14:08:34Z</time>
      </trkpt>
      <trkpt lat="49.06081" lon="1.79987">
        <ele>181.1</ele>
        <time>2022-07-02T14:08:39Z</time>
      </trkpt>
      <trkpt lat="49.06072" lon="1.79996">
        <ele>181.3</ele>
        <time>2022-07-02T14:08:47Z</time>
      </trkpt>
      <trkpt lat="49.06071" lon="1.79997">
        <ele>181.4</ele>
        <time>2022-07-02T14:08:48Z</time>
      </trkpt>
      <trkpt lat="49.06062" lon="1.80004">
        <ele>181.4</ele>
        <time>2022-07-02T14:08:56Z</time>
      </trkpt>
      <trkpt lat="49.06055" lon="1.80008">
        <ele>181.3</ele>
        <time>2022-07-02T14:09:03Z</time>
      </trkpt>
      <trkpt lat="49.06048" lon="1.8002">
        <ele>181.7</ele>
        <time>2022-07-02T14:09:11Z</time>
      </trkpt>
      <trkpt lat="49.06047" lon="1.80022">
        <ele>181.8</ele>
        <time>2022-07-02T14:09:13Z</time>
      </trkpt>
      <trkpt lat="49.06039" lon="1.80034">
        <ele>182.1</ele>
        <time>2022-07-02T14:09:22Z</time>
      </trkpt>
      <trkpt lat="49.06038" lon="1.80036">
        <ele>182.1</ele>
        <time>2022-07-02T14:09:23Z</time>
      </trkpt>
      <trkpt lat="49.06033" lon="1.80049">
        <ele>182.1</ele>
        <time>2022-07-02T14:09:31Z</time>
      </trkpt>
      <trkpt lat="49.0603" lon="1.80053">
        <ele>182.1</ele>
        <time>2022-07-02T14:09:34Z</time>
      </trkpt>
      <trkpt lat="49.06024" lon="1.80064">
        <ele>182.2</ele>
        <time>2022-07-02T14:09:41Z</time>
      </trkpt>
      <trkpt lat="49.06017" lon="1.80076">
        <ele>182.4</ele>
        <time>2022-07-02T14:09:48Z</time>
      </trkpt>
      <trkpt lat="49.06008" lon="1.80091">
        <ele>182.2</ele>
        <time>2022-07-02T14:09:58Z</time>
      </trkpt>
      <trkpt lat="49.06002" lon="1.80102">
        <ele>182</ele>
        <time>2022-07-02T14:10:06Z</time>
      </trkpt>
      <trkpt lat="49.05998" lon="1.80116">
        <ele>182</ele>
        <time>2022-07-02T14:10:14Z</time>
      </trkpt>
      <trkpt lat="49.05996" lon="1.80122">
        <ele>182</ele>
        <time>2022-07-02T14:10:17Z</time>
      </trkpt>
      <trkpt lat="49.05994" lon="1.80125">
        <ele>182</ele>
        <time>2022-07-02T14:10:19Z</time>
      </trkpt>
      <trkpt lat="49.05988" lon="1.80134">
        <ele>182</ele>
        <time>2022-07-02T14:10:26Z</time>
      </trkpt>
      <trkpt lat="49.05978" lon="1.80146">
        <ele>181.7</ele>
        <time>2022-07-02T14:10:35Z</time>
      </trkpt>
      <trkpt lat="49.05972" lon="1.80162">
        <ele>181.2</ele>
        <time>2022-07-02T14:10:43Z</time>
      </trkpt>
      <trkpt lat="49.0597" lon="1.80167">
        <ele>181</ele>
        <time>2022-07-02T14:10:46Z</time>
      </trkpt>
      <trkpt lat="49.05964" lon="1.80178">
        <ele>181</ele>
        <time>2022-07-02T14:10:54Z</time>
      </trkpt>
      <trkpt lat="49.05956" lon="1.80184">
        <ele>181</ele>
        <time>2022-07-02T14:11:00Z</time>
      </trkpt>
      <trkpt lat="49.0595" lon="1.80191">
        <ele>181</ele>
        <time>2022-07-02T14:11:06Z</time>
      </trkpt>
      <trkpt lat="49.05941" lon="1.80199">
        <ele>180.7</ele>
        <time>2022-07-02T14:11:15Z</time>
      </trkpt>
      <trkpt lat="49.05933" lon="1.80202">
        <ele>180.6</ele>
        <time>2022-07-02T14:11:23Z</time>
      </trkpt>
      <trkpt lat="49.0593" lon="1.802">
        <ele>180.7</ele>
        <time>2022-07-02T14:11:36Z</time>
      </trkpt>
      <trkpt lat="49.05929" lon="1.80201">
        <ele>180.6</ele>
        <time>2022-07-02T14:11:46Z</time>
      </trkpt>
      <trkpt lat="49.05928" lon="1.80202">
        <ele>180.6</ele>
        <time>2022-07-02T14:11:51Z</time>
      </trkpt>
      <trkpt lat="49.0593" lon="1.80204">
        <ele>180.5</ele>
        <time>2022-07-02T14:12:02Z</time>
      </trkpt>
      <trkpt lat="49.05931" lon="1.80207">
        <ele>180.3</ele>
        <time>2022-07-02T14:12:13Z</time>
      </trkpt>
      <trkpt lat="49.05931" lon="1.80207">
        <ele>180.3</ele>
        <time>2022-07-02T14:12:26Z</time>
      </trkpt>
      <trkpt lat="49.05931" lon="1.80207">
        <ele>180.3</ele>
        <time>2022-07-02T14:12:40Z</time>
      </trkpt>
      <trkpt lat="49.05931" lon="1.80206">
        <ele>180.3</ele>
        <time>2022-07-02T14:12:50Z</time>
      </trkpt>
      <trkpt lat="49.0593" lon="1.80206">
        <ele>180.4</ele>
        <time>2022-07-02T14:13:01Z</time>
      </trkpt>
      <trkpt lat="49.0593" lon="1.80205">
        <ele>180.4</ele>
        <time>2022-07-02T14:13:11Z</time>
      </trkpt>
      <trkpt lat="49.0593" lon="1.80205">
        <ele>180.4</ele>
        <time>2022-07-02T14:13:16Z</time>
      </trkpt>
      <trkpt lat="49.05929" lon="1.80205">
        <ele>180.4</ele>
        <time>2022-07-02T14:13:25Z</time>
      </trkpt>
      <trkpt lat="49.05928" lon="1.80206">
        <ele>180.4</ele>
        <time>2022-07-02T14:13:37Z</time>
      </trkpt>
      <trkpt lat="49.05928" lon="1.80207">
        <ele>180.4</ele>
        <time>2022-07-02T14:13:48Z</time>
      </trkpt>
      <trkpt lat="49.05927" lon="1.80207">
        <ele>180.4</ele>
        <time>2022-07-02T14:13:58Z</time>
      </trkpt>
      <trkpt lat="49.05927" lon="1.80206">
        <ele>180.4</ele>
        <time>2022-07-02T14:14:11Z</time>
      </trkpt>
      <trkpt lat="49.05927" lon="1.80205">
        <ele>180.5</ele>
        <time>2022-07-02T14:14:21Z</time>
      </trkpt>
      <trkpt lat="49.05927" lon="1.80205">
        <ele>180.5</ele>
        <time>2022-07-02T14:14:32Z</time>
      </trkpt>
      <trkpt lat="49.05927" lon="1.80206">
        <ele>180.4</ele>
        <time>2022-07-02T14:14:41Z</time>
      </trkpt>
      <trkpt lat="49.05927" lon="1.80206">
        <ele>180.4</ele>
        <time>2022-07-02T14:14:51Z</time>
      </trkpt>
      <trkpt lat="49.05927" lon="1.80206">
        <ele>180.4</ele>
        <time>2022-07-02T14:15:00Z</time>
      </trkpt>
      <trkpt lat="49.05927" lon="1.80206">
        <ele>180.4</ele>
        <time>2022-07-02T14:15:10Z</time>
      </trkpt>
      <trkpt lat="49.05927" lon="1.80206">
        <ele>180.4</ele>
        <time>2022-07-02T14:15:21Z</time>
      </trkpt>
      <trkpt lat="49.05927" lon="1.80207">
        <ele>180.4</ele>
        <time>2022-07-02T14:15:27Z</time>
      </trkpt>
      <trkpt lat="49.05927" lon="1.80207">
        <ele>180.4</ele>
        <time>2022-07-02T14:15:41Z</time>
      </trkpt>
      <trkpt lat="49.05927" lon="1.80206">
        <ele>180.4</ele>
        <time>2022-07-02T14:15:50Z</time>
      </trkpt>
      <trkpt lat="49.05927" lon="1.80206">
        <ele>180.4</ele>
        <time>2022-07-02T14:15:58Z</time>
      </trkpt>
      <trkpt lat="49.05926" lon="1.80207">
        <ele>180.4</ele>
        <time>2022-07-02T14:16:07Z</time>
      </trkpt>
      <trkpt lat="49.05926" lon="1.80207">
        <ele>180.4</ele>
        <time>2022-07-02T14:16:18Z</time>
      </trkpt>
      <trkpt lat="49.05926" lon="1.80206">
        <ele>180.4</ele>
        <time>2022-07-02T14:16:31Z</time>
      </trkpt>
      <trkpt lat="49.05926" lon="1.80206">
        <ele>180.4</ele>
        <time>2022-07-02T14:16:45Z</time>
      </trkpt>
      <trkpt lat="49.05926" lon="1.80206">
        <ele>180.4</ele>
        <time>2022-07-02T14:16:56Z</time>
      </trkpt>
      <trkpt lat="49.05926" lon="1.80206">
        <ele>180.4</ele>
        <time>2022-07-02T14:17:02Z</time>
      </trkpt>
      <trkpt lat="49.05926" lon="1.80207">
        <ele>180.4</ele>
        <time>2022-07-02T14:17:11Z</time>
      </trkpt>
      <trkpt lat="49.05926" lon="1.80206">
        <ele>180.4</ele>
        <time>2022-07-02T14:17:25Z</time>
      </trkpt>
      <trkpt lat="49.05926" lon="1.80205">
        <ele>180.5</ele>
        <time>2022-07-02T14:17:36Z</time>
      </trkpt>
      <trkpt lat="49.05926" lon="1.80206">
        <ele>180.4</ele>
        <time>2022-07-02T14:17:50Z</time>
      </trkpt>
      <trkpt lat="49.05926" lon="1.80207">
        <ele>180.4</ele>
        <time>2022-07-02T14:18:04Z</time>
      </trkpt>
      <trkpt lat="49.05926" lon="1.80207">
        <ele>180.4</ele>
        <time>2022-07-02T14:18:20Z</time>
      </trkpt>
      <trkpt lat="49.05926" lon="1.80207">
        <ele>180.4</ele>
        <time>2022-07-02T14:18:32Z</time>
      </trkpt>
      <trkpt lat="49.05927" lon="1.80206">
        <ele>180.4</ele>
        <time>2022-07-02T14:18:45Z</time>
      </trkpt>
      <trkpt lat="49.05926" lon="1.80206">
        <ele>180.4</ele>
        <time>2022-07-02T14:19:00Z</time>
      </trkpt>
      <trkpt lat="49.05926" lon="1.80206">
        <ele>180.4</ele>
        <time>2022-07-02T14:19:15Z</time>
      </trkpt>
      <trkpt lat="49.05925" lon="1.80207">
        <ele>180.4</ele>
        <time>2022-07-02T14:19:27Z</time>
      </trkpt>
      <trkpt lat="49.05924" lon="1.80207">
        <ele>180.4</ele>
        <time>2022-07-02T14:19:42Z</time>
      </trkpt>
      <trkpt lat="49.05925" lon="1.80207">
        <ele>180.4</ele>
        <time>2022-07-02T14:19:49Z</time>
      </trkpt>
      <trkpt lat="49.05925" lon="1.80207">
        <ele>180.4</ele>
        <time>2022-07-02T14:20:05Z</time>
      </trkpt>
      <trkpt lat="49.05926" lon="1.80205">
        <ele>180.5</ele>
        <time>2022-07-02T14:20:19Z</time>
      </trkpt>
      <trkpt lat="49.05926" lon="1.80206">
        <ele>180.4</ele>
        <time>2022-07-02T14:20:31Z</time>
      </trkpt>
      <trkpt lat="49.05926" lon="1.80207">
        <ele>180.4</ele>
        <time>2022-07-02T14:20:45Z</time>
      </trkpt>
      <trkpt lat="49.05926" lon="1.80206">
        <ele>180.4</ele>
        <time>2022-07-02T14:20:57Z</time>
      </trkpt>
      <trkpt lat="49.05925" lon="1.80206">
        <ele>180.4</ele>
        <time>2022-07-02T14:21:08Z</time>
      </trkpt>
      <trkpt lat="49.05926" lon="1.80207">
        <ele>180.4</ele>
        <time>2022-07-02T14:21:18Z</time>
      </trkpt>
      <trkpt lat="49.05926" lon="1.80207">
        <ele>180.4</ele>
        <time>2022-07-02T14:21:29Z</time>
      </trkpt>
      <trkpt lat="49.05927" lon="1.80207">
        <ele>180.4</ele>
        <time>2022-07-02T14:21:42Z</time>
      </trkpt>
      <trkpt lat="49.0593" lon="1.80204">
        <ele>180.5</ele>
        <time>2022-07-02T14:21:58Z</time>
      </trkpt>
      <trkpt lat="49.05932" lon="1.80203">
        <ele>180.5</ele>
        <time>2022-07-02T14:22:08Z</time>
      </trkpt>
      <trkpt lat="49.05933" lon="1.80203">
        <ele>180.5</ele>
        <time>2022-07-02T14:22:22Z</time>
      </trkpt>
      <trkpt lat="49.05933" lon="1.80204">
        <ele>180.4</ele>
        <time>2022-07-02T14:22:35Z</time>
      </trkpt>
      <trkpt lat="49.05933" lon="1.80205">
        <ele>180.4</ele>
        <time>2022-07-02T14:22:47Z</time>
      </trkpt>
      <trkpt lat="49.05934" lon="1.80205">
        <ele>180.4</ele>
        <time>2022-07-02T14:23:01Z</time>
      </trkpt>
      <trkpt lat="49.05934" lon="1.80204">
        <ele>180.4</ele>
        <time>2022-07-02T14:23:11Z</time>
      </trkpt>
      <trkpt lat="49.05934" lon="1.80204">
        <ele>180.4</ele>
        <time>2022-07-02T14:23:29Z</time>
      </trkpt>
      <trkpt lat="49.05934" lon="1.80204">
        <ele>180.5</ele>
        <time>2022-07-02T14:23:41Z</time>
      </trkpt>
      <trkpt lat="49.05935" lon="1.80203">
        <ele>180.5</ele>
        <time>2022-07-02T14:23:54Z</time>
      </trkpt>
      <trkpt lat="49.05935" lon="1.80203">
        <ele>180.5</ele>
        <time>2022-07-02T14:24:09Z</time>
      </trkpt>
      <trkpt lat="49.05935" lon="1.80203">
        <ele>180.5</ele>
        <time>2022-07-02T14:24:26Z</time>
      </trkpt>
      <trkpt lat="49.05935" lon="1.80202">
        <ele>180.6</ele>
        <time>2022-07-02T14:24:46Z</time>
      </trkpt>
      <trkpt lat="49.05935" lon="1.80202">
        <ele>180.6</ele>
        <time>2022-07-02T14:25:00Z</time>
      </trkpt>
      <trkpt lat="49.05935" lon="1.80201">
        <ele>180.6</ele>
        <time>2022-07-02T14:25:18Z</time>
      </trkpt>
      <trkpt lat="49.05935" lon="1.80201">
        <ele>180.6</ele>
        <time>2022-07-02T14:25:32Z</time>
      </trkpt>
      <trkpt lat="49.05935" lon="1.80201">
        <ele>180.6</ele>
        <time>2022-07-02T14:25:49Z</time>
      </trkpt>
      <trkpt lat="49.05935" lon="1.80201">
        <ele>180.6</ele>
        <time>2022-07-02T14:26:08Z</time>
      </trkpt>
      <trkpt lat="49.05935" lon="1.80201">
        <ele>180.6</ele>
        <time>2022-07-02T14:26:23Z</time>
      </trkpt>
      <trkpt lat="49.05936" lon="1.80198">
        <ele>180.8</ele>
        <time>2022-07-02T14:26:41Z</time>
      </trkpt>
      <trkpt lat="49.05937" lon="1.80198">
        <ele>180.8</ele>
        <time>2022-07-02T14:26:56Z</time>
      </trkpt>
      <trkpt lat="49.05937" lon="1.80197">
        <ele>180.8</ele>
        <time>2022-07-02T14:27:16Z</time>
      </trkpt>
      <trkpt lat="49.05936" lon="1.80197">
        <ele>180.8</ele>
        <time>2022-07-02T14:27:35Z</time>
      </trkpt>
      <trkpt lat="49.05936" lon="1.80196">
        <ele>180.9</ele>
        <time>2022-07-02T14:27:52Z</time>
      </trkpt>
      <trkpt lat="49.05937" lon="1.80196">
        <ele>180.9</ele>
        <time>2022-07-02T14:28:12Z</time>
      </trkpt>
      <trkpt lat="49.05937" lon="1.80195">
        <ele>181</ele>
        <time>2022-07-02T14:28:25Z</time>
      </trkpt>
      <trkpt lat="49.05936" lon="1.80195">
        <ele>181</ele>
        <time>2022-07-02T14:28:39Z</time>
      </trkpt>
      <trkpt lat="49.05936" lon="1.80195">
        <ele>181</ele>
        <time>2022-07-02T14:28:55Z</time>
      </trkpt>
      <trkpt lat="49.05936" lon="1.80194">
        <ele>181</ele>
        <time>2022-07-02T14:29:08Z</time>
      </trkpt>
      <trkpt lat="49.05936" lon="1.80195">
        <ele>181</ele>
        <time>2022-07-02T14:29:23Z</time>
      </trkpt>
      <trkpt lat="49.05937" lon="1.80194">
        <ele>181</ele>
        <time>2022-07-02T14:29:38Z</time>
      </trkpt>
      <trkpt lat="49.05936" lon="1.80193">
        <ele>181</ele>
        <time>2022-07-02T14:29:55Z</time>
      </trkpt>
      <trkpt lat="49.05936" lon="1.80195">
        <ele>181</ele>
        <time>2022-07-02T14:30:16Z</time>
      </trkpt>
      <trkpt lat="49.05936" lon="1.80194">
        <ele>181</ele>
        <time>2022-07-02T14:30:29Z</time>
      </trkpt>
      <trkpt lat="49.05936" lon="1.80194">
        <ele>181</ele>
        <time>2022-07-02T14:30:46Z</time>
      </trkpt>
      <trkpt lat="49.05936" lon="1.80194">
        <ele>181</ele>
        <time>2022-07-02T14:31:02Z</time>
      </trkpt>
      <trkpt lat="49.05936" lon="1.80194">
        <ele>181</ele>
        <time>2022-07-02T14:31:17Z</time>
      </trkpt>
      <trkpt lat="49.05936" lon="1.80194">
        <ele>181</ele>
        <time>2022-07-02T14:31:34Z</time>
      </trkpt>
      <trkpt lat="49.05936" lon="1.80195">
        <ele>181</ele>
        <time>2022-07-02T14:31:52Z</time>
      </trkpt>
      <trkpt lat="49.05936" lon="1.80195">
        <ele>181</ele>
        <time>2022-07-02T14:32:07Z</time>
      </trkpt>
      <trkpt lat="49.05936" lon="1.80196">
        <ele>180.9</ele>
        <time>2022-07-02T14:32:29Z</time>
      </trkpt>
      <trkpt lat="49.05936" lon="1.80196">
        <ele>180.9</ele>
        <time>2022-07-02T14:32:49Z</time>
      </trkpt>
      <trkpt lat="49.05937" lon="1.80195">
        <ele>181</ele>
        <time>2022-07-02T14:33:07Z</time>
      </trkpt>
      <trkpt lat="49.05937" lon="1.80195">
        <ele>180.9</ele>
        <time>2022-07-02T14:33:23Z</time>
      </trkpt>
      <trkpt lat="49.05938" lon="1.80194">
        <ele>181</ele>
        <time>2022-07-02T14:33:40Z</time>
      </trkpt>
      <trkpt lat="49.05938" lon="1.80193">
        <ele>181</ele>
        <time>2022-07-02T14:33:58Z</time>
      </trkpt>
      <trkpt lat="49.05938" lon="1.80193">
        <ele>181</ele>
        <time>2022-07-02T14:34:13Z</time>
      </trkpt>
      <trkpt lat="49.05939" lon="1.80194">
        <ele>181</ele>
        <time>2022-07-02T14:34:26Z</time>
      </trkpt>
      <trkpt lat="49.05939" lon="1.80193">
        <ele>181</ele>
        <time>2022-07-02T14:34:40Z</time>
      </trkpt>
      <trkpt lat="49.0594" lon="1.80194">
        <ele>181</ele>
        <time>2022-07-02T14:34:56Z</time>
      </trkpt>
      <trkpt lat="49.0594" lon="1.80195">
        <ele>181</ele>
        <time>2022-07-02T14:35:13Z</time>
      </trkpt>
      <trkpt lat="49.0594" lon="1.80195">
        <ele>180.9</ele>
        <time>2022-07-02T14:35:28Z</time>
      </trkpt>
      <trkpt lat="49.0594" lon="1.80195">
        <ele>181</ele>
        <time>2022-07-02T14:35:44Z</time>
      </trkpt>
      <trkpt lat="49.0594" lon="1.80194">
        <ele>181</ele>
        <time>2022-07-02T14:35:58Z</time>
      </trkpt>
      <trkpt lat="49.05939" lon="1.80195">
        <ele>181</ele>
        <time>2022-07-02T14:36:17Z</time>
      </trkpt>
      <trkpt lat="49.0594" lon="1.80194">
        <ele>181</ele>
        <time>2022-07-02T14:36:33Z</time>
      </trkpt>
      <trkpt lat="49.05939" lon="1.80194">
        <ele>181</ele>
        <time>2022-07-02T14:36:48Z</time>
      </trkpt>
      <trkpt lat="49.05939" lon="1.80194">
        <ele>181</ele>
        <time>2022-07-02T14:37:06Z</time>
      </trkpt>
      <trkpt lat="49.05939" lon="1.80193">
        <ele>181</ele>
        <time>2022-07-02T14:37:25Z</time>
      </trkpt>
      <trkpt lat="49.0594" lon="1.80192">
        <ele>181</ele>
        <time>2022-07-02T14:37:44Z</time>
      </trkpt>
      <trkpt lat="49.0594" lon="1.80193">
        <ele>181</ele>
        <time>2022-07-02T14:37:58Z</time>
      </trkpt>
      <trkpt lat="49.0594" lon="1.80194">
        <ele>181</ele>
        <time>2022-07-02T14:38:16Z</time>
      </trkpt>
      <trkpt lat="49.0594" lon="1.80194">
        <ele>181</ele>
        <time>2022-07-02T14:38:35Z</time>
      </trkpt>
      <trkpt lat="49.0594" lon="1.80194">
        <ele>181</ele>
        <time>2022-07-02T14:38:51Z</time>
      </trkpt>
      <trkpt lat="49.0594" lon="1.80195">
        <ele>180.9</ele>
        <time>2022-07-02T14:39:02Z</time>
      </trkpt>
      <trkpt lat="49.05939" lon="1.80198">
        <ele>180.8</ele>
        <time>2022-07-02T14:39:11Z</time>
      </trkpt>
      <trkpt lat="49.05939" lon="1.80198">
        <ele>180.8</ele>
        <time>2022-07-02T14:39:21Z</time>
      </trkpt>
      <trkpt lat="49.05938" lon="1.80198">
        <ele>180.8</ele>
        <time>2022-07-02T14:39:35Z</time>
      </trkpt>
      <trkpt lat="49.05936" lon="1.80203">
        <ele>180.5</ele>
        <time>2022-07-02T14:39:42Z</time>
      </trkpt>
      <trkpt lat="49.05935" lon="1.80205">
        <ele>180.4</ele>
        <time>2022-07-02T14:39:53Z</time>
      </trkpt>
      <trkpt lat="49.05935" lon="1.80205">
        <ele>180.4</ele>
        <time>2022-07-02T14:40:08Z</time>
      </trkpt>
      <trkpt lat="49.05934" lon="1.80207">
        <ele>180.3</ele>
        <time>2022-07-02T14:40:17Z</time>
      </trkpt>
      <trkpt lat="49.05933" lon="1.80209">
        <ele>180.2</ele>
        <time>2022-07-02T14:40:20Z</time>
      </trkpt>
      <trkpt lat="49.05929" lon="1.80213">
        <ele>180</ele>
        <time>2022-07-02T14:40:27Z</time>
      </trkpt>
      <trkpt lat="49.05929" lon="1.80216">
        <ele>179.9</ele>
        <time>2022-07-02T14:40:34Z</time>
      </trkpt>
      <trkpt lat="49.05925" lon="1.80222">
        <ele>179.7</ele>
        <time>2022-07-02T14:40:39Z</time>
      </trkpt>
      <trkpt lat="49.0592" lon="1.80227">
        <ele>179.5</ele>
        <time>2022-07-02T14:40:46Z</time>
      </trkpt>
      <trkpt lat="49.05916" lon="1.80228">
        <ele>179.6</ele>
        <time>2022-07-02T14:40:53Z</time>
      </trkpt>
      <trkpt lat="49.05912" lon="1.8023">
        <ele>179.5</ele>
        <time>2022-07-02T14:40:59Z</time>
      </trkpt>
      <trkpt lat="49.05906" lon="1.80237">
        <ele>179.2</ele>
        <time>2022-07-02T14:41:06Z</time>
      </trkpt>
      <trkpt lat="49.059" lon="1.80241">
        <ele>179.1</ele>
        <time>2022-07-02T14:41:14Z</time>
      </trkpt>
      <trkpt lat="49.05894" lon="1.80243">
        <ele>179.1</ele>
        <time>2022-07-02T14:41:21Z</time>
      </trkpt>
      <trkpt lat="49.05888" lon="1.80249">
        <ele>179</ele>
        <time>2022-07-02T14:41:29Z</time>
      </trkpt>
      <trkpt lat="49.05884" lon="1.80252">
        <ele>178.9</ele>
        <time>2022-07-02T14:41:34Z</time>
      </trkpt>
      <trkpt lat="49.0588" lon="1.80253">
        <ele>178.8</ele>
        <time>2022-07-02T14:41:40Z</time>
      </trkpt>
      <trkpt lat="49.05874" lon="1.80259">
        <ele>178.5</ele>
        <time>2022-07-02T14:41:47Z</time>
      </trkpt>
      <trkpt lat="49.05868" lon="1.80263">
        <ele>178.4</ele>
        <time>2022-07-02T14:41:54Z</time>
      </trkpt>
      <trkpt lat="49.0586" lon="1.80268">
        <ele>178.3</ele>
        <time>2022-07-02T14:42:01Z</time>
      </trkpt>
      <trkpt lat="49.05854" lon="1.80273">
        <ele>178.2</ele>
        <time>2022-07-02T14:42:08Z</time>
      </trkpt>
      <trkpt lat="49.05848" lon="1.80279">
        <ele>177.9</ele>
        <time>2022-07-02T14:42:15Z</time>
      </trkpt>
      <trkpt lat="49.05839" lon="1.80286">
        <ele>177.7</ele>
        <time>2022-07-02T14:42:24Z</time>
      </trkpt>
      <trkpt lat="49.05836" lon="1.80289">
        <ele>177.6</ele>
        <time>2022-07-02T14:42:29Z</time>
      </trkpt>
      <trkpt lat="49.05831" lon="1.8029">
        <ele>177.5</ele>
        <time>2022-07-02T14:42:37Z</time>
      </trkpt>
      <trkpt lat="49.05823" lon="1.80292">
        <ele>177.5</ele>
        <time>2022-07-02T14:42:44Z</time>
      </trkpt>
      <trkpt lat="49.05817" lon="1.80294">
        <ele>177.4</ele>
        <time>2022-07-02T14:42:50Z</time>
      </trkpt>
      <trkpt lat="49.05811" lon="1.80296">
        <ele>177.3</ele>
        <time>2022-07-02T14:42:56Z</time>
      </trkpt>
      <trkpt lat="49.05808" lon="1.80298">
        <ele>177.3</ele>
        <time>2022-07-02T14:42:59Z</time>
      </trkpt>
      <trkpt lat="49.058" lon="1.80307">
        <ele>176.8</ele>
        <time>2022-07-02T14:43:07Z</time>
      </trkpt>
      <trkpt lat="49.05798" lon="1.80308">
        <ele>176.7</ele>
        <time>2022-07-02T14:43:09Z</time>
      </trkpt>
      <trkpt lat="49.05793" lon="1.80311">
        <ele>176.4</ele>
        <time>2022-07-02T14:43:17Z</time>
      </trkpt>
      <trkpt lat="49.05783" lon="1.80317">
        <ele>175.8</ele>
        <time>2022-07-02T14:43:27Z</time>
      </trkpt>
      <trkpt lat="49.05775" lon="1.80323">
        <ele>175.3</ele>
        <time>2022-07-02T14:43:35Z</time>
      </trkpt>
      <trkpt lat="49.05768" lon="1.80327">
        <ele>174.9</ele>
        <time>2022-07-02T14:43:45Z</time>
      </trkpt>
      <trkpt lat="49.05764" lon="1.80328">
        <ele>174.7</ele>
        <time>2022-07-02T14:43:51Z</time>
      </trkpt>
      <trkpt lat="49.05754" lon="1.80333">
        <ele>174.2</ele>
        <time>2022-07-02T14:43:59Z</time>
      </trkpt>
      <trkpt lat="49.0575" lon="1.80337">
        <ele>174</ele>
        <time>2022-07-02T14:44:07Z</time>
      </trkpt>
      <trkpt lat="49.05745" lon="1.80342">
        <ele>173.9</ele>
        <time>2022-07-02T14:44:14Z</time>
      </trkpt>
      <trkpt lat="49.05737" lon="1.80349">
        <ele>173.8</ele>
        <time>2022-07-02T14:44:22Z</time>
      </trkpt>
      <trkpt lat="49.05732" lon="1.80353">
        <ele>173.5</ele>
        <time>2022-07-02T14:44:29Z</time>
      </trkpt>
      <trkpt lat="49.05726" lon="1.80356">
        <ele>173.3</ele>
        <time>2022-07-02T14:44:36Z</time>
      </trkpt>
      <trkpt lat="49.0572" lon="1.80363">
        <ele>172.9</ele>
        <time>2022-07-02T14:44:43Z</time>
      </trkpt>
      <trkpt lat="49.05715" lon="1.80367">
        <ele>172.6</ele>
        <time>2022-07-02T14:44:49Z</time>
      </trkpt>
      <trkpt lat="49.05709" lon="1.80371">
        <ele>172.3</ele>
        <time>2022-07-02T14:44:57Z</time>
      </trkpt>
      <trkpt lat="49.05706" lon="1.8038">
        <ele>172.1</ele>
        <time>2022-07-02T14:45:05Z</time>
      </trkpt>
      <trkpt lat="49.057" lon="1.80387">
        <ele>172</ele>
        <time>2022-07-02T14:45:11Z</time>
      </trkpt>
      <trkpt lat="49.05695" lon="1.80391">
        <ele>171.9</ele>
        <time>2022-07-02T14:45:18Z</time>
      </trkpt>
      <trkpt lat="49.05695" lon="1.80396">
        <ele>171.8</ele>
        <time>2022-07-02T14:45:24Z</time>
      </trkpt>
      <trkpt lat="49.05686" lon="1.80404">
        <ele>171.2</ele>
        <time>2022-07-02T14:45:32Z</time>
      </trkpt>
      <trkpt lat="49.05683" lon="1.80408">
        <ele>170.9</ele>
        <time>2022-07-02T14:45:36Z</time>
      </trkpt>
      <trkpt lat="49.05682" lon="1.80412">
        <ele>170.7</ele>
        <time>2022-07-02T14:45:42Z</time>
      </trkpt>
      <trkpt lat="49.05678" lon="1.80416">
        <ele>170.4</ele>
        <time>2022-07-02T14:45:49Z</time>
      </trkpt>
      <trkpt lat="49.05671" lon="1.80424">
        <ele>169.6</ele>
        <time>2022-07-02T14:45:57Z</time>
      </trkpt>
      <trkpt lat="49.05666" lon="1.80426">
        <ele>169.3</ele>
        <time>2022-07-02T14:46:02Z</time>
      </trkpt>
      <trkpt lat="49.05658" lon="1.80431">
        <ele>168.6</ele>
        <time>2022-07-02T14:46:09Z</time>
      </trkpt>
      <trkpt lat="49.05651" lon="1.80437">
        <ele>168.2</ele>
        <time>2022-07-02T14:46:16Z</time>
      </trkpt>
      <trkpt lat="49.05642" lon="1.80443">
        <ele>168</ele>
        <time>2022-07-02T14:46:25Z</time>
      </trkpt>
      <trkpt lat="49.05634" lon="1.80449">
        <ele>167.4</ele>
        <time>2022-07-02T14:46:34Z</time>
      </trkpt>
      <trkpt lat="49.05627" lon="1.80456">
        <ele>166.7</ele>
        <time>2022-07-02T14:46:43Z</time>
      </trkpt>
      <trkpt lat="49.0562" lon="1.80459">
        <ele>166.3</ele>
        <time>2022-07-02T14:46:50Z</time>
      </trkpt>
      <trkpt lat="49.05615" lon="1.80463">
        <ele>166.1</ele>
        <time>2022-07-02T14:46:57Z</time>
      </trkpt>
      <trkpt lat="49.0561" lon="1.80467">
        <ele>166</ele>
        <time>2022-07-02T14:47:04Z</time>
      </trkpt>
      <trkpt lat="49.056" lon="1.8047">
        <ele>165.6</ele>
        <time>2022-07-02T14:47:10Z</time>
      </trkpt>
      <trkpt lat="49.05598" lon="1.80472">
        <ele>165.5</ele>
        <time>2022-07-02T14:47:12Z</time>
      </trkpt>
      <trkpt lat="49.0559" lon="1.80477">
        <ele>165.1</ele>
        <time>2022-07-02T14:47:20Z</time>
      </trkpt>
      <trkpt lat="49.05585" lon="1.80482">
        <ele>164.7</ele>
        <time>2022-07-02T14:47:25Z</time>
      </trkpt>
      <trkpt lat="49.05579" lon="1.8049">
        <ele>164.3</ele>
        <time>2022-07-02T14:47:34Z</time>
      </trkpt>
      <trkpt lat="49.05569" lon="1.80497">
        <ele>164.1</ele>
        <time>2022-07-02T14:47:42Z</time>
      </trkpt>
      <trkpt lat="49.05566" lon="1.80499">
        <ele>164</ele>
        <time>2022-07-02T14:47:45Z</time>
      </trkpt>
      <trkpt lat="49.05564" lon="1.80501">
        <ele>164</ele>
        <time>2022-07-02T14:47:47Z</time>
      </trkpt>
      <trkpt lat="49.05557" lon="1.80506">
        <ele>163.8</ele>
        <time>2022-07-02T14:47:54Z</time>
      </trkpt>
      <trkpt lat="49.05555" lon="1.80507">
        <ele>163.7</ele>
        <time>2022-07-02T14:48:00Z</time>
      </trkpt>
      <trkpt lat="49.05552" lon="1.80508">
        <ele>163.6</ele>
        <time>2022-07-02T14:48:05Z</time>
      </trkpt>
      <trkpt lat="49.05538" lon="1.80515">
        <ele>163.2</ele>
        <time>2022-07-02T14:48:13Z</time>
      </trkpt>
      <trkpt lat="49.05531" lon="1.80521">
        <ele>163</ele>
        <time>2022-07-02T14:48:18Z</time>
      </trkpt>
      <trkpt lat="49.05521" lon="1.80525">
        <ele>162.8</ele>
        <time>2022-07-02T14:48:26Z</time>
      </trkpt>
      <trkpt lat="49.05513" lon="1.80528">
        <ele>162.5</ele>
        <time>2022-07-02T14:48:34Z</time>
      </trkpt>
      <trkpt lat="49.05503" lon="1.80534">
        <ele>161.9</ele>
        <time>2022-07-02T14:48:42Z</time>
      </trkpt>
      <trkpt lat="49.05498" lon="1.80536">
        <ele>161.6</ele>
        <time>2022-07-02T14:48:45Z</time>
      </trkpt>
      <trkpt lat="49.05486" lon="1.80541">
        <ele>160.7</ele>
        <time>2022-07-02T14:48:53Z</time>
      </trkpt>
      <trkpt lat="49.05473" lon="1.80542">
        <ele>160</ele>
        <time>2022-07-02T14:48:59Z</time>
      </trkpt>
      <trkpt lat="49.05465" lon="1.8054">
        <ele>159.7</ele>
        <time>2022-07-02T14:49:06Z</time>
      </trkpt>
      <trkpt lat="49.05463" lon="1.80539">
        <ele>159.7</ele>
        <time>2022-07-02T14:49:09Z</time>
      </trkpt>
      <trkpt lat="49.05461" lon="1.80539">
        <ele>159.6</ele>
        <time>2022-07-02T14:49:11Z</time>
      </trkpt>
      <trkpt lat="49.05448" lon="1.8054">
        <ele>159.1</ele>
        <time>2022-07-02T14:49:20Z</time>
      </trkpt>
      <trkpt lat="49.05439" lon="1.80538">
        <ele>158.5</ele>
        <time>2022-07-02T14:49:27Z</time>
      </trkpt>
      <trkpt lat="49.05437" lon="1.80538">
        <ele>158.4</ele>
        <time>2022-07-02T14:49:28Z</time>
      </trkpt>
      <trkpt lat="49.05428" lon="1.80536">
        <ele>157.6</ele>
        <time>2022-07-02T14:49:35Z</time>
      </trkpt>
      <trkpt lat="49.05418" lon="1.80539">
        <ele>156.7</ele>
        <time>2022-07-02T14:49:43Z</time>
      </trkpt>
      <trkpt lat="49.05406" lon="1.80541">
        <ele>155.9</ele>
        <time>2022-07-02T14:49:53Z</time>
      </trkpt>
      <trkpt lat="49.05398" lon="1.80543">
        <ele>155.4</ele>
        <time>2022-07-02T14:50:00Z</time>
      </trkpt>
      <trkpt lat="49.05397" lon="1.80544">
        <ele>155.4</ele>
        <time>2022-07-02T14:50:01Z</time>
      </trkpt>
      <trkpt lat="49.05392" lon="1.80542">
        <ele>155.2</ele>
        <time>2022-07-02T14:50:06Z</time>
      </trkpt>
      <trkpt lat="49.05388" lon="1.80537">
        <ele>155</ele>
        <time>2022-07-02T14:50:11Z</time>
      </trkpt>
      <trkpt lat="49.05385" lon="1.80534">
        <ele>154.9</ele>
        <time>2022-07-02T14:50:14Z</time>
      </trkpt>
      <trkpt lat="49.05376" lon="1.80524">
        <ele>154.5</ele>
        <time>2022-07-02T14:50:24Z</time>
      </trkpt>
      <trkpt lat="49.05375" lon="1.80521">
        <ele>154.5</ele>
        <time>2022-07-02T14:50:26Z</time>
      </trkpt>
      <trkpt lat="49.05371" lon="1.80517">
        <ele>154.4</ele>
        <time>2022-07-02T14:50:30Z</time>
      </trkpt>
      <trkpt lat="49.05363" lon="1.80506">
        <ele>154.1</ele>
        <time>2022-07-02T14:50:39Z</time>
      </trkpt>
      <trkpt lat="49.05361" lon="1.80502">
        <ele>154</ele>
        <time>2022-07-02T14:50:42Z</time>
      </trkpt>
      <trkpt lat="49.05354" lon="1.80493">
        <ele>154</ele>
        <time>2022-07-02T14:50:50Z</time>
      </trkpt>
      <trkpt lat="49.05353" lon="1.80492">
        <ele>154</ele>
        <time>2022-07-02T14:50:51Z</time>
      </trkpt>
      <trkpt lat="49.05352" lon="1.8049">
        <ele>154</ele>
        <time>2022-07-02T14:50:53Z</time>
      </trkpt>
      <trkpt lat="49.05344" lon="1.80478">
        <ele>154</ele>
        <time>2022-07-02T14:51:03Z</time>
      </trkpt>
      <trkpt lat="49.05343" lon="1.80477">
        <ele>154</ele>
        <time>2022-07-02T14:51:04Z</time>
      </trkpt>
      <trkpt lat="49.05336" lon="1.80472">
        <ele>154</ele>
        <time>2022-07-02T14:51:10Z</time>
      </trkpt>
      <trkpt lat="49.05327" lon="1.80462">
        <ele>153.5</ele>
        <time>2022-07-02T14:51:19Z</time>
      </trkpt>
      <trkpt lat="49.05317" lon="1.80455">
        <ele>153.2</ele>
        <time>2022-07-02T14:51:28Z</time>
      </trkpt>
      <trkpt lat="49.05311" lon="1.80449">
        <ele>153</ele>
        <time>2022-07-02T14:51:35Z</time>
      </trkpt>
      <trkpt lat="49.05304" lon="1.80445">
        <ele>153</ele>
        <time>2022-07-02T14:51:41Z</time>
      </trkpt>
      <trkpt lat="49.05299" lon="1.80442">
        <ele>152.8</ele>
        <time>2022-07-02T14:51:46Z</time>
      </trkpt>
      <trkpt lat="49.05291" lon="1.80435">
        <ele>152.5</ele>
        <time>2022-07-02T14:51:54Z</time>
      </trkpt>
      <trkpt lat="49.05283" lon="1.8043">
        <ele>152.2</ele>
        <time>2022-07-02T14:52:02Z</time>
      </trkpt>
      <trkpt lat="49.0528" lon="1.80429">
        <ele>152.1</ele>
        <time>2022-07-02T14:52:05Z</time>
      </trkpt>
      <trkpt lat="49.05272" lon="1.80422">
        <ele>152</ele>
        <time>2022-07-02T14:52:13Z</time>
      </trkpt>
      <trkpt lat="49.05262" lon="1.80414">
        <ele>151.9</ele>
        <time>2022-07-02T14:52:23Z</time>
      </trkpt>
      <trkpt lat="49.05254" lon="1.80409">
        <ele>151.7</ele>
        <time>2022-07-02T14:52:31Z</time>
      </trkpt>
      <trkpt lat="49.05249" lon="1.80406">
        <ele>151.6</ele>
        <time>2022-07-02T14:52:38Z</time>
      </trkpt>
      <trkpt lat="49.05242" lon="1.80401">
        <ele>151.6</ele>
        <time>2022-07-02T14:52:46Z</time>
      </trkpt>
      <trkpt lat="49.05237" lon="1.80398">
        <ele>151.6</ele>
        <time>2022-07-02T14:52:51Z</time>
      </trkpt>
      <trkpt lat="49.05231" lon="1.80396">
        <ele>151.8</ele>
        <time>2022-07-02T14:52:58Z</time>
      </trkpt>
      <trkpt lat="49.05225" lon="1.80397">
        <ele>151.9</ele>
        <time>2022-07-02T14:53:05Z</time>
      </trkpt>
      <trkpt lat="49.0522" lon="1.80397">
        <ele>152</ele>
        <time>2022-07-02T14:53:12Z</time>
      </trkpt>
      <trkpt lat="49.05218" lon="1.80399">
        <ele>152</ele>
        <time>2022-07-02T14:53:14Z</time>
      </trkpt>
      <trkpt lat="49.05213" lon="1.80404">
        <ele>152</ele>
        <time>2022-07-02T14:53:21Z</time>
      </trkpt>
      <trkpt lat="49.05209" lon="1.80409">
        <ele>152</ele>
        <time>2022-07-02T14:53:27Z</time>
      </trkpt>
      <trkpt lat="49.05203" lon="1.80417">
        <ele>152</ele>
        <time>2022-07-02T14:53:36Z</time>
      </trkpt>
      <trkpt lat="49.05195" lon="1.80425">
        <ele>152</ele>
        <time>2022-07-02T14:53:45Z</time>
      </trkpt>
      <trkpt lat="49.05185" lon="1.80435">
        <ele>152</ele>
        <time>2022-07-02T14:53:55Z</time>
      </trkpt>
      <trkpt lat="49.0518" lon="1.80441">
        <ele>152</ele>
        <time>2022-07-02T14:54:01Z</time>
      </trkpt>
      <trkpt lat="49.05174" lon="1.80451">
        <ele>151.9</ele>
        <time>2022-07-02T14:54:10Z</time>
      </trkpt>
      <trkpt lat="49.05168" lon="1.80454">
        <ele>152</ele>
        <time>2022-07-02T14:54:16Z</time>
      </trkpt>
      <trkpt lat="49.05166" lon="1.80456">
        <ele>152</ele>
        <time>2022-07-02T14:54:18Z</time>
      </trkpt>
      <trkpt lat="49.0516" lon="1.80462">
        <ele>152</ele>
        <time>2022-07-02T14:54:23Z</time>
      </trkpt>
      <trkpt lat="49.05151" lon="1.80477">
        <ele>151.9</ele>
        <time>2022-07-02T14:54:32Z</time>
      </trkpt>
      <trkpt lat="49.05145" lon="1.80486">
        <ele>151.9</ele>
        <time>2022-07-02T14:54:39Z</time>
      </trkpt>
      <trkpt lat="49.05138" lon="1.80498">
        <ele>152</ele>
        <time>2022-07-02T14:54:46Z</time>
      </trkpt>
      <trkpt lat="49.05136" lon="1.805">
        <ele>152</ele>
        <time>2022-07-02T14:54:48Z</time>
      </trkpt>
      <trkpt lat="49.05129" lon="1.80512">
        <ele>151.6</ele>
        <time>2022-07-02T14:54:56Z</time>
      </trkpt>
      <trkpt lat="49.0512" lon="1.80522">
        <ele>151.2</ele>
        <time>2022-07-02T14:55:05Z</time>
      </trkpt>
      <trkpt lat="49.05118" lon="1.80525">
        <ele>151.1</ele>
        <time>2022-07-02T14:55:08Z</time>
      </trkpt>
      <trkpt lat="49.05113" lon="1.80535">
        <ele>151</ele>
        <time>2022-07-02T14:55:16Z</time>
      </trkpt>
      <trkpt lat="49.05105" lon="1.80544">
        <ele>151.4</ele>
        <time>2022-07-02T14:55:25Z</time>
      </trkpt>
      <trkpt lat="49.05097" lon="1.80554">
        <ele>152</ele>
        <time>2022-07-02T14:55:33Z</time>
      </trkpt>
      <trkpt lat="49.05096" lon="1.80554">
        <ele>152.1</ele>
        <time>2022-07-02T14:55:34Z</time>
      </trkpt>
      <trkpt lat="49.05089" lon="1.80567">
        <ele>152.2</ele>
        <time>2022-07-02T14:55:43Z</time>
      </trkpt>
      <trkpt lat="49.05085" lon="1.8058">
        <ele>152</ele>
        <time>2022-07-02T14:55:50Z</time>
      </trkpt>
      <trkpt lat="49.05078" lon="1.80592">
        <ele>152.1</ele>
        <time>2022-07-02T14:55:58Z</time>
      </trkpt>
      <trkpt lat="49.05072" lon="1.806">
        <ele>152.2</ele>
        <time>2022-07-02T14:56:04Z</time>
      </trkpt>
      <trkpt lat="49.05067" lon="1.80604">
        <ele>152.4</ele>
        <time>2022-07-02T14:56:08Z</time>
      </trkpt>
      <trkpt lat="49.05059" lon="1.80613">
        <ele>152.7</ele>
        <time>2022-07-02T14:56:16Z</time>
      </trkpt>
      <trkpt lat="49.05052" lon="1.80621">
        <ele>153</ele>
        <time>2022-07-02T14:56:24Z</time>
      </trkpt>
      <trkpt lat="49.05049" lon="1.80626">
        <ele>153.1</ele>
        <time>2022-07-02T14:56:28Z</time>
      </trkpt>
      <trkpt lat="49.05043" lon="1.80631">
        <ele>153.3</ele>
        <time>2022-07-02T14:56:34Z</time>
      </trkpt>
      <trkpt lat="49.05041" lon="1.80635">
        <ele>153.3</ele>
        <time>2022-07-02T14:56:37Z</time>
      </trkpt>
      <trkpt lat="49.05037" lon="1.8064">
        <ele>153.3</ele>
        <time>2022-07-02T14:56:42Z</time>
      </trkpt>
      <trkpt lat="49.05033" lon="1.80642">
        <ele>153.4</ele>
        <time>2022-07-02T14:56:45Z</time>
      </trkpt>
      <trkpt lat="49.05024" lon="1.8065">
        <ele>153.6</ele>
        <time>2022-07-02T14:56:54Z</time>
      </trkpt>
      <trkpt lat="49.05015" lon="1.80658">
        <ele>154</ele>
        <time>2022-07-02T14:57:01Z</time>
      </trkpt>
      <trkpt lat="49.05009" lon="1.80664">
        <ele>154.3</ele>
        <time>2022-07-02T14:57:07Z</time>
      </trkpt>
      <trkpt lat="49.05002" lon="1.80671">
        <ele>154.5</ele>
        <time>2022-07-02T14:57:14Z</time>
      </trkpt>
      <trkpt lat="49.05001" lon="1.80671">
        <ele>154.6</ele>
        <time>2022-07-02T14:57:15Z</time>
      </trkpt>
      <trkpt lat="49.04994" lon="1.80677">
        <ele>154.9</ele>
        <time>2022-07-02T14:57:22Z</time>
      </trkpt>
      <trkpt lat="49.04988" lon="1.80682">
        <ele>155.2</ele>
        <time>2022-07-02T14:57:28Z</time>
      </trkpt>
      <trkpt lat="49.04979" lon="1.80686">
        <ele>155.8</ele>
        <time>2022-07-02T14:57:34Z</time>
      </trkpt>
      <trkpt lat="49.04972" lon="1.80692">
        <ele>156.2</ele>
        <time>2022-07-02T14:57:41Z</time>
      </trkpt>
      <trkpt lat="49.04966" lon="1.80697">
        <ele>155.9</ele>
        <time>2022-07-02T14:57:47Z</time>
      </trkpt>
      <trkpt lat="49.04956" lon="1.80703">
        <ele>155.8</ele>
        <time>2022-07-02T14:57:55Z</time>
      </trkpt>
      <trkpt lat="49.0495" lon="1.80703">
        <ele>156.1</ele>
        <time>2022-07-02T14:57:59Z</time>
      </trkpt>
      <trkpt lat="49.04944" lon="1.80707">
        <ele>156.1</ele>
        <time>2022-07-02T14:58:03Z</time>
      </trkpt>
      <trkpt lat="49.04936" lon="1.80707">
        <ele>156.8</ele>
        <time>2022-07-02T14:58:10Z</time>
      </trkpt>
      <trkpt lat="49.04935" lon="1.80707">
        <ele>157</ele>
        <time>2022-07-02T14:58:11Z</time>
      </trkpt>
      <trkpt lat="49.04931" lon="1.80708">
        <ele>157.2</ele>
        <time>2022-07-02T14:58:15Z</time>
      </trkpt>
      <trkpt lat="49.04926" lon="1.80711">
        <ele>157.5</ele>
        <time>2022-07-02T14:58:19Z</time>
      </trkpt>
      <trkpt lat="49.04919" lon="1.80715">
        <ele>158</ele>
        <time>2022-07-02T14:58:26Z</time>
      </trkpt>
      <trkpt lat="49.04913" lon="1.80721">
        <ele>158.5</ele>
        <time>2022-07-02T14:58:33Z</time>
      </trkpt>
      <trkpt lat="49.04907" lon="1.80721">
        <ele>159.1</ele>
        <time>2022-07-02T14:58:38Z</time>
      </trkpt>
      <trkpt lat="49.04899" lon="1.80724">
        <ele>159.8</ele>
        <time>2022-07-02T14:58:45Z</time>
      </trkpt>
      <trkpt lat="49.04897" lon="1.80726">
        <ele>160.1</ele>
        <time>2022-07-02T14:58:49Z</time>
      </trkpt>
      <trkpt lat="49.04887" lon="1.80735">
        <ele>161.2</ele>
        <time>2022-07-02T14:58:59Z</time>
      </trkpt>
      <trkpt lat="49.04887" lon="1.80736">
        <ele>161.3</ele>
        <time>2022-07-02T14:59:00Z</time>
      </trkpt>
      <trkpt lat="49.04885" lon="1.8074">
        <ele>161.5</ele>
        <time>2022-07-02T14:59:03Z</time>
      </trkpt>
      <trkpt lat="49.04878" lon="1.80747">
        <ele>162.2</ele>
        <time>2022-07-02T14:59:10Z</time>
      </trkpt>
      <trkpt lat="49.04873" lon="1.80754">
        <ele>162.5</ele>
        <time>2022-07-02T14:59:16Z</time>
      </trkpt>
      <trkpt lat="49.04862" lon="1.80763">
        <ele>163.5</ele>
        <time>2022-07-02T14:59:26Z</time>
      </trkpt>
      <trkpt lat="49.04861" lon="1.80764">
        <ele>163.5</ele>
        <time>2022-07-02T14:59:27Z</time>
      </trkpt>
      <trkpt lat="49.04854" lon="1.80775">
        <ele>163.8</ele>
        <time>2022-07-02T14:59:36Z</time>
      </trkpt>
      <trkpt lat="49.04851" lon="1.80784">
        <ele>163.7</ele>
        <time>2022-07-02T14:59:43Z</time>
      </trkpt>
      <trkpt lat="49.0485" lon="1.80791">
        <ele>163.2</ele>
        <time>2022-07-02T14:59:47Z</time>
      </trkpt>
      <trkpt lat="49.04849" lon="1.80802">
        <ele>162.5</ele>
        <time>2022-07-02T14:59:54Z</time>
      </trkpt>
      <trkpt lat="49.04847" lon="1.80807">
        <ele>162.4</ele>
        <time>2022-07-02T14:59:58Z</time>
      </trkpt>
      <trkpt lat="49.04838" lon="1.80818">
        <ele>162.5</ele>
        <time>2022-07-02T15:00:08Z</time>
      </trkpt>
      <trkpt lat="49.04832" lon="1.80827">
        <ele>162.6</ele>
        <time>2022-07-02T15:00:15Z</time>
      </trkpt>
      <trkpt lat="49.04825" lon="1.8084">
        <ele>162.6</ele>
        <time>2022-07-02T15:00:24Z</time>
      </trkpt>
      <trkpt lat="49.04819" lon="1.80849">
        <ele>162.6</ele>
        <time>2022-07-02T15:00:31Z</time>
      </trkpt>
      <trkpt lat="49.0481" lon="1.80862">
        <ele>162.4</ele>
        <time>2022-07-02T15:00:41Z</time>
      </trkpt>
      <trkpt lat="49.04807" lon="1.80865">
        <ele>162.5</ele>
        <time>2022-07-02T15:00:44Z</time>
      </trkpt>
      <trkpt lat="49.04806" lon="1.80867">
        <ele>162.6</ele>
        <time>2022-07-02T15:00:46Z</time>
      </trkpt>
      <trkpt lat="49.04802" lon="1.80874">
        <ele>162.4</ele>
        <time>2022-07-02T15:00:51Z</time>
      </trkpt>
      <trkpt lat="49.04793" lon="1.80887">
        <ele>162.5</ele>
        <time>2022-07-02T15:01:01Z</time>
      </trkpt>
      <trkpt lat="49.0479" lon="1.80892">
        <ele>162.6</ele>
        <time>2022-07-02T15:01:05Z</time>
      </trkpt>
      <trkpt lat="49.04785" lon="1.80903">
        <ele>162.9</ele>
        <time>2022-07-02T15:01:14Z</time>
      </trkpt>
      <trkpt lat="49.04779" lon="1.80914">
        <ele>163</ele>
        <time>2022-07-02T15:01:22Z</time>
      </trkpt>
      <trkpt lat="49.04774" lon="1.80927">
        <ele>163</ele>
        <time>2022-07-02T15:01:31Z</time>
      </trkpt>
      <trkpt lat="49.04773" lon="1.80929">
        <ele>162.9</ele>
        <time>2022-07-02T15:01:33Z</time>
      </trkpt>
      <trkpt lat="49.0477" lon="1.80943">
        <ele>162.7</ele>
        <time>2022-07-02T15:01:42Z</time>
      </trkpt>
      <trkpt lat="49.04762" lon="1.80956">
        <ele>162.2</ele>
        <time>2022-07-02T15:01:50Z</time>
      </trkpt>
      <trkpt lat="49.0476" lon="1.80957">
        <ele>162.2</ele>
        <time>2022-07-02T15:01:51Z</time>
      </trkpt>
      <trkpt lat="49.0475" lon="1.80966">
        <ele>162</ele>
        <time>2022-07-02T15:02:00Z</time>
      </trkpt>
      <trkpt lat="49.04748" lon="1.80967">
        <ele>161.9</ele>
        <time>2022-07-02T15:02:09Z</time>
      </trkpt>
      <trkpt lat="49.04745" lon="1.80966">
        <ele>161.9</ele>
        <time>2022-07-02T15:02:22Z</time>
      </trkpt>
      <trkpt lat="49.04742" lon="1.80966">
        <ele>161.8</ele>
        <time>2022-07-02T15:02:33Z</time>
      </trkpt>
      <trkpt lat="49.04742" lon="1.80967">
        <ele>161.8</ele>
        <time>2022-07-02T15:02:34Z</time>
      </trkpt>
      <trkpt lat="49.04742" lon="1.80969">
        <ele>161.7</ele>
        <time>2022-07-02T15:02:37Z</time>
      </trkpt>
      <trkpt lat="49.0474" lon="1.80971">
        <ele>161.7</ele>
        <time>2022-07-02T15:02:40Z</time>
      </trkpt>
      <trkpt lat="49.04735" lon="1.8098">
        <ele>161.5</ele>
        <time>2022-07-02T15:02:48Z</time>
      </trkpt>
      <trkpt lat="49.04731" lon="1.80993">
        <ele>161.3</ele>
        <time>2022-07-02T15:02:56Z</time>
      </trkpt>
      <trkpt lat="49.0473" lon="1.80996">
        <ele>161.3</ele>
        <time>2022-07-02T15:02:58Z</time>
      </trkpt>
      <trkpt lat="49.04723" lon="1.81006">
        <ele>161</ele>
        <time>2022-07-02T15:03:05Z</time>
      </trkpt>
      <trkpt lat="49.04723" lon="1.81007">
        <ele>161</ele>
        <time>2022-07-02T15:03:06Z</time>
      </trkpt>
      <trkpt lat="49.04721" lon="1.81012">
        <ele>161</ele>
        <time>2022-07-02T15:03:09Z</time>
      </trkpt>
      <trkpt lat="49.04718" lon="1.81017">
        <ele>160.9</ele>
        <time>2022-07-02T15:03:13Z</time>
      </trkpt>
      <trkpt lat="49.04713" lon="1.81028">
        <ele>160.7</ele>
        <time>2022-07-02T15:03:20Z</time>
      </trkpt>
      <trkpt lat="49.04708" lon="1.81043">
        <ele>160.5</ele>
        <time>2022-07-02T15:03:29Z</time>
      </trkpt>
      <trkpt lat="49.04707" lon="1.81046">
        <ele>160.4</ele>
        <time>2022-07-02T15:03:31Z</time>
      </trkpt>
      <trkpt lat="49.04702" lon="1.81052">
        <ele>160.3</ele>
        <time>2022-07-02T15:03:36Z</time>
      </trkpt>
      <trkpt lat="49.04699" lon="1.81057">
        <ele>160.2</ele>
        <time>2022-07-02T15:03:39Z</time>
      </trkpt>
      <trkpt lat="49.04697" lon="1.8106">
        <ele>160.1</ele>
        <time>2022-07-02T15:03:41Z</time>
      </trkpt>
      <trkpt lat="49.04691" lon="1.8107">
        <ele>159.7</ele>
        <time>2022-07-02T15:03:48Z</time>
      </trkpt>
      <trkpt lat="49.04689" lon="1.81081">
        <ele>159.6</ele>
        <time>2022-07-02T15:03:53Z</time>
      </trkpt>
      <trkpt lat="49.04687" lon="1.81091">
        <ele>159.2</ele>
        <time>2022-07-02T15:03:59Z</time>
      </trkpt>
      <trkpt lat="49.04686" lon="1.81106">
        <ele>158.5</ele>
        <time>2022-07-02T15:04:06Z</time>
      </trkpt>
      <trkpt lat="49.04677" lon="1.81121">
        <ele>157.5</ele>
        <time>2022-07-02T15:04:14Z</time>
      </trkpt>
      <trkpt lat="49.04674" lon="1.81132">
        <ele>157.1</ele>
        <time>2022-07-02T15:04:20Z</time>
      </trkpt>
      <trkpt lat="49.04668" lon="1.81147">
        <ele>157</ele>
        <time>2022-07-02T15:04:29Z</time>
      </trkpt>
      <trkpt lat="49.04663" lon="1.81154">
        <ele>156.6</ele>
        <time>2022-07-02T15:04:34Z</time>
      </trkpt>
      <trkpt lat="49.04659" lon="1.8116">
        <ele>156.2</ele>
        <time>2022-07-02T15:04:38Z</time>
      </trkpt>
      <trkpt lat="49.04653" lon="1.81173">
        <ele>155.3</ele>
        <time>2022-07-02T15:04:46Z</time>
      </trkpt>
      <trkpt lat="49.04643" lon="1.81181">
        <ele>154.3</ele>
        <time>2022-07-02T15:04:54Z</time>
      </trkpt>
      <trkpt lat="49.04636" lon="1.81189">
        <ele>153.8</ele>
        <time>2022-07-02T15:05:00Z</time>
      </trkpt>
      <trkpt lat="49.04628" lon="1.81198">
        <ele>153.2</ele>
        <time>2022-07-02T15:05:07Z</time>
      </trkpt>
      <trkpt lat="49.04622" lon="1.81206">
        <ele>152.6</ele>
        <time>2022-07-02T15:05:13Z</time>
      </trkpt>
      <trkpt lat="49.04615" lon="1.81219">
        <ele>152.2</ele>
        <time>2022-07-02T15:05:21Z</time>
      </trkpt>
      <trkpt lat="49.04613" lon="1.81232">
        <ele>151.7</ele>
        <time>2022-07-02T15:05:28Z</time>
      </trkpt>
      <trkpt lat="49.04611" lon="1.81235">
        <ele>151.6</ele>
        <time>2022-07-02T15:05:30Z</time>
      </trkpt>
      <trkpt lat="49.04608" lon="1.81248">
        <ele>151</ele>
        <time>2022-07-02T15:05:39Z</time>
      </trkpt>
      <trkpt lat="49.04608" lon="1.81254">
        <ele>150.6</ele>
        <time>2022-07-02T15:05:46Z</time>
      </trkpt>
      <trkpt lat="49.04609" lon="1.81257">
        <ele>150.4</ele>
        <time>2022-07-02T15:05:51Z</time>
      </trkpt>
      <trkpt lat="49.0461" lon="1.81259">
        <ele>150.3</ele>
        <time>2022-07-02T15:05:57Z</time>
      </trkpt>
      <trkpt lat="49.0461" lon="1.81262">
        <ele>150.2</ele>
        <time>2022-07-02T15:05:59Z</time>
      </trkpt>
      <trkpt lat="49.04614" lon="1.81269">
        <ele>149.7</ele>
        <time>2022-07-02T15:06:07Z</time>
      </trkpt>
      <trkpt lat="49.04616" lon="1.81271">
        <ele>149.6</ele>
        <time>2022-07-02T15:06:12Z</time>
      </trkpt>
      <trkpt lat="49.04618" lon="1.81273">
        <ele>149.6</ele>
        <time>2022-07-02T15:06:19Z</time>
      </trkpt>
      <trkpt lat="49.04619" lon="1.81276">
        <ele>149.4</ele>
        <time>2022-07-02T15:06:26Z</time>
      </trkpt>
      <trkpt lat="49.04622" lon="1.81279">
        <ele>149.4</ele>
        <time>2022-07-02T15:06:32Z</time>
      </trkpt>
      <trkpt lat="49.04623" lon="1.8128">
        <ele>149.3</ele>
        <time>2022-07-02T15:06:42Z</time>
      </trkpt>
      <trkpt lat="49.04623" lon="1.8128">
        <ele>149.3</ele>
        <time>2022-07-02T15:06:43Z</time>
      </trkpt>
      <trkpt lat="49.04624" lon="1.81274">
        <ele>149.8</ele>
        <time>2022-07-02T15:06:52Z</time>
      </trkpt>
      <trkpt lat="49.04624" lon="1.81273">
        <ele>149.8</ele>
        <time>2022-07-02T15:06:57Z</time>
      </trkpt>
      <trkpt lat="49.04625" lon="1.81273">
        <ele>149.8</ele>
        <time>2022-07-02T15:07:07Z</time>
      </trkpt>
      <trkpt lat="49.04625" lon="1.81277">
        <ele>149.6</ele>
        <time>2022-07-02T15:07:12Z</time>
      </trkpt>
      <trkpt lat="49.04624" lon="1.81282">
        <ele>149.3</ele>
        <time>2022-07-02T15:07:17Z</time>
      </trkpt>
      <trkpt lat="49.04624" lon="1.81298">
        <ele>148.4</ele>
        <time>2022-07-02T15:07:27Z</time>
      </trkpt>
      <trkpt lat="49.04623" lon="1.813">
        <ele>148.3</ele>
        <time>2022-07-02T15:07:28Z</time>
      </trkpt>
      <trkpt lat="49.04621" lon="1.81311">
        <ele>147.8</ele>
        <time>2022-07-02T15:07:34Z</time>
      </trkpt>
      <trkpt lat="49.04617" lon="1.81325">
        <ele>147.3</ele>
        <time>2022-07-02T15:07:41Z</time>
      </trkpt>
      <trkpt lat="49.04617" lon="1.81328">
        <ele>147.2</ele>
        <time>2022-07-02T15:07:43Z</time>
      </trkpt>
      <trkpt lat="49.04615" lon="1.81336">
        <ele>146.8</ele>
        <time>2022-07-02T15:07:48Z</time>
      </trkpt>
      <trkpt lat="49.04611" lon="1.81347">
        <ele>146</ele>
        <time>2022-07-02T15:07:56Z</time>
      </trkpt>
      <trkpt lat="49.0461" lon="1.81346">
        <ele>146.1</ele>
        <time>2022-07-02T15:08:01Z</time>
      </trkpt>
      <trkpt lat="49.04606" lon="1.81354">
        <ele>145.5</ele>
        <time>2022-07-02T15:08:07Z</time>
      </trkpt>
      <trkpt lat="49.04604" lon="1.81358">
        <ele>145.2</ele>
        <time>2022-07-02T15:08:11Z</time>
      </trkpt>
      <trkpt lat="49.04603" lon="1.81363">
        <ele>144.9</ele>
        <time>2022-07-02T15:08:14Z</time>
      </trkpt>
      <trkpt lat="49.04601" lon="1.8137">
        <ele>144.7</ele>
        <time>2022-07-02T15:08:21Z</time>
      </trkpt>
      <trkpt lat="49.04599" lon="1.81378">
        <ele>144.4</ele>
        <time>2022-07-02T15:08:26Z</time>
      </trkpt>
      <trkpt lat="49.04596" lon="1.81379">
        <ele>144.4</ele>
        <time>2022-07-02T15:08:32Z</time>
      </trkpt>
      <trkpt lat="49.04595" lon="1.81381">
        <ele>144.3</ele>
        <time>2022-07-02T15:08:34Z</time>
      </trkpt>
      <trkpt lat="49.04594" lon="1.81385">
        <ele>144.2</ele>
        <time>2022-07-02T15:08:36Z</time>
      </trkpt>
      <trkpt lat="49.04592" lon="1.81394">
        <ele>143.6</ele>
        <time>2022-07-02T15:08:42Z</time>
      </trkpt>
      <trkpt lat="49.0459" lon="1.81404">
        <ele>142.9</ele>
        <time>2022-07-02T15:08:48Z</time>
      </trkpt>
      <trkpt lat="49.0459" lon="1.8142">
        <ele>141.7</ele>
        <time>2022-07-02T15:08:57Z</time>
      </trkpt>
      <trkpt lat="49.04591" lon="1.81437">
        <ele>140.6</ele>
        <time>2022-07-02T15:09:05Z</time>
      </trkpt>
      <trkpt lat="49.0459" lon="1.81449">
        <ele>139.7</ele>
        <time>2022-07-02T15:09:11Z</time>
      </trkpt>
      <trkpt lat="49.04588" lon="1.81463">
        <ele>138.7</ele>
        <time>2022-07-02T15:09:18Z</time>
      </trkpt>
      <trkpt lat="49.04587" lon="1.81479">
        <ele>137.5</ele>
        <time>2022-07-02T15:09:26Z</time>
      </trkpt>
      <trkpt lat="49.04587" lon="1.81483">
        <ele>137.3</ele>
        <time>2022-07-02T15:09:28Z</time>
      </trkpt>
      <trkpt lat="49.04586" lon="1.81487">
        <ele>136.9</ele>
        <time>2022-07-02T15:09:36Z</time>
      </trkpt>
      <trkpt lat="49.04585" lon="1.81487">
        <ele>136.9</ele>
        <time>2022-07-02T15:09:44Z</time>
      </trkpt>
      <trkpt lat="49.04586" lon="1.81499">
        <ele>136</ele>
        <time>2022-07-02T15:09:50Z</time>
      </trkpt>
      <trkpt lat="49.04585" lon="1.81504">
        <ele>135.7</ele>
        <time>2022-07-02T15:09:53Z</time>
      </trkpt>
      <trkpt lat="49.04585" lon="1.8152">
        <ele>134.6</ele>
        <time>2022-07-02T15:10:01Z</time>
      </trkpt>
      <trkpt lat="49.04587" lon="1.81539">
        <ele>133.1</ele>
        <time>2022-07-02T15:10:12Z</time>
      </trkpt>
      <trkpt lat="49.0459" lon="1.81551">
        <ele>132.1</ele>
        <time>2022-07-02T15:10:18Z</time>
      </trkpt>
      <trkpt lat="49.04591" lon="1.81554">
        <ele>131.8</ele>
        <time>2022-07-02T15:10:20Z</time>
      </trkpt>
      <trkpt lat="49.04596" lon="1.8157">
        <ele>130.3</ele>
        <time>2022-07-02T15:10:29Z</time>
      </trkpt>
      <trkpt lat="49.04598" lon="1.81583">
        <ele>129</ele>
        <time>2022-07-02T15:10:36Z</time>
      </trkpt>
      <trkpt lat="49.04601" lon="1.81597">
        <ele>127.8</ele>
        <time>2022-07-02T15:10:43Z</time>
      </trkpt>
      <trkpt lat="49.04604" lon="1.81608">
        <ele>126.7</ele>
        <time>2022-07-02T15:10:49Z</time>
      </trkpt>
      <trkpt lat="49.04608" lon="1.81617">
        <ele>126</ele>
        <time>2022-07-02T15:10:55Z</time>
      </trkpt>
      <trkpt lat="49.04612" lon="1.8163">
        <ele>125.3</ele>
        <time>2022-07-02T15:11:02Z</time>
      </trkpt>
      <trkpt lat="49.04614" lon="1.81636">
        <ele>125</ele>
        <time>2022-07-02T15:11:05Z</time>
      </trkpt>
      <trkpt lat="49.04616" lon="1.81643">
        <ele>124.6</ele>
        <time>2022-07-02T15:11:08Z</time>
      </trkpt>
      <trkpt lat="49.04619" lon="1.81652">
        <ele>123.8</ele>
        <time>2022-07-02T15:11:12Z</time>
      </trkpt>
      <trkpt lat="49.04623" lon="1.81671">
        <ele>122.2</ele>
        <time>2022-07-02T15:11:22Z</time>
      </trkpt>
      <trkpt lat="49.04624" lon="1.81688">
        <ele>121</ele>
        <time>2022-07-02T15:11:30Z</time>
      </trkpt>
      <trkpt lat="49.04628" lon="1.81704">
        <ele>119.9</ele>
        <time>2022-07-02T15:11:39Z</time>
      </trkpt>
      <trkpt lat="49.04631" lon="1.81718">
        <ele>119.2</ele>
        <time>2022-07-02T15:11:47Z</time>
      </trkpt>
      <trkpt lat="49.04634" lon="1.81733">
        <ele>118.6</ele>
        <time>2022-07-02T15:11:55Z</time>
      </trkpt>
      <trkpt lat="49.04637" lon="1.8175">
        <ele>118</ele>
        <time>2022-07-02T15:12:04Z</time>
      </trkpt>
      <trkpt lat="49.04637" lon="1.81765">
        <ele>117.5</ele>
        <time>2022-07-02T15:12:12Z</time>
      </trkpt>
      <trkpt lat="49.04638" lon="1.81779">
        <ele>117</ele>
        <time>2022-07-02T15:12:19Z</time>
      </trkpt>
      <trkpt lat="49.04639" lon="1.81791">
        <ele>116.5</ele>
        <time>2022-07-02T15:12:26Z</time>
      </trkpt>
      <trkpt lat="49.04639" lon="1.81801">
        <ele>116.2</ele>
        <time>2022-07-02T15:12:31Z</time>
      </trkpt>
      <trkpt lat="49.04638" lon="1.81816">
        <ele>115.6</ele>
        <time>2022-07-02T15:12:39Z</time>
      </trkpt>
      <trkpt lat="49.04637" lon="1.81831">
        <ele>115.2</ele>
        <time>2022-07-02T15:12:48Z</time>
      </trkpt>
      <trkpt lat="49.04637" lon="1.81834">
        <ele>115</ele>
        <time>2022-07-02T15:12:50Z</time>
      </trkpt>
      <trkpt lat="49.04637" lon="1.8184">
        <ele>114.8</ele>
        <time>2022-07-02T15:12:53Z</time>
      </trkpt>
      <trkpt lat="49.04635" lon="1.81853">
        <ele>114.4</ele>
        <time>2022-07-02T15:13:01Z</time>
      </trkpt>
      <trkpt lat="49.04635" lon="1.81854">
        <ele>114.4</ele>
        <time>2022-07-02T15:13:02Z</time>
      </trkpt>
      <trkpt lat="49.04633" lon="1.81862">
        <ele>114.2</ele>
        <time>2022-07-02T15:13:07Z</time>
      </trkpt>
      <trkpt lat="49.04631" lon="1.8188">
        <ele>114.1</ele>
        <time>2022-07-02T15:13:16Z</time>
      </trkpt>
      <trkpt lat="49.04631" lon="1.81882">
        <ele>114.1</ele>
        <time>2022-07-02T15:13:17Z</time>
      </trkpt>
      <trkpt lat="49.0463" lon="1.8189">
        <ele>114</ele>
        <time>2022-07-02T15:13:22Z</time>
      </trkpt>
      <trkpt lat="49.04629" lon="1.81896">
        <ele>113.8</ele>
        <time>2022-07-02T15:13:25Z</time>
      </trkpt>
      <trkpt lat="49.04627" lon="1.81902">
        <ele>113.5</ele>
        <time>2022-07-02T15:13:29Z</time>
      </trkpt>
      <trkpt lat="49.04623" lon="1.81919">
        <ele>112.9</ele>
        <time>2022-07-02T15:13:38Z</time>
      </trkpt>
      <trkpt lat="49.0462" lon="1.81928">
        <ele>112.6</ele>
        <time>2022-07-02T15:13:44Z</time>
      </trkpt>
      <trkpt lat="49.04617" lon="1.81942">
        <ele>112.1</ele>
        <time>2022-07-02T15:13:52Z</time>
      </trkpt>
      <trkpt lat="49.04614" lon="1.81952">
        <ele>112</ele>
        <time>2022-07-02T15:13:57Z</time>
      </trkpt>
      <trkpt lat="49.04612" lon="1.81963">
        <ele>112</ele>
        <time>2022-07-02T15:14:03Z</time>
      </trkpt>
      <trkpt lat="49.0461" lon="1.81976">
        <ele>111.9</ele>
        <time>2022-07-02T15:14:10Z</time>
      </trkpt>
      <trkpt lat="49.04608" lon="1.81989">
        <ele>111.5</ele>
        <time>2022-07-02T15:14:17Z</time>
      </trkpt>
      <trkpt lat="49.04606" lon="1.82002">
        <ele>111.1</ele>
        <time>2022-07-02T15:14:24Z</time>
      </trkpt>
      <trkpt lat="49.04605" lon="1.82017">
        <ele>110.6</ele>
        <time>2022-07-02T15:14:32Z</time>
      </trkpt>
      <trkpt lat="49.04602" lon="1.82022">
        <ele>110.5</ele>
        <time>2022-07-02T15:14:35Z</time>
      </trkpt>
      <trkpt lat="49.046" lon="1.82033">
        <ele>110.1</ele>
        <time>2022-07-02T15:14:41Z</time>
      </trkpt>
      <trkpt lat="49.046" lon="1.82035">
        <ele>110</ele>
        <time>2022-07-02T15:14:42Z</time>
      </trkpt>
      <trkpt lat="49.04599" lon="1.82044">
        <ele>109.5</ele>
        <time>2022-07-02T15:14:47Z</time>
      </trkpt>
      <trkpt lat="49.04596" lon="1.82055">
        <ele>109.1</ele>
        <time>2022-07-02T15:14:52Z</time>
      </trkpt>
      <trkpt lat="49.04594" lon="1.82072">
        <ele>108.4</ele>
        <time>2022-07-02T15:15:01Z</time>
      </trkpt>
      <trkpt lat="49.04594" lon="1.82074">
        <ele>108.3</ele>
        <time>2022-07-02T15:15:02Z</time>
      </trkpt>
      <trkpt lat="49.04592" lon="1.82082">
        <ele>108.1</ele>
        <time>2022-07-02T15:15:07Z</time>
      </trkpt>
      <trkpt lat="49.04589" lon="1.82088">
        <ele>108.4</ele>
        <time>2022-07-02T15:15:12Z</time>
      </trkpt>
      <trkpt lat="49.04582" lon="1.82088">
        <ele>109.1</ele>
        <time>2022-07-02T15:15:20Z</time>
      </trkpt>
      <trkpt lat="49.04581" lon="1.82087">
        <ele>109.2</ele>
        <time>2022-07-02T15:15:32Z</time>
      </trkpt>
      <trkpt lat="49.04581" lon="1.82087">
        <ele>109.2</ele>
        <time>2022-07-02T15:15:42Z</time>
      </trkpt>
      <trkpt lat="49.04581" lon="1.82087">
        <ele>109.1</ele>
        <time>2022-07-02T15:15:48Z</time>
      </trkpt>
      <trkpt lat="49.04581" lon="1.82087">
        <ele>109.1</ele>
        <time>2022-07-02T15:15:55Z</time>
      </trkpt>
      <trkpt lat="49.04581" lon="1.82087">
        <ele>109.1</ele>
        <time>2022-07-02T15:16:11Z</time>
      </trkpt>
      <trkpt lat="49.04582" lon="1.82087">
        <ele>109.1</ele>
        <time>2022-07-02T15:16:25Z</time>
      </trkpt>
      <trkpt lat="49.04582" lon="1.82087">
        <ele>109.1</ele>
        <time>2022-07-02T15:16:40Z</time>
      </trkpt>
      <trkpt lat="49.04582" lon="1.82087">
        <ele>109.1</ele>
        <time>2022-07-02T15:16:51Z</time>
      </trkpt>
      <trkpt lat="49.04581" lon="1.82086">
        <ele>109.2</ele>
        <time>2022-07-02T15:16:56Z</time>
      </trkpt>
      <trkpt lat="49.04581" lon="1.82087">
        <ele>109.1</ele>
        <time>2022-07-02T15:17:03Z</time>
      </trkpt>
      <trkpt lat="49.04582" lon="1.82086">
        <ele>109.1</ele>
        <time>2022-07-02T15:17:17Z</time>
      </trkpt>
      <trkpt lat="49.04582" lon="1.82086">
        <ele>109.1</ele>
        <time>2022-07-02T15:17:28Z</time>
      </trkpt>
      <trkpt lat="49.04581" lon="1.82086">
        <ele>109.1</ele>
        <time>2022-07-02T15:17:37Z</time>
      </trkpt>
      <trkpt lat="49.04583" lon="1.82088">
        <ele>109</ele>
        <time>2022-07-02T15:17:45Z</time>
      </trkpt>
      <trkpt lat="49.04583" lon="1.82094">
        <ele>109</ele>
        <time>2022-07-02T15:17:51Z</time>
      </trkpt>
      <trkpt lat="49.04585" lon="1.82097">
        <ele>108.8</ele>
        <time>2022-07-02T15:17:57Z</time>
      </trkpt>
      <trkpt lat="49.04587" lon="1.82103">
        <ele>108.5</ele>
        <time>2022-07-02T15:18:01Z</time>
      </trkpt>
      <trkpt lat="49.04589" lon="1.82114">
        <ele>108</ele>
        <time>2022-07-02T15:18:09Z</time>
      </trkpt>
      <trkpt lat="49.04592" lon="1.82119">
        <ele>107.5</ele>
        <time>2022-07-02T15:18:14Z</time>
      </trkpt>
      <trkpt lat="49.04595" lon="1.82131">
        <ele>106.5</ele>
        <time>2022-07-02T15:18:20Z</time>
      </trkpt>
      <trkpt lat="49.04596" lon="1.82145">
        <ele>106</ele>
        <time>2022-07-02T15:18:28Z</time>
      </trkpt>
      <trkpt lat="49.04598" lon="1.82157">
        <ele>105.6</ele>
        <time>2022-07-02T15:18:34Z</time>
      </trkpt>
      <trkpt lat="49.04598" lon="1.82169">
        <ele>105.3</ele>
        <time>2022-07-02T15:18:41Z</time>
      </trkpt>
      <trkpt lat="49.04596" lon="1.82181">
        <ele>104.3</ele>
        <time>2022-07-02T15:18:49Z</time>
      </trkpt>
      <trkpt lat="49.04592" lon="1.82189">
        <ele>103.9</ele>
        <time>2022-07-02T15:18:56Z</time>
      </trkpt>
      <trkpt lat="49.04589" lon="1.82203">
        <ele>103</ele>
        <time>2022-07-02T15:19:04Z</time>
      </trkpt>
      <trkpt lat="49.04586" lon="1.82216">
        <ele>102.4</ele>
        <time>2022-07-02T15:19:13Z</time>
      </trkpt>
      <trkpt lat="49.04585" lon="1.82222">
        <ele>102</ele>
        <time>2022-07-02T15:19:17Z</time>
      </trkpt>
      <trkpt lat="49.04587" lon="1.82234">
        <ele>100.3</ele>
        <time>2022-07-02T15:19:24Z</time>
      </trkpt>
      <trkpt lat="49.04586" lon="1.82243">
        <ele>99</ele>
        <time>2022-07-02T15:19:31Z</time>
      </trkpt>
      <trkpt lat="49.04585" lon="1.82253">
        <ele>97.7</ele>
        <time>2022-07-02T15:19:39Z</time>
      </trkpt>
      <trkpt lat="49.04588" lon="1.82264">
        <ele>96.7</ele>
        <time>2022-07-02T15:19:46Z</time>
      </trkpt>
      <trkpt lat="49.04594" lon="1.82275">
        <ele>95.7</ele>
        <time>2022-07-02T15:19:53Z</time>
      </trkpt>
      <trkpt lat="49.04598" lon="1.82285">
        <ele>94.9</ele>
        <time>2022-07-02T15:20:00Z</time>
      </trkpt>
      <trkpt lat="49.046" lon="1.82292">
        <ele>94.4</ele>
        <time>2022-07-02T15:20:06Z</time>
      </trkpt>
      <trkpt lat="49.04601" lon="1.82296">
        <ele>94.1</ele>
        <time>2022-07-02T15:20:08Z</time>
      </trkpt>
      <trkpt lat="49.04607" lon="1.82305">
        <ele>93.7</ele>
        <time>2022-07-02T15:20:15Z</time>
      </trkpt>
      <trkpt lat="49.0461" lon="1.82315">
        <ele>92.9</ele>
        <time>2022-07-02T15:20:23Z</time>
      </trkpt>
      <trkpt lat="49.04613" lon="1.82327">
        <ele>91.8</ele>
        <time>2022-07-02T15:20:31Z</time>
      </trkpt>
      <trkpt lat="49.04614" lon="1.82338">
        <ele>91.1</ele>
        <time>2022-07-02T15:20:40Z</time>
      </trkpt>
      <trkpt lat="49.04613" lon="1.82342">
        <ele>90.8</ele>
        <time>2022-07-02T15:20:43Z</time>
      </trkpt>
      <trkpt lat="49.04612" lon="1.82348">
        <ele>90.5</ele>
        <time>2022-07-02T15:20:47Z</time>
      </trkpt>
      <trkpt lat="49.04612" lon="1.82353">
        <ele>90.3</ele>
        <time>2022-07-02T15:20:50Z</time>
      </trkpt>
      <trkpt lat="49.04611" lon="1.82368">
        <ele>89.5</ele>
        <time>2022-07-02T15:20:58Z</time>
      </trkpt>
      <trkpt lat="49.04608" lon="1.82381">
        <ele>88.4</ele>
        <time>2022-07-02T15:21:07Z</time>
      </trkpt>
      <trkpt lat="49.04609" lon="1.82385">
        <ele>88.2</ele>
        <time>2022-07-02T15:21:10Z</time>
      </trkpt>
      <trkpt lat="49.04609" lon="1.82404">
        <ele>87.4</ele>
        <time>2022-07-02T15:21:20Z</time>
      </trkpt>
      <trkpt lat="49.04609" lon="1.82414">
        <ele>87</ele>
        <time>2022-07-02T15:21:27Z</time>
      </trkpt>
      <trkpt lat="49.04608" lon="1.82415">
        <ele>87</ele>
        <time>2022-07-02T15:21:28Z</time>
      </trkpt>
      <trkpt lat="49.04606" lon="1.82419">
        <ele>86.7</ele>
        <time>2022-07-02T15:21:31Z</time>
      </trkpt>
      <trkpt lat="49.04604" lon="1.82429">
        <ele>85.9</ele>
        <time>2022-07-02T15:21:38Z</time>
      </trkpt>
      <trkpt lat="49.04604" lon="1.82429">
        <ele>85.9</ele>
        <time>2022-07-02T15:21:39Z</time>
      </trkpt>
      <trkpt lat="49.04603" lon="1.82431">
        <ele>85.7</ele>
        <time>2022-07-02T15:21:42Z</time>
      </trkpt>
      <trkpt lat="49.04602" lon="1.82442">
        <ele>84.9</ele>
        <time>2022-07-02T15:21:48Z</time>
      </trkpt>
      <trkpt lat="49.04602" lon="1.82447">
        <ele>84.6</ele>
        <time>2022-07-02T15:21:52Z</time>
      </trkpt>
      <trkpt lat="49.04604" lon="1.82452">
        <ele>84.4</ele>
        <time>2022-07-02T15:21:54Z</time>
      </trkpt>
      <trkpt lat="49.04603" lon="1.82463">
        <ele>83.8</ele>
        <time>2022-07-02T15:22:00Z</time>
      </trkpt>
      <trkpt lat="49.046" lon="1.8247">
        <ele>83.3</ele>
        <time>2022-07-02T15:22:05Z</time>
      </trkpt>
      <trkpt lat="49.04598" lon="1.82478">
        <ele>82.7</ele>
        <time>2022-07-02T15:22:10Z</time>
      </trkpt>
      <trkpt lat="49.04601" lon="1.82494">
        <ele>81.7</ele>
        <time>2022-07-02T15:22:18Z</time>
      </trkpt>
      <trkpt lat="49.046" lon="1.82509">
        <ele>80.6</ele>
        <time>2022-07-02T15:22:26Z</time>
      </trkpt>
      <trkpt lat="49.04598" lon="1.82513">
        <ele>80.1</ele>
        <time>2022-07-02T15:22:29Z</time>
      </trkpt>
      <trkpt lat="49.04595" lon="1.82522">
        <ele>79.3</ele>
        <time>2022-07-02T15:22:37Z</time>
      </trkpt>
      <trkpt lat="49.04595" lon="1.82523">
        <ele>79.1</ele>
        <time>2022-07-02T15:22:38Z</time>
      </trkpt>
      <trkpt lat="49.04594" lon="1.82531">
        <ele>78.6</ele>
        <time>2022-07-02T15:22:42Z</time>
      </trkpt>
      <trkpt lat="49.04595" lon="1.82541">
        <ele>78.2</ele>
        <time>2022-07-02T15:22:48Z</time>
      </trkpt>
      <trkpt lat="49.046" lon="1.82555">
        <ele>77.6</ele>
        <time>2022-07-02T15:22:55Z</time>
      </trkpt>
      <trkpt lat="49.04599" lon="1.82561">
        <ele>77.5</ele>
        <time>2022-07-02T15:22:59Z</time>
      </trkpt>
      <trkpt lat="49.04604" lon="1.82575">
        <ele>77.2</ele>
        <time>2022-07-02T15:23:08Z</time>
      </trkpt>
      <trkpt lat="49.04605" lon="1.82585">
        <ele>77.2</ele>
        <time>2022-07-02T15:23:15Z</time>
      </trkpt>
      <trkpt lat="49.04605" lon="1.82598">
        <ele>78</ele>
        <time>2022-07-02T15:23:22Z</time>
      </trkpt>
      <trkpt lat="49.04606" lon="1.82605">
        <ele>78.6</ele>
        <time>2022-07-02T15:23:29Z</time>
      </trkpt>
      <trkpt lat="49.04608" lon="1.82609">
        <ele>78.9</ele>
        <time>2022-07-02T15:23:37Z</time>
      </trkpt>
      <trkpt lat="49.04608" lon="1.82611">
        <ele>79</ele>
        <time>2022-07-02T15:23:51Z</time>
      </trkpt>
      <trkpt lat="49.04609" lon="1.82612">
        <ele>79.1</ele>
        <time>2022-07-02T15:24:04Z</time>
      </trkpt>
      <trkpt lat="49.0461" lon="1.82614">
        <ele>79.4</ele>
        <time>2022-07-02T15:24:07Z</time>
      </trkpt>
      <trkpt lat="49.04612" lon="1.82617">
        <ele>79.7</ele>
        <time>2022-07-02T15:24:10Z</time>
      </trkpt>
      <trkpt lat="49.04618" lon="1.82624">
        <ele>80.4</ele>
        <time>2022-07-02T15:24:17Z</time>
      </trkpt>
      <trkpt lat="49.04619" lon="1.82625">
        <ele>80.6</ele>
        <time>2022-07-02T15:24:23Z</time>
      </trkpt>
      <trkpt lat="49.04619" lon="1.82624">
        <ele>80.4</ele>
        <time>2022-07-02T15:24:35Z</time>
      </trkpt>
      <trkpt lat="49.04618" lon="1.82622">
        <ele>80.2</ele>
        <time>2022-07-02T15:24:40Z</time>
      </trkpt>
      <trkpt lat="49.0462" lon="1.8262">
        <ele>79.8</ele>
        <time>2022-07-02T15:24:43Z</time>
      </trkpt>
      <trkpt lat="49.04623" lon="1.82622">
        <ele>80</ele>
        <time>2022-07-02T15:24:50Z</time>
      </trkpt>
      <trkpt lat="49.04625" lon="1.82624">
        <ele>80.2</ele>
        <time>2022-07-02T15:24:53Z</time>
      </trkpt>
      <trkpt lat="49.04627" lon="1.82627">
        <ele>80.4</ele>
        <time>2022-07-02T15:24:56Z</time>
      </trkpt>
      <trkpt lat="49.04634" lon="1.82631">
        <ele>80.5</ele>
        <time>2022-07-02T15:25:04Z</time>
      </trkpt>
      <trkpt lat="49.04636" lon="1.82633">
        <ele>80.5</ele>
        <time>2022-07-02T15:25:06Z</time>
      </trkpt>
      <trkpt lat="49.04643" lon="1.82639">
        <ele>81.2</ele>
        <time>2022-07-02T15:25:15Z</time>
      </trkpt>
      <trkpt lat="49.04645" lon="1.82639">
        <ele>81.3</ele>
        <time>2022-07-02T15:25:18Z</time>
      </trkpt>
      <trkpt lat="49.04651" lon="1.82645">
        <ele>81.9</ele>
        <time>2022-07-02T15:25:25Z</time>
      </trkpt>
      <trkpt lat="49.04652" lon="1.82647">
        <ele>82</ele>
        <time>2022-07-02T15:25:28Z</time>
      </trkpt>
      <trkpt lat="49.04659" lon="1.8265">
        <ele>82.5</ele>
        <time>2022-07-02T15:25:36Z</time>
      </trkpt>
      <trkpt lat="49.04661" lon="1.82645">
        <ele>82.3</ele>
        <time>2022-07-02T15:25:45Z</time>
      </trkpt>
      <trkpt lat="49.04661" lon="1.82646">
        <ele>82.3</ele>
        <time>2022-07-02T15:25:46Z</time>
      </trkpt>
      <trkpt lat="49.04666" lon="1.82649">
        <ele>82.7</ele>
        <time>2022-07-02T15:25:52Z</time>
      </trkpt>
      <trkpt lat="49.04672" lon="1.82652">
        <ele>83.2</ele>
        <time>2022-07-02T15:25:59Z</time>
      </trkpt>
      <trkpt lat="49.04676" lon="1.82657">
        <ele>83.8</ele>
        <time>2022-07-02T15:26:03Z</time>
      </trkpt>
      <trkpt lat="49.0468" lon="1.82663">
        <ele>84.6</ele>
        <time>2022-07-02T15:26:11Z</time>
      </trkpt>
      <trkpt lat="49.04682" lon="1.82662">
        <ele>84.7</ele>
        <time>2022-07-02T15:26:13Z</time>
      </trkpt>
      <trkpt lat="49.04691" lon="1.82663">
        <ele>85.4</ele>
        <time>2022-07-02T15:26:22Z</time>
      </trkpt>
      <trkpt lat="49.04695" lon="1.82662">
        <ele>85.5</ele>
        <time>2022-07-02T15:26:26Z</time>
      </trkpt>
      <trkpt lat="49.04701" lon="1.82662">
        <ele>85.7</ele>
        <time>2022-07-02T15:26:33Z</time>
      </trkpt>
      <trkpt lat="49.04705" lon="1.82662">
        <ele>85.9</ele>
        <time>2022-07-02T15:26:39Z</time>
      </trkpt>
      <trkpt lat="49.04707" lon="1.82663">
        <ele>86</ele>
        <time>2022-07-02T15:26:41Z</time>
      </trkpt>
      <trkpt lat="49.04713" lon="1.8267">
        <ele>87</ele>
        <time>2022-07-02T15:26:47Z</time>
      </trkpt>
      <trkpt lat="49.04715" lon="1.82671">
        <ele>87.1</ele>
        <time>2022-07-02T15:26:53Z</time>
      </trkpt>
      <trkpt lat="49.04728" lon="1.82674">
        <ele>87.4</ele>
        <time>2022-07-02T15:27:02Z</time>
      </trkpt>
      <trkpt lat="49.04735" lon="1.82675">
        <ele>87.3</ele>
        <time>2022-07-02T15:27:11Z</time>
      </trkpt>
      <trkpt lat="49.04736" lon="1.82677">
        <ele>87.4</ele>
        <time>2022-07-02T15:27:20Z</time>
      </trkpt>
      <trkpt lat="49.04737" lon="1.82678">
        <ele>87.5</ele>
        <time>2022-07-02T15:27:31Z</time>
      </trkpt>
      <trkpt lat="49.04738" lon="1.8268">
        <ele>87.6</ele>
        <time>2022-07-02T15:27:39Z</time>
      </trkpt>
      <trkpt lat="49.04739" lon="1.8268">
        <ele>87.6</ele>
        <time>2022-07-02T15:27:53Z</time>
      </trkpt>
      <trkpt lat="49.04739" lon="1.82682">
        <ele>87.8</ele>
        <time>2022-07-02T15:28:00Z</time>
      </trkpt>
      <trkpt lat="49.0474" lon="1.82684">
        <ele>88</ele>
        <time>2022-07-02T15:28:06Z</time>
      </trkpt>
      <trkpt lat="49.04742" lon="1.8269">
        <ele>88.6</ele>
        <time>2022-07-02T15:28:17Z</time>
      </trkpt>
      <trkpt lat="49.04745" lon="1.82703">
        <ele>89.4</ele>
        <time>2022-07-02T15:28:24Z</time>
      </trkpt>
      <trkpt lat="49.04749" lon="1.82716">
        <ele>89.9</ele>
        <time>2022-07-02T15:28:31Z</time>
      </trkpt>
      <trkpt lat="49.04752" lon="1.82729">
        <ele>90.4</ele>
        <time>2022-07-02T15:28:38Z</time>
      </trkpt>
      <trkpt lat="49.04754" lon="1.82738">
        <ele>90.9</ele>
        <time>2022-07-02T15:28:43Z</time>
      </trkpt>
      <trkpt lat="49.04754" lon="1.82744">
        <ele>91.3</ele>
        <time>2022-07-02T15:28:47Z</time>
      </trkpt>
      <trkpt lat="49.04757" lon="1.82756">
        <ele>92.1</ele>
        <time>2022-07-02T15:28:55Z</time>
      </trkpt>
      <trkpt lat="49.04758" lon="1.82758">
        <ele>92.3</ele>
        <time>2022-07-02T15:29:00Z</time>
      </trkpt>
      <trkpt lat="49.04759" lon="1.82766">
        <ele>93.1</ele>
        <time>2022-07-02T15:29:07Z</time>
      </trkpt>
      <trkpt lat="49.04761" lon="1.8277">
        <ele>93.4</ele>
        <time>2022-07-02T15:29:10Z</time>
      </trkpt>
      <trkpt lat="49.04762" lon="1.82777">
        <ele>94.1</ele>
        <time>2022-07-02T15:29:15Z</time>
      </trkpt>
      <trkpt lat="49.04764" lon="1.82785">
        <ele>94.5</ele>
        <time>2022-07-02T15:29:20Z</time>
      </trkpt>
      <trkpt lat="49.04767" lon="1.82801">
        <ele>95.4</ele>
        <time>2022-07-02T15:29:30Z</time>
      </trkpt>
      <trkpt lat="49.04771" lon="1.82816">
        <ele>96.5</ele>
        <time>2022-07-02T15:29:39Z</time>
      </trkpt>
      <trkpt lat="49.04772" lon="1.82831">
        <ele>97.9</ele>
        <time>2022-07-02T15:29:47Z</time>
      </trkpt>
      <trkpt lat="49.04776" lon="1.82844">
        <ele>98.8</ele>
        <time>2022-07-02T15:29:54Z</time>
      </trkpt>
      <trkpt lat="49.04779" lon="1.82859">
        <ele>99.8</ele>
        <time>2022-07-02T15:30:02Z</time>
      </trkpt>
      <trkpt lat="49.04782" lon="1.82873">
        <ele>100.9</ele>
        <time>2022-07-02T15:30:09Z</time>
      </trkpt>
      <trkpt lat="49.04786" lon="1.8289">
        <ele>102.2</ele>
        <time>2022-07-02T15:30:19Z</time>
      </trkpt>
      <trkpt lat="49.04789" lon="1.82907">
        <ele>103.4</ele>
        <time>2022-07-02T15:30:28Z</time>
      </trkpt>
      <trkpt lat="49.04792" lon="1.82922">
        <ele>104.3</ele>
        <time>2022-07-02T15:30:37Z</time>
      </trkpt>
      <trkpt lat="49.04795" lon="1.82936">
        <ele>104.7</ele>
        <time>2022-07-02T15:30:44Z</time>
      </trkpt>
      <trkpt lat="49.04798" lon="1.82951">
        <ele>105.4</ele>
        <time>2022-07-02T15:30:52Z</time>
      </trkpt>
      <trkpt lat="49.04799" lon="1.8296">
        <ele>106.1</ele>
        <time>2022-07-02T15:30:57Z</time>
      </trkpt>
      <trkpt lat="49.048" lon="1.82964">
        <ele>106.4</ele>
        <time>2022-07-02T15:30:59Z</time>
      </trkpt>
      <trkpt lat="49.048" lon="1.82978">
        <ele>107.4</ele>
        <time>2022-07-02T15:31:06Z</time>
      </trkpt>
      <trkpt lat="49.04801" lon="1.82992">
        <ele>108</ele>
        <time>2022-07-02T15:31:13Z</time>
      </trkpt>
      <trkpt lat="49.04801" lon="1.82998">
        <ele>108.2</ele>
        <time>2022-07-02T15:31:16Z</time>
      </trkpt>
      <trkpt lat="49.04801" lon="1.83015">
        <ele>109.3</ele>
        <time>2022-07-02T15:31:26Z</time>
      </trkpt>
      <trkpt lat="49.048" lon="1.83032">
        <ele>110.5</ele>
        <time>2022-07-02T15:31:35Z</time>
      </trkpt>
      <trkpt lat="49.04801" lon="1.83046">
        <ele>111.4</ele>
        <time>2022-07-02T15:31:42Z</time>
      </trkpt>
      <trkpt lat="49.048" lon="1.83065">
        <ele>112.4</ele>
        <time>2022-07-02T15:31:51Z</time>
      </trkpt>
      <trkpt lat="49.04802" lon="1.8308">
        <ele>113</ele>
        <time>2022-07-02T15:31:59Z</time>
      </trkpt>
      <trkpt lat="49.04802" lon="1.83098">
        <ele>113.6</ele>
        <time>2022-07-02T15:32:08Z</time>
      </trkpt>
      <trkpt lat="49.04804" lon="1.83118">
        <ele>114.3</ele>
        <time>2022-07-02T15:32:18Z</time>
      </trkpt>
      <trkpt lat="49.04806" lon="1.83135">
        <ele>114.9</ele>
        <time>2022-07-02T15:32:27Z</time>
      </trkpt>
      <trkpt lat="49.04806" lon="1.83138">
        <ele>115</ele>
        <time>2022-07-02T15:32:28Z</time>
      </trkpt>
      <trkpt lat="49.04806" lon="1.83151">
        <ele>115.4</ele>
        <time>2022-07-02T15:32:35Z</time>
      </trkpt>
      <trkpt lat="49.0481" lon="1.83165">
        <ele>115.9</ele>
        <time>2022-07-02T15:32:42Z</time>
      </trkpt>
      <trkpt lat="49.04812" lon="1.83181">
        <ele>116.5</ele>
        <time>2022-07-02T15:32:50Z</time>
      </trkpt>
      <trkpt lat="49.04812" lon="1.83201">
        <ele>117.2</ele>
        <time>2022-07-02T15:33:00Z</time>
      </trkpt>
      <trkpt lat="49.04812" lon="1.83216">
        <ele>117.8</ele>
        <time>2022-07-02T15:33:09Z</time>
      </trkpt>
      <trkpt lat="49.04812" lon="1.83225">
        <ele>118.1</ele>
        <time>2022-07-02T15:33:14Z</time>
      </trkpt>
      <trkpt lat="49.04816" lon="1.83238">
        <ele>118.6</ele>
        <time>2022-07-02T15:33:23Z</time>
      </trkpt>
      <trkpt lat="49.04821" lon="1.83247">
        <ele>118.9</ele>
        <time>2022-07-02T15:33:32Z</time>
      </trkpt>
      <trkpt lat="49.04821" lon="1.83249">
        <ele>119</ele>
        <time>2022-07-02T15:33:39Z</time>
      </trkpt>
      <trkpt lat="49.04822" lon="1.83251">
        <ele>119</ele>
        <time>2022-07-02T15:33:41Z</time>
      </trkpt>
      <trkpt lat="49.04823" lon="1.83253">
        <ele>119.1</ele>
        <time>2022-07-02T15:33:43Z</time>
      </trkpt>
      <trkpt lat="49.04824" lon="1.83264">
        <ele>119.5</ele>
        <time>2022-07-02T15:33:51Z</time>
      </trkpt>
      <trkpt lat="49.04826" lon="1.83268">
        <ele>119.7</ele>
        <time>2022-07-02T15:33:57Z</time>
      </trkpt>
      <trkpt lat="49.04829" lon="1.83279">
        <ele>120</ele>
        <time>2022-07-02T15:34:04Z</time>
      </trkpt>
      <trkpt lat="49.04829" lon="1.83284">
        <ele>120.2</ele>
        <time>2022-07-02T15:34:07Z</time>
      </trkpt>
      <trkpt lat="49.04833" lon="1.83293">
        <ele>120.6</ele>
        <time>2022-07-02T15:34:13Z</time>
      </trkpt>
      <trkpt lat="49.04834" lon="1.83297">
        <ele>120.7</ele>
        <time>2022-07-02T15:34:15Z</time>
      </trkpt>
      <trkpt lat="49.04837" lon="1.83309">
        <ele>121.1</ele>
        <time>2022-07-02T15:34:22Z</time>
      </trkpt>
      <trkpt lat="49.0484" lon="1.83323">
        <ele>121.6</ele>
        <time>2022-07-02T15:34:30Z</time>
      </trkpt>
      <trkpt lat="49.04844" lon="1.83337">
        <ele>122.1</ele>
        <time>2022-07-02T15:34:39Z</time>
      </trkpt>
      <trkpt lat="49.04848" lon="1.83352">
        <ele>122.7</ele>
        <time>2022-07-02T15:34:48Z</time>
      </trkpt>
      <trkpt lat="49.04851" lon="1.83364">
        <ele>123.1</ele>
        <time>2022-07-02T15:34:55Z</time>
      </trkpt>
      <trkpt lat="49.04854" lon="1.83372">
        <ele>123.4</ele>
        <time>2022-07-02T15:35:00Z</time>
      </trkpt>
      <trkpt lat="49.04855" lon="1.83381">
        <ele>123.7</ele>
        <time>2022-07-02T15:35:05Z</time>
      </trkpt>
      <trkpt lat="49.04858" lon="1.83393">
        <ele>124</ele>
        <time>2022-07-02T15:35:12Z</time>
      </trkpt>
      <trkpt lat="49.04861" lon="1.8341">
        <ele>124</ele>
        <time>2022-07-02T15:35:21Z</time>
      </trkpt>
      <trkpt lat="49.04866" lon="1.83425">
        <ele>124.9</ele>
        <time>2022-07-02T15:35:29Z</time>
      </trkpt>
      <trkpt lat="49.04867" lon="1.8343">
        <ele>125.3</ele>
        <time>2022-07-02T15:35:32Z</time>
      </trkpt>
      <trkpt lat="49.0487" lon="1.83444">
        <ele>126.3</ele>
        <time>2022-07-02T15:35:40Z</time>
      </trkpt>
      <trkpt lat="49.04875" lon="1.83461">
        <ele>127.7</ele>
        <time>2022-07-02T15:35:50Z</time>
      </trkpt>
      <trkpt lat="49.04878" lon="1.83474">
        <ele>128.7</ele>
        <time>2022-07-02T15:35:57Z</time>
      </trkpt>
      <trkpt lat="49.0488" lon="1.83485">
        <ele>129.3</ele>
        <time>2022-07-02T15:36:03Z</time>
      </trkpt>
      <trkpt lat="49.04881" lon="1.83486">
        <ele>129.4</ele>
        <time>2022-07-02T15:36:04Z</time>
      </trkpt>
      <trkpt lat="49.04887" lon="1.83502">
        <ele>130.1</ele>
        <time>2022-07-02T15:36:14Z</time>
      </trkpt>
      <trkpt lat="49.04892" lon="1.83516">
        <ele>131.3</ele>
        <time>2022-07-02T15:36:23Z</time>
      </trkpt>
      <trkpt lat="49.04896" lon="1.83526">
        <ele>132.1</ele>
        <time>2022-07-02T15:36:29Z</time>
      </trkpt>
      <trkpt lat="49.04898" lon="1.83535">
        <ele>132.8</ele>
        <time>2022-07-02T15:36:35Z</time>
      </trkpt>
      <trkpt lat="49.049" lon="1.83539">
        <ele>133.2</ele>
        <time>2022-07-02T15:36:40Z</time>
      </trkpt>
      <trkpt lat="49.04901" lon="1.83542">
        <ele>133.5</ele>
        <time>2022-07-02T15:36:42Z</time>
      </trkpt>
      <trkpt lat="49.04902" lon="1.8355">
        <ele>134.1</ele>
        <time>2022-07-02T15:36:47Z</time>
      </trkpt>
      <trkpt lat="49.04908" lon="1.83559">
        <ele>134.9</ele>
        <time>2022-07-02T15:36:55Z</time>
      </trkpt>
      <trkpt lat="49.04909" lon="1.8356">
        <ele>135.1</ele>
        <time>2022-07-02T15:36:56Z</time>
      </trkpt>
      <trkpt lat="49.04915" lon="1.8357">
        <ele>136</ele>
        <time>2022-07-02T15:37:03Z</time>
      </trkpt>
      <trkpt lat="49.04922" lon="1.83579">
        <ele>136.9</ele>
        <time>2022-07-02T15:37:11Z</time>
      </trkpt>
      <trkpt lat="49.04927" lon="1.83585">
        <ele>137.5</ele>
        <time>2022-07-02T15:37:19Z</time>
      </trkpt>
      <trkpt lat="49.04933" lon="1.83592">
        <ele>138.2</ele>
        <time>2022-07-02T15:37:26Z</time>
      </trkpt>
      <trkpt lat="49.04933" lon="1.83592">
        <ele>138.2</ele>
        <time>2022-07-02T15:37:27Z</time>
      </trkpt>
      <trkpt lat="49.04941" lon="1.836">
        <ele>139.1</ele>
        <time>2022-07-02T15:37:36Z</time>
      </trkpt>
      <trkpt lat="49.04947" lon="1.83604">
        <ele>139.6</ele>
        <time>2022-07-02T15:37:43Z</time>
      </trkpt>
      <trkpt lat="49.04951" lon="1.8361">
        <ele>140.2</ele>
        <time>2022-07-02T15:37:48Z</time>
      </trkpt>
      <trkpt lat="49.04954" lon="1.83615">
        <ele>140.7</ele>
        <time>2022-07-02T15:37:57Z</time>
      </trkpt>
      <trkpt lat="49.04958" lon="1.83621">
        <ele>141.5</ele>
        <time>2022-07-02T15:38:02Z</time>
      </trkpt>
      <trkpt lat="49.04961" lon="1.83624">
        <ele>141.9</ele>
        <time>2022-07-02T15:38:09Z</time>
      </trkpt>
      <trkpt lat="49.04961" lon="1.83625">
        <ele>142.1</ele>
        <time>2022-07-02T15:38:23Z</time>
      </trkpt>
      <trkpt lat="49.04962" lon="1.83628">
        <ele>142.5</ele>
        <time>2022-07-02T15:38:39Z</time>
      </trkpt>
      <trkpt lat="49.04963" lon="1.83629">
        <ele>142.6</ele>
        <time>2022-07-02T15:38:47Z</time>
      </trkpt>
      <trkpt lat="49.04964" lon="1.83633">
        <ele>143.1</ele>
        <time>2022-07-02T15:38:53Z</time>
      </trkpt>
      <trkpt lat="49.04964" lon="1.83635">
        <ele>143.3</ele>
        <time>2022-07-02T15:38:54Z</time>
      </trkpt>
      <trkpt lat="49.04965" lon="1.8364">
        <ele>143.8</ele>
        <time>2022-07-02T15:38:57Z</time>
      </trkpt>
      <trkpt lat="49.04966" lon="1.83647">
        <ele>144.4</ele>
        <time>2022-07-02T15:39:03Z</time>
      </trkpt>
      <trkpt lat="49.04962" lon="1.83659">
        <ele>145.3</ele>
        <time>2022-07-02T15:39:10Z</time>
      </trkpt>
      <trkpt lat="49.0496" lon="1.83663">
        <ele>145.7</ele>
        <time>2022-07-02T15:39:16Z</time>
      </trkpt>
      <trkpt lat="49.04957" lon="1.83661">
        <ele>145.5</ele>
        <time>2022-07-02T15:39:27Z</time>
      </trkpt>
      <trkpt lat="49.04957" lon="1.83661">
        <ele>145.5</ele>
        <time>2022-07-02T15:39:39Z</time>
      </trkpt>
      <trkpt lat="49.04955" lon="1.83662">
        <ele>145.6</ele>
        <time>2022-07-02T15:39:57Z</time>
      </trkpt>
      <trkpt lat="49.04955" lon="1.83662">
        <ele>145.6</ele>
        <time>2022-07-02T15:40:09Z</time>
      </trkpt>
      <trkpt lat="49.04955" lon="1.83663">
        <ele>145.6</ele>
        <time>2022-07-02T15:40:17Z</time>
      </trkpt>
      <trkpt lat="49.04952" lon="1.8367">
        <ele>146.2</ele>
        <time>2022-07-02T15:40:22Z</time>
      </trkpt>
      <trkpt lat="49.04948" lon="1.83679">
        <ele>147</ele>
        <time>2022-07-02T15:40:28Z</time>
      </trkpt>
      <trkpt lat="49.04941" lon="1.83685">
        <ele>147.1</ele>
        <time>2022-07-02T15:40:35Z</time>
      </trkpt>
      <trkpt lat="49.0494" lon="1.83695">
        <ele>147.7</ele>
        <time>2022-07-02T15:40:39Z</time>
      </trkpt>
      <trkpt lat="49.04943" lon="1.8371">
        <ele>149</ele>
        <time>2022-07-02T15:40:46Z</time>
      </trkpt>
      <trkpt lat="49.04944" lon="1.83721">
        <ele>149.8</ele>
        <time>2022-07-02T15:40:51Z</time>
      </trkpt>
      <trkpt lat="49.04943" lon="1.83734">
        <ele>151.2</ele>
        <time>2022-07-02T15:40:57Z</time>
      </trkpt>
      <trkpt lat="49.04942" lon="1.83739">
        <ele>151.7</ele>
        <time>2022-07-02T15:41:01Z</time>
      </trkpt>
      <trkpt lat="49.04942" lon="1.83751">
        <ele>152.9</ele>
        <time>2022-07-02T15:41:07Z</time>
      </trkpt>
      <trkpt lat="49.04942" lon="1.83761">
        <ele>153.6</ele>
        <time>2022-07-02T15:41:13Z</time>
      </trkpt>
      <trkpt lat="49.04944" lon="1.83773">
        <ele>154.6</ele>
        <time>2022-07-02T15:41:19Z</time>
      </trkpt>
      <trkpt lat="49.04943" lon="1.83775">
        <ele>154.7</ele>
        <time>2022-07-02T15:41:20Z</time>
      </trkpt>
      <trkpt lat="49.04944" lon="1.8379">
        <ele>156.3</ele>
        <time>2022-07-02T15:41:28Z</time>
      </trkpt>
      <trkpt lat="49.04944" lon="1.83797">
        <ele>157</ele>
        <time>2022-07-02T15:41:33Z</time>
      </trkpt>
      <trkpt lat="49.04942" lon="1.83808">
        <ele>158.1</ele>
        <time>2022-07-02T15:41:40Z</time>
      </trkpt>
      <trkpt lat="49.0494" lon="1.83815">
        <ele>158.5</ele>
        <time>2022-07-02T15:41:45Z</time>
      </trkpt>
      <trkpt lat="49.0494" lon="1.83823">
        <ele>159.1</ele>
        <time>2022-07-02T15:41:50Z</time>
      </trkpt>
      <trkpt lat="49.04939" lon="1.83831">
        <ele>159.7</ele>
        <time>2022-07-02T15:41:56Z</time>
      </trkpt>
      <trkpt lat="49.04936" lon="1.8384">
        <ele>160.2</ele>
        <time>2022-07-02T15:42:02Z</time>
      </trkpt>
      <trkpt lat="49.04935" lon="1.83849">
        <ele>160.8</ele>
        <time>2022-07-02T15:42:09Z</time>
      </trkpt>
      <trkpt lat="49.04936" lon="1.83859">
        <ele>161.6</ele>
        <time>2022-07-02T15:42:15Z</time>
      </trkpt>
      <trkpt lat="49.04936" lon="1.83868">
        <ele>162.3</ele>
        <time>2022-07-02T15:42:20Z</time>
      </trkpt>
      <trkpt lat="49.04933" lon="1.83876">
        <ele>162.9</ele>
        <time>2022-07-02T15:42:26Z</time>
      </trkpt>
      <trkpt lat="49.04931" lon="1.83881">
        <ele>163.3</ele>
        <time>2022-07-02T15:42:32Z</time>
      </trkpt>
      <trkpt lat="49.04932" lon="1.83893">
        <ele>164.3</ele>
        <time>2022-07-02T15:42:38Z</time>
      </trkpt>
      <trkpt lat="49.04929" lon="1.83903">
        <ele>165</ele>
        <time>2022-07-02T15:42:43Z</time>
      </trkpt>
      <trkpt lat="49.04928" lon="1.83911">
        <ele>165.6</ele>
        <time>2022-07-02T15:42:50Z</time>
      </trkpt>
      <trkpt lat="49.04928" lon="1.83917">
        <ele>166</ele>
        <time>2022-07-02T15:42:52Z</time>
      </trkpt>
      <trkpt lat="49.04925" lon="1.83929">
        <ele>167</ele>
        <time>2022-07-02T15:42:58Z</time>
      </trkpt>
      <trkpt lat="49.04922" lon="1.83944">
        <ele>168.2</ele>
        <time>2022-07-02T15:43:05Z</time>
      </trkpt>
      <trkpt lat="49.04921" lon="1.83949">
        <ele>168.5</ele>
        <time>2022-07-02T15:43:07Z</time>
      </trkpt>
      <trkpt lat="49.04919" lon="1.83964">
        <ele>169.4</ele>
        <time>2022-07-02T15:43:14Z</time>
      </trkpt>
      <trkpt lat="49.04919" lon="1.83976">
        <ele>170.2</ele>
        <time>2022-07-02T15:43:20Z</time>
      </trkpt>
      <trkpt lat="49.04917" lon="1.83982">
        <ele>170.4</ele>
        <time>2022-07-02T15:43:24Z</time>
      </trkpt>
      <trkpt lat="49.04912" lon="1.83998">
        <ele>170.6</ele>
        <time>2022-07-02T15:43:32Z</time>
      </trkpt>
      <trkpt lat="49.04911" lon="1.84012">
        <ele>171</ele>
        <time>2022-07-02T15:43:40Z</time>
      </trkpt>
      <trkpt lat="49.0491" lon="1.84019">
        <ele>171.2</ele>
        <time>2022-07-02T15:43:44Z</time>
      </trkpt>
      <trkpt lat="49.04905" lon="1.84032">
        <ele>171.3</ele>
        <time>2022-07-02T15:43:51Z</time>
      </trkpt>
      <trkpt lat="49.04903" lon="1.84041">
        <ele>171.5</ele>
        <time>2022-07-02T15:43:58Z</time>
      </trkpt>
      <trkpt lat="49.04902" lon="1.84049">
        <ele>171.7</ele>
        <time>2022-07-02T15:44:04Z</time>
      </trkpt>
      <trkpt lat="49.04898" lon="1.84065">
        <ele>172</ele>
        <time>2022-07-02T15:44:13Z</time>
      </trkpt>
      <trkpt lat="49.04897" lon="1.84074">
        <ele>172.2</ele>
        <time>2022-07-02T15:44:17Z</time>
      </trkpt>
      <trkpt lat="49.04896" lon="1.84079">
        <ele>172.4</ele>
        <time>2022-07-02T15:44:20Z</time>
      </trkpt>
      <trkpt lat="49.04898" lon="1.84084">
        <ele>172.7</ele>
        <time>2022-07-02T15:44:23Z</time>
      </trkpt>
      <trkpt lat="49.04899" lon="1.84093">
        <ele>173.1</ele>
        <time>2022-07-02T15:44:28Z</time>
      </trkpt>
      <trkpt lat="49.04899" lon="1.84105">
        <ele>173.5</ele>
        <time>2022-07-02T15:44:35Z</time>
      </trkpt>
      <trkpt lat="49.04899" lon="1.84105">
        <ele>173.5</ele>
        <time>2022-07-02T15:44:36Z</time>
      </trkpt>
      <trkpt lat="49.049" lon="1.84113">
        <ele>173.8</ele>
        <time>2022-07-02T15:44:42Z</time>
      </trkpt>
      <trkpt lat="49.049" lon="1.84119">
        <ele>173.9</ele>
        <time>2022-07-02T15:44:46Z</time>
      </trkpt>
      <trkpt lat="49.049" lon="1.84124">
        <ele>174</ele>
        <time>2022-07-02T15:44:49Z</time>
      </trkpt>
      <trkpt lat="49.04899" lon="1.84139">
        <ele>174.1</ele>
        <time>2022-07-02T15:44:58Z</time>
      </trkpt>
      <trkpt lat="49.04899" lon="1.84153">
        <ele>174.1</ele>
        <time>2022-07-02T15:45:05Z</time>
      </trkpt>
      <trkpt lat="49.04902" lon="1.84167">
        <ele>174.4</ele>
        <time>2022-07-02T15:45:11Z</time>
      </trkpt>
      <trkpt lat="49.049" lon="1.84176">
        <ele>174.2</ele>
        <time>2022-07-02T15:45:16Z</time>
      </trkpt>
      <trkpt lat="49.049" lon="1.84179">
        <ele>174.3</ele>
        <time>2022-07-02T15:45:18Z</time>
      </trkpt>
      <trkpt lat="49.04899" lon="1.8419">
        <ele>174</ele>
        <time>2022-07-02T15:45:24Z</time>
      </trkpt>
      <trkpt lat="49.04895" lon="1.84201">
        <ele>173.7</ele>
        <time>2022-07-02T15:45:31Z</time>
      </trkpt>
      <trkpt lat="49.04895" lon="1.84213">
        <ele>173.7</ele>
        <time>2022-07-02T15:45:38Z</time>
      </trkpt>
      <trkpt lat="49.04895" lon="1.84215">
        <ele>173.7</ele>
        <time>2022-07-02T15:45:39Z</time>
      </trkpt>
      <trkpt lat="49.04895" lon="1.84226">
        <ele>173.5</ele>
        <time>2022-07-02T15:45:45Z</time>
      </trkpt>
      <trkpt lat="49.04894" lon="1.84231">
        <ele>173.2</ele>
        <time>2022-07-02T15:45:49Z</time>
      </trkpt>
      <trkpt lat="49.04891" lon="1.84245">
        <ele>172.5</ele>
        <time>2022-07-02T15:45:55Z</time>
      </trkpt>
      <trkpt lat="49.04888" lon="1.84259">
        <ele>171.9</ele>
        <time>2022-07-02T15:46:00Z</time>
      </trkpt>
      <trkpt lat="49.04888" lon="1.84265">
        <ele>171.9</ele>
        <time>2022-07-02T15:46:03Z</time>
      </trkpt>
      <trkpt lat="49.04888" lon="1.84272">
        <ele>171.9</ele>
        <time>2022-07-02T15:46:07Z</time>
      </trkpt>
      <trkpt lat="49.04888" lon="1.84282">
        <ele>171.7</ele>
        <time>2022-07-02T15:46:15Z</time>
      </trkpt>
      <trkpt lat="49.04888" lon="1.84285">
        <ele>171.5</ele>
        <time>2022-07-02T15:46:17Z</time>
      </trkpt>
      <trkpt lat="49.04887" lon="1.84297">
        <ele>171</ele>
        <time>2022-07-02T15:46:21Z</time>
      </trkpt>
      <trkpt lat="49.04888" lon="1.84302">
        <ele>170.9</ele>
        <time>2022-07-02T15:46:23Z</time>
      </trkpt>
      <trkpt lat="49.04891" lon="1.84319">
        <ele>170.7</ele>
        <time>2022-07-02T15:46:31Z</time>
      </trkpt>
      <trkpt lat="49.04893" lon="1.84327">
        <ele>170.7</ele>
        <time>2022-07-02T15:46:36Z</time>
      </trkpt>
      <trkpt lat="49.04897" lon="1.84339">
        <ele>170.5</ele>
        <time>2022-07-02T15:46:43Z</time>
      </trkpt>
      <trkpt lat="49.049" lon="1.84348">
        <ele>170.1</ele>
        <time>2022-07-02T15:46:49Z</time>
      </trkpt>
      <trkpt lat="49.04902" lon="1.84355">
        <ele>169.9</ele>
        <time>2022-07-02T15:46:56Z</time>
      </trkpt>
      <trkpt lat="49.04904" lon="1.84356">
        <ele>169.9</ele>
        <time>2022-07-02T15:47:06Z</time>
      </trkpt>
      <trkpt lat="49.04906" lon="1.84359">
        <ele>170</ele>
        <time>2022-07-02T15:47:15Z</time>
      </trkpt>
      <trkpt lat="49.04907" lon="1.84362">
        <ele>169.9</ele>
        <time>2022-07-02T15:47:27Z</time>
      </trkpt>
      <trkpt lat="49.04907" lon="1.84365">
        <ele>169.8</ele>
        <time>2022-07-02T15:47:37Z</time>
      </trkpt>
      <trkpt lat="49.04907" lon="1.84366">
        <ele>169.7</ele>
        <time>2022-07-02T15:47:46Z</time>
      </trkpt>
      <trkpt lat="49.04907" lon="1.84366">
        <ele>169.7</ele>
        <time>2022-07-02T15:47:47Z</time>
      </trkpt>
      <trkpt lat="49.04908" lon="1.84369">
        <ele>169.6</ele>
        <time>2022-07-02T15:47:53Z</time>
      </trkpt>
      <trkpt lat="49.04909" lon="1.8437">
        <ele>169.6</ele>
        <time>2022-07-02T15:48:02Z</time>
      </trkpt>
      <trkpt lat="49.0491" lon="1.84373">
        <ele>169.5</ele>
        <time>2022-07-02T15:48:15Z</time>
      </trkpt>
      <trkpt lat="49.04914" lon="1.84377">
        <ele>169.7</ele>
        <time>2022-07-02T15:48:21Z</time>
      </trkpt>
      <trkpt lat="49.04914" lon="1.84378">
        <ele>169.6</ele>
        <time>2022-07-02T15:48:22Z</time>
      </trkpt>
      <trkpt lat="49.04915" lon="1.84384">
        <ele>169.2</ele>
        <time>2022-07-02T15:48:27Z</time>
      </trkpt>
      <trkpt lat="49.04915" lon="1.84394">
        <ele>168.7</ele>
        <time>2022-07-02T15:48:34Z</time>
      </trkpt>
      <trkpt lat="49.04916" lon="1.84405">
        <ele>168.3</ele>
        <time>2022-07-02T15:48:41Z</time>
      </trkpt>
      <trkpt lat="49.04917" lon="1.84409">
        <ele>168.3</ele>
        <time>2022-07-02T15:48:43Z</time>
      </trkpt>
      <trkpt lat="49.04917" lon="1.84416">
        <ele>168</ele>
        <time>2022-07-02T15:48:47Z</time>
      </trkpt>
      <trkpt lat="49.04919" lon="1.84424">
        <ele>167.6</ele>
        <time>2022-07-02T15:48:51Z</time>
      </trkpt>
      <trkpt lat="49.04919" lon="1.84436">
        <ele>166.7</ele>
        <time>2022-07-02T15:48:59Z</time>
      </trkpt>
      <trkpt lat="49.04918" lon="1.84438">
        <ele>166.5</ele>
        <time>2022-07-02T15:49:07Z</time>
      </trkpt>
      <trkpt lat="49.04918" lon="1.84439">
        <ele>166.5</ele>
        <time>2022-07-02T15:49:08Z</time>
      </trkpt>
      <trkpt lat="49.04919" lon="1.84448">
        <ele>165.8</ele>
        <time>2022-07-02T15:49:14Z</time>
      </trkpt>
      <trkpt lat="49.04919" lon="1.84463">
        <ele>164.8</ele>
        <time>2022-07-02T15:49:22Z</time>
      </trkpt>
      <trkpt lat="49.0492" lon="1.84465">
        <ele>164.7</ele>
        <time>2022-07-02T15:49:23Z</time>
      </trkpt>
      <trkpt lat="49.0492" lon="1.84472">
        <ele>164.1</ele>
        <time>2022-07-02T15:49:28Z</time>
      </trkpt>
      <trkpt lat="49.0492" lon="1.84484">
        <ele>163.7</ele>
        <time>2022-07-02T15:49:36Z</time>
      </trkpt>
      <trkpt lat="49.04921" lon="1.84494">
        <ele>163.3</ele>
        <time>2022-07-02T15:49:42Z</time>
      </trkpt>
      <trkpt lat="49.04921" lon="1.84496">
        <ele>163.3</ele>
        <time>2022-07-02T15:49:43Z</time>
      </trkpt>
      <trkpt lat="49.04921" lon="1.84501">
        <ele>163.1</ele>
        <time>2022-07-02T15:49:47Z</time>
      </trkpt>
      <trkpt lat="49.04919" lon="1.84509">
        <ele>162.7</ele>
        <time>2022-07-02T15:49:51Z</time>
      </trkpt>
      <trkpt lat="49.0492" lon="1.84523">
        <ele>162.2</ele>
        <time>2022-07-02T15:49:59Z</time>
      </trkpt>
      <trkpt lat="49.0492" lon="1.8453">
        <ele>161.9</ele>
        <time>2022-07-02T15:50:03Z</time>
      </trkpt>
      <trkpt lat="49.04922" lon="1.84545">
        <ele>161.4</ele>
        <time>2022-07-02T15:50:11Z</time>
      </trkpt>
      <trkpt lat="49.04922" lon="1.84549">
        <ele>161.2</ele>
        <time>2022-07-02T15:50:13Z</time>
      </trkpt>
      <trkpt lat="49.04923" lon="1.84552">
        <ele>161.1</ele>
        <time>2022-07-02T15:50:16Z</time>
      </trkpt>
      <trkpt lat="49.04924" lon="1.84559">
        <ele>160.9</ele>
        <time>2022-07-02T15:50:23Z</time>
      </trkpt>
      <trkpt lat="49.04925" lon="1.8456">
        <ele>160.8</ele>
        <time>2022-07-02T15:50:37Z</time>
      </trkpt>
      <trkpt lat="49.04925" lon="1.84562">
        <ele>160.8</ele>
        <time>2022-07-02T15:50:45Z</time>
      </trkpt>
      <trkpt lat="49.04925" lon="1.84564">
        <ele>160.7</ele>
        <time>2022-07-02T15:50:58Z</time>
      </trkpt>
      <trkpt lat="49.04926" lon="1.84567">
        <ele>160.6</ele>
        <time>2022-07-02T15:51:05Z</time>
      </trkpt>
      <trkpt lat="49.04926" lon="1.84567">
        <ele>160.6</ele>
        <time>2022-07-02T15:51:20Z</time>
      </trkpt>
      <trkpt lat="49.04926" lon="1.84569">
        <ele>160.5</ele>
        <time>2022-07-02T15:51:27Z</time>
      </trkpt>
      <trkpt lat="49.04926" lon="1.84569">
        <ele>160.5</ele>
        <time>2022-07-02T15:51:41Z</time>
      </trkpt>
      <trkpt lat="49.04925" lon="1.84569">
        <ele>160.5</ele>
        <time>2022-07-02T15:51:49Z</time>
      </trkpt>
      <trkpt lat="49.04925" lon="1.84567">
        <ele>160.6</ele>
        <time>2022-07-02T15:52:01Z</time>
      </trkpt>
      <trkpt lat="49.04925" lon="1.84566">
        <ele>160.6</ele>
        <time>2022-07-02T15:52:16Z</time>
      </trkpt>
      <trkpt lat="49.04924" lon="1.84567">
        <ele>160.6</ele>
        <time>2022-07-02T15:52:21Z</time>
      </trkpt>
      <trkpt lat="49.04925" lon="1.84566">
        <ele>160.6</ele>
        <time>2022-07-02T15:52:27Z</time>
      </trkpt>
      <trkpt lat="49.04925" lon="1.84566">
        <ele>160.6</ele>
        <time>2022-07-02T15:52:41Z</time>
      </trkpt>
      <trkpt lat="49.04926" lon="1.84565">
        <ele>160.6</ele>
        <time>2022-07-02T15:52:56Z</time>
      </trkpt>
      <trkpt lat="49.04926" lon="1.84565">
        <ele>160.7</ele>
        <time>2022-07-02T15:53:09Z</time>
      </trkpt>
      <trkpt lat="49.04926" lon="1.84567">
        <ele>160.6</ele>
        <time>2022-07-02T15:53:23Z</time>
      </trkpt>
      <trkpt lat="49.04926" lon="1.84569">
        <ele>160.5</ele>
        <time>2022-07-02T15:53:31Z</time>
      </trkpt>
      <trkpt lat="49.04926" lon="1.84569">
        <ele>160.5</ele>
        <time>2022-07-02T15:53:45Z</time>
      </trkpt>
      <trkpt lat="49.04926" lon="1.84572">
        <ele>160.4</ele>
        <time>2022-07-02T15:53:52Z</time>
      </trkpt>
      <trkpt lat="49.04927" lon="1.84586">
        <ele>159.9</ele>
        <time>2022-07-02T15:54:01Z</time>
      </trkpt>
      <trkpt lat="49.04929" lon="1.84598">
        <ele>159.5</ele>
        <time>2022-07-02T15:54:08Z</time>
      </trkpt>
      <trkpt lat="49.0493" lon="1.84612">
        <ele>158.9</ele>
        <time>2022-07-02T15:54:16Z</time>
      </trkpt>
      <trkpt lat="49.04931" lon="1.84623">
        <ele>158.3</ele>
        <time>2022-07-02T15:54:22Z</time>
      </trkpt>
      <trkpt lat="49.04933" lon="1.84635">
        <ele>157.6</ele>
        <time>2022-07-02T15:54:28Z</time>
      </trkpt>
      <trkpt lat="49.0493" lon="1.84645">
        <ele>157.2</ele>
        <time>2022-07-02T15:54:35Z</time>
      </trkpt>
      <trkpt lat="49.04927" lon="1.84652">
        <ele>156.9</ele>
        <time>2022-07-02T15:54:39Z</time>
      </trkpt>
      <trkpt lat="49.04923" lon="1.84664">
        <ele>156.1</ele>
        <time>2022-07-02T15:54:47Z</time>
      </trkpt>
      <trkpt lat="49.04923" lon="1.84666">
        <ele>156</ele>
        <time>2022-07-02T15:54:48Z</time>
      </trkpt>
      <trkpt lat="49.0492" lon="1.84675">
        <ele>155.7</ele>
        <time>2022-07-02T15:54:53Z</time>
      </trkpt>
      <trkpt lat="49.04915" lon="1.8469">
        <ele>155.1</ele>
        <time>2022-07-02T15:55:01Z</time>
      </trkpt>
      <trkpt lat="49.04914" lon="1.84703">
        <ele>154.7</ele>
        <time>2022-07-02T15:55:08Z</time>
      </trkpt>
      <trkpt lat="49.04914" lon="1.84705">
        <ele>154.6</ele>
        <time>2022-07-02T15:55:09Z</time>
      </trkpt>
      <trkpt lat="49.04907" lon="1.8472">
        <ele>154.1</ele>
        <time>2022-07-02T15:55:19Z</time>
      </trkpt>
      <trkpt lat="49.04899" lon="1.84727">
        <ele>153.7</ele>
        <time>2022-07-02T15:55:26Z</time>
      </trkpt>
      <trkpt lat="49.0489" lon="1.8473">
        <ele>153.4</ele>
        <time>2022-07-02T15:55:33Z</time>
      </trkpt>
      <trkpt lat="49.04881" lon="1.84732">
        <ele>152.9</ele>
        <time>2022-07-02T15:55:40Z</time>
      </trkpt>
      <trkpt lat="49.04873" lon="1.84731">
        <ele>152.4</ele>
        <time>2022-07-02T15:55:47Z</time>
      </trkpt>
      <trkpt lat="49.04872" lon="1.84731">
        <ele>152.3</ele>
        <time>2022-07-02T15:55:48Z</time>
      </trkpt>
      <trkpt lat="49.04863" lon="1.84734">
        <ele>151.7</ele>
        <time>2022-07-02T15:55:56Z</time>
      </trkpt>
      <trkpt lat="49.0485" lon="1.84734">
        <ele>150.8</ele>
        <time>2022-07-02T15:56:06Z</time>
      </trkpt>
      <trkpt lat="49.04839" lon="1.84735">
        <ele>149.9</ele>
        <time>2022-07-02T15:56:14Z</time>
      </trkpt>
      <trkpt lat="49.04828" lon="1.84736">
        <ele>149.2</ele>
        <time>2022-07-02T15:56:23Z</time>
      </trkpt>
      <trkpt lat="49.04817" lon="1.84737">
        <ele>148.6</ele>
        <time>2022-07-02T15:56:31Z</time>
      </trkpt>
      <trkpt lat="49.04807" lon="1.84737">
        <ele>148.1</ele>
        <time>2022-07-02T15:56:38Z</time>
      </trkpt>
      <trkpt lat="49.048" lon="1.84736">
        <ele>147.7</ele>
        <time>2022-07-02T15:56:45Z</time>
      </trkpt>
      <trkpt lat="49.04798" lon="1.84737">
        <ele>147.6</ele>
        <time>2022-07-02T15:56:46Z</time>
      </trkpt>
      <trkpt lat="49.04789" lon="1.84738">
        <ele>147.1</ele>
        <time>2022-07-02T15:56:54Z</time>
      </trkpt>
      <trkpt lat="49.04779" lon="1.84737">
        <ele>146.5</ele>
        <time>2022-07-02T15:57:01Z</time>
      </trkpt>
      <trkpt lat="49.04775" lon="1.84735">
        <ele>146.4</ele>
        <time>2022-07-02T15:57:08Z</time>
      </trkpt>
      <trkpt lat="49.04771" lon="1.8474">
        <ele>146</ele>
        <time>2022-07-02T15:57:12Z</time>
      </trkpt>
      <trkpt lat="49.04763" lon="1.84746">
        <ele>145.5</ele>
        <time>2022-07-02T15:57:20Z</time>
      </trkpt>
      <trkpt lat="49.04758" lon="1.8475">
        <ele>145.3</ele>
        <time>2022-07-02T15:57:26Z</time>
      </trkpt>
      <trkpt lat="49.04756" lon="1.8476">
        <ele>144.6</ele>
        <time>2022-07-02T15:57:32Z</time>
      </trkpt>
      <trkpt lat="49.04752" lon="1.84767">
        <ele>143.8</ele>
        <time>2022-07-02T15:57:39Z</time>
      </trkpt>
      <trkpt lat="49.04747" lon="1.84777">
        <ele>143</ele>
        <time>2022-07-02T15:57:47Z</time>
      </trkpt>
      <trkpt lat="49.04747" lon="1.84779">
        <ele>142.8</ele>
        <time>2022-07-02T15:57:49Z</time>
      </trkpt>
      <trkpt lat="49.04736" lon="1.84793">
        <ele>141.9</ele>
        <time>2022-07-02T15:58:00Z</time>
      </trkpt>
      <trkpt lat="49.04732" lon="1.84799">
        <ele>141.6</ele>
        <time>2022-07-02T15:58:04Z</time>
      </trkpt>
      <trkpt lat="49.04725" lon="1.84811">
        <ele>140.9</ele>
        <time>2022-07-02T15:58:12Z</time>
      </trkpt>
      <trkpt lat="49.0472" lon="1.8482">
        <ele>140.3</ele>
        <time>2022-07-02T15:58:18Z</time>
      </trkpt>
      <trkpt lat="49.04716" lon="1.84829">
        <ele>139.7</ele>
        <time>2022-07-02T15:58:24Z</time>
      </trkpt>
      <trkpt lat="49.04712" lon="1.84837">
        <ele>139</ele>
        <time>2022-07-02T15:58:28Z</time>
      </trkpt>
      <trkpt lat="49.04709" lon="1.84847">
        <ele>137.9</ele>
        <time>2022-07-02T15:58:34Z</time>
      </trkpt>
      <trkpt lat="49.04703" lon="1.8486">
        <ele>136.1</ele>
        <time>2022-07-02T15:58:42Z</time>
      </trkpt>
      <trkpt lat="49.04702" lon="1.84872">
        <ele>135.4</ele>
        <time>2022-07-02T15:58:49Z</time>
      </trkpt>
      <trkpt lat="49.04702" lon="1.84874">
        <ele>135.2</ele>
        <time>2022-07-02T15:58:50Z</time>
      </trkpt>
      <trkpt lat="49.04701" lon="1.84877">
        <ele>135</ele>
        <time>2022-07-02T15:58:52Z</time>
      </trkpt>
      <trkpt lat="49.047" lon="1.84887">
        <ele>134.5</ele>
        <time>2022-07-02T15:58:58Z</time>
      </trkpt>
      <trkpt lat="49.047" lon="1.84896">
        <ele>133.9</ele>
        <time>2022-07-02T15:59:05Z</time>
      </trkpt>
      <trkpt lat="49.047" lon="1.84897">
        <ele>133.9</ele>
        <time>2022-07-02T15:59:08Z</time>
      </trkpt>
      <trkpt lat="49.04704" lon="1.84905">
        <ele>133.5</ele>
        <time>2022-07-02T15:59:13Z</time>
      </trkpt>
      <trkpt lat="49.04706" lon="1.84919">
        <ele>132.7</ele>
        <time>2022-07-02T15:59:21Z</time>
      </trkpt>
      <trkpt lat="49.04707" lon="1.84921">
        <ele>132.7</ele>
        <time>2022-07-02T15:59:22Z</time>
      </trkpt>
      <trkpt lat="49.04708" lon="1.84929">
        <ele>132.3</ele>
        <time>2022-07-02T15:59:26Z</time>
      </trkpt>
      <trkpt lat="49.0471" lon="1.84938">
        <ele>131.9</ele>
        <time>2022-07-02T15:59:31Z</time>
      </trkpt>
      <trkpt lat="49.04714" lon="1.84947">
        <ele>131.6</ele>
        <time>2022-07-02T15:59:36Z</time>
      </trkpt>
      <trkpt lat="49.04719" lon="1.84961">
        <ele>131.3</ele>
        <time>2022-07-02T15:59:45Z</time>
      </trkpt>
      <trkpt lat="49.04726" lon="1.84972">
        <ele>131.2</ele>
        <time>2022-07-02T15:59:52Z</time>
      </trkpt>
      <trkpt lat="49.04723" lon="1.84983">
        <ele>130.7</ele>
        <time>2022-07-02T15:59:58Z</time>
      </trkpt>
      <trkpt lat="49.04719" lon="1.84998">
        <ele>129.9</ele>
        <time>2022-07-02T16:00:06Z</time>
      </trkpt>
      <trkpt lat="49.04715" lon="1.85013">
        <ele>129.2</ele>
        <time>2022-07-02T16:00:14Z</time>
      </trkpt>
      <trkpt lat="49.04713" lon="1.85028">
        <ele>128.6</ele>
        <time>2022-07-02T16:00:21Z</time>
      </trkpt>
      <trkpt lat="49.04706" lon="1.85041">
        <ele>128.2</ele>
        <time>2022-07-02T16:00:29Z</time>
      </trkpt>
      <trkpt lat="49.04702" lon="1.85055">
        <ele>128</ele>
        <time>2022-07-02T16:00:37Z</time>
      </trkpt>
      <trkpt lat="49.04696" lon="1.8507">
        <ele>128</ele>
        <time>2022-07-02T16:00:45Z</time>
      </trkpt>
      <trkpt lat="49.04691" lon="1.85083">
        <ele>127.9</ele>
        <time>2022-07-02T16:00:53Z</time>
      </trkpt>
      <trkpt lat="49.04683" lon="1.85095">
        <ele>127.3</ele>
        <time>2022-07-02T16:01:02Z</time>
      </trkpt>
      <trkpt lat="49.04673" lon="1.85108">
        <ele>127</ele>
        <time>2022-07-02T16:01:12Z</time>
      </trkpt>
      <trkpt lat="49.04663" lon="1.85117">
        <ele>126.7</ele>
        <time>2022-07-02T16:01:21Z</time>
      </trkpt>
      <trkpt lat="49.04652" lon="1.85128">
        <ele>126.2</ele>
        <time>2022-07-02T16:01:31Z</time>
      </trkpt>
      <trkpt lat="49.04645" lon="1.85139">
        <ele>126</ele>
        <time>2022-07-02T16:01:40Z</time>
      </trkpt>
      <trkpt lat="49.04644" lon="1.85141">
        <ele>125.9</ele>
        <time>2022-07-02T16:01:41Z</time>
      </trkpt>
      <trkpt lat="49.04644" lon="1.85157">
        <ele>125.5</ele>
        <time>2022-07-02T16:01:50Z</time>
      </trkpt>
      <trkpt lat="49.04642" lon="1.85163">
        <ele>125.3</ele>
        <time>2022-07-02T16:01:53Z</time>
      </trkpt>
      <trkpt lat="49.04639" lon="1.85174">
        <ele>125</ele>
        <time>2022-07-02T16:02:01Z</time>
      </trkpt>
      <trkpt lat="49.04637" lon="1.85174">
        <ele>124.9</ele>
        <time>2022-07-02T16:02:07Z</time>
      </trkpt>
      <trkpt lat="49.04637" lon="1.85173">
        <ele>124.9</ele>
        <time>2022-07-02T16:02:13Z</time>
      </trkpt>
      <trkpt lat="49.04638" lon="1.85173">
        <ele>124.9</ele>
        <time>2022-07-02T16:02:23Z</time>
      </trkpt>
      <trkpt lat="49.04638" lon="1.85173">
        <ele>125</ele>
        <time>2022-07-02T16:02:39Z</time>
      </trkpt>
    </trkseg>
  </trk>
</gpx>